<?xml version='1.0' encoding='UTF-8'?><gpx version="1.1" creator="JPX - https://github.com/jenetics/jpx" xmlns="http://www.topografix.com/GPX/1/1"><trk><trkseg><trkpt lat="45.9836537" lon="11.7576039"><ele>319.0</ele><time>2026-04-12T07:10:36.73Z</time></trkpt><trkpt lat="45.9837262" lon="11.7575687"><ele>319.0</ele><time>2026-04-12T07:10:40.673Z</time></trkpt><trkpt lat="45.9837923" lon="11.7575207"><ele>319.0</ele><time>2026-04-12T07:10:44.73Z</time></trkpt><trkpt lat="45.9838146" lon="11.757414"><ele>319.0</ele><time>2026-04-12T07:10:49.716Z</time></trkpt><trkpt lat="45.983871" lon="11.7573663"><ele>319.0</ele><time>2026-04-12T07:10:53.658Z</time></trkpt><trkpt lat="45.983851" lon="11.757266"><ele>319.0</ele><time>2026-04-12T07:11:00.731Z</time></trkpt><trkpt lat="45.9839017" lon="11.7572121"><ele>319.0</ele><time>2026-04-12T07:11:08.731Z</time></trkpt><trkpt lat="45.9839314" lon="11.7571277"><ele>319.0</ele><time>2026-04-12T07:11:29.718Z</time></trkpt><trkpt lat="45.9839498" lon="11.7570366"><ele>319.0</ele><time>2026-04-12T07:11:31.688Z</time></trkpt><trkpt lat="45.9839737" lon="11.7569052"><ele>319.0</ele><time>2026-04-12T07:11:34.703Z</time></trkpt><trkpt lat="45.9839914" lon="11.7567947"><ele>319.0</ele><time>2026-04-12T07:11:36.675Z</time></trkpt><trkpt lat="45.9840232" lon="11.7566817"><ele>319.0</ele><time>2026-04-12T07:11:38.646Z</time></trkpt><trkpt lat="45.9840469" lon="11.7565667"><ele>319.0</ele><time>2026-04-12T07:11:40.732Z</time></trkpt><trkpt lat="45.9840679" lon="11.7564629"><ele>319.5714285714286</ele><time>2026-04-12T07:11:42.703Z</time></trkpt><trkpt lat="45.984067" lon="11.7563586"><ele>320.1428571428571</ele><time>2026-04-12T07:11:44.675Z</time></trkpt><trkpt lat="45.9840764" lon="11.7562464"><ele>320.7142857142857</ele><time>2026-04-12T07:11:47.689Z</time></trkpt><trkpt lat="45.9840802" lon="11.7561108"><ele>321.28571428571433</ele><time>2026-04-12T07:11:53.618Z</time></trkpt><trkpt lat="45.9841159" lon="11.7560333"><ele>321.8571428571429</ele><time>2026-04-12T07:11:57.617Z</time></trkpt><trkpt lat="45.9841626" lon="11.7559503"><ele>322.42857142857144</ele><time>2026-04-12T07:12:01.618Z</time></trkpt><trkpt lat="45.9842251" lon="11.7559314"><ele>323.0</ele><time>2026-04-12T07:12:04.619Z</time></trkpt><trkpt lat="45.9842778" lon="11.7558814"><ele>325.1666666666667</ele><time>2026-04-12T07:12:07.618Z</time></trkpt><trkpt lat="45.9843397" lon="11.7558264"><ele>327.33333333333337</ele><time>2026-04-12T07:12:11.618Z</time></trkpt><trkpt lat="45.9844094" lon="11.7557698"><ele>329.5</ele><time>2026-04-12T07:12:15.619Z</time></trkpt><trkpt lat="45.9844717" lon="11.7557056"><ele>331.6666666666667</ele><time>2026-04-12T07:12:19.619Z</time></trkpt><trkpt lat="45.9845493" lon="11.7556745"><ele>333.8333333333333</ele><time>2026-04-12T07:12:23.618Z</time></trkpt><trkpt lat="45.9846114" lon="11.7556025"><ele>336.0</ele><time>2026-04-12T07:12:28.618Z</time></trkpt><trkpt lat="45.9846739" lon="11.7555531"><ele>336.0</ele><time>2026-04-12T07:12:32.618Z</time></trkpt><trkpt lat="45.9847323" lon="11.7554874"><ele>336.0</ele><time>2026-04-12T07:12:37.619Z</time></trkpt><trkpt lat="45.9847917" lon="11.7554075"><ele>336.0</ele><time>2026-04-12T07:12:42.618Z</time></trkpt><trkpt lat="45.9848416" lon="11.755346"><ele>336.0</ele><time>2026-04-12T07:12:45.618Z</time></trkpt><trkpt lat="45.9848956" lon="11.7552751"><ele>336.0</ele><time>2026-04-12T07:12:50.619Z</time></trkpt><trkpt lat="45.9849483" lon="11.7552199"><ele>336.0</ele><time>2026-04-12T07:12:54.619Z</time></trkpt><trkpt lat="45.98499" lon="11.7551453"><ele>336.0</ele><time>2026-04-12T07:12:59.618Z</time></trkpt><trkpt lat="45.9850582" lon="11.7550965"><ele>338.57142857142856</ele><time>2026-04-12T07:13:04.619Z</time></trkpt><trkpt lat="45.9851008" lon="11.7550211"><ele>341.1428571428571</ele><time>2026-04-12T07:13:07.62Z</time></trkpt><trkpt lat="45.9851735" lon="11.7549933"><ele>343.7142857142857</ele><time>2026-04-12T07:13:11.62Z</time></trkpt><trkpt lat="45.9852306" lon="11.7549545"><ele>346.2857142857143</ele><time>2026-04-12T07:13:15.62Z</time></trkpt><trkpt lat="45.9853006" lon="11.7548969"><ele>348.85714285714283</ele><time>2026-04-12T07:13:19.619Z</time></trkpt><trkpt lat="45.985366" lon="11.7548586"><ele>351.42857142857144</ele><time>2026-04-12T07:13:24.619Z</time></trkpt><trkpt lat="45.9854163" lon="11.754798"><ele>354.0</ele><time>2026-04-12T07:13:28.619Z</time></trkpt><trkpt lat="45.9854559" lon="11.7547112"><ele>354.0</ele><time>2026-04-12T07:13:32.619Z</time></trkpt><trkpt lat="45.9854828" lon="11.754615"><ele>354.0</ele><time>2026-04-12T07:13:37.62Z</time></trkpt><trkpt lat="45.9854991" lon="11.7545083"><ele>354.0</ele><time>2026-04-12T07:13:41.62Z</time></trkpt><trkpt lat="45.9854833" lon="11.7543999"><ele>354.0</ele><time>2026-04-12T07:13:45.619Z</time></trkpt><trkpt lat="45.9854667" lon="11.7543026"><ele>354.0</ele><time>2026-04-12T07:13:49.619Z</time></trkpt><trkpt lat="45.9854524" lon="11.7542139"><ele>354.0</ele><time>2026-04-12T07:13:52.62Z</time></trkpt><trkpt lat="45.9854236" lon="11.7541133"><ele>354.0</ele><time>2026-04-12T07:13:56.62Z</time></trkpt><trkpt lat="45.9853945" lon="11.7540325"><ele>355.5</ele><time>2026-04-12T07:13:59.621Z</time></trkpt><trkpt lat="45.9853605" lon="11.7539366"><ele>357.0</ele><time>2026-04-12T07:14:03.619Z</time></trkpt><trkpt lat="45.9853295" lon="11.7538279"><ele>358.5</ele><time>2026-04-12T07:14:07.619Z</time></trkpt><trkpt lat="45.9852904" lon="11.7537281"><ele>360.0</ele><time>2026-04-12T07:14:11.619Z</time></trkpt><trkpt lat="45.9852582" lon="11.7536222"><ele>361.5</ele><time>2026-04-12T07:14:15.621Z</time></trkpt><trkpt lat="45.985226" lon="11.7535186"><ele>363.0</ele><time>2026-04-12T07:14:19.621Z</time></trkpt><trkpt lat="45.985201" lon="11.7534273"><ele>364.1428571428571</ele><time>2026-04-12T07:14:23.621Z</time></trkpt><trkpt lat="45.985168" lon="11.753343"><ele>365.2857142857143</ele><time>2026-04-12T07:14:27.62Z</time></trkpt><trkpt lat="45.9851373" lon="11.7532627"><ele>366.42857142857144</ele><time>2026-04-12T07:14:31.62Z</time></trkpt><trkpt lat="45.9851149" lon="11.7531571"><ele>367.57142857142856</ele><time>2026-04-12T07:14:35.621Z</time></trkpt><trkpt lat="45.9851026" lon="11.7530379"><ele>368.7142857142857</ele><time>2026-04-12T07:14:40.621Z</time></trkpt><trkpt lat="45.9851146" lon="11.7529279"><ele>369.85714285714283</ele><time>2026-04-12T07:14:44.62Z</time></trkpt><trkpt lat="45.9851355" lon="11.7528366"><ele>371.0</ele><time>2026-04-12T07:14:48.62Z</time></trkpt><trkpt lat="45.9852089" lon="11.7527946"><ele>371.0</ele><time>2026-04-12T07:14:53.621Z</time></trkpt><trkpt lat="45.9852876" lon="11.7527877"><ele>371.0</ele><time>2026-04-12T07:14:58.62Z</time></trkpt><trkpt lat="45.9853507" lon="11.7527862"><ele>371.0</ele><time>2026-04-12T07:15:02.62Z</time></trkpt><trkpt lat="45.985419" lon="11.7527765"><ele>371.0</ele><time>2026-04-12T07:15:06.621Z</time></trkpt><trkpt lat="45.985487" lon="11.7527652"><ele>371.0</ele><time>2026-04-12T07:15:10.62Z</time></trkpt><trkpt lat="45.9855618" lon="11.7527508"><ele>371.0</ele><time>2026-04-12T07:15:14.621Z</time></trkpt><trkpt lat="45.9856246" lon="11.7527286"><ele>371.0</ele><time>2026-04-12T07:15:18.621Z</time></trkpt><trkpt lat="45.9856914" lon="11.7526887"><ele>373.6666666666667</ele><time>2026-04-12T07:15:22.622Z</time></trkpt><trkpt lat="45.9857564" lon="11.7526531"><ele>376.33333333333337</ele><time>2026-04-12T07:15:26.621Z</time></trkpt><trkpt lat="45.9858211" lon="11.7526007"><ele>379.0</ele><time>2026-04-12T07:15:31.622Z</time></trkpt><trkpt lat="45.9858803" lon="11.7525124"><ele>381.6666666666667</ele><time>2026-04-12T07:15:35.622Z</time></trkpt><trkpt lat="45.9859374" lon="11.7524444"><ele>384.3333333333333</ele><time>2026-04-12T07:15:40.622Z</time></trkpt><trkpt lat="45.9859859" lon="11.7523623"><ele>387.0</ele><time>2026-04-12T07:15:45.621Z</time></trkpt><trkpt lat="45.9860343" lon="11.7522669"><ele>387.42857142857144</ele><time>2026-04-12T07:15:49.621Z</time></trkpt><trkpt lat="45.9860662" lon="11.7521658"><ele>387.8571428571429</ele><time>2026-04-12T07:15:53.621Z</time></trkpt><trkpt lat="45.9860959" lon="11.7520675"><ele>388.2857142857143</ele><time>2026-04-12T07:15:57.621Z</time></trkpt><trkpt lat="45.986136" lon="11.7519752"><ele>388.7142857142857</ele><time>2026-04-12T07:16:02.621Z</time></trkpt><trkpt lat="45.986167" lon="11.7518903"><ele>389.1428571428571</ele><time>2026-04-12T07:16:07.622Z</time></trkpt><trkpt lat="45.986193" lon="11.7518038"><ele>389.57142857142856</ele><time>2026-04-12T07:16:11.621Z</time></trkpt><trkpt lat="45.9862076" lon="11.7517144"><ele>390.0</ele><time>2026-04-12T07:16:14.622Z</time></trkpt><trkpt lat="45.9862394" lon="11.7516355"><ele>392.42857142857144</ele><time>2026-04-12T07:16:17.621Z</time></trkpt><trkpt lat="45.9862871" lon="11.7515752"><ele>394.85714285714283</ele><time>2026-04-12T07:16:21.622Z</time></trkpt><trkpt lat="45.9863415" lon="11.7514976"><ele>397.28571428571433</ele><time>2026-04-12T07:16:25.621Z</time></trkpt><trkpt lat="45.986407" lon="11.7514395"><ele>399.7142857142857</ele><time>2026-04-12T07:16:30.622Z</time></trkpt><trkpt lat="45.9864657" lon="11.7513573"><ele>402.14285714285717</ele><time>2026-04-12T07:16:34.623Z</time></trkpt><trkpt lat="45.9865213" lon="11.7512852"><ele>404.5714285714286</ele><time>2026-04-12T07:16:39.622Z</time></trkpt><trkpt lat="45.9865604" lon="11.7512044"><ele>407.0</ele><time>2026-04-12T07:16:43.623Z</time></trkpt><trkpt lat="45.9866028" lon="11.7510956"><ele>408.8571428571429</ele><time>2026-04-12T07:16:47.622Z</time></trkpt><trkpt lat="45.9866327" lon="11.7510152"><ele>410.7142857142857</ele><time>2026-04-12T07:16:50.622Z</time></trkpt><trkpt lat="45.9866482" lon="11.7509151"><ele>412.57142857142856</ele><time>2026-04-12T07:16:55.623Z</time></trkpt><trkpt lat="45.9866593" lon="11.7507954"><ele>414.42857142857144</ele><time>2026-04-12T07:17:00.623Z</time></trkpt><trkpt lat="45.98665" lon="11.7506965"><ele>416.2857142857143</ele><time>2026-04-12T07:17:03.623Z</time></trkpt><trkpt lat="45.9866714" lon="11.7506009"><ele>418.14285714285717</ele><time>2026-04-12T07:17:07.622Z</time></trkpt><trkpt lat="45.9866768" lon="11.7505105"><ele>420.0</ele><time>2026-04-12T07:17:12.622Z</time></trkpt><trkpt lat="45.9866837" lon="11.7504165"><ele>420.0</ele><time>2026-04-12T07:17:16.623Z</time></trkpt><trkpt lat="45.9866697" lon="11.7503254"><ele>420.0</ele><time>2026-04-12T07:17:19.622Z</time></trkpt><trkpt lat="45.9866952" lon="11.7502346"><ele>420.0</ele><time>2026-04-12T07:17:22.623Z</time></trkpt><trkpt lat="45.9867191" lon="11.750135"><ele>420.0</ele><time>2026-04-12T07:17:26.623Z</time></trkpt><trkpt lat="45.9867416" lon="11.7500356"><ele>420.0</ele><time>2026-04-12T07:17:30.623Z</time></trkpt><trkpt lat="45.9867829" lon="11.7499421"><ele>420.0</ele><time>2026-04-12T07:17:34.624Z</time></trkpt><trkpt lat="45.9868264" lon="11.7498717"><ele>420.0</ele><time>2026-04-12T07:17:38.623Z</time></trkpt><trkpt lat="45.9868842" lon="11.7497883"><ele>421.57142857142856</ele><time>2026-04-12T07:17:43.624Z</time></trkpt><trkpt lat="45.9869458" lon="11.7497403"><ele>423.1428571428571</ele><time>2026-04-12T07:17:47.624Z</time></trkpt><trkpt lat="45.987007" lon="11.7497112"><ele>424.7142857142857</ele><time>2026-04-12T07:17:51.623Z</time></trkpt><trkpt lat="45.9870692" lon="11.7496477"><ele>426.2857142857143</ele><time>2026-04-12T07:17:55.623Z</time></trkpt><trkpt lat="45.9871255" lon="11.7495819"><ele>427.85714285714283</ele><time>2026-04-12T07:17:59.623Z</time></trkpt><trkpt lat="45.9871972" lon="11.7495169"><ele>429.42857142857144</ele><time>2026-04-12T07:18:04.624Z</time></trkpt><trkpt lat="45.9872578" lon="11.7494639"><ele>431.0</ele><time>2026-04-12T07:18:07.623Z</time></trkpt><trkpt lat="45.9873213" lon="11.7494196"><ele>432.7142857142857</ele><time>2026-04-12T07:18:11.623Z</time></trkpt><trkpt lat="45.9873636" lon="11.7493348"><ele>434.4285714285714</ele><time>2026-04-12T07:18:14.623Z</time></trkpt><trkpt lat="45.9873941" lon="11.7492522"><ele>436.1428571428571</ele><time>2026-04-12T07:18:18.624Z</time></trkpt><trkpt lat="45.9874319" lon="11.7491734"><ele>437.8571428571429</ele><time>2026-04-12T07:18:22.624Z</time></trkpt><trkpt lat="45.9874645" lon="11.7490691"><ele>439.57142857142856</ele><time>2026-04-12T07:18:26.623Z</time></trkpt><trkpt lat="45.9875068" lon="11.748987"><ele>441.2857142857143</ele><time>2026-04-12T07:18:29.623Z</time></trkpt><trkpt lat="45.9875312" lon="11.7488866"><ele>443.0</ele><time>2026-04-12T07:18:33.625Z</time></trkpt><trkpt lat="45.9875565" lon="11.7487873"><ele>444.2857142857143</ele><time>2026-04-12T07:18:37.624Z</time></trkpt><trkpt lat="45.9875876" lon="11.7486873"><ele>445.57142857142856</ele><time>2026-04-12T07:18:40.624Z</time></trkpt><trkpt lat="45.9876388" lon="11.7486153"><ele>446.8571428571429</ele><time>2026-04-12T07:18:43.624Z</time></trkpt><trkpt lat="45.9876981" lon="11.748551"><ele>448.1428571428571</ele><time>2026-04-12T07:18:46.624Z</time></trkpt><trkpt lat="45.9877562" lon="11.7484961"><ele>449.4285714285714</ele><time>2026-04-12T07:18:49.625Z</time></trkpt><trkpt lat="45.9878151" lon="11.7484621"><ele>450.7142857142857</ele><time>2026-04-12T07:18:53.624Z</time></trkpt><trkpt lat="45.9878853" lon="11.748421"><ele>452.0</ele><time>2026-04-12T07:18:57.624Z</time></trkpt><trkpt lat="45.9879636" lon="11.7483779"><ele>453.66666666666663</ele><time>2026-04-12T07:19:01.624Z</time></trkpt><trkpt lat="45.9880321" lon="11.748326"><ele>455.3333333333333</ele><time>2026-04-12T07:19:05.625Z</time></trkpt><trkpt lat="45.9881026" lon="11.7482724"><ele>457.0</ele><time>2026-04-12T07:19:09.624Z</time></trkpt><trkpt lat="45.9881775" lon="11.7482139"><ele>458.66666666666663</ele><time>2026-04-12T07:19:13.624Z</time></trkpt><trkpt lat="45.9882362" lon="11.7481785"><ele>460.3333333333333</ele><time>2026-04-12T07:19:16.625Z</time></trkpt><trkpt lat="45.9882946" lon="11.7481338"><ele>462.0</ele><time>2026-04-12T07:19:19.625Z</time></trkpt><trkpt lat="45.9883644" lon="11.7480823"><ele>463.7142857142857</ele><time>2026-04-12T07:19:23.624Z</time></trkpt><trkpt lat="45.9884399" lon="11.7480352"><ele>465.42857142857144</ele><time>2026-04-12T07:19:27.625Z</time></trkpt><trkpt lat="45.988501" lon="11.7479911"><ele>467.1428571428571</ele><time>2026-04-12T07:19:30.624Z</time></trkpt><trkpt lat="45.9885593" lon="11.7479523"><ele>468.85714285714283</ele><time>2026-04-12T07:19:33.625Z</time></trkpt><trkpt lat="45.9886173" lon="11.7479149"><ele>470.57142857142856</ele><time>2026-04-12T07:19:36.625Z</time></trkpt><trkpt lat="45.9886783" lon="11.7478714"><ele>472.2857142857142</ele><time>2026-04-12T07:19:39.625Z</time></trkpt><trkpt lat="45.9887521" lon="11.7478277"><ele>473.99999999999994</ele><time>2026-04-12T07:19:43.625Z</time></trkpt><trkpt lat="45.988825" lon="11.7477789"><ele>473.99999999999994</ele><time>2026-04-12T07:19:47.625Z</time></trkpt><trkpt lat="45.988888" lon="11.7477404"><ele>474.0</ele><time>2026-04-12T07:19:50.625Z</time></trkpt><trkpt lat="45.9889445" lon="11.7476975"><ele>473.99999999999994</ele><time>2026-04-12T07:19:53.626Z</time></trkpt><trkpt lat="45.9890143" lon="11.747638"><ele>473.99999999999994</ele><time>2026-04-12T07:19:57.625Z</time></trkpt><trkpt lat="45.9890759" lon="11.7475785"><ele>474.0</ele><time>2026-04-12T07:20:00.625Z</time></trkpt><trkpt lat="45.9891316" lon="11.7475213"><ele>473.99999999999994</ele><time>2026-04-12T07:20:03.625Z</time></trkpt><trkpt lat="45.9891916" lon="11.7474614"><ele>473.99999999999994</ele><time>2026-04-12T07:20:06.625Z</time></trkpt><trkpt lat="45.9892493" lon="11.7474064"><ele>472.8333333333333</ele><time>2026-04-12T07:20:09.625Z</time></trkpt><trkpt lat="45.9893082" lon="11.7473384"><ele>471.66666666666663</ele><time>2026-04-12T07:20:12.626Z</time></trkpt><trkpt lat="45.9893714" lon="11.7472571"><ele>470.5</ele><time>2026-04-12T07:20:16.625Z</time></trkpt><trkpt lat="45.9894434" lon="11.7471888"><ele>469.3333333333333</ele><time>2026-04-12T07:20:19.625Z</time></trkpt><trkpt lat="45.9895075" lon="11.7471398"><ele>468.16666666666663</ele><time>2026-04-12T07:20:22.626Z</time></trkpt><trkpt lat="45.9895653" lon="11.7470991"><ele>467.0</ele><time>2026-04-12T07:20:24.625Z</time></trkpt><trkpt lat="45.9896151" lon="11.7470155"><ele>466.99999999999994</ele><time>2026-04-12T07:20:26.625Z</time></trkpt><trkpt lat="45.9896321" lon="11.7468831"><ele>467.0</ele><time>2026-04-12T07:20:29.626Z</time></trkpt><trkpt lat="45.9896421" lon="11.7467731"><ele>467.0</ele><time>2026-04-12T07:20:32.626Z</time></trkpt><trkpt lat="45.9896616" lon="11.7466575"><ele>467.0</ele><time>2026-04-12T07:20:35.626Z</time></trkpt><trkpt lat="45.9897257" lon="11.7466171"><ele>466.99999999999994</ele><time>2026-04-12T07:20:37.626Z</time></trkpt><trkpt lat="45.9897835" lon="11.7465639"><ele>467.0</ele><time>2026-04-12T07:20:39.627Z</time></trkpt><trkpt lat="45.9898208" lon="11.7464889"><ele>467.3333333333333</ele><time>2026-04-12T07:20:41.625Z</time></trkpt><trkpt lat="45.9898639" lon="11.7464015"><ele>467.66666666666663</ele><time>2026-04-12T07:20:43.626Z</time></trkpt><trkpt lat="45.9899014" lon="11.7463116"><ele>468.0</ele><time>2026-04-12T07:20:45.626Z</time></trkpt><trkpt lat="45.9899718" lon="11.7462569"><ele>468.33333333333337</ele><time>2026-04-12T07:20:47.626Z</time></trkpt><trkpt lat="45.9900327" lon="11.7461925"><ele>468.6666666666667</ele><time>2026-04-12T07:20:49.626Z</time></trkpt><trkpt lat="45.990059" lon="11.7460862"><ele>469.0</ele><time>2026-04-12T07:20:51.627Z</time></trkpt><trkpt lat="45.9900803" lon="11.7459921"><ele>470.00000000000006</ele><time>2026-04-12T07:20:53.627Z</time></trkpt><trkpt lat="45.9900977" lon="11.7458964"><ele>471.0</ele><time>2026-04-12T07:20:55.626Z</time></trkpt><trkpt lat="45.9901117" lon="11.7457891"><ele>472.0</ele><time>2026-04-12T07:20:57.627Z</time></trkpt><trkpt lat="45.9901299" lon="11.7456848"><ele>473.0</ele><time>2026-04-12T07:20:59.626Z</time></trkpt><trkpt lat="45.9901519" lon="11.7455756"><ele>474.00000000000006</ele><time>2026-04-12T07:21:01.627Z</time></trkpt><trkpt lat="45.9901891" lon="11.7454673"><ele>475.0</ele><time>2026-04-12T07:21:04.627Z</time></trkpt><trkpt lat="45.990264" lon="11.7454376"><ele>475.00000000000006</ele><time>2026-04-12T07:21:06.627Z</time></trkpt><trkpt lat="45.9903384" lon="11.7454164"><ele>475.0</ele><time>2026-04-12T07:21:08.626Z</time></trkpt><trkpt lat="45.9904116" lon="11.7454563"><ele>475.0</ele><time>2026-04-12T07:21:11.626Z</time></trkpt><trkpt lat="45.9904532" lon="11.745556"><ele>475.0</ele><time>2026-04-12T07:21:13.626Z</time></trkpt><trkpt lat="45.9904856" lon="11.7456636"><ele>475.00000000000006</ele><time>2026-04-12T07:21:15.626Z</time></trkpt><trkpt lat="45.9905011" lon="11.7458187"><ele>475.0</ele><time>2026-04-12T07:21:17.626Z</time></trkpt><trkpt lat="45.9904963" lon="11.7459185"><ele>475.0</ele><time>2026-04-12T07:21:19.627Z</time></trkpt><trkpt lat="45.9905255" lon="11.7460258"><ele>475.00000000000006</ele><time>2026-04-12T07:21:21.626Z</time></trkpt><trkpt lat="45.9905489" lon="11.7461275"><ele>475.0</ele><time>2026-04-12T07:21:23.627Z</time></trkpt><trkpt lat="45.9905744" lon="11.7462106"><ele>475.0</ele><time>2026-04-12T07:21:25.627Z</time></trkpt><trkpt lat="45.9906133" lon="11.7462878"><ele>475.00000000000006</ele><time>2026-04-12T07:21:27.626Z</time></trkpt><trkpt lat="45.990662" lon="11.7463681"><ele>475.0</ele><time>2026-04-12T07:21:29.627Z</time></trkpt><trkpt lat="45.9907207" lon="11.7464336"><ele>475.0</ele><time>2026-04-12T07:21:31.627Z</time></trkpt><trkpt lat="45.9907927" lon="11.7464758"><ele>474.8571428571429</ele><time>2026-04-12T07:21:33.626Z</time></trkpt><trkpt lat="45.9908557" lon="11.7464815"><ele>474.7142857142858</ele><time>2026-04-12T07:21:35.626Z</time></trkpt><trkpt lat="45.9909226" lon="11.7464464"><ele>474.57142857142856</ele><time>2026-04-12T07:21:37.627Z</time></trkpt><trkpt lat="45.9910008" lon="11.7463844"><ele>474.42857142857144</ele><time>2026-04-12T07:21:39.626Z</time></trkpt><trkpt lat="45.991052" lon="11.7463276"><ele>474.2857142857143</ele><time>2026-04-12T07:21:41.626Z</time></trkpt><trkpt lat="45.9911021" lon="11.7462562"><ele>474.1428571428571</ele><time>2026-04-12T07:21:43.627Z</time></trkpt><trkpt lat="45.9911695" lon="11.7461937"><ele>473.99999999999994</ele><time>2026-04-12T07:21:45.627Z</time></trkpt><trkpt lat="45.9912318" lon="11.7461541"><ele>473.99999999999994</ele><time>2026-04-12T07:21:47.627Z</time></trkpt><trkpt lat="45.991298" lon="11.7461652"><ele>474.0</ele><time>2026-04-12T07:21:49.626Z</time></trkpt><trkpt lat="45.9913724" lon="11.7462042"><ele>473.99999999999994</ele><time>2026-04-12T07:21:51.627Z</time></trkpt><trkpt lat="45.9914325" lon="11.7462426"><ele>473.99999999999994</ele><time>2026-04-12T07:21:53.627Z</time></trkpt><trkpt lat="45.9915074" lon="11.746287"><ele>474.0</ele><time>2026-04-12T07:21:55.627Z</time></trkpt><trkpt lat="45.9915719" lon="11.7463277"><ele>473.99999999999994</ele><time>2026-04-12T07:21:57.627Z</time></trkpt><trkpt lat="45.9916348" lon="11.7463674"><ele>473.99999999999994</ele><time>2026-04-12T07:21:59.628Z</time></trkpt><trkpt lat="45.9916957" lon="11.7464085"><ele>475.8571428571428</ele><time>2026-04-12T07:22:01.627Z</time></trkpt><trkpt lat="45.991755" lon="11.746452"><ele>477.71428571428567</ele><time>2026-04-12T07:22:03.627Z</time></trkpt><trkpt lat="45.9918216" lon="11.7464952"><ele>479.57142857142856</ele><time>2026-04-12T07:22:05.627Z</time></trkpt><trkpt lat="45.9918811" lon="11.7465487"><ele>481.4285714285714</ele><time>2026-04-12T07:22:07.627Z</time></trkpt><trkpt lat="45.9919418" lon="11.746587"><ele>483.2857142857142</ele><time>2026-04-12T07:22:09.628Z</time></trkpt><trkpt lat="45.9920011" lon="11.7466238"><ele>485.14285714285717</ele><time>2026-04-12T07:22:11.627Z</time></trkpt><trkpt lat="45.9920875" lon="11.746679"><ele>487.0</ele><time>2026-04-12T07:22:14.628Z</time></trkpt><trkpt lat="45.9921462" lon="11.7467332"><ele>487.00000000000006</ele><time>2026-04-12T07:22:16.628Z</time></trkpt><trkpt lat="45.9921988" lon="11.7467906"><ele>487.0</ele><time>2026-04-12T07:22:18.628Z</time></trkpt><trkpt lat="45.9922469" lon="11.7468511"><ele>487.0</ele><time>2026-04-12T07:22:20.628Z</time></trkpt><trkpt lat="45.9922969" lon="11.7469358"><ele>487.0</ele><time>2026-04-12T07:22:23.628Z</time></trkpt><trkpt lat="45.9923519" lon="11.7470234"><ele>487.00000000000006</ele><time>2026-04-12T07:22:26.627Z</time></trkpt><trkpt lat="45.9923991" lon="11.7471306"><ele>487.0</ele><time>2026-04-12T07:22:29.628Z</time></trkpt><trkpt lat="45.9924242" lon="11.7472508"><ele>486.83333333333337</ele><time>2026-04-12T07:22:32.627Z</time></trkpt><trkpt lat="45.9924523" lon="11.7473699"><ele>486.6666666666667</ele><time>2026-04-12T07:22:35.628Z</time></trkpt><trkpt lat="45.9924635" lon="11.7474911"><ele>486.5</ele><time>2026-04-12T07:22:38.628Z</time></trkpt><trkpt lat="45.9924661" lon="11.7476051"><ele>486.33333333333337</ele><time>2026-04-12T07:22:41.628Z</time></trkpt><trkpt lat="45.9924624" lon="11.7476962"><ele>486.1666666666667</ele><time>2026-04-12T07:22:43.627Z</time></trkpt><trkpt lat="45.9924623" lon="11.7477903"><ele>486.0</ele><time>2026-04-12T07:22:45.628Z</time></trkpt><trkpt lat="45.9924613" lon="11.7479195"><ele>486.3333333333333</ele><time>2026-04-12T07:22:48.627Z</time></trkpt><trkpt lat="45.9924577" lon="11.7480419"><ele>486.66666666666663</ele><time>2026-04-12T07:22:51.627Z</time></trkpt><trkpt lat="45.9924454" lon="11.7481643"><ele>487.0</ele><time>2026-04-12T07:22:54.628Z</time></trkpt><trkpt lat="45.9924296" lon="11.7482749"><ele>487.3333333333333</ele><time>2026-04-12T07:22:57.628Z</time></trkpt><trkpt lat="45.9924002" lon="11.7483927"><ele>487.66666666666663</ele><time>2026-04-12T07:23:00.629Z</time></trkpt><trkpt lat="45.9923778" lon="11.7484801"><ele>488.0</ele><time>2026-04-12T07:23:02.629Z</time></trkpt><trkpt lat="45.9923438" lon="11.7485921"><ele>489.8333333333333</ele><time>2026-04-12T07:23:05.628Z</time></trkpt><trkpt lat="45.9923192" lon="11.74872"><ele>491.66666666666663</ele><time>2026-04-12T07:23:08.628Z</time></trkpt><trkpt lat="45.9922974" lon="11.7488271"><ele>493.5</ele><time>2026-04-12T07:23:11.628Z</time></trkpt><trkpt lat="45.9922802" lon="11.748928"><ele>495.33333333333337</ele><time>2026-04-12T07:23:14.628Z</time></trkpt><trkpt lat="45.9922611" lon="11.7490512"><ele>497.1666666666667</ele><time>2026-04-12T07:23:17.629Z</time></trkpt><trkpt lat="45.9922409" lon="11.7491721"><ele>499.0</ele><time>2026-04-12T07:23:20.63Z</time></trkpt><trkpt lat="45.99224" lon="11.749301"><ele>500.6666666666667</ele><time>2026-04-12T07:23:23.63Z</time></trkpt><trkpt lat="45.992231" lon="11.7494267"><ele>502.33333333333337</ele><time>2026-04-12T07:23:26.628Z</time></trkpt><trkpt lat="45.9922044" lon="11.7495418"><ele>504.0</ele><time>2026-04-12T07:23:29.629Z</time></trkpt><trkpt lat="45.9921683" lon="11.7496434"><ele>505.66666666666663</ele><time>2026-04-12T07:23:32.628Z</time></trkpt><trkpt lat="45.9921273" lon="11.7497386"><ele>507.3333333333333</ele><time>2026-04-12T07:23:35.63Z</time></trkpt><trkpt lat="45.9920839" lon="11.7498558"><ele>509.0</ele><time>2026-04-12T07:23:38.628Z</time></trkpt><trkpt lat="45.9920479" lon="11.7499779"><ele>508.99999999999994</ele><time>2026-04-12T07:23:41.629Z</time></trkpt><trkpt lat="45.9920558" lon="11.7500999"><ele>509.0</ele><time>2026-04-12T07:23:43.629Z</time></trkpt><trkpt lat="45.9920453" lon="11.7502073"><ele>509.0</ele><time>2026-04-12T07:23:45.629Z</time></trkpt><trkpt lat="45.9920283" lon="11.750308"><ele>509.0</ele><time>2026-04-12T07:23:47.63Z</time></trkpt><trkpt lat="45.9920084" lon="11.7504068"><ele>508.99999999999994</ele><time>2026-04-12T07:23:49.629Z</time></trkpt><trkpt lat="45.9919799" lon="11.7504905"><ele>509.0</ele><time>2026-04-12T07:23:51.629Z</time></trkpt><trkpt lat="45.9919077" lon="11.7505722"><ele>508.99999999999994</ele><time>2026-04-12T07:23:54.628Z</time></trkpt><trkpt lat="45.9918386" lon="11.750638"><ele>509.0</ele><time>2026-04-12T07:23:57.629Z</time></trkpt><trkpt lat="45.9917681" lon="11.750707"><ele>509.0</ele><time>2026-04-12T07:24:00.629Z</time></trkpt><trkpt lat="45.9917082" lon="11.750794"><ele>509.0</ele><time>2026-04-12T07:24:03.629Z</time></trkpt><trkpt lat="45.9916721" lon="11.7509093"><ele>508.99999999999994</ele><time>2026-04-12T07:24:06.629Z</time></trkpt><trkpt lat="45.9916521" lon="11.7509959"><ele>509.0</ele><time>2026-04-12T07:24:08.629Z</time></trkpt><trkpt lat="45.9916267" lon="11.7510812"><ele>508.99999999999994</ele><time>2026-04-12T07:24:10.629Z</time></trkpt><trkpt lat="45.9915945" lon="11.7512038"><ele>509.0</ele><time>2026-04-12T07:24:13.63Z</time></trkpt><trkpt lat="45.9915641" lon="11.7513209"><ele>509.0</ele><time>2026-04-12T07:24:16.63Z</time></trkpt><trkpt lat="45.9915244" lon="11.7514346"><ele>509.0</ele><time>2026-04-12T07:24:19.63Z</time></trkpt><trkpt lat="45.9914859" lon="11.751543"><ele>508.99999999999994</ele><time>2026-04-12T07:24:22.63Z</time></trkpt><trkpt lat="45.9914522" lon="11.7516248"><ele>509.0</ele><time>2026-04-12T07:24:24.629Z</time></trkpt><trkpt lat="45.9914023" lon="11.7517321"><ele>508.99999999999994</ele><time>2026-04-12T07:24:27.63Z</time></trkpt><trkpt lat="45.9913584" lon="11.7518532"><ele>509.0</ele><time>2026-04-12T07:24:30.629Z</time></trkpt><trkpt lat="45.9913221" lon="11.751967"><ele>509.0</ele><time>2026-04-12T07:24:33.63Z</time></trkpt><trkpt lat="45.9912823" lon="11.7520764"><ele>509.0</ele><time>2026-04-12T07:24:36.63Z</time></trkpt><trkpt lat="45.9912445" lon="11.7521797"><ele>508.99999999999994</ele><time>2026-04-12T07:24:39.629Z</time></trkpt><trkpt lat="45.9912216" lon="11.7523075"><ele>509.0</ele><time>2026-04-12T07:24:42.629Z</time></trkpt><trkpt lat="45.9912123" lon="11.7524288"><ele>511.8333333333333</ele><time>2026-04-12T07:24:45.629Z</time></trkpt><trkpt lat="45.9911973" lon="11.7525273"><ele>514.6666666666666</ele><time>2026-04-12T07:24:48.629Z</time></trkpt><trkpt lat="45.9911703" lon="11.7526381"><ele>517.5</ele><time>2026-04-12T07:24:52.631Z</time></trkpt><trkpt lat="45.9911702" lon="11.7527541"><ele>520.3333333333334</ele><time>2026-04-12T07:24:55.63Z</time></trkpt><trkpt lat="45.991173" lon="11.7528617"><ele>523.1666666666667</ele><time>2026-04-12T07:24:57.629Z</time></trkpt><trkpt lat="45.9911802" lon="11.7529903"><ele>526.0</ele><time>2026-04-12T07:25:00.629Z</time></trkpt><trkpt lat="45.9912031" lon="11.7530889"><ele>526.0</ele><time>2026-04-12T07:25:02.631Z</time></trkpt><trkpt lat="45.991236" lon="11.7532118"><ele>526.0</ele><time>2026-04-12T07:25:05.631Z</time></trkpt><trkpt lat="45.9912644" lon="11.7532949"><ele>526.0</ele><time>2026-04-12T07:25:07.631Z</time></trkpt><trkpt lat="45.9913086" lon="11.7534131"><ele>526.0</ele><time>2026-04-12T07:25:10.631Z</time></trkpt><trkpt lat="45.9913399" lon="11.7534973"><ele>526.0</ele><time>2026-04-12T07:25:12.63Z</time></trkpt><trkpt lat="45.9913593" lon="11.753599"><ele>526.0</ele><time>2026-04-12T07:25:16.631Z</time></trkpt><trkpt lat="45.9913634" lon="11.7537097"><ele>525.3333333333334</ele><time>2026-04-12T07:25:19.631Z</time></trkpt><trkpt lat="45.9913467" lon="11.7538321"><ele>524.6666666666667</ele><time>2026-04-12T07:25:22.63Z</time></trkpt><trkpt lat="45.9913241" lon="11.7539609"><ele>524.0</ele><time>2026-04-12T07:25:25.63Z</time></trkpt><trkpt lat="45.9913371" lon="11.754079"><ele>523.3333333333334</ele><time>2026-04-12T07:25:27.631Z</time></trkpt><trkpt lat="45.9913587" lon="11.7541847"><ele>522.6666666666666</ele><time>2026-04-12T07:25:29.63Z</time></trkpt><trkpt lat="45.9913793" lon="11.7543097"><ele>522.0</ele><time>2026-04-12T07:25:32.63Z</time></trkpt><trkpt lat="45.9913981" lon="11.7544125"><ele>521.1428571428571</ele><time>2026-04-12T07:25:34.631Z</time></trkpt><trkpt lat="45.9914198" lon="11.7545029"><ele>520.2857142857142</ele><time>2026-04-12T07:25:36.63Z</time></trkpt><trkpt lat="45.9914405" lon="11.7545945"><ele>519.4285714285713</ele><time>2026-04-12T07:25:38.631Z</time></trkpt><trkpt lat="45.9914694" lon="11.7546805"><ele>518.5714285714286</ele><time>2026-04-12T07:25:40.63Z</time></trkpt><trkpt lat="45.9915216" lon="11.7547838"><ele>517.7142857142857</ele><time>2026-04-12T07:25:43.63Z</time></trkpt><trkpt lat="45.991577" lon="11.7548492"><ele>516.8571428571428</ele><time>2026-04-12T07:25:45.631Z</time></trkpt><trkpt lat="45.9916335" lon="11.7548921"><ele>516.0</ele><time>2026-04-12T07:25:47.631Z</time></trkpt><trkpt lat="45.9917134" lon="11.7549476"><ele>519.5</ele><time>2026-04-12T07:25:50.631Z</time></trkpt><trkpt lat="45.9917856" lon="11.7549875"><ele>523.0</ele><time>2026-04-12T07:25:53.632Z</time></trkpt><trkpt lat="45.9918541" lon="11.7550383"><ele>526.5</ele><time>2026-04-12T07:25:56.631Z</time></trkpt><trkpt lat="45.9919255" lon="11.7550931"><ele>530.0</ele><time>2026-04-12T07:25:59.631Z</time></trkpt><trkpt lat="45.9919899" lon="11.7551534"><ele>533.5</ele><time>2026-04-12T07:26:02.63Z</time></trkpt><trkpt lat="45.9920503" lon="11.7552244"><ele>537.0</ele><time>2026-04-12T07:26:05.63Z</time></trkpt><trkpt lat="45.9921252" lon="11.7553055"><ele>537.1666666666666</ele><time>2026-04-12T07:26:08.632Z</time></trkpt><trkpt lat="45.9921896" lon="11.7553801"><ele>537.3333333333334</ele><time>2026-04-12T07:26:11.63Z</time></trkpt><trkpt lat="45.992239" lon="11.755455"><ele>537.5</ele><time>2026-04-12T07:26:14.631Z</time></trkpt><trkpt lat="45.9922817" lon="11.7555365"><ele>537.6666666666667</ele><time>2026-04-12T07:26:17.632Z</time></trkpt><trkpt lat="45.9923078" lon="11.75564"><ele>537.8333333333334</ele><time>2026-04-12T07:26:20.632Z</time></trkpt><trkpt lat="45.9923269" lon="11.7557606"><ele>538.0</ele><time>2026-04-12T07:26:23.631Z</time></trkpt><trkpt lat="45.9923517" lon="11.7558765"><ele>538.0</ele><time>2026-04-12T07:26:26.631Z</time></trkpt><trkpt lat="45.9923715" lon="11.7559867"><ele>538.0</ele><time>2026-04-12T07:26:29.631Z</time></trkpt><trkpt lat="45.9923886" lon="11.7560893"><ele>538.0</ele><time>2026-04-12T07:26:32.631Z</time></trkpt><trkpt lat="45.9924014" lon="11.7561887"><ele>538.0</ele><time>2026-04-12T07:26:35.631Z</time></trkpt><trkpt lat="45.9924082" lon="11.756289"><ele>538.0</ele><time>2026-04-12T07:26:38.632Z</time></trkpt><trkpt lat="45.9924064" lon="11.7563827"><ele>538.0</ele><time>2026-04-12T07:26:41.631Z</time></trkpt><trkpt lat="45.9924044" lon="11.7564847"><ele>538.0</ele><time>2026-04-12T07:26:44.632Z</time></trkpt><trkpt lat="45.9923921" lon="11.7565996"><ele>538.5</ele><time>2026-04-12T07:26:47.631Z</time></trkpt><trkpt lat="45.992365" lon="11.7567221"><ele>539.0</ele><time>2026-04-12T07:26:50.631Z</time></trkpt><trkpt lat="45.9923288" lon="11.7568445"><ele>539.5</ele><time>2026-04-12T07:26:53.632Z</time></trkpt><trkpt lat="45.9923031" lon="11.7569647"><ele>540.0</ele><time>2026-04-12T07:26:56.632Z</time></trkpt><trkpt lat="45.9922736" lon="11.7570626"><ele>540.5</ele><time>2026-04-12T07:26:59.632Z</time></trkpt><trkpt lat="45.9922463" lon="11.7571843"><ele>541.0</ele><time>2026-04-12T07:27:02.632Z</time></trkpt><trkpt lat="45.9922235" lon="11.7573092"><ele>541.3333333333334</ele><time>2026-04-12T07:27:05.631Z</time></trkpt><trkpt lat="45.9921932" lon="11.7574316"><ele>541.6666666666667</ele><time>2026-04-12T07:27:08.632Z</time></trkpt><trkpt lat="45.9921697" lon="11.7575408"><ele>542.0</ele><time>2026-04-12T07:27:11.632Z</time></trkpt><trkpt lat="45.9921423" lon="11.7576623"><ele>542.3333333333334</ele><time>2026-04-12T07:27:14.631Z</time></trkpt><trkpt lat="45.9921151" lon="11.757783"><ele>542.6666666666666</ele><time>2026-04-12T07:27:17.633Z</time></trkpt><trkpt lat="45.9920943" lon="11.757914"><ele>543.0</ele><time>2026-04-12T07:27:20.633Z</time></trkpt><trkpt lat="45.9920919" lon="11.7580529"><ele>543.0</ele><time>2026-04-12T07:27:23.632Z</time></trkpt><trkpt lat="45.9921022" lon="11.7581518"><ele>543.0</ele><time>2026-04-12T07:27:25.632Z</time></trkpt><trkpt lat="45.9921248" lon="11.7582534"><ele>543.0</ele><time>2026-04-12T07:27:27.632Z</time></trkpt><trkpt lat="45.9921498" lon="11.7583528"><ele>543.0</ele><time>2026-04-12T07:27:29.632Z</time></trkpt><trkpt lat="45.9921677" lon="11.7584427"><ele>543.0</ele><time>2026-04-12T07:27:31.632Z</time></trkpt><trkpt lat="45.9921912" lon="11.7585422"><ele>543.0</ele><time>2026-04-12T07:27:33.632Z</time></trkpt><trkpt lat="45.9922182" lon="11.7586373"><ele>543.0</ele><time>2026-04-12T07:27:35.633Z</time></trkpt><trkpt lat="45.9922513" lon="11.7587644"><ele>543.0</ele><time>2026-04-12T07:27:38.632Z</time></trkpt><trkpt lat="45.9922797" lon="11.7588583"><ele>543.0</ele><time>2026-04-12T07:27:40.632Z</time></trkpt><trkpt lat="45.9923082" lon="11.7589479"><ele>543.0</ele><time>2026-04-12T07:27:42.632Z</time></trkpt><trkpt lat="45.9923288" lon="11.7590338"><ele>543.0</ele><time>2026-04-12T07:27:44.633Z</time></trkpt><trkpt lat="45.9923609" lon="11.7591271"><ele>543.0</ele><time>2026-04-12T07:27:46.633Z</time></trkpt><trkpt lat="45.9923967" lon="11.7592216"><ele>543.0</ele><time>2026-04-12T07:27:48.632Z</time></trkpt><trkpt lat="45.992434" lon="11.7593091"><ele>543.0</ele><time>2026-04-12T07:27:50.633Z</time></trkpt><trkpt lat="45.9924657" lon="11.7593912"><ele>543.0</ele><time>2026-04-12T07:27:52.633Z</time></trkpt><trkpt lat="45.9925007" lon="11.7594685"><ele>543.0</ele><time>2026-04-12T07:27:54.632Z</time></trkpt><trkpt lat="45.9925397" lon="11.7595454"><ele>543.0</ele><time>2026-04-12T07:27:56.633Z</time></trkpt><trkpt lat="45.9925798" lon="11.7596259"><ele>543.0</ele><time>2026-04-12T07:27:58.632Z</time></trkpt><trkpt lat="45.9926191" lon="11.7597046"><ele>543.0</ele><time>2026-04-12T07:28:00.633Z</time></trkpt><trkpt lat="45.9926595" lon="11.7597878"><ele>543.0</ele><time>2026-04-12T07:28:02.632Z</time></trkpt><trkpt lat="45.9927035" lon="11.7598638"><ele>543.0</ele><time>2026-04-12T07:28:04.633Z</time></trkpt><trkpt lat="45.9927442" lon="11.7599334"><ele>545.3333333333334</ele><time>2026-04-12T07:28:06.632Z</time></trkpt><trkpt lat="45.992781" lon="11.760007"><ele>547.6666666666666</ele><time>2026-04-12T07:28:08.634Z</time></trkpt><trkpt lat="45.9928273" lon="11.7600887"><ele>550.0</ele><time>2026-04-12T07:28:10.633Z</time></trkpt><trkpt lat="45.9928705" lon="11.7601688"><ele>552.3333333333333</ele><time>2026-04-12T07:28:12.632Z</time></trkpt><trkpt lat="45.9929293" lon="11.7602748"><ele>554.6666666666666</ele><time>2026-04-12T07:28:15.634Z</time></trkpt><trkpt lat="45.9929646" lon="11.760356"><ele>557.0</ele><time>2026-04-12T07:28:17.632Z</time></trkpt><trkpt lat="45.9930049" lon="11.7604703"><ele>557.0</ele><time>2026-04-12T07:28:20.634Z</time></trkpt><trkpt lat="45.9930296" lon="11.760589"><ele>557.0</ele><time>2026-04-12T07:28:23.634Z</time></trkpt><trkpt lat="45.9930432" lon="11.7606995"><ele>557.0</ele><time>2026-04-12T07:28:26.633Z</time></trkpt><trkpt lat="45.9930568" lon="11.7608241"><ele>557.0</ele><time>2026-04-12T07:28:29.634Z</time></trkpt><trkpt lat="45.9930701" lon="11.760937"><ele>557.0</ele><time>2026-04-12T07:28:32.633Z</time></trkpt><trkpt lat="45.9931022" lon="11.761049"><ele>557.0</ele><time>2026-04-12T07:28:35.633Z</time></trkpt><trkpt lat="45.9931359" lon="11.7611593"><ele>556.7142857142858</ele><time>2026-04-12T07:28:38.634Z</time></trkpt><trkpt lat="45.9931624" lon="11.7612554"><ele>556.4285714285714</ele><time>2026-04-12T07:28:41.634Z</time></trkpt><trkpt lat="45.9931926" lon="11.7613556"><ele>556.1428571428571</ele><time>2026-04-12T07:28:44.633Z</time></trkpt><trkpt lat="45.9932206" lon="11.7614504"><ele>555.8571428571429</ele><time>2026-04-12T07:28:47.633Z</time></trkpt><trkpt lat="45.9932534" lon="11.7615522"><ele>555.5714285714286</ele><time>2026-04-12T07:28:50.633Z</time></trkpt><trkpt lat="45.993285" lon="11.7616484"><ele>555.2857142857143</ele><time>2026-04-12T07:28:53.634Z</time></trkpt><trkpt lat="45.9933222" lon="11.7617451"><ele>555.0</ele><time>2026-04-12T07:28:56.633Z</time></trkpt><trkpt lat="45.9933804" lon="11.7618473"><ele>557.8333333333334</ele><time>2026-04-12T07:28:59.635Z</time></trkpt><trkpt lat="45.9934259" lon="11.7619391"><ele>560.6666666666666</ele><time>2026-04-12T07:29:02.634Z</time></trkpt><trkpt lat="45.9934709" lon="11.7620166"><ele>563.5</ele><time>2026-04-12T07:29:05.634Z</time></trkpt><trkpt lat="45.9935237" lon="11.7621053"><ele>566.3333333333333</ele><time>2026-04-12T07:29:09.633Z</time></trkpt><trkpt lat="45.9935883" lon="11.7622051"><ele>569.1666666666666</ele><time>2026-04-12T07:29:12.633Z</time></trkpt><trkpt lat="45.9936466" lon="11.7622811"><ele>572.0</ele><time>2026-04-12T07:29:15.634Z</time></trkpt><trkpt lat="45.9937072" lon="11.7623567"><ele>572.0</ele><time>2026-04-12T07:29:18.634Z</time></trkpt><trkpt lat="45.9937616" lon="11.7624413"><ele>572.0</ele><time>2026-04-12T07:29:21.634Z</time></trkpt><trkpt lat="45.9938063" lon="11.7625211"><ele>572.0</ele><time>2026-04-12T07:29:24.634Z</time></trkpt><trkpt lat="45.9938721" lon="11.7626041"><ele>572.0</ele><time>2026-04-12T07:29:27.634Z</time></trkpt><trkpt lat="45.9939295" lon="11.7626951"><ele>572.0</ele><time>2026-04-12T07:29:30.634Z</time></trkpt><trkpt lat="45.9939793" lon="11.7627787"><ele>572.0</ele><time>2026-04-12T07:29:33.635Z</time></trkpt><trkpt lat="45.9940372" lon="11.7628733"><ele>571.5</ele><time>2026-04-12T07:29:36.634Z</time></trkpt><trkpt lat="45.9940781" lon="11.7629664"><ele>571.0</ele><time>2026-04-12T07:29:39.634Z</time></trkpt><trkpt lat="45.9941064" lon="11.7630743"><ele>570.5</ele><time>2026-04-12T07:29:42.635Z</time></trkpt><trkpt lat="45.9941239" lon="11.7631834"><ele>570.0</ele><time>2026-04-12T07:29:45.634Z</time></trkpt><trkpt lat="45.9941608" lon="11.7632881"><ele>569.5</ele><time>2026-04-12T07:29:48.634Z</time></trkpt><trkpt lat="45.9941925" lon="11.7633718"><ele>569.0</ele><time>2026-04-12T07:29:50.634Z</time></trkpt><trkpt lat="45.9942318" lon="11.7634752"><ele>571.5</ele><time>2026-04-12T07:29:53.635Z</time></trkpt><trkpt lat="45.9942671" lon="11.7635781"><ele>574.0</ele><time>2026-04-12T07:29:56.634Z</time></trkpt><trkpt lat="45.9943032" lon="11.7636887"><ele>576.5</ele><time>2026-04-12T07:29:59.635Z</time></trkpt><trkpt lat="45.9943384" lon="11.7637926"><ele>579.0</ele><time>2026-04-12T07:30:02.634Z</time></trkpt><trkpt lat="45.9943739" lon="11.7639027"><ele>581.5</ele><time>2026-04-12T07:30:05.634Z</time></trkpt><trkpt lat="45.9943968" lon="11.7640077"><ele>584.0</ele><time>2026-04-12T07:30:08.634Z</time></trkpt><trkpt lat="45.9944283" lon="11.7641047"><ele>584.0</ele><time>2026-04-12T07:30:11.635Z</time></trkpt><trkpt lat="45.9945084" lon="11.7641574"><ele>584.0</ele><time>2026-04-12T07:30:14.635Z</time></trkpt><trkpt lat="45.9945526" lon="11.7640918"><ele>584.0</ele><time>2026-04-12T07:30:16.634Z</time></trkpt><trkpt lat="45.9945462" lon="11.7639932"><ele>584.0</ele><time>2026-04-12T07:30:18.635Z</time></trkpt><trkpt lat="45.9945279" lon="11.7639064"><ele>584.0</ele><time>2026-04-12T07:30:20.634Z</time></trkpt><trkpt lat="45.9945129" lon="11.7637822"><ele>584.0</ele><time>2026-04-12T07:30:23.634Z</time></trkpt><trkpt lat="45.9944949" lon="11.7636888"><ele>584.0</ele><time>2026-04-12T07:30:25.634Z</time></trkpt><trkpt lat="45.9944772" lon="11.7635997"><ele>584.6666666666666</ele><time>2026-04-12T07:30:27.635Z</time></trkpt><trkpt lat="45.9944571" lon="11.7635136"><ele>585.3333333333333</ele><time>2026-04-12T07:30:29.635Z</time></trkpt><trkpt lat="45.9944242" lon="11.7633833"><ele>586.0</ele><time>2026-04-12T07:30:32.635Z</time></trkpt><trkpt lat="45.9944127" lon="11.7632596"><ele>586.6666666666666</ele><time>2026-04-12T07:30:35.635Z</time></trkpt><trkpt lat="45.9944125" lon="11.7631366"><ele>587.3333333333334</ele><time>2026-04-12T07:30:38.636Z</time></trkpt><trkpt lat="45.9944166" lon="11.7630219"><ele>588.0</ele><time>2026-04-12T07:30:41.636Z</time></trkpt><trkpt lat="45.9944266" lon="11.762891"><ele>588.0</ele><time>2026-04-12T07:30:44.636Z</time></trkpt><trkpt lat="45.9944346" lon="11.7627603"><ele>588.0</ele><time>2026-04-12T07:30:47.636Z</time></trkpt><trkpt lat="45.9944437" lon="11.7626317"><ele>588.0</ele><time>2026-04-12T07:30:50.635Z</time></trkpt><trkpt lat="45.9944443" lon="11.762502"><ele>588.0</ele><time>2026-04-12T07:30:53.635Z</time></trkpt><trkpt lat="45.9944472" lon="11.7623903"><ele>588.0</ele><time>2026-04-12T07:30:56.636Z</time></trkpt><trkpt lat="45.9944549" lon="11.7622722"><ele>588.0</ele><time>2026-04-12T07:30:59.635Z</time></trkpt><trkpt lat="45.9944521" lon="11.7621569"><ele>588.5714285714286</ele><time>2026-04-12T07:31:02.636Z</time></trkpt><trkpt lat="45.9944522" lon="11.7620634"><ele>589.1428571428571</ele><time>2026-04-12T07:31:04.635Z</time></trkpt><trkpt lat="45.9944624" lon="11.7619727"><ele>589.7142857142858</ele><time>2026-04-12T07:31:06.636Z</time></trkpt><trkpt lat="45.9944616" lon="11.7618722"><ele>590.2857142857142</ele><time>2026-04-12T07:31:09.635Z</time></trkpt><trkpt lat="45.9944677" lon="11.7617398"><ele>590.8571428571429</ele><time>2026-04-12T07:31:13.636Z</time></trkpt><trkpt lat="45.9944674" lon="11.7616275"><ele>591.4285714285714</ele><time>2026-04-12T07:31:16.635Z</time></trkpt><trkpt lat="45.9944781" lon="11.7615142"><ele>592.0</ele><time>2026-04-12T07:31:19.636Z</time></trkpt><trkpt lat="45.994496" lon="11.7614058"><ele>593.0</ele><time>2026-04-12T07:31:22.635Z</time></trkpt><trkpt lat="45.9945137" lon="11.7612806"><ele>594.0</ele><time>2026-04-12T07:31:25.636Z</time></trkpt><trkpt lat="45.9945249" lon="11.7611883"><ele>595.0</ele><time>2026-04-12T07:31:27.636Z</time></trkpt><trkpt lat="45.9945375" lon="11.7610932"><ele>596.0</ele><time>2026-04-12T07:31:30.637Z</time></trkpt><trkpt lat="45.9945357" lon="11.7609791"><ele>597.0</ele><time>2026-04-12T07:31:33.636Z</time></trkpt><trkpt lat="45.9945538" lon="11.7608499"><ele>598.0</ele><time>2026-04-12T07:31:36.636Z</time></trkpt><trkpt lat="45.9945596" lon="11.7607263"><ele>598.8333333333334</ele><time>2026-04-12T07:31:39.637Z</time></trkpt><trkpt lat="45.9945434" lon="11.7606025"><ele>599.6666666666667</ele><time>2026-04-12T07:31:42.637Z</time></trkpt><trkpt lat="45.9945319" lon="11.7605104"><ele>600.5</ele><time>2026-04-12T07:31:44.636Z</time></trkpt><trkpt lat="45.9945164" lon="11.7603915"><ele>601.3333333333334</ele><time>2026-04-12T07:31:47.636Z</time></trkpt><trkpt lat="45.9945074" lon="11.7602835"><ele>602.1666666666666</ele><time>2026-04-12T07:31:50.636Z</time></trkpt><trkpt lat="45.9944998" lon="11.7601817"><ele>603.0</ele><time>2026-04-12T07:31:52.636Z</time></trkpt><trkpt lat="45.994478" lon="11.7600644"><ele>603.1666666666666</ele><time>2026-04-12T07:31:55.636Z</time></trkpt><trkpt lat="45.9944784" lon="11.7599263"><ele>603.3333333333334</ele><time>2026-04-12T07:31:58.636Z</time></trkpt><trkpt lat="45.9944892" lon="11.7598137"><ele>603.5</ele><time>2026-04-12T07:32:01.636Z</time></trkpt><trkpt lat="45.9944825" lon="11.759696"><ele>603.6666666666667</ele><time>2026-04-12T07:32:04.637Z</time></trkpt><trkpt lat="45.994494" lon="11.7595908"><ele>603.8333333333334</ele><time>2026-04-12T07:32:08.636Z</time></trkpt><trkpt lat="45.9944971" lon="11.7594986"><ele>604.0</ele><time>2026-04-12T07:32:12.637Z</time></trkpt><trkpt lat="45.9944728" lon="11.7593969"><ele>604.6666666666667</ele><time>2026-04-12T07:32:18.638Z</time></trkpt><trkpt lat="45.9944552" lon="11.7592859"><ele>605.3333333333334</ele><time>2026-04-12T07:32:22.637Z</time></trkpt><trkpt lat="45.994507" lon="11.7592258"><ele>606.0</ele><time>2026-04-12T07:32:52.638Z</time></trkpt><trkpt lat="45.9945064" lon="11.7591203"><ele>606.6666666666666</ele><time>2026-04-12T07:32:54.638Z</time></trkpt><trkpt lat="45.9944924" lon="11.7590248"><ele>607.3333333333333</ele><time>2026-04-12T07:32:56.637Z</time></trkpt><trkpt lat="45.9944713" lon="11.7589059"><ele>608.0</ele><time>2026-04-12T07:32:59.638Z</time></trkpt><trkpt lat="45.9944436" lon="11.7587969"><ele>608.0</ele><time>2026-04-12T07:33:02.638Z</time></trkpt><trkpt lat="45.994417" lon="11.7586832"><ele>608.0</ele><time>2026-04-12T07:33:05.637Z</time></trkpt><trkpt lat="45.9944048" lon="11.7585478"><ele>608.0</ele><time>2026-04-12T07:33:07.637Z</time></trkpt><trkpt lat="45.9943963" lon="11.7584542"><ele>608.0</ele><time>2026-04-12T07:33:09.637Z</time></trkpt><trkpt lat="45.9943922" lon="11.7583505"><ele>608.0</ele><time>2026-04-12T07:33:11.637Z</time></trkpt><trkpt lat="45.9943934" lon="11.7582439"><ele>608.0</ele><time>2026-04-12T07:33:13.638Z</time></trkpt><trkpt lat="45.994387" lon="11.7581202"><ele>609.0</ele><time>2026-04-12T07:33:15.637Z</time></trkpt><trkpt lat="45.9943739" lon="11.7580226"><ele>610.0</ele><time>2026-04-12T07:33:17.637Z</time></trkpt><trkpt lat="45.9943314" lon="11.7579202"><ele>611.0</ele><time>2026-04-12T07:33:19.637Z</time></trkpt><trkpt lat="45.9943083" lon="11.7578189"><ele>612.0</ele><time>2026-04-12T07:33:21.637Z</time></trkpt><trkpt lat="45.9942807" lon="11.7577302"><ele>613.0</ele><time>2026-04-12T07:33:23.637Z</time></trkpt><trkpt lat="45.994247" lon="11.7576415"><ele>614.0</ele><time>2026-04-12T07:33:25.637Z</time></trkpt><trkpt lat="45.9942093" lon="11.7575592"><ele>615.0</ele><time>2026-04-12T07:33:27.639Z</time></trkpt><trkpt lat="45.9941858" lon="11.7574304"><ele>613.8333333333334</ele><time>2026-04-12T07:33:31.637Z</time></trkpt><trkpt lat="45.9941626" lon="11.7573319"><ele>612.6666666666666</ele><time>2026-04-12T07:33:33.637Z</time></trkpt><trkpt lat="45.9941386" lon="11.7572004"><ele>611.5</ele><time>2026-04-12T07:33:36.638Z</time></trkpt><trkpt lat="45.994138" lon="11.7570948"><ele>610.3333333333333</ele><time>2026-04-12T07:33:39.639Z</time></trkpt><trkpt lat="45.9941427" lon="11.7569991"><ele>609.1666666666666</ele><time>2026-04-12T07:33:42.638Z</time></trkpt><trkpt lat="45.9941444" lon="11.7568927"><ele>608.0</ele><time>2026-04-12T07:33:45.638Z</time></trkpt><trkpt lat="45.9941408" lon="11.756787"><ele>608.0</ele><time>2026-04-12T07:33:48.638Z</time></trkpt><trkpt lat="45.9941423" lon="11.7566684"><ele>608.0</ele><time>2026-04-12T07:33:51.639Z</time></trkpt><trkpt lat="45.9941465" lon="11.7565605"><ele>608.0</ele><time>2026-04-12T07:33:54.638Z</time></trkpt><trkpt lat="45.9941589" lon="11.7564278"><ele>608.0</ele><time>2026-04-12T07:33:57.639Z</time></trkpt><trkpt lat="45.994176" lon="11.7562882"><ele>608.0</ele><time>2026-04-12T07:34:00.638Z</time></trkpt><trkpt lat="45.9941784" lon="11.7561749"><ele>608.0</ele><time>2026-04-12T07:34:03.638Z</time></trkpt><trkpt lat="45.9941923" lon="11.7560808"><ele>612.8571428571428</ele><time>2026-04-12T07:34:06.638Z</time></trkpt><trkpt lat="45.9941896" lon="11.7559755"><ele>617.7142857142858</ele><time>2026-04-12T07:34:09.638Z</time></trkpt><trkpt lat="45.994199" lon="11.7558843"><ele>622.5714285714286</ele><time>2026-04-12T07:34:11.638Z</time></trkpt><trkpt lat="45.994224" lon="11.7557717"><ele>627.4285714285713</ele><time>2026-04-12T07:34:14.638Z</time></trkpt><trkpt lat="45.9942874" lon="11.7556986"><ele>632.2857142857142</ele><time>2026-04-12T07:34:18.639Z</time></trkpt><trkpt lat="45.9943476" lon="11.7556566"><ele>637.1428571428571</ele><time>2026-04-12T07:34:21.639Z</time></trkpt><trkpt lat="45.9944021" lon="11.7556054"><ele>642.0</ele><time>2026-04-12T07:34:24.638Z</time></trkpt><trkpt lat="45.9944354" lon="11.7555149"><ele>641.9999999999999</ele><time>2026-04-12T07:34:27.64Z</time></trkpt><trkpt lat="45.9944504" lon="11.7554225"><ele>642.0</ele><time>2026-04-12T07:34:29.639Z</time></trkpt><trkpt lat="45.9944421" lon="11.7553117"><ele>642.0</ele><time>2026-04-12T07:34:32.639Z</time></trkpt><trkpt lat="45.9944305" lon="11.7552108"><ele>642.0</ele><time>2026-04-12T07:34:35.639Z</time></trkpt><trkpt lat="45.9944515" lon="11.7551066"><ele>642.0</ele><time>2026-04-12T07:34:38.638Z</time></trkpt><trkpt lat="45.9944827" lon="11.7550182"><ele>641.9999999999999</ele><time>2026-04-12T07:34:41.64Z</time></trkpt><trkpt lat="45.9945011" lon="11.7549073"><ele>642.0</ele><time>2026-04-12T07:34:44.639Z</time></trkpt><trkpt lat="45.9944916" lon="11.7547946"><ele>641.8333333333334</ele><time>2026-04-12T07:34:47.639Z</time></trkpt><trkpt lat="45.9944737" lon="11.7547011"><ele>641.6666666666666</ele><time>2026-04-12T07:34:50.639Z</time></trkpt><trkpt lat="45.9944374" lon="11.7546002"><ele>641.5</ele><time>2026-04-12T07:34:53.639Z</time></trkpt><trkpt lat="45.9944092" lon="11.7544986"><ele>641.3333333333333</ele><time>2026-04-12T07:34:56.639Z</time></trkpt><trkpt lat="45.994403" lon="11.7543719"><ele>641.1666666666666</ele><time>2026-04-12T07:34:59.639Z</time></trkpt><trkpt lat="45.9944109" lon="11.7542599"><ele>641.0</ele><time>2026-04-12T07:35:02.639Z</time></trkpt><trkpt lat="45.994411" lon="11.7541548"><ele>642.1666666666666</ele><time>2026-04-12T07:35:05.639Z</time></trkpt><trkpt lat="45.9944106" lon="11.7540445"><ele>643.3333333333333</ele><time>2026-04-12T07:35:08.641Z</time></trkpt><trkpt lat="45.9944091" lon="11.7539379"><ele>644.5</ele><time>2026-04-12T07:35:11.64Z</time></trkpt><trkpt lat="45.9944094" lon="11.7538201"><ele>645.6666666666666</ele><time>2026-04-12T07:35:14.639Z</time></trkpt><trkpt lat="45.9944062" lon="11.7537091"><ele>646.8333333333334</ele><time>2026-04-12T07:35:17.64Z</time></trkpt><trkpt lat="45.9943985" lon="11.7536005"><ele>648.0</ele><time>2026-04-12T07:35:20.64Z</time></trkpt><trkpt lat="45.9943917" lon="11.7534979"><ele>649.5</ele><time>2026-04-12T07:35:23.64Z</time></trkpt><trkpt lat="45.9943932" lon="11.7533809"><ele>651.0</ele><time>2026-04-12T07:35:26.64Z</time></trkpt><trkpt lat="45.9943935" lon="11.7532649"><ele>652.5</ele><time>2026-04-12T07:35:29.639Z</time></trkpt><trkpt lat="45.9943955" lon="11.7531518"><ele>654.0</ele><time>2026-04-12T07:35:32.639Z</time></trkpt><trkpt lat="45.9943996" lon="11.7530536"><ele>655.5</ele><time>2026-04-12T07:35:35.64Z</time></trkpt><trkpt lat="45.9944097" lon="11.7529625"><ele>657.0</ele><time>2026-04-12T07:35:38.64Z</time></trkpt><trkpt lat="45.9944231" lon="11.7528479"><ele>657.0</ele><time>2026-04-12T07:35:42.639Z</time></trkpt><trkpt lat="45.9944412" lon="11.7527525"><ele>657.0</ele><time>2026-04-12T07:35:45.64Z</time></trkpt><trkpt lat="45.9944529" lon="11.7526613"><ele>657.0</ele><time>2026-04-12T07:35:47.641Z</time></trkpt><trkpt lat="45.9944711" lon="11.7525517"><ele>657.0</ele><time>2026-04-12T07:35:50.64Z</time></trkpt><trkpt lat="45.9944876" lon="11.7524181"><ele>657.0</ele><time>2026-04-12T07:35:53.641Z</time></trkpt><trkpt lat="45.9945115" lon="11.7522911"><ele>657.0</ele><time>2026-04-12T07:35:56.641Z</time></trkpt><trkpt lat="45.9945362" lon="11.7521804"><ele>656.8333333333334</ele><time>2026-04-12T07:35:59.64Z</time></trkpt><trkpt lat="45.9945545" lon="11.7520605"><ele>656.6666666666666</ele><time>2026-04-12T07:36:02.64Z</time></trkpt><trkpt lat="45.9945708" lon="11.7519574"><ele>656.5</ele><time>2026-04-12T07:36:05.64Z</time></trkpt><trkpt lat="45.9945925" lon="11.751848"><ele>656.3333333333333</ele><time>2026-04-12T07:36:08.64Z</time></trkpt><trkpt lat="45.994613" lon="11.7517498"><ele>656.1666666666666</ele><time>2026-04-12T07:36:11.641Z</time></trkpt><trkpt lat="45.9946426" lon="11.7516526"><ele>656.0</ele><time>2026-04-12T07:36:14.64Z</time></trkpt><trkpt lat="45.9946677" lon="11.7515462"><ele>655.5714285714286</ele><time>2026-04-12T07:36:17.64Z</time></trkpt><trkpt lat="45.9946895" lon="11.75145"><ele>655.1428571428571</ele><time>2026-04-12T07:36:20.641Z</time></trkpt><trkpt lat="45.9947161" lon="11.7513368"><ele>654.7142857142858</ele><time>2026-04-12T07:36:24.64Z</time></trkpt><trkpt lat="45.9947337" lon="11.7512453"><ele>654.2857142857142</ele><time>2026-04-12T07:36:27.641Z</time></trkpt><trkpt lat="45.9947573" lon="11.7511344"><ele>653.8571428571429</ele><time>2026-04-12T07:36:31.64Z</time></trkpt><trkpt lat="45.9947733" lon="11.7510391"><ele>653.4285714285714</ele><time>2026-04-12T07:36:34.641Z</time></trkpt><trkpt lat="45.994797" lon="11.7509406"><ele>653.0</ele><time>2026-04-12T07:36:37.64Z</time></trkpt><trkpt lat="45.9948212" lon="11.7508424"><ele>651.5</ele><time>2026-04-12T07:36:40.641Z</time></trkpt><trkpt lat="45.9948617" lon="11.7507544"><ele>650.0</ele><time>2026-04-12T07:36:43.641Z</time></trkpt><trkpt lat="45.9949126" lon="11.7506677"><ele>648.5</ele><time>2026-04-12T07:36:46.64Z</time></trkpt><trkpt lat="45.9949634" lon="11.7505827"><ele>647.0</ele><time>2026-04-12T07:36:49.64Z</time></trkpt><trkpt lat="45.9949968" lon="11.7504961"><ele>645.5</ele><time>2026-04-12T07:36:52.64Z</time></trkpt><trkpt lat="45.9950377" lon="11.7504076"><ele>644.0</ele><time>2026-04-12T07:36:55.641Z</time></trkpt><trkpt lat="45.9950698" lon="11.7503035"><ele>652.8333333333333</ele><time>2026-04-12T07:36:58.642Z</time></trkpt><trkpt lat="45.9950849" lon="11.7501938"><ele>661.6666666666666</ele><time>2026-04-12T07:37:01.641Z</time></trkpt><trkpt lat="45.9950873" lon="11.7500806"><ele>670.5</ele><time>2026-04-12T07:37:04.642Z</time></trkpt><trkpt lat="45.9950887" lon="11.749961"><ele>679.3333333333334</ele><time>2026-04-12T07:37:07.642Z</time></trkpt><trkpt lat="45.9950835" lon="11.7498447"><ele>688.1666666666667</ele><time>2026-04-12T07:37:10.641Z</time></trkpt><trkpt lat="45.9950884" lon="11.7497388"><ele>697.0</ele><time>2026-04-12T07:37:13.641Z</time></trkpt><trkpt lat="45.995103" lon="11.749616"><ele>697.0</ele><time>2026-04-12T07:37:16.642Z</time></trkpt><trkpt lat="45.995111" lon="11.7494896"><ele>697.0</ele><time>2026-04-12T07:37:19.641Z</time></trkpt><trkpt lat="45.9951222" lon="11.7493622"><ele>697.0</ele><time>2026-04-12T07:37:22.641Z</time></trkpt><trkpt lat="45.9951361" lon="11.7492541"><ele>697.0</ele><time>2026-04-12T07:37:25.642Z</time></trkpt><trkpt lat="45.995146" lon="11.7491595"><ele>697.0</ele><time>2026-04-12T07:37:28.641Z</time></trkpt><trkpt lat="45.9951667" lon="11.7490583"><ele>697.0</ele><time>2026-04-12T07:37:33.641Z</time></trkpt><trkpt lat="45.9952076" lon="11.7489412"><ele>696.2857142857143</ele><time>2026-04-12T07:37:36.641Z</time></trkpt><trkpt lat="45.9952426" lon="11.7488587"><ele>695.5714285714286</ele><time>2026-04-12T07:37:38.641Z</time></trkpt><trkpt lat="45.9952799" lon="11.7487744"><ele>694.8571428571429</ele><time>2026-04-12T07:37:40.642Z</time></trkpt><trkpt lat="45.9953126" lon="11.7486845"><ele>694.1428571428571</ele><time>2026-04-12T07:37:43.642Z</time></trkpt><trkpt lat="45.995349" lon="11.7486044"><ele>693.4285714285714</ele><time>2026-04-12T07:37:46.641Z</time></trkpt><trkpt lat="45.9953907" lon="11.7485095"><ele>692.7142857142857</ele><time>2026-04-12T07:37:49.642Z</time></trkpt><trkpt lat="45.9954396" lon="11.7484154"><ele>692.0</ele><time>2026-04-12T07:37:52.641Z</time></trkpt><trkpt lat="45.9954817" lon="11.7483068"><ele>689.4285714285714</ele><time>2026-04-12T07:37:55.641Z</time></trkpt><trkpt lat="45.9955167" lon="11.7482239"><ele>686.8571428571429</ele><time>2026-04-12T07:37:58.642Z</time></trkpt><trkpt lat="45.9955615" lon="11.7481235"><ele>684.2857142857143</ele><time>2026-04-12T07:38:02.642Z</time></trkpt><trkpt lat="45.9956053" lon="11.7480322"><ele>681.7142857142858</ele><time>2026-04-12T07:38:05.642Z</time></trkpt><trkpt lat="45.9956448" lon="11.7479427"><ele>679.1428571428571</ele><time>2026-04-12T07:38:08.643Z</time></trkpt><trkpt lat="45.9956954" lon="11.7478692"><ele>676.5714285714287</ele><time>2026-04-12T07:38:11.642Z</time></trkpt><trkpt lat="45.9957512" lon="11.7477947"><ele>674.0</ele><time>2026-04-12T07:38:14.642Z</time></trkpt><trkpt lat="45.9957957" lon="11.7477236"><ele>674.0000000000001</ele><time>2026-04-12T07:38:17.642Z</time></trkpt><trkpt lat="45.9958526" lon="11.7476507"><ele>674.0</ele><time>2026-04-12T07:38:21.642Z</time></trkpt><trkpt lat="45.9959172" lon="11.7475696"><ele>674.0</ele><time>2026-04-12T07:38:25.642Z</time></trkpt><trkpt lat="45.9959721" lon="11.747495"><ele>674.0</ele><time>2026-04-12T07:38:28.642Z</time></trkpt><trkpt lat="45.9960219" lon="11.7474238"><ele>674.0</ele><time>2026-04-12T07:38:31.643Z</time></trkpt><trkpt lat="45.9960681" lon="11.7473539"><ele>674.0000000000001</ele><time>2026-04-12T07:38:34.643Z</time></trkpt><trkpt lat="45.9961161" lon="11.7472952"><ele>674.0</ele><time>2026-04-12T07:38:37.642Z</time></trkpt><trkpt lat="45.9961796" lon="11.7472187"><ele>674.0</ele><time>2026-04-12T07:38:41.642Z</time></trkpt><trkpt lat="45.9962433" lon="11.7471576"><ele>674.0</ele><time>2026-04-12T07:38:45.643Z</time></trkpt><trkpt lat="45.9963033" lon="11.7471194"><ele>674.0</ele><time>2026-04-12T07:38:48.643Z</time></trkpt><trkpt lat="45.9963861" lon="11.7470801"><ele>674.0</ele><time>2026-04-12T07:38:52.642Z</time></trkpt><trkpt lat="45.9964629" lon="11.7470152"><ele>674.0</ele><time>2026-04-12T07:38:56.644Z</time></trkpt><trkpt lat="45.9965288" lon="11.7469827"><ele>674.0</ele><time>2026-04-12T07:38:59.644Z</time></trkpt><trkpt lat="45.9966095" lon="11.7469487"><ele>675.5</ele><time>2026-04-12T07:39:02.642Z</time></trkpt><trkpt lat="45.9966818" lon="11.746947"><ele>677.0</ele><time>2026-04-12T07:39:05.644Z</time></trkpt><trkpt lat="45.9967478" lon="11.7469765"><ele>678.5</ele><time>2026-04-12T07:39:08.644Z</time></trkpt><trkpt lat="45.9968181" lon="11.7470034"><ele>680.0</ele><time>2026-04-12T07:39:11.644Z</time></trkpt><trkpt lat="45.9968815" lon="11.7470461"><ele>681.5</ele><time>2026-04-12T07:39:14.644Z</time></trkpt><trkpt lat="45.9969564" lon="11.7471071"><ele>683.0</ele><time>2026-04-12T07:39:17.644Z</time></trkpt><trkpt lat="45.997026" lon="11.7471642"><ele>683.0</ele><time>2026-04-12T07:39:20.643Z</time></trkpt><trkpt lat="45.9970905" lon="11.7472064"><ele>683.0</ele><time>2026-04-12T07:39:24.644Z</time></trkpt><trkpt lat="45.9971558" lon="11.7472086"><ele>683.0</ele><time>2026-04-12T07:39:27.643Z</time></trkpt><trkpt lat="45.9972293" lon="11.7471646"><ele>683.0</ele><time>2026-04-12T07:39:32.644Z</time></trkpt><trkpt lat="45.9972769" lon="11.7470646"><ele>683.0</ele><time>2026-04-12T07:39:36.643Z</time></trkpt><trkpt lat="45.9972905" lon="11.746954"><ele>683.0</ele><time>2026-04-12T07:39:39.645Z</time></trkpt><trkpt lat="45.9973096" lon="11.7468532"><ele>681.2857142857143</ele><time>2026-04-12T07:39:42.644Z</time></trkpt><trkpt lat="45.9973372" lon="11.746736"><ele>679.5714285714286</ele><time>2026-04-12T07:39:46.643Z</time></trkpt><trkpt lat="45.9973705" lon="11.7466538"><ele>677.8571428571429</ele><time>2026-04-12T07:39:49.645Z</time></trkpt><trkpt lat="45.9974071" lon="11.7465623"><ele>676.1428571428571</ele><time>2026-04-12T07:39:52.644Z</time></trkpt><trkpt lat="45.9974505" lon="11.7464712"><ele>674.4285714285714</ele><time>2026-04-12T07:39:55.644Z</time></trkpt><trkpt lat="45.9974921" lon="11.7463798"><ele>672.7142857142857</ele><time>2026-04-12T07:39:59.644Z</time></trkpt><trkpt lat="45.9975307" lon="11.7462957"><ele>671.0</ele><time>2026-04-12T07:40:02.645Z</time></trkpt><trkpt lat="45.9975707" lon="11.7461981"><ele>671.0</ele><time>2026-04-12T07:40:06.643Z</time></trkpt><trkpt lat="45.997604" lon="11.7461004"><ele>671.0</ele><time>2026-04-12T07:40:09.644Z</time></trkpt><trkpt lat="45.9976353" lon="11.7459975"><ele>671.0</ele><time>2026-04-12T07:40:13.645Z</time></trkpt><trkpt lat="45.9976716" lon="11.7459172"><ele>671.0</ele><time>2026-04-12T07:40:16.644Z</time></trkpt><trkpt lat="45.9977069" lon="11.7458359"><ele>671.0</ele><time>2026-04-12T07:40:19.644Z</time></trkpt><trkpt lat="45.9977491" lon="11.7457535"><ele>671.0</ele><time>2026-04-12T07:40:23.645Z</time></trkpt><trkpt lat="45.9977715" lon="11.7456533"><ele>671.0</ele><time>2026-04-12T07:40:27.645Z</time></trkpt><trkpt lat="45.9977922" lon="11.7455628"><ele>671.5714285714286</ele><time>2026-04-12T07:40:30.644Z</time></trkpt><trkpt lat="45.997812" lon="11.7454759"><ele>672.1428571428572</ele><time>2026-04-12T07:40:33.645Z</time></trkpt><trkpt lat="45.997824" lon="11.7453622"><ele>672.7142857142858</ele><time>2026-04-12T07:40:37.645Z</time></trkpt><trkpt lat="45.9978201" lon="11.7452547"><ele>673.2857142857142</ele><time>2026-04-12T07:40:40.644Z</time></trkpt><trkpt lat="45.9978268" lon="11.7451494"><ele>673.8571428571429</ele><time>2026-04-12T07:40:44.645Z</time></trkpt><trkpt lat="45.9978466" lon="11.7450573"><ele>674.4285714285714</ele><time>2026-04-12T07:40:47.645Z</time></trkpt><trkpt lat="45.9978924" lon="11.7449696"><ele>675.0</ele><time>2026-04-12T07:40:51.645Z</time></trkpt><trkpt lat="45.9979432" lon="11.7449111"><ele>675.2857142857142</ele><time>2026-04-12T07:40:54.645Z</time></trkpt><trkpt lat="45.9979984" lon="11.7448617"><ele>675.5714285714286</ele><time>2026-04-12T07:40:57.645Z</time></trkpt><trkpt lat="45.9980678" lon="11.7448021"><ele>675.8571428571429</ele><time>2026-04-12T07:41:01.644Z</time></trkpt><trkpt lat="45.9981215" lon="11.7447527"><ele>676.1428571428571</ele><time>2026-04-12T07:41:04.646Z</time></trkpt><trkpt lat="45.9981799" lon="11.7447005"><ele>676.4285714285714</ele><time>2026-04-12T07:41:08.646Z</time></trkpt><trkpt lat="45.9982483" lon="11.7446344"><ele>676.7142857142857</ele><time>2026-04-12T07:41:12.646Z</time></trkpt><trkpt lat="45.9983092" lon="11.7445606"><ele>677.0</ele><time>2026-04-12T07:41:16.645Z</time></trkpt><trkpt lat="45.9983474" lon="11.7444691"><ele>677.5</ele><time>2026-04-12T07:41:19.646Z</time></trkpt><trkpt lat="45.9983777" lon="11.7443658"><ele>678.0</ele><time>2026-04-12T07:41:22.646Z</time></trkpt><trkpt lat="45.9984061" lon="11.7442827"><ele>678.5</ele><time>2026-04-12T07:41:25.645Z</time></trkpt><trkpt lat="45.9984363" lon="11.7441595"><ele>679.0</ele><time>2026-04-12T07:41:29.646Z</time></trkpt><trkpt lat="45.998458" lon="11.744046"><ele>679.5</ele><time>2026-04-12T07:41:32.646Z</time></trkpt><trkpt lat="45.998491" lon="11.7439428"><ele>680.0</ele><time>2026-04-12T07:41:35.645Z</time></trkpt><trkpt lat="45.9985105" lon="11.7438356"><ele>680.0</ele><time>2026-04-12T07:41:38.646Z</time></trkpt><trkpt lat="45.9985286" lon="11.7437304"><ele>680.0</ele><time>2026-04-12T07:41:41.646Z</time></trkpt><trkpt lat="45.9985511" lon="11.7436289"><ele>680.0</ele><time>2026-04-12T07:41:45.645Z</time></trkpt><trkpt lat="45.9985784" lon="11.7435453"><ele>680.0</ele><time>2026-04-12T07:41:48.646Z</time></trkpt><trkpt lat="45.9985963" lon="11.7434218"><ele>680.0</ele><time>2026-04-12T07:41:52.645Z</time></trkpt><trkpt lat="45.9986266" lon="11.7433251"><ele>680.0</ele><time>2026-04-12T07:41:56.645Z</time></trkpt><trkpt lat="45.9986411" lon="11.7432188"><ele>680.2857142857143</ele><time>2026-04-12T07:41:59.645Z</time></trkpt><trkpt lat="45.9986716" lon="11.7431122"><ele>680.5714285714286</ele><time>2026-04-12T07:42:02.645Z</time></trkpt><trkpt lat="45.9987116" lon="11.7430318"><ele>680.8571428571429</ele><time>2026-04-12T07:42:05.645Z</time></trkpt><trkpt lat="45.998771" lon="11.7429574"><ele>681.1428571428571</ele><time>2026-04-12T07:42:09.646Z</time></trkpt><trkpt lat="45.9988051" lon="11.742879"><ele>681.4285714285714</ele><time>2026-04-12T07:42:12.645Z</time></trkpt><trkpt lat="45.9988641" lon="11.7428468"><ele>681.7142857142857</ele><time>2026-04-12T07:49:05.727Z</time></trkpt><trkpt lat="45.9989308" lon="11.7428241"><ele>682.0</ele><time>2026-04-12T07:49:11.756Z</time></trkpt><trkpt lat="45.9989873" lon="11.7427781"><ele>682.7142857142857</ele><time>2026-04-12T07:49:16.741Z</time></trkpt><trkpt lat="45.9990527" lon="11.74271"><ele>683.4285714285714</ele><time>2026-04-12T07:49:21.727Z</time></trkpt><trkpt lat="45.9991352" lon="11.7427035"><ele>684.1428571428571</ele><time>2026-04-12T07:49:25.785Z</time></trkpt><trkpt lat="45.9992042" lon="11.7427064"><ele>684.8571428571429</ele><time>2026-04-12T07:49:28.683Z</time></trkpt><trkpt lat="45.9992675" lon="11.7427094"><ele>685.5714285714286</ele><time>2026-04-12T07:49:31.698Z</time></trkpt><trkpt lat="45.9993325" lon="11.7427339"><ele>686.2857142857143</ele><time>2026-04-12T07:49:34.712Z</time></trkpt><trkpt lat="45.9994098" lon="11.7427567"><ele>687.0</ele><time>2026-04-12T07:49:38.771Z</time></trkpt><trkpt lat="45.9994833" lon="11.7427905"><ele>687.0</ele><time>2026-04-12T07:49:42.712Z</time></trkpt><trkpt lat="45.9995439" lon="11.7428229"><ele>687.0</ele><time>2026-04-12T07:49:46.771Z</time></trkpt><trkpt lat="45.9996202" lon="11.7428494"><ele>687.0</ele><time>2026-04-12T07:49:51.757Z</time></trkpt><trkpt lat="45.9997006" lon="11.7428825"><ele>687.0</ele><time>2026-04-12T07:49:55.698Z</time></trkpt><trkpt lat="45.9997679" lon="11.7429083"><ele>687.0</ele><time>2026-04-12T07:49:58.712Z</time></trkpt><trkpt lat="45.9998338" lon="11.742937"><ele>687.0</ele><time>2026-04-12T07:50:02.771Z</time></trkpt><trkpt lat="45.9999011" lon="11.742951"><ele>687.0</ele><time>2026-04-12T07:50:05.67Z</time></trkpt><trkpt lat="45.9999679" lon="11.7429725"><ele>687.0</ele><time>2026-04-12T07:50:08.711Z</time></trkpt><trkpt lat="46.000029" lon="11.74301"><ele>687.0</ele><time>2026-04-12T07:50:11.699Z</time></trkpt><trkpt lat="46.000104" lon="11.7430549"><ele>687.0</ele><time>2026-04-12T07:50:15.756Z</time></trkpt><trkpt lat="46.0001814" lon="11.7430736"><ele>687.0</ele><time>2026-04-12T07:50:19.699Z</time></trkpt><trkpt lat="46.0002603" lon="11.7430886"><ele>687.0</ele><time>2026-04-12T07:50:23.756Z</time></trkpt><trkpt lat="46.0003256" lon="11.7430916"><ele>687.0</ele><time>2026-04-12T07:50:26.771Z</time></trkpt><trkpt lat="46.0004005" lon="11.743113"><ele>687.0</ele><time>2026-04-12T07:50:30.712Z</time></trkpt><trkpt lat="46.0004692" lon="11.7431413"><ele>687.0</ele><time>2026-04-12T07:50:33.726Z</time></trkpt><trkpt lat="46.0005409" lon="11.7431877"><ele>687.0</ele><time>2026-04-12T07:50:36.741Z</time></trkpt><trkpt lat="46.0006001" lon="11.743225"><ele>687.0</ele><time>2026-04-12T07:50:39.755Z</time></trkpt><trkpt lat="46.0006537" lon="11.7432759"><ele>687.0</ele><time>2026-04-12T07:50:43.697Z</time></trkpt><trkpt lat="46.0007126" lon="11.7433406"><ele>687.0</ele><time>2026-04-12T07:50:48.684Z</time></trkpt><trkpt lat="46.0007775" lon="11.7433975"><ele>687.0</ele><time>2026-04-12T07:50:52.741Z</time></trkpt><trkpt lat="46.0008511" lon="11.7434272"><ele>687.0</ele><time>2026-04-12T07:50:55.756Z</time></trkpt><trkpt lat="46.0009225" lon="11.7434768"><ele>686.4285714285714</ele><time>2026-04-12T07:50:58.77Z</time></trkpt><trkpt lat="46.000994" lon="11.7434984"><ele>685.8571428571428</ele><time>2026-04-12T07:51:01.785Z</time></trkpt><trkpt lat="46.0010585" lon="11.743534"><ele>685.2857142857142</ele><time>2026-04-12T07:51:04.683Z</time></trkpt><trkpt lat="46.0011213" lon="11.7435544"><ele>684.7142857142858</ele><time>2026-04-12T07:51:07.697Z</time></trkpt><trkpt lat="46.0011874" lon="11.7435761"><ele>684.1428571428571</ele><time>2026-04-12T07:51:10.713Z</time></trkpt><trkpt lat="46.0012605" lon="11.7435957"><ele>683.5714285714286</ele><time>2026-04-12T07:51:14.77Z</time></trkpt><trkpt lat="46.0013337" lon="11.7436371"><ele>683.0</ele><time>2026-04-12T07:51:18.712Z</time></trkpt><trkpt lat="46.0013971" lon="11.7436511"><ele>683.0</ele><time>2026-04-12T07:51:21.726Z</time></trkpt><trkpt lat="46.0014602" lon="11.7436525"><ele>683.0</ele><time>2026-04-12T07:51:24.741Z</time></trkpt><trkpt lat="46.0015295" lon="11.7436744"><ele>683.0</ele><time>2026-04-12T07:51:27.755Z</time></trkpt><trkpt lat="46.0016045" lon="11.743669"><ele>683.0</ele><time>2026-04-12T07:51:31.698Z</time></trkpt><trkpt lat="46.0016779" lon="11.7436719"><ele>683.0</ele><time>2026-04-12T07:51:35.756Z</time></trkpt><trkpt lat="46.0017482" lon="11.7437005"><ele>683.0</ele><time>2026-04-12T07:51:39.698Z</time></trkpt><trkpt lat="46.0018207" lon="11.7437433"><ele>683.0</ele><time>2026-04-12T07:51:43.756Z</time></trkpt><trkpt lat="46.0018795" lon="11.7438041"><ele>685.4285714285714</ele><time>2026-04-12T07:51:47.697Z</time></trkpt><trkpt lat="46.0019432" lon="11.7438544"><ele>687.8571428571429</ele><time>2026-04-12T07:51:51.756Z</time></trkpt><trkpt lat="46.0020075" lon="11.7439057"><ele>690.2857142857142</ele><time>2026-04-12T07:51:55.697Z</time></trkpt><trkpt lat="46.0020814" lon="11.7439429"><ele>692.7142857142858</ele><time>2026-04-12T07:51:59.756Z</time></trkpt><trkpt lat="46.0021434" lon="11.7439852"><ele>695.1428571428571</ele><time>2026-04-12T07:52:02.769Z</time></trkpt><trkpt lat="46.002197" lon="11.744036"><ele>697.5714285714286</ele><time>2026-04-12T07:52:05.784Z</time></trkpt><trkpt lat="46.0022799" lon="11.7440705"><ele>700.0</ele><time>2026-04-12T07:52:09.727Z</time></trkpt><trkpt lat="46.0023387" lon="11.7439913"><ele>700.0</ele><time>2026-04-12T07:52:12.741Z</time></trkpt><trkpt lat="46.002338" lon="11.7438967"><ele>700.0</ele><time>2026-04-12T07:52:15.756Z</time></trkpt><trkpt lat="46.0022927" lon="11.74383"><ele>700.0</ele><time>2026-04-12T07:52:18.769Z</time></trkpt><trkpt lat="46.0022255" lon="11.7437826"><ele>700.0</ele><time>2026-04-12T07:52:22.711Z</time></trkpt><trkpt lat="46.0021553" lon="11.7437282"><ele>700.0</ele><time>2026-04-12T07:52:26.77Z</time></trkpt><trkpt lat="46.0020923" lon="11.7436694"><ele>700.0</ele><time>2026-04-12T07:52:30.711Z</time></trkpt><trkpt lat="46.0020289" lon="11.7435994"><ele>700.0</ele><time>2026-04-12T07:52:34.77Z</time></trkpt><trkpt lat="46.0019608" lon="11.7435466"><ele>701.0</ele><time>2026-04-12T07:52:38.711Z</time></trkpt><trkpt lat="46.0019092" lon="11.7434874"><ele>702.0</ele><time>2026-04-12T07:52:41.726Z</time></trkpt><trkpt lat="46.0018538" lon="11.74341"><ele>703.0</ele><time>2026-04-12T07:52:44.741Z</time></trkpt><trkpt lat="46.001789" lon="11.7433696"><ele>704.0</ele><time>2026-04-12T07:52:48.682Z</time></trkpt><trkpt lat="46.0017164" lon="11.7433155"><ele>705.0</ele><time>2026-04-12T07:52:52.74Z</time></trkpt><trkpt lat="46.0016409" lon="11.7432734"><ele>706.0</ele><time>2026-04-12T07:52:56.682Z</time></trkpt><trkpt lat="46.0015593" lon="11.7432579"><ele>706.0</ele><time>2026-04-12T07:53:00.74Z</time></trkpt><trkpt lat="46.0014912" lon="11.7432359"><ele>706.0</ele><time>2026-04-12T07:53:03.755Z</time></trkpt><trkpt lat="46.0014327" lon="11.7432012"><ele>706.0</ele><time>2026-04-12T07:53:06.769Z</time></trkpt><trkpt lat="46.0013606" lon="11.7431568"><ele>706.0</ele><time>2026-04-12T07:53:10.711Z</time></trkpt><trkpt lat="46.0013018" lon="11.7431001"><ele>706.0</ele><time>2026-04-12T07:53:13.727Z</time></trkpt><trkpt lat="46.0012487" lon="11.7430375"><ele>706.0</ele><time>2026-04-12T07:53:16.74Z</time></trkpt><trkpt lat="46.0011926" lon="11.742969"><ele>706.0</ele><time>2026-04-12T07:53:19.754Z</time></trkpt><trkpt lat="46.0011388" lon="11.742908"><ele>706.0</ele><time>2026-04-12T07:53:22.634Z</time></trkpt><trkpt lat="46.0010793" lon="11.7428399"><ele>706.0</ele><time>2026-04-12T07:53:25.784Z</time></trkpt><trkpt lat="46.0010159" lon="11.742772"><ele>706.0</ele><time>2026-04-12T07:53:29.725Z</time></trkpt><trkpt lat="46.0009527" lon="11.7426933"><ele>706.0</ele><time>2026-04-12T07:53:33.784Z</time></trkpt><trkpt lat="46.000897" lon="11.7426123"><ele>706.0</ele><time>2026-04-12T07:53:37.725Z</time></trkpt><trkpt lat="46.0008506" lon="11.7425343"><ele>706.0</ele><time>2026-04-12T07:53:41.784Z</time></trkpt><trkpt lat="46.0007953" lon="11.7424735"><ele>706.7142857142857</ele><time>2026-04-12T07:53:45.726Z</time></trkpt><trkpt lat="46.0007423" lon="11.742411"><ele>707.4285714285714</ele><time>2026-04-12T07:53:48.74Z</time></trkpt><trkpt lat="46.0006882" lon="11.7423548"><ele>708.1428571428571</ele><time>2026-04-12T07:53:51.755Z</time></trkpt><trkpt lat="46.0006433" lon="11.7422819"><ele>708.8571428571429</ele><time>2026-04-12T07:53:54.77Z</time></trkpt><trkpt lat="46.0005782" lon="11.7422056"><ele>709.5714285714286</ele><time>2026-04-12T07:53:58.712Z</time></trkpt><trkpt lat="46.000513" lon="11.7421284"><ele>710.2857142857143</ele><time>2026-04-12T07:54:02.77Z</time></trkpt><trkpt lat="46.0004514" lon="11.7420918"><ele>711.0</ele><time>2026-04-12T07:54:05.667Z</time></trkpt><trkpt lat="46.0003908" lon="11.7420154"><ele>711.0</ele><time>2026-04-12T07:54:09.725Z</time></trkpt><trkpt lat="46.0003283" lon="11.7419514"><ele>711.0</ele><time>2026-04-12T07:54:12.74Z</time></trkpt><trkpt lat="46.0002617" lon="11.7419"><ele>711.0</ele><time>2026-04-12T07:54:15.755Z</time></trkpt><trkpt lat="46.0001989" lon="11.7418467"><ele>711.0</ele><time>2026-04-12T07:54:18.769Z</time></trkpt><trkpt lat="46.000141" lon="11.7417957"><ele>711.0</ele><time>2026-04-12T07:54:21.783Z</time></trkpt><trkpt lat="46.000092" lon="11.7417321"><ele>711.0</ele><time>2026-04-12T07:54:24.682Z</time></trkpt><trkpt lat="46.0000726" lon="11.7416441"><ele>711.0</ele><time>2026-04-12T07:54:27.696Z</time></trkpt><trkpt lat="46.0001383" lon="11.7416236"><ele>711.0</ele><time>2026-04-12T07:54:30.71Z</time></trkpt><trkpt lat="46.0002082" lon="11.7417033"><ele>711.0</ele><time>2026-04-12T07:54:33.726Z</time></trkpt><trkpt lat="46.000275" lon="11.7417573"><ele>711.0</ele><time>2026-04-12T07:54:36.74Z</time></trkpt><trkpt lat="46.0003342" lon="11.7418113"><ele>711.0</ele><time>2026-04-12T07:54:39.755Z</time></trkpt><trkpt lat="46.0003943" lon="11.741855"><ele>711.0</ele><time>2026-04-12T07:54:43.696Z</time></trkpt><trkpt lat="46.000467" lon="11.7418909"><ele>711.0</ele><time>2026-04-12T07:54:48.681Z</time></trkpt><trkpt lat="46.0005424" lon="11.7419217"><ele>711.0</ele><time>2026-04-12T07:54:52.739Z</time></trkpt><trkpt lat="46.0006051" lon="11.7419566"><ele>711.0</ele><time>2026-04-12T07:54:55.755Z</time></trkpt><trkpt lat="46.0006614" lon="11.7420039"><ele>711.0</ele><time>2026-04-12T07:54:58.769Z</time></trkpt><trkpt lat="46.0007117" lon="11.7420687"><ele>711.0</ele><time>2026-04-12T07:55:01.784Z</time></trkpt><trkpt lat="46.0007632" lon="11.7421487"><ele>711.0</ele><time>2026-04-12T07:55:04.682Z</time></trkpt><trkpt lat="46.0008083" lon="11.7422124"><ele>711.0</ele><time>2026-04-12T07:55:07.696Z</time></trkpt><trkpt lat="46.0008592" lon="11.742271"><ele>711.0</ele><time>2026-04-12T07:55:10.71Z</time></trkpt><trkpt lat="46.000923" lon="11.7423156"><ele>714.8571428571429</ele><time>2026-04-12T07:55:13.725Z</time></trkpt><trkpt lat="46.0009852" lon="11.7423538"><ele>718.7142857142857</ele><time>2026-04-12T07:55:16.74Z</time></trkpt><trkpt lat="46.0010406" lon="11.7424114"><ele>722.5714285714286</ele><time>2026-04-12T07:55:19.754Z</time></trkpt><trkpt lat="46.0011007" lon="11.7424654"><ele>726.4285714285714</ele><time>2026-04-12T07:55:22.769Z</time></trkpt><trkpt lat="46.001167" lon="11.7424987"><ele>730.2857142857142</ele><time>2026-04-12T07:55:25.784Z</time></trkpt><trkpt lat="46.0012283" lon="11.7425461"><ele>734.1428571428571</ele><time>2026-04-12T07:55:28.681Z</time></trkpt><trkpt lat="46.0012956" lon="11.7426011"><ele>738.0</ele><time>2026-04-12T07:55:32.74Z</time></trkpt><trkpt lat="46.0013601" lon="11.7426285"><ele>738.0</ele><time>2026-04-12T07:55:35.753Z</time></trkpt><trkpt lat="46.0014232" lon="11.7426644"><ele>738.0</ele><time>2026-04-12T07:55:38.768Z</time></trkpt><trkpt lat="46.0014956" lon="11.7427043"><ele>738.0</ele><time>2026-04-12T07:55:41.783Z</time></trkpt><trkpt lat="46.0015571" lon="11.7427441"><ele>738.0</ele><time>2026-04-12T07:55:44.682Z</time></trkpt><trkpt lat="46.0016227" lon="11.7427715"><ele>738.0</ele><time>2026-04-12T07:55:47.695Z</time></trkpt><trkpt lat="46.0016901" lon="11.7428011"><ele>738.0</ele><time>2026-04-12T07:55:50.711Z</time></trkpt><trkpt lat="46.0017523" lon="11.7428378"><ele>738.0</ele><time>2026-04-12T07:55:53.724Z</time></trkpt><trkpt lat="46.0018226" lon="11.7428679"><ele>735.1666666666666</ele><time>2026-04-12T07:55:56.74Z</time></trkpt><trkpt lat="46.001898" lon="11.7428836"><ele>732.3333333333334</ele><time>2026-04-12T07:55:59.753Z</time></trkpt><trkpt lat="46.0019679" lon="11.7429054"><ele>729.5</ele><time>2026-04-12T07:56:02.768Z</time></trkpt><trkpt lat="46.0020441" lon="11.7429316"><ele>726.6666666666667</ele><time>2026-04-12T07:56:06.71Z</time></trkpt><trkpt lat="46.0021247" lon="11.7429505"><ele>723.8333333333334</ele><time>2026-04-12T07:56:10.769Z</time></trkpt><trkpt lat="46.0021964" lon="11.7429657"><ele>721.0</ele><time>2026-04-12T07:56:13.782Z</time></trkpt><trkpt lat="46.0022737" lon="11.7429872"><ele>721.0</ele><time>2026-04-12T07:56:16.682Z</time></trkpt><trkpt lat="46.0023387" lon="11.7430232"><ele>721.0</ele><time>2026-04-12T07:56:19.696Z</time></trkpt><trkpt lat="46.0024114" lon="11.7430553"><ele>721.0</ele><time>2026-04-12T07:56:23.753Z</time></trkpt><trkpt lat="46.0024811" lon="11.7430908"><ele>721.0</ele><time>2026-04-12T07:56:27.695Z</time></trkpt><trkpt lat="46.0025517" lon="11.7431242"><ele>721.0</ele><time>2026-04-12T07:56:31.754Z</time></trkpt><trkpt lat="46.0026151" lon="11.7431344"><ele>721.0</ele><time>2026-04-12T07:56:34.767Z</time></trkpt><trkpt lat="46.0026816" lon="11.743151"><ele>721.0</ele><time>2026-04-12T07:56:37.783Z</time></trkpt><trkpt lat="46.0027568" lon="11.7431823"><ele>725.1428571428571</ele><time>2026-04-12T07:56:41.725Z</time></trkpt><trkpt lat="46.0028188" lon="11.7432034"><ele>729.2857142857142</ele><time>2026-04-12T07:56:44.738Z</time></trkpt><trkpt lat="46.0028901" lon="11.7432299"><ele>733.4285714285714</ele><time>2026-04-12T07:56:48.68Z</time></trkpt><trkpt lat="46.0029603" lon="11.7432455"><ele>737.5714285714286</ele><time>2026-04-12T07:56:52.738Z</time></trkpt><trkpt lat="46.0030303" lon="11.7432864"><ele>741.7142857142857</ele><time>2026-04-12T07:56:56.681Z</time></trkpt><trkpt lat="46.0030941" lon="11.7433183"><ele>745.8571428571429</ele><time>2026-04-12T07:56:59.695Z</time></trkpt><trkpt lat="46.0031643" lon="11.7433688"><ele>750.0</ele><time>2026-04-12T07:57:03.754Z</time></trkpt><trkpt lat="46.0032253" lon="11.7434244"><ele>750.0</ele><time>2026-04-12T07:57:09.782Z</time></trkpt><trkpt lat="46.0032871" lon="11.743498"><ele>750.0</ele><time>2026-04-12T07:57:13.724Z</time></trkpt><trkpt lat="46.0033471" lon="11.7435601"><ele>750.0</ele><time>2026-04-12T07:57:16.738Z</time></trkpt><trkpt lat="46.0034207" lon="11.7436347"><ele>750.0</ele><time>2026-04-12T07:57:19.753Z</time></trkpt><trkpt lat="46.0034743" lon="11.7436869"><ele>750.0</ele><time>2026-04-12T07:57:21.724Z</time></trkpt><trkpt lat="46.003524" lon="11.7437579"><ele>750.0</ele><time>2026-04-12T07:57:24.738Z</time></trkpt><trkpt lat="46.0035912" lon="11.7438129"><ele>747.2857142857143</ele><time>2026-04-12T07:57:28.681Z</time></trkpt><trkpt lat="46.0036573" lon="11.7438397"><ele>744.5714285714286</ele><time>2026-04-12T07:57:31.665Z</time></trkpt><trkpt lat="46.0037305" lon="11.7438625"><ele>741.8571428571429</ele><time>2026-04-12T07:57:34.709Z</time></trkpt><trkpt lat="46.0038048" lon="11.7438993"><ele>739.1428571428571</ele><time>2026-04-12T07:57:38.767Z</time></trkpt><trkpt lat="46.0038818" lon="11.7439142"><ele>736.4285714285713</ele><time>2026-04-12T07:57:42.709Z</time></trkpt><trkpt lat="46.0039448" lon="11.743913"><ele>733.7142857142857</ele><time>2026-04-12T07:57:45.723Z</time></trkpt><trkpt lat="46.0040164" lon="11.7439083"><ele>731.0</ele><time>2026-04-12T07:57:48.738Z</time></trkpt><trkpt lat="46.0040872" lon="11.7438998"><ele>733.7142857142857</ele><time>2026-04-12T07:57:51.753Z</time></trkpt><trkpt lat="46.0041677" lon="11.7439013"><ele>736.4285714285713</ele><time>2026-04-12T07:57:55.694Z</time></trkpt><trkpt lat="46.0042501" lon="11.7438729"><ele>739.1428571428571</ele><time>2026-04-12T07:57:59.752Z</time></trkpt><trkpt lat="46.0043118" lon="11.7438437"><ele>741.8571428571429</ele><time>2026-04-12T07:58:02.767Z</time></trkpt><trkpt lat="46.0043749" lon="11.7438199"><ele>744.5714285714286</ele><time>2026-04-12T07:58:05.782Z</time></trkpt><trkpt lat="46.0044389" lon="11.7437566"><ele>747.2857142857143</ele><time>2026-04-12T07:58:09.723Z</time></trkpt><trkpt lat="46.0044807" lon="11.7436686"><ele>750.0</ele><time>2026-04-12T07:58:12.737Z</time></trkpt><trkpt lat="46.0045255" lon="11.7435871"><ele>756.1428571428572</ele><time>2026-04-12T07:58:15.752Z</time></trkpt><trkpt lat="46.0045716" lon="11.743516"><ele>762.2857142857142</ele><time>2026-04-12T07:58:18.766Z</time></trkpt><trkpt lat="46.0045978" lon="11.7434309"><ele>768.4285714285714</ele><time>2026-04-12T07:58:21.781Z</time></trkpt><trkpt lat="46.0046151" lon="11.7433391"><ele>774.5714285714287</ele><time>2026-04-12T07:58:24.795Z</time></trkpt><trkpt lat="46.0046512" lon="11.7432354"><ele>780.7142857142858</ele><time>2026-04-12T07:58:28.737Z</time></trkpt><trkpt lat="46.0046747" lon="11.7431446"><ele>786.8571428571429</ele><time>2026-04-12T07:58:31.752Z</time></trkpt><trkpt lat="46.0047146" lon="11.74305"><ele>793.0</ele><time>2026-04-12T07:58:35.694Z</time></trkpt><trkpt lat="46.0047726" lon="11.7430074"><ele>793.0000000000001</ele><time>2026-04-12T07:58:38.708Z</time></trkpt><trkpt lat="46.0048375" lon="11.7429613"><ele>793.0</ele><time>2026-04-12T07:58:41.723Z</time></trkpt><trkpt lat="46.0048913" lon="11.7428986"><ele>793.0</ele><time>2026-04-12T07:58:44.737Z</time></trkpt><trkpt lat="46.0049518" lon="11.7428581"><ele>793.0</ele><time>2026-04-12T07:58:47.752Z</time></trkpt><trkpt lat="46.0050196" lon="11.7428418"><ele>793.0</ele><time>2026-04-12T07:58:51.695Z</time></trkpt><trkpt lat="46.0051021" lon="11.7428443"><ele>793.0000000000001</ele><time>2026-04-12T07:58:55.751Z</time></trkpt><trkpt lat="46.0051834" lon="11.7428747"><ele>793.0</ele><time>2026-04-12T07:58:59.693Z</time></trkpt><trkpt lat="46.0052666" lon="11.7428862"><ele>790.1666666666666</ele><time>2026-04-12T07:59:02.709Z</time></trkpt><trkpt lat="46.0053493" lon="11.7429117"><ele>787.3333333333333</ele><time>2026-04-12T07:59:05.723Z</time></trkpt><trkpt lat="46.0054206" lon="11.7429452"><ele>784.5</ele><time>2026-04-12T07:59:08.738Z</time></trkpt><trkpt lat="46.0055012" lon="11.7429349"><ele>781.6666666666667</ele><time>2026-04-12T07:59:11.752Z</time></trkpt><trkpt lat="46.0055762" lon="11.7429379"><ele>778.8333333333334</ele><time>2026-04-12T07:59:14.766Z</time></trkpt><trkpt lat="46.0056445" lon="11.7429509"><ele>776.0</ele><time>2026-04-12T07:59:17.665Z</time></trkpt><trkpt lat="46.0057144" lon="11.7429917"><ele>776.0000000000001</ele><time>2026-04-12T07:59:20.679Z</time></trkpt><trkpt lat="46.005776" lon="11.7430346"><ele>776.0</ele><time>2026-04-12T07:59:23.694Z</time></trkpt><trkpt lat="46.0058439" lon="11.7430845"><ele>776.0</ele><time>2026-04-12T07:59:29.722Z</time></trkpt><trkpt lat="46.0058977" lon="11.7431325"><ele>776.0</ele><time>2026-04-12T07:59:33.78Z</time></trkpt><trkpt lat="46.0059628" lon="11.7431936"><ele>776.0000000000001</ele><time>2026-04-12T07:59:37.722Z</time></trkpt><trkpt lat="46.0060324" lon="11.7432554"><ele>776.0</ele><time>2026-04-12T07:59:41.78Z</time></trkpt><trkpt lat="46.0060984" lon="11.7433268"><ele>776.0</ele><time>2026-04-12T07:59:45.722Z</time></trkpt><trkpt lat="46.0061555" lon="11.7433802"><ele>776.0</ele><time>2026-04-12T07:59:48.737Z</time></trkpt><trkpt lat="46.0062058" lon="11.7434488"><ele>776.0</ele><time>2026-04-12T07:59:51.751Z</time></trkpt><trkpt lat="46.0062588" lon="11.7435154"><ele>776.0</ele><time>2026-04-12T07:59:54.765Z</time></trkpt><trkpt lat="46.0063111" lon="11.7435728"><ele>776.0</ele><time>2026-04-12T07:59:57.781Z</time></trkpt><trkpt lat="46.0063604" lon="11.743636"><ele>776.0</ele><time>2026-04-12T08:00:00.678Z</time></trkpt><trkpt lat="46.0064278" lon="11.7436922"><ele>776.0</ele><time>2026-04-12T08:00:04.736Z</time></trkpt><trkpt lat="46.0064923" lon="11.7437427"><ele>776.0</ele><time>2026-04-12T08:00:08.678Z</time></trkpt><trkpt lat="46.0065488" lon="11.7437862"><ele>776.0</ele><time>2026-04-12T08:00:11.693Z</time></trkpt><trkpt lat="46.0066023" lon="11.743856"><ele>776.0</ele><time>2026-04-12T08:00:14.707Z</time></trkpt><trkpt lat="46.0066681" lon="11.743922"><ele>776.0</ele><time>2026-04-12T08:00:17.722Z</time></trkpt><trkpt lat="46.0067271" lon="11.7439767"><ele>776.0</ele><time>2026-04-12T08:00:20.736Z</time></trkpt><trkpt lat="46.0067788" lon="11.7440452"><ele>776.0</ele><time>2026-04-12T08:00:23.752Z</time></trkpt><trkpt lat="46.0068271" lon="11.7441109"><ele>776.0</ele><time>2026-04-12T08:00:26.765Z</time></trkpt><trkpt lat="46.0068522" lon="11.74422"><ele>779.1666666666667</ele><time>2026-04-12T08:00:30.707Z</time></trkpt><trkpt lat="46.0068863" lon="11.7443134"><ele>782.3333333333334</ele><time>2026-04-12T08:00:34.765Z</time></trkpt><trkpt lat="46.0069205" lon="11.7444145"><ele>785.5</ele><time>2026-04-12T08:00:38.707Z</time></trkpt><trkpt lat="46.0069158" lon="11.7445306"><ele>788.6666666666667</ele><time>2026-04-12T08:00:42.766Z</time></trkpt><trkpt lat="46.0068949" lon="11.7446533"><ele>791.8333333333334</ele><time>2026-04-12T08:00:46.73Z</time></trkpt><trkpt lat="46.0069063" lon="11.7447871"><ele>795.0</ele><time>2026-04-12T08:00:49.721Z</time></trkpt><trkpt lat="46.0069681" lon="11.7448534"><ele>795.0</ele><time>2026-04-12T08:00:52.736Z</time></trkpt><trkpt lat="46.0070395" lon="11.7448211"><ele>795.0</ele><time>2026-04-12T08:00:55.75Z</time></trkpt><trkpt lat="46.0070698" lon="11.7447326"><ele>795.0</ele><time>2026-04-12T08:00:58.765Z</time></trkpt><trkpt lat="46.0070975" lon="11.7446324"><ele>795.0</ele><time>2026-04-12T08:01:04.795Z</time></trkpt><trkpt lat="46.0071173" lon="11.7445415"><ele>795.0</ele><time>2026-04-12T08:01:06.765Z</time></trkpt><trkpt lat="46.0071362" lon="11.7444281"><ele>795.0</ele><time>2026-04-12T08:01:09.779Z</time></trkpt><trkpt lat="46.0071589" lon="11.7443177"><ele>795.0</ele><time>2026-04-12T08:01:12.748Z</time></trkpt><trkpt lat="46.0071719" lon="11.7442197"><ele>795.0</ele><time>2026-04-12T08:01:15.693Z</time></trkpt><trkpt lat="46.0071828" lon="11.7441085"><ele>795.0</ele><time>2026-04-12T08:01:18.707Z</time></trkpt><trkpt lat="46.0071729" lon="11.7439999"><ele>795.0</ele><time>2026-04-12T08:01:21.722Z</time></trkpt><trkpt lat="46.0071355" lon="11.7439107"><ele>795.0</ele><time>2026-04-12T08:01:24.736Z</time></trkpt><trkpt lat="46.0070745" lon="11.743851"><ele>795.0</ele><time>2026-04-12T08:01:27.75Z</time></trkpt><trkpt lat="46.0070111" lon="11.7438088"><ele>795.0</ele><time>2026-04-12T08:01:30.765Z</time></trkpt><trkpt lat="46.0069441" lon="11.7437529"><ele>795.0</ele><time>2026-04-12T08:01:34.706Z</time></trkpt><trkpt lat="46.0068835" lon="11.7437257"><ele>795.0</ele><time>2026-04-12T08:01:37.721Z</time></trkpt><trkpt lat="46.0068262" lon="11.7436684"><ele>795.0</ele><time>2026-04-12T08:01:41.779Z</time></trkpt><trkpt lat="46.0068042" lon="11.7435782"><ele>795.0</ele><time>2026-04-12T08:01:45.722Z</time></trkpt><trkpt lat="46.0067666" lon="11.743469"><ele>795.0</ele><time>2026-04-12T08:01:49.78Z</time></trkpt><trkpt lat="46.0067079" lon="11.7433795"><ele>795.0</ele><time>2026-04-12T08:01:53.722Z</time></trkpt><trkpt lat="46.0066548" lon="11.7433182"><ele>795.0</ele><time>2026-04-12T08:01:56.735Z</time></trkpt><trkpt lat="46.0066162" lon="11.7432374"><ele>795.0</ele><time>2026-04-12T08:01:59.75Z</time></trkpt><trkpt lat="46.0065648" lon="11.7431519"><ele>793.5</ele><time>2026-04-12T08:02:02.764Z</time></trkpt><trkpt lat="46.0065075" lon="11.7430863"><ele>792.0</ele><time>2026-04-12T08:02:05.779Z</time></trkpt><trkpt lat="46.0064524" lon="11.7430261"><ele>790.5</ele><time>2026-04-12T08:02:08.793Z</time></trkpt><trkpt lat="46.0063983" lon="11.7429467"><ele>789.0</ele><time>2026-04-12T08:02:12.735Z</time></trkpt><trkpt lat="46.0063339" lon="11.742872"><ele>787.5</ele><time>2026-04-12T08:02:16.794Z</time></trkpt><trkpt lat="46.0062739" lon="11.7427856"><ele>786.0</ele><time>2026-04-12T08:02:20.735Z</time></trkpt><trkpt lat="46.006201" lon="11.7427219"><ele>790.0</ele><time>2026-04-12T08:02:24.677Z</time></trkpt><trkpt lat="46.006141" lon="11.7426414"><ele>794.0</ele><time>2026-04-12T08:02:28.735Z</time></trkpt><trkpt lat="46.0060829" lon="11.7425629"><ele>798.0</ele><time>2026-04-12T08:02:32.793Z</time></trkpt><trkpt lat="46.0060269" lon="11.7424736"><ele>802.0</ele><time>2026-04-12T08:02:37.664Z</time></trkpt><trkpt lat="46.0059674" lon="11.7423897"><ele>806.0</ele><time>2026-04-12T08:02:40.665Z</time></trkpt><trkpt lat="46.0059236" lon="11.7423138"><ele>810.0</ele><time>2026-04-12T08:02:43.665Z</time></trkpt><trkpt lat="46.0059081" lon="11.7421931"><ele>809.9999999999999</ele><time>2026-04-12T08:02:46.666Z</time></trkpt><trkpt lat="46.005907" lon="11.7420827"><ele>810.0</ele><time>2026-04-12T08:02:49.665Z</time></trkpt><trkpt lat="46.0059151" lon="11.7419739"><ele>810.0</ele><time>2026-04-12T08:02:52.665Z</time></trkpt><trkpt lat="46.0059206" lon="11.7418578"><ele>810.0</ele><time>2026-04-12T08:02:56.665Z</time></trkpt><trkpt lat="46.005934" lon="11.7417602"><ele>810.0</ele><time>2026-04-12T08:02:59.666Z</time></trkpt><trkpt lat="46.0059411" lon="11.741666"><ele>809.9999999999999</ele><time>2026-04-12T08:03:02.667Z</time></trkpt><trkpt lat="46.005945" lon="11.7415691"><ele>810.0</ele><time>2026-04-12T08:03:05.666Z</time></trkpt><trkpt lat="46.0059522" lon="11.7414711"><ele>812.2857142857142</ele><time>2026-04-12T08:03:08.666Z</time></trkpt><trkpt lat="46.0059695" lon="11.7413589"><ele>814.5714285714286</ele><time>2026-04-12T08:03:11.666Z</time></trkpt><trkpt lat="46.0059773" lon="11.7412597"><ele>816.8571428571429</ele><time>2026-04-12T08:03:14.665Z</time></trkpt><trkpt lat="46.0059953" lon="11.7411368"><ele>819.1428571428571</ele><time>2026-04-12T08:03:18.665Z</time></trkpt><trkpt lat="46.0060032" lon="11.7410441"><ele>821.4285714285714</ele><time>2026-04-12T08:03:21.665Z</time></trkpt><trkpt lat="46.0060165" lon="11.7409463"><ele>823.7142857142857</ele><time>2026-04-12T08:03:24.666Z</time></trkpt><trkpt lat="46.0060388" lon="11.7408387"><ele>826.0</ele><time>2026-04-12T08:03:27.666Z</time></trkpt><trkpt lat="46.0060569" lon="11.7407448"><ele>827.1428571428571</ele><time>2026-04-12T08:03:30.666Z</time></trkpt><trkpt lat="46.0060658" lon="11.7406527"><ele>828.2857142857142</ele><time>2026-04-12T08:03:34.666Z</time></trkpt><trkpt lat="46.0060806" lon="11.7405481"><ele>829.4285714285714</ele><time>2026-04-12T08:03:38.665Z</time></trkpt><trkpt lat="46.0060987" lon="11.7404555"><ele>830.5714285714286</ele><time>2026-04-12T08:03:41.667Z</time></trkpt><trkpt lat="46.0061097" lon="11.7403643"><ele>831.7142857142857</ele><time>2026-04-12T08:03:44.667Z</time></trkpt><trkpt lat="46.0061116" lon="11.7402625"><ele>832.8571428571429</ele><time>2026-04-12T08:03:47.667Z</time></trkpt><trkpt lat="46.0060978" lon="11.7401472"><ele>834.0</ele><time>2026-04-12T08:03:50.666Z</time></trkpt><trkpt lat="46.0060516" lon="11.7400607"><ele>836.5714285714286</ele><time>2026-04-12T08:03:53.667Z</time></trkpt><trkpt lat="46.00599" lon="11.7399856"><ele>839.1428571428571</ele><time>2026-04-12T08:03:56.666Z</time></trkpt><trkpt lat="46.0059198" lon="11.7399718"><ele>841.7142857142857</ele><time>2026-04-12T08:03:59.666Z</time></trkpt><trkpt lat="46.005842" lon="11.7399986"><ele>844.2857142857142</ele><time>2026-04-12T08:04:02.666Z</time></trkpt><trkpt lat="46.0057825" lon="11.740065"><ele>846.8571428571429</ele><time>2026-04-12T08:04:06.666Z</time></trkpt><trkpt lat="46.0057141" lon="11.7401121"><ele>849.4285714285713</ele><time>2026-04-12T08:04:09.667Z</time></trkpt><trkpt lat="46.0056507" lon="11.7401424"><ele>852.0</ele><time>2026-04-12T08:04:12.667Z</time></trkpt><trkpt lat="46.0055811" lon="11.7401791"><ele>851.4285714285713</ele><time>2026-04-12T08:04:15.667Z</time></trkpt><trkpt lat="46.0055212" lon="11.7402336"><ele>850.8571428571429</ele><time>2026-04-12T08:04:19.666Z</time></trkpt><trkpt lat="46.0054568" lon="11.7402908"><ele>850.2857142857142</ele><time>2026-04-12T08:04:23.666Z</time></trkpt><trkpt lat="46.0053909" lon="11.7403407"><ele>849.7142857142857</ele><time>2026-04-12T08:04:26.667Z</time></trkpt><trkpt lat="46.0053252" lon="11.7403671"><ele>849.1428571428571</ele><time>2026-04-12T08:04:30.667Z</time></trkpt><trkpt lat="46.0052579" lon="11.7404283"><ele>848.5714285714286</ele><time>2026-04-12T08:04:33.667Z</time></trkpt><trkpt lat="46.0051854" lon="11.7404618"><ele>848.0</ele><time>2026-04-12T08:04:36.666Z</time></trkpt><trkpt lat="46.0051143" lon="11.7405007"><ele>848.0</ele><time>2026-04-12T08:04:40.666Z</time></trkpt><trkpt lat="46.005053" lon="11.740569"><ele>848.0</ele><time>2026-04-12T08:04:44.666Z</time></trkpt><trkpt lat="46.0050054" lon="11.7406292"><ele>848.0</ele><time>2026-04-12T08:04:46.666Z</time></trkpt><trkpt lat="46.004936" lon="11.7406855"><ele>848.0</ele><time>2026-04-12T08:04:49.667Z</time></trkpt><trkpt lat="46.0048762" lon="11.7407686"><ele>848.0</ele><time>2026-04-12T08:04:53.667Z</time></trkpt><trkpt lat="46.0048226" lon="11.7408259"><ele>848.0</ele><time>2026-04-12T08:04:56.668Z</time></trkpt><trkpt lat="46.0047607" lon="11.7408915"><ele>848.0</ele><time>2026-04-12T08:04:59.668Z</time></trkpt><trkpt lat="46.0046969" lon="11.7409351"><ele>850.4285714285714</ele><time>2026-04-12T08:05:03.667Z</time></trkpt><trkpt lat="46.0046337" lon="11.7409848"><ele>852.8571428571428</ele><time>2026-04-12T08:05:05.667Z</time></trkpt><trkpt lat="46.004583" lon="11.7410561"><ele>855.2857142857142</ele><time>2026-04-12T08:05:08.668Z</time></trkpt><trkpt lat="46.0045301" lon="11.7411133"><ele>857.7142857142858</ele><time>2026-04-12T08:05:11.668Z</time></trkpt><trkpt lat="46.0044698" lon="11.7411798"><ele>860.1428571428571</ele><time>2026-04-12T08:05:15.667Z</time></trkpt><trkpt lat="46.0044225" lon="11.7412405"><ele>862.5714285714286</ele><time>2026-04-12T08:05:19.667Z</time></trkpt><trkpt lat="46.0043717" lon="11.7412975"><ele>865.0</ele><time>2026-04-12T08:05:25.667Z</time></trkpt><trkpt lat="46.0043205" lon="11.7413524"><ele>865.0</ele><time>2026-04-12T08:05:29.668Z</time></trkpt><trkpt lat="46.0042588" lon="11.741413"><ele>865.0</ele><time>2026-04-12T08:05:33.668Z</time></trkpt><trkpt lat="46.0042204" lon="11.7415135"><ele>865.0</ele><time>2026-04-12T08:05:38.667Z</time></trkpt><trkpt lat="46.0041769" lon="11.7415859"><ele>865.0</ele><time>2026-04-12T08:05:41.668Z</time></trkpt><trkpt lat="46.00413" lon="11.741661"><ele>865.0</ele><time>2026-04-12T08:05:44.668Z</time></trkpt><trkpt lat="46.0040721" lon="11.7417226"><ele>865.0</ele><time>2026-04-12T08:05:47.668Z</time></trkpt><trkpt lat="46.0040116" lon="11.7418011"><ele>865.0</ele><time>2026-04-12T08:05:51.668Z</time></trkpt><trkpt lat="46.0039523" lon="11.741874"><ele>864.9999999999999</ele><time>2026-04-12T08:05:54.668Z</time></trkpt><trkpt lat="46.0039983" lon="11.7417857"><ele>865.0</ele><time>2026-04-12T08:06:02.668Z</time></trkpt><trkpt lat="46.004041" lon="11.7417141"><ele>865.0</ele><time>2026-04-12T08:06:05.668Z</time></trkpt><trkpt lat="46.0040808" lon="11.7416347"><ele>865.0</ele><time>2026-04-12T08:06:09.668Z</time></trkpt><trkpt lat="46.004134" lon="11.7415468"><ele>864.9999999999999</ele><time>2026-04-12T08:06:13.668Z</time></trkpt><trkpt lat="46.0041894" lon="11.7414596"><ele>865.0</ele><time>2026-04-12T08:06:17.669Z</time></trkpt><trkpt lat="46.0042349" lon="11.7413592"><ele>864.9999999999999</ele><time>2026-04-12T08:06:21.668Z</time></trkpt><trkpt lat="46.0042807" lon="11.7412758"><ele>865.0</ele><time>2026-04-12T08:06:24.669Z</time></trkpt><trkpt lat="46.0043343" lon="11.7411958"><ele>865.0</ele><time>2026-04-12T08:06:28.668Z</time></trkpt><trkpt lat="46.0043769" lon="11.7411057"><ele>865.0</ele><time>2026-04-12T08:06:31.668Z</time></trkpt><trkpt lat="46.0044308" lon="11.7410077"><ele>864.9999999999999</ele><time>2026-04-12T08:06:35.668Z</time></trkpt><trkpt lat="46.0044928" lon="11.740942"><ele>865.0</ele><time>2026-04-12T08:06:39.669Z</time></trkpt><trkpt lat="46.0045394" lon="11.7408482"><ele>869.8571428571429</ele><time>2026-04-12T08:06:42.67Z</time></trkpt><trkpt lat="46.0045721" lon="11.7407486"><ele>874.7142857142858</ele><time>2026-04-12T08:06:45.669Z</time></trkpt><trkpt lat="46.0046159" lon="11.7406692"><ele>879.5714285714284</ele><time>2026-04-12T08:06:48.668Z</time></trkpt><trkpt lat="46.0046711" lon="11.7405705"><ele>884.4285714285713</ele><time>2026-04-12T08:06:51.669Z</time></trkpt><trkpt lat="46.0047171" lon="11.7404949"><ele>889.2857142857142</ele><time>2026-04-12T08:06:54.669Z</time></trkpt><trkpt lat="46.0047632" lon="11.7404293"><ele>894.142857142857</ele><time>2026-04-12T08:06:57.669Z</time></trkpt><trkpt lat="46.0048256" lon="11.7403596"><ele>898.9999999999999</ele><time>2026-04-12T08:07:01.669Z</time></trkpt><trkpt lat="46.0048649" lon="11.7402718"><ele>897.5714285714284</ele><time>2026-04-12T08:07:03.669Z</time></trkpt><trkpt lat="46.0049186" lon="11.7402048"><ele>896.1428571428571</ele><time>2026-04-12T08:07:07.669Z</time></trkpt><trkpt lat="46.0049787" lon="11.7401514"><ele>894.7142857142857</ele><time>2026-04-12T08:07:11.67Z</time></trkpt><trkpt lat="46.0050417" lon="11.7401282"><ele>893.2857142857142</ele><time>2026-04-12T08:07:15.67Z</time></trkpt><trkpt lat="46.0051022" lon="11.7400752"><ele>891.8571428571429</ele><time>2026-04-12T08:07:19.67Z</time></trkpt><trkpt lat="46.0051655" lon="11.7399858"><ele>890.4285714285714</ele><time>2026-04-12T08:07:23.67Z</time></trkpt><trkpt lat="46.0052173" lon="11.7398991"><ele>889.0</ele><time>2026-04-12T08:07:26.67Z</time></trkpt><trkpt lat="46.005259" lon="11.7398269"><ele>889.0</ele><time>2026-04-12T08:07:29.669Z</time></trkpt><trkpt lat="46.005306" lon="11.7397632"><ele>889.0</ele><time>2026-04-12T08:07:32.67Z</time></trkpt><trkpt lat="46.0053677" lon="11.7396997"><ele>889.0</ele><time>2026-04-12T08:07:36.67Z</time></trkpt><trkpt lat="46.0054233" lon="11.7396536"><ele>889.0</ele><time>2026-04-12T08:07:40.669Z</time></trkpt><trkpt lat="46.0054833" lon="11.7395965"><ele>889.0</ele><time>2026-04-12T08:07:44.671Z</time></trkpt><trkpt lat="46.0055318" lon="11.7395081"><ele>889.0</ele><time>2026-04-12T08:07:47.671Z</time></trkpt><trkpt lat="46.0055761" lon="11.739437"><ele>889.0</ele><time>2026-04-12T08:07:50.671Z</time></trkpt><trkpt lat="46.0056282" lon="11.7393693"><ele>888.0</ele><time>2026-04-12T08:07:54.671Z</time></trkpt><trkpt lat="46.0056617" lon="11.7392874"><ele>887.0</ele><time>2026-04-12T08:07:56.669Z</time></trkpt><trkpt lat="46.0057146" lon="11.7392058"><ele>886.0</ele><time>2026-04-12T08:08:00.67Z</time></trkpt><trkpt lat="46.0057734" lon="11.7391577"><ele>885.0</ele><time>2026-04-12T08:08:05.67Z</time></trkpt><trkpt lat="46.0058343" lon="11.7391001"><ele>884.0</ele><time>2026-04-12T08:08:09.67Z</time></trkpt><trkpt lat="46.0058927" lon="11.7390111"><ele>883.0</ele><time>2026-04-12T08:08:13.67Z</time></trkpt><trkpt lat="46.0059395" lon="11.7389181"><ele>882.0</ele><time>2026-04-12T08:08:16.67Z</time></trkpt><trkpt lat="46.005984" lon="11.7388228"><ele>882.0</ele><time>2026-04-12T08:08:19.671Z</time></trkpt><trkpt lat="46.0060318" lon="11.7387584"><ele>882.0</ele><time>2026-04-12T08:08:22.671Z</time></trkpt><trkpt lat="46.0060706" lon="11.7386676"><ele>882.0</ele><time>2026-04-12T08:08:25.671Z</time></trkpt><trkpt lat="46.0061269" lon="11.7385989"><ele>882.0</ele><time>2026-04-12T08:08:29.67Z</time></trkpt><trkpt lat="46.0061775" lon="11.7385269"><ele>882.0</ele><time>2026-04-12T08:08:33.67Z</time></trkpt><trkpt lat="46.00622" lon="11.7384503"><ele>882.0</ele><time>2026-04-12T08:08:36.671Z</time></trkpt><trkpt lat="46.0062739" lon="11.738384"><ele>882.0</ele><time>2026-04-12T08:08:40.67Z</time></trkpt><trkpt lat="46.0063174" lon="11.7383095"><ele>887.5714285714286</ele><time>2026-04-12T08:08:43.67Z</time></trkpt><trkpt lat="46.0063698" lon="11.7382554"><ele>893.1428571428571</ele><time>2026-04-12T08:08:46.671Z</time></trkpt><trkpt lat="46.0064272" lon="11.7381736"><ele>898.7142857142858</ele><time>2026-04-12T08:08:51.67Z</time></trkpt><trkpt lat="46.0064764" lon="11.7381158"><ele>904.2857142857143</ele><time>2026-04-12T08:08:54.67Z</time></trkpt><trkpt lat="46.0065337" lon="11.7380392"><ele>909.8571428571429</ele><time>2026-04-12T08:08:58.672Z</time></trkpt><trkpt lat="46.0065841" lon="11.7379604"><ele>915.4285714285716</ele><time>2026-04-12T08:09:02.671Z</time></trkpt><trkpt lat="46.0066157" lon="11.7378749"><ele>921.0000000000001</ele><time>2026-04-12T08:09:05.67Z</time></trkpt><trkpt lat="46.0066576" lon="11.7377948"><ele>919.857142857143</ele><time>2026-04-12T08:09:08.671Z</time></trkpt><trkpt lat="46.0066957" lon="11.7377159"><ele>918.7142857142858</ele><time>2026-04-12T08:09:11.671Z</time></trkpt><trkpt lat="46.006733" lon="11.7376161"><ele>917.5714285714286</ele><time>2026-04-12T08:09:14.672Z</time></trkpt><trkpt lat="46.0067644" lon="11.7375372"><ele>916.4285714285714</ele><time>2026-04-12T08:09:17.672Z</time></trkpt><trkpt lat="46.0067949" lon="11.7374445"><ele>915.2857142857142</ele><time>2026-04-12T08:09:20.672Z</time></trkpt><trkpt lat="46.0068501" lon="11.7373415"><ele>914.142857142857</ele><time>2026-04-12T08:09:24.672Z</time></trkpt><trkpt lat="46.0068904" lon="11.7372552"><ele>912.9999999999999</ele><time>2026-04-12T08:09:27.671Z</time></trkpt><trkpt lat="46.0069518" lon="11.7371476"><ele>912.9999999999999</ele><time>2026-04-12T08:09:30.672Z</time></trkpt><trkpt lat="46.0070003" lon="11.7370581"><ele>913.0</ele><time>2026-04-12T08:09:34.672Z</time></trkpt><trkpt lat="46.0070382" lon="11.736985"><ele>912.9999999999999</ele><time>2026-04-12T08:09:37.672Z</time></trkpt><trkpt lat="46.0070765" lon="11.7368994"><ele>912.9999999999999</ele><time>2026-04-12T08:09:41.671Z</time></trkpt><trkpt lat="46.0071011" lon="11.7367904"><ele>913.0</ele><time>2026-04-12T08:09:46.671Z</time></trkpt><trkpt lat="46.0071156" lon="11.736691"><ele>912.9999999999999</ele><time>2026-04-12T08:09:49.672Z</time></trkpt><trkpt lat="46.0071517" lon="11.7365782"><ele>912.9999999999999</ele><time>2026-04-12T08:09:52.672Z</time></trkpt><trkpt lat="46.0072008" lon="11.7364897"><ele>911.5714285714284</ele><time>2026-04-12T08:09:56.672Z</time></trkpt><trkpt lat="46.0072525" lon="11.7364329"><ele>910.1428571428571</ele><time>2026-04-12T08:09:59.672Z</time></trkpt><trkpt lat="46.0073251" lon="11.7363598"><ele>908.7142857142857</ele><time>2026-04-12T08:10:03.672Z</time></trkpt><trkpt lat="46.0073789" lon="11.7362864"><ele>907.2857142857142</ele><time>2026-04-12T08:10:06.673Z</time></trkpt><trkpt lat="46.0074313" lon="11.7361991"><ele>905.8571428571429</ele><time>2026-04-12T08:10:10.671Z</time></trkpt><trkpt lat="46.0074827" lon="11.7361334"><ele>904.4285714285714</ele><time>2026-04-12T08:10:13.672Z</time></trkpt><trkpt lat="46.0075313" lon="11.7360708"><ele>903.0</ele><time>2026-04-12T08:10:16.673Z</time></trkpt><trkpt lat="46.0075656" lon="11.7359872"><ele>906.0</ele><time>2026-04-12T08:10:19.672Z</time></trkpt><trkpt lat="46.0076047" lon="11.7358962"><ele>909.0</ele><time>2026-04-12T08:10:23.672Z</time></trkpt><trkpt lat="46.0076251" lon="11.73581"><ele>912.0</ele><time>2026-04-12T08:10:27.672Z</time></trkpt><trkpt lat="46.0076433" lon="11.7357062"><ele>915.0</ele><time>2026-04-12T08:10:32.673Z</time></trkpt><trkpt lat="46.0076947" lon="11.7356183"><ele>918.0</ele><time>2026-04-12T08:10:35.673Z</time></trkpt><trkpt lat="46.0077534" lon="11.7355466"><ele>921.0</ele><time>2026-04-12T08:10:38.673Z</time></trkpt><trkpt lat="46.0078153" lon="11.7354889"><ele>924.0</ele><time>2026-04-12T08:10:41.672Z</time></trkpt><trkpt lat="46.0078902" lon="11.7355357"><ele>924.0</ele><time>2026-04-12T08:10:46.673Z</time></trkpt><trkpt lat="46.0079302" lon="11.7356106"><ele>924.0</ele><time>2026-04-12T08:10:49.673Z</time></trkpt><trkpt lat="46.0079702" lon="11.735691"><ele>924.0</ele><time>2026-04-12T08:10:52.672Z</time></trkpt><trkpt lat="46.0080195" lon="11.7357877"><ele>924.0</ele><time>2026-04-12T08:10:56.673Z</time></trkpt><trkpt lat="46.0080648" lon="11.7358512"><ele>924.0</ele><time>2026-04-12T08:10:58.672Z</time></trkpt><trkpt lat="46.0081259" lon="11.73592"><ele>924.0</ele><time>2026-04-12T08:11:01.673Z</time></trkpt><trkpt lat="46.0081777" lon="11.7360076"><ele>924.0</ele><time>2026-04-12T08:11:05.673Z</time></trkpt><trkpt lat="46.0081541" lon="11.7361211"><ele>920.5</ele><time>2026-04-12T08:11:09.672Z</time></trkpt><trkpt lat="46.0081132" lon="11.7362288"><ele>917.0</ele><time>2026-04-12T08:11:13.674Z</time></trkpt><trkpt lat="46.0080825" lon="11.7363234"><ele>913.5</ele><time>2026-04-12T08:11:16.672Z</time></trkpt><trkpt lat="46.0080605" lon="11.7364355"><ele>910.0</ele><time>2026-04-12T08:11:19.673Z</time></trkpt><trkpt lat="46.0080413" lon="11.7365414"><ele>906.5</ele><time>2026-04-12T08:11:22.674Z</time></trkpt><trkpt lat="46.0080182" lon="11.7366541"><ele>903.0</ele><time>2026-04-12T08:11:26.674Z</time></trkpt><trkpt lat="46.0080147" lon="11.7367529"><ele>903.0</ele><time>2026-04-12T08:11:29.674Z</time></trkpt><trkpt lat="46.0080209" lon="11.7368437"><ele>903.0</ele><time>2026-04-12T08:11:32.673Z</time></trkpt><trkpt lat="46.0080265" lon="11.7369597"><ele>903.0</ele><time>2026-04-12T08:11:35.674Z</time></trkpt><trkpt lat="46.0080331" lon="11.737074"><ele>903.0</ele><time>2026-04-12T08:11:38.674Z</time></trkpt><trkpt lat="46.0080437" lon="11.7371836"><ele>903.0</ele><time>2026-04-12T08:11:41.673Z</time></trkpt><trkpt lat="46.0080514" lon="11.7372908"><ele>903.0</ele><time>2026-04-12T08:11:44.674Z</time></trkpt><trkpt lat="46.0080491" lon="11.7373826"><ele>903.0</ele><time>2026-04-12T08:11:47.674Z</time></trkpt><trkpt lat="46.0080675" lon="11.737483"><ele>901.25</ele><time>2026-04-12T08:11:50.673Z</time></trkpt><trkpt lat="46.0080889" lon="11.7376075"><ele>899.5</ele><time>2026-04-12T08:11:54.673Z</time></trkpt><trkpt lat="46.008113" lon="11.7376996"><ele>897.75</ele><time>2026-04-12T08:11:57.674Z</time></trkpt><trkpt lat="46.0081256" lon="11.7378128"><ele>896.0</ele><time>2026-04-12T08:12:01.674Z</time></trkpt><trkpt lat="46.0073251" lon="11.7363598"><ele>897.0</ele><time>2026-04-12T08:10:03.672Z</time></trkpt><trkpt lat="46.0073789" lon="11.7362864"><ele>898.0</ele><time>2026-04-12T08:10:06.673Z</time></trkpt><trkpt lat="46.0074313" lon="11.7361991"><ele>899.0</ele><time>2026-04-12T08:10:10.671Z</time></trkpt><trkpt lat="46.0074827" lon="11.7361334"><ele>900.0</ele><time>2026-04-12T08:10:13.672Z</time></trkpt><trkpt lat="46.0075313" lon="11.7360708"><ele>901.0</ele><time>2026-04-12T08:10:16.673Z</time></trkpt><trkpt lat="46.0075656" lon="11.7359872"><ele>902.0</ele><time>2026-04-12T08:10:19.672Z</time></trkpt><trkpt lat="46.0076047" lon="11.7358962"><ele>903.0</ele><time>2026-04-12T08:10:23.672Z</time></trkpt><trkpt lat="46.0076251" lon="11.73581"><ele>906.5</ele><time>2026-04-12T08:10:27.672Z</time></trkpt><trkpt lat="46.0076433" lon="11.7357062"><ele>910.0</ele><time>2026-04-12T08:10:32.673Z</time></trkpt><trkpt lat="46.0076947" lon="11.7356183"><ele>913.5</ele><time>2026-04-12T08:10:35.673Z</time></trkpt><trkpt lat="46.0077534" lon="11.7355466"><ele>917.0</ele><time>2026-04-12T08:10:38.673Z</time></trkpt><trkpt lat="46.0078153" lon="11.7354889"><ele>920.5</ele><time>2026-04-12T08:10:41.672Z</time></trkpt><trkpt lat="46.0078902" lon="11.7355357"><ele>924.0</ele><time>2026-04-12T08:10:46.673Z</time></trkpt><trkpt lat="46.0079302" lon="11.7356106"><ele>924.0</ele><time>2026-04-12T08:10:49.673Z</time></trkpt><trkpt lat="46.0079702" lon="11.735691"><ele>924.0</ele><time>2026-04-12T08:10:52.672Z</time></trkpt><trkpt lat="46.0080195" lon="11.7357877"><ele>924.0</ele><time>2026-04-12T08:10:56.673Z</time></trkpt><trkpt lat="46.0080648" lon="11.7358512"><ele>924.0</ele><time>2026-04-12T08:10:58.672Z</time></trkpt><trkpt lat="46.0081259" lon="11.73592"><ele>924.0</ele><time>2026-04-12T08:11:01.673Z</time></trkpt><trkpt lat="46.0081777" lon="11.7360076"><ele>924.0</ele><time>2026-04-12T08:11:05.673Z</time></trkpt><trkpt lat="46.0081541" lon="11.7361211"><ele>920.5</ele><time>2026-04-12T08:11:09.672Z</time></trkpt><trkpt lat="46.0081132" lon="11.7362288"><ele>917.0</ele><time>2026-04-12T08:11:13.674Z</time></trkpt><trkpt lat="46.0080825" lon="11.7363234"><ele>913.5</ele><time>2026-04-12T08:11:16.672Z</time></trkpt><trkpt lat="46.0080605" lon="11.7364355"><ele>910.0</ele><time>2026-04-12T08:11:19.673Z</time></trkpt><trkpt lat="46.0080413" lon="11.7365414"><ele>906.5</ele><time>2026-04-12T08:11:22.674Z</time></trkpt><trkpt lat="46.0080182" lon="11.7366541"><ele>903.0</ele><time>2026-04-12T08:11:26.674Z</time></trkpt><trkpt lat="46.0080147" lon="11.7367529"><ele>903.0</ele><time>2026-04-12T08:11:29.674Z</time></trkpt><trkpt lat="46.0080209" lon="11.7368437"><ele>903.0</ele><time>2026-04-12T08:11:32.673Z</time></trkpt><trkpt lat="46.0080265" lon="11.7369597"><ele>903.0</ele><time>2026-04-12T08:11:35.674Z</time></trkpt><trkpt lat="46.0080331" lon="11.737074"><ele>903.0</ele><time>2026-04-12T08:11:38.674Z</time></trkpt><trkpt lat="46.0080437" lon="11.7371836"><ele>903.0</ele><time>2026-04-12T08:11:41.673Z</time></trkpt><trkpt lat="46.0080514" lon="11.7372908"><ele>903.0</ele><time>2026-04-12T08:11:44.674Z</time></trkpt><trkpt lat="46.0080491" lon="11.7373826"><ele>903.0</ele><time>2026-04-12T08:11:47.674Z</time></trkpt><trkpt lat="46.0080675" lon="11.737483"><ele>901.8333333333334</ele><time>2026-04-12T08:11:50.673Z</time></trkpt><trkpt lat="46.0080889" lon="11.7376075"><ele>900.6666666666667</ele><time>2026-04-12T08:11:54.673Z</time></trkpt><trkpt lat="46.008113" lon="11.7376996"><ele>899.5</ele><time>2026-04-12T08:11:57.674Z</time></trkpt><trkpt lat="46.0081256" lon="11.7378128"><ele>898.3333333333334</ele><time>2026-04-12T08:12:01.674Z</time></trkpt><trkpt lat="46.0080996" lon="11.7379006"><ele>897.1666666666667</ele><time>2026-04-12T08:12:04.673Z</time></trkpt><trkpt lat="46.0080662" lon="11.7379917"><ele>896.0</ele><time>2026-04-12T08:12:08.674Z</time></trkpt><trkpt lat="46.0080382" lon="11.7380954"><ele>895.8571428571429</ele><time>2026-04-12T08:12:11.674Z</time></trkpt><trkpt lat="46.0080084" lon="11.7381935"><ele>895.7142857142858</ele><time>2026-04-12T08:12:14.674Z</time></trkpt><trkpt lat="46.0079964" lon="11.7383099"><ele>895.5714285714286</ele><time>2026-04-12T08:12:17.675Z</time></trkpt><trkpt lat="46.0079795" lon="11.7384062"><ele>895.4285714285714</ele><time>2026-04-12T08:12:20.673Z</time></trkpt><trkpt lat="46.0079581" lon="11.7384969"><ele>895.2857142857143</ele><time>2026-04-12T08:12:23.673Z</time></trkpt><trkpt lat="46.0079347" lon="11.7385995"><ele>895.1428571428571</ele><time>2026-04-12T08:12:26.675Z</time></trkpt><trkpt lat="46.0079271" lon="11.738718"><ele>895.0</ele><time>2026-04-12T08:12:29.675Z</time></trkpt><trkpt lat="46.0079154" lon="11.738822"><ele>896.6666666666666</ele><time>2026-04-12T08:12:32.675Z</time></trkpt><trkpt lat="46.007897" lon="11.7389176"><ele>898.3333333333333</ele><time>2026-04-12T08:12:35.675Z</time></trkpt><trkpt lat="46.0078792" lon="11.7390213"><ele>900.0</ele><time>2026-04-12T08:12:39.675Z</time></trkpt><trkpt lat="46.0078573" lon="11.73912"><ele>901.6666666666667</ele><time>2026-04-12T08:12:42.675Z</time></trkpt><trkpt lat="46.0078361" lon="11.7392641"><ele>903.3333333333334</ele><time>2026-04-12T08:12:45.675Z</time></trkpt><trkpt lat="46.0078157" lon="11.7393779"><ele>905.0</ele><time>2026-04-12T08:12:48.675Z</time></trkpt><trkpt lat="46.0077994" lon="11.7394735"><ele>908.0000000000001</ele><time>2026-04-12T08:12:50.674Z</time></trkpt><trkpt lat="46.0077719" lon="11.7395851"><ele>911.0</ele><time>2026-04-12T08:12:53.674Z</time></trkpt><trkpt lat="46.0077418" lon="11.7396928"><ele>914.0</ele><time>2026-04-12T08:12:57.675Z</time></trkpt><trkpt lat="46.0077009" lon="11.7397936"><ele>917.0</ele><time>2026-04-12T08:13:00.674Z</time></trkpt><trkpt lat="46.0076654" lon="11.7399059"><ele>920.0000000000001</ele><time>2026-04-12T08:13:03.676Z</time></trkpt><trkpt lat="46.0076385" lon="11.7399984"><ele>923.0</ele><time>2026-04-12T08:13:06.675Z</time></trkpt><trkpt lat="46.0075999" lon="11.7400983"><ele>923.0000000000001</ele><time>2026-04-12T08:13:09.675Z</time></trkpt><trkpt lat="46.0075593" lon="11.7401991"><ele>923.0</ele><time>2026-04-12T08:13:12.676Z</time></trkpt><trkpt lat="46.0075332" lon="11.7402977"><ele>923.0</ele><time>2026-04-12T08:13:15.675Z</time></trkpt><trkpt lat="46.0075005" lon="11.7403992"><ele>923.0</ele><time>2026-04-12T08:13:18.674Z</time></trkpt><trkpt lat="46.0074747" lon="11.7405108"><ele>923.0000000000001</ele><time>2026-04-12T08:13:21.675Z</time></trkpt><trkpt lat="46.0074485" lon="11.7406118"><ele>923.0</ele><time>2026-04-12T08:13:24.675Z</time></trkpt><trkpt lat="46.0074228" lon="11.7407195"><ele>915.0000000000001</ele><time>2026-04-12T08:13:27.675Z</time></trkpt><trkpt lat="46.0073944" lon="11.7408216"><ele>907.0</ele><time>2026-04-12T08:13:30.676Z</time></trkpt><trkpt lat="46.0073733" lon="11.7409165"><ele>899.0</ele><time>2026-04-12T08:13:33.675Z</time></trkpt><trkpt lat="46.0073621" lon="11.7410402"><ele>891.0</ele><time>2026-04-12T08:13:36.675Z</time></trkpt><trkpt lat="46.0073631" lon="11.741162"><ele>883.0000000000001</ele><time>2026-04-12T08:13:39.675Z</time></trkpt><trkpt lat="46.0073726" lon="11.7412608"><ele>875.0</ele><time>2026-04-12T08:13:42.675Z</time></trkpt><trkpt lat="46.0074326" lon="11.7413166"><ele>874.8333333333334</ele><time>2026-04-12T08:13:45.676Z</time></trkpt><trkpt lat="46.0074739" lon="11.7412227"><ele>874.6666666666667</ele><time>2026-04-12T08:13:49.675Z</time></trkpt><trkpt lat="46.007483" lon="11.7410989"><ele>874.5</ele><time>2026-04-12T08:13:53.675Z</time></trkpt><trkpt lat="46.0074959" lon="11.7409988"><ele>874.3333333333333</ele><time>2026-04-12T08:13:56.675Z</time></trkpt><trkpt lat="46.0075095" lon="11.7408878"><ele>874.1666666666666</ele><time>2026-04-12T08:14:01.675Z</time></trkpt><trkpt lat="46.0075429" lon="11.7407911"><ele>874.0</ele><time>2026-04-12T08:14:04.675Z</time></trkpt><trkpt lat="46.0075626" lon="11.7406978"><ele>881.0</ele><time>2026-04-12T08:14:07.675Z</time></trkpt><trkpt lat="46.0075962" lon="11.7406142"><ele>888.0</ele><time>2026-04-12T08:14:10.676Z</time></trkpt><trkpt lat="46.0076331" lon="11.7405359"><ele>895.0</ele><time>2026-04-12T08:14:13.675Z</time></trkpt><trkpt lat="46.0076806" lon="11.740447"><ele>902.0</ele><time>2026-04-12T08:14:17.676Z</time></trkpt><trkpt lat="46.007725" lon="11.7403812"><ele>909.0</ele><time>2026-04-12T08:14:20.677Z</time></trkpt><trkpt lat="46.0077716" lon="11.740319"><ele>916.0</ele><time>2026-04-12T08:14:23.677Z</time></trkpt><trkpt lat="46.0078076" lon="11.7402302"><ele>923.0</ele><time>2026-04-12T08:14:28.676Z</time></trkpt><trkpt lat="46.0078475" lon="11.7401261"><ele>923.0</ele><time>2026-04-12T08:14:32.675Z</time></trkpt><trkpt lat="46.0078937" lon="11.7400458"><ele>923.0</ele><time>2026-04-12T08:14:35.676Z</time></trkpt><trkpt lat="46.0079353" lon="11.739974"><ele>923.0</ele><time>2026-04-12T08:14:38.676Z</time></trkpt><trkpt lat="46.0079816" lon="11.7398958"><ele>923.0</ele><time>2026-04-12T08:14:41.676Z</time></trkpt><trkpt lat="46.0080175" lon="11.7398011"><ele>923.0</ele><time>2026-04-12T08:14:44.677Z</time></trkpt><trkpt lat="46.008061" lon="11.7397041"><ele>923.0</ele><time>2026-04-12T08:14:47.677Z</time></trkpt><trkpt lat="46.0080963" lon="11.7396185"><ele>923.0</ele><time>2026-04-12T08:14:50.676Z</time></trkpt><trkpt lat="46.0081446" lon="11.7395359"><ele>923.0</ele><time>2026-04-12T08:14:53.676Z</time></trkpt><trkpt lat="46.0081725" lon="11.7394378"><ele>923.0</ele><time>2026-04-12T08:14:57.676Z</time></trkpt><trkpt lat="46.0082032" lon="11.7393577"><ele>923.0</ele><time>2026-04-12T08:15:00.676Z</time></trkpt><trkpt lat="46.0082367" lon="11.7392753"><ele>923.0</ele><time>2026-04-12T08:15:03.676Z</time></trkpt><trkpt lat="46.0082462" lon="11.7391726"><ele>923.0</ele><time>2026-04-12T08:15:07.676Z</time></trkpt><trkpt lat="46.0082762" lon="11.7390723"><ele>923.0</ele><time>2026-04-12T08:15:10.677Z</time></trkpt><trkpt lat="46.0083038" lon="11.7389742"><ele>923.0</ele><time>2026-04-12T08:15:13.676Z</time></trkpt><trkpt lat="46.0083349" lon="11.7388867"><ele>926.2857142857142</ele><time>2026-04-12T08:15:16.677Z</time></trkpt><trkpt lat="46.0083584" lon="11.7387688"><ele>929.5714285714287</ele><time>2026-04-12T08:15:20.678Z</time></trkpt><trkpt lat="46.0083888" lon="11.7386791"><ele>932.8571428571429</ele><time>2026-04-12T08:15:23.677Z</time></trkpt><trkpt lat="46.0084178" lon="11.7385889"><ele>936.1428571428571</ele><time>2026-04-12T08:15:26.677Z</time></trkpt><trkpt lat="46.0084476" lon="11.7384961"><ele>939.4285714285713</ele><time>2026-04-12T08:15:29.677Z</time></trkpt><trkpt lat="46.0084851" lon="11.7384017"><ele>942.7142857142858</ele><time>2026-04-12T08:15:32.677Z</time></trkpt><trkpt lat="46.0085235" lon="11.7383242"><ele>946.0</ele><time>2026-04-12T08:15:35.676Z</time></trkpt><trkpt lat="46.0085632" lon="11.7382206"><ele>946.0</ele><time>2026-04-12T08:15:39.678Z</time></trkpt><trkpt lat="46.0085927" lon="11.738136"><ele>946.0</ele><time>2026-04-12T08:15:42.678Z</time></trkpt><trkpt lat="46.0086134" lon="11.7380408"><ele>946.0</ele><time>2026-04-12T08:15:45.678Z</time></trkpt><trkpt lat="46.008628" lon="11.7379393"><ele>946.0</ele><time>2026-04-12T08:15:48.678Z</time></trkpt><trkpt lat="46.0086411" lon="11.7378384"><ele>946.0</ele><time>2026-04-12T08:15:51.677Z</time></trkpt><trkpt lat="46.0086491" lon="11.737732"><ele>946.0</ele><time>2026-04-12T08:15:54.677Z</time></trkpt><trkpt lat="46.0086502" lon="11.7376217"><ele>946.0</ele><time>2026-04-12T08:15:57.677Z</time></trkpt><trkpt lat="46.0086419" lon="11.7375097"><ele>945.4285714285714</ele><time>2026-04-12T08:16:01.677Z</time></trkpt><trkpt lat="46.0086381" lon="11.7374153"><ele>944.8571428571429</ele><time>2026-04-12T08:16:04.678Z</time></trkpt><trkpt lat="46.008654" lon="11.7373076"><ele>944.2857142857143</ele><time>2026-04-12T08:16:07.677Z</time></trkpt><trkpt lat="46.0086683" lon="11.7372028"><ele>943.7142857142858</ele><time>2026-04-12T08:16:10.678Z</time></trkpt><trkpt lat="46.0086828" lon="11.7371133"><ele>943.1428571428571</ele><time>2026-04-12T08:16:13.677Z</time></trkpt><trkpt lat="46.0087066" lon="11.737008"><ele>942.5714285714287</ele><time>2026-04-12T08:16:17.678Z</time></trkpt><trkpt lat="46.0087514" lon="11.736923"><ele>942.0000000000001</ele><time>2026-04-12T08:16:20.677Z</time></trkpt><trkpt lat="46.0088155" lon="11.7368821"><ele>942.0000000000001</ele><time>2026-04-12T08:16:23.679Z</time></trkpt><trkpt lat="46.0088969" lon="11.7368857"><ele>942.0</ele><time>2026-04-12T08:16:27.679Z</time></trkpt><trkpt lat="46.0089647" lon="11.7369261"><ele>942.0000000000001</ele><time>2026-04-12T08:16:31.677Z</time></trkpt><trkpt lat="46.0090245" lon="11.7369982"><ele>942.0000000000001</ele><time>2026-04-12T08:16:34.677Z</time></trkpt><trkpt lat="46.0090914" lon="11.7370349"><ele>942.0</ele><time>2026-04-12T08:16:37.677Z</time></trkpt><trkpt lat="46.0091639" lon="11.7370467"><ele>942.0000000000001</ele><time>2026-04-12T08:16:40.677Z</time></trkpt><trkpt lat="46.009228" lon="11.737001"><ele>942.0000000000001</ele><time>2026-04-12T08:16:43.677Z</time></trkpt><trkpt lat="46.0092608" lon="11.7368921"><ele>946.5714285714287</ele><time>2026-04-12T08:16:47.678Z</time></trkpt><trkpt lat="46.0092793" lon="11.7367786"><ele>951.1428571428571</ele><time>2026-04-12T08:16:51.678Z</time></trkpt><trkpt lat="46.0092851" lon="11.7366736"><ele>955.7142857142858</ele><time>2026-04-12T08:16:55.679Z</time></trkpt><trkpt lat="46.0093029" lon="11.7365702"><ele>960.2857142857143</ele><time>2026-04-12T08:16:58.678Z</time></trkpt><trkpt lat="46.0093325" lon="11.7364801"><ele>964.8571428571429</ele><time>2026-04-12T08:17:01.678Z</time></trkpt><trkpt lat="46.0093697" lon="11.7363963"><ele>969.4285714285714</ele><time>2026-04-12T08:17:04.679Z</time></trkpt><trkpt lat="46.0094052" lon="11.7362919"><ele>974.0</ele><time>2026-04-12T08:17:07.678Z</time></trkpt><trkpt lat="46.0094194" lon="11.736194"><ele>974.0000000000001</ele><time>2026-04-12T08:17:10.678Z</time></trkpt><trkpt lat="46.0093832" lon="11.7360927"><ele>974.0</ele><time>2026-04-12T08:17:14.678Z</time></trkpt><trkpt lat="46.0093743" lon="11.7359635"><ele>974.0</ele><time>2026-04-12T08:17:17.679Z</time></trkpt><trkpt lat="46.0093682" lon="11.7358463"><ele>974.0</ele><time>2026-04-12T08:17:20.679Z</time></trkpt><trkpt lat="46.0093821" lon="11.7357234"><ele>974.0000000000001</ele><time>2026-04-12T08:17:23.679Z</time></trkpt><trkpt lat="46.0093869" lon="11.7356058"><ele>974.0</ele><time>2026-04-12T08:17:26.679Z</time></trkpt><trkpt lat="46.0093946" lon="11.7355038"><ele>973.1666666666667</ele><time>2026-04-12T08:17:29.678Z</time></trkpt><trkpt lat="46.0094139" lon="11.7353999"><ele>972.3333333333334</ele><time>2026-04-12T08:17:32.679Z</time></trkpt><trkpt lat="46.0094382" lon="11.7352898"><ele>971.5</ele><time>2026-04-12T08:17:35.678Z</time></trkpt><trkpt lat="46.0094552" lon="11.73518"><ele>970.6666666666667</ele><time>2026-04-12T08:17:38.679Z</time></trkpt><trkpt lat="46.0094516" lon="11.7350824"><ele>969.8333333333334</ele><time>2026-04-12T08:17:41.68Z</time></trkpt><trkpt lat="46.0094672" lon="11.7349767"><ele>969.0</ele><time>2026-04-12T08:17:44.678Z</time></trkpt><trkpt lat="46.0094754" lon="11.734869"><ele>970.4285714285713</ele><time>2026-04-12T08:17:47.679Z</time></trkpt><trkpt lat="46.0094697" lon="11.7347765"><ele>971.8571428571429</ele><time>2026-04-12T08:17:50.678Z</time></trkpt><trkpt lat="46.0094626" lon="11.7346621"><ele>973.2857142857142</ele><time>2026-04-12T08:17:53.679Z</time></trkpt><trkpt lat="46.0094293" lon="11.7345617"><ele>974.7142857142857</ele><time>2026-04-12T08:17:56.679Z</time></trkpt><trkpt lat="46.0093791" lon="11.7344805"><ele>976.1428571428571</ele><time>2026-04-12T08:17:59.679Z</time></trkpt><trkpt lat="46.0093182" lon="11.7344138"><ele>977.5714285714286</ele><time>2026-04-12T08:18:02.68Z</time></trkpt><trkpt lat="46.0092599" lon="11.7343552"><ele>979.0</ele><time>2026-04-12T08:18:05.68Z</time></trkpt><trkpt lat="46.0091958" lon="11.7343382"><ele>975.9999999999999</ele><time>2026-04-12T08:18:08.679Z</time></trkpt><trkpt lat="46.0091209" lon="11.7343027"><ele>973.0</ele><time>2026-04-12T08:18:12.68Z</time></trkpt><trkpt lat="46.0090328" lon="11.7342755"><ele>970.0</ele><time>2026-04-12T08:18:15.68Z</time></trkpt><trkpt lat="46.0089654" lon="11.7342196"><ele>967.0</ele><time>2026-04-12T08:18:18.68Z</time></trkpt><trkpt lat="46.0089437" lon="11.7341299"><ele>963.9999999999999</ele><time>2026-04-12T08:18:21.68Z</time></trkpt><trkpt lat="46.0089218" lon="11.7340262"><ele>961.0</ele><time>2026-04-12T08:18:25.68Z</time></trkpt><trkpt lat="46.0089267" lon="11.7339219"><ele>961.0</ele><time>2026-04-12T08:18:28.681Z</time></trkpt><trkpt lat="46.0089055" lon="11.7338137"><ele>960.9999999999999</ele><time>2026-04-12T08:18:32.679Z</time></trkpt><trkpt lat="46.0088858" lon="11.7337093"><ele>961.0</ele><time>2026-04-12T08:18:35.68Z</time></trkpt><trkpt lat="46.0088679" lon="11.7336119"><ele>961.0</ele><time>2026-04-12T08:18:38.68Z</time></trkpt><trkpt lat="46.0088338" lon="11.7335147"><ele>960.9999999999999</ele><time>2026-04-12T08:18:41.681Z</time></trkpt><trkpt lat="46.0087994" lon="11.7334198"><ele>961.0</ele><time>2026-04-12T08:18:44.68Z</time></trkpt><trkpt lat="46.0087652" lon="11.7333289"><ele>961.0</ele><time>2026-04-12T08:18:47.68Z</time></trkpt><trkpt lat="46.008744" lon="11.733233"><ele>963.8333333333333</ele><time>2026-04-12T08:18:50.68Z</time></trkpt><trkpt lat="46.008721" lon="11.7331158"><ele>966.6666666666666</ele><time>2026-04-12T08:18:54.68Z</time></trkpt><trkpt lat="46.0086985" lon="11.7330257"><ele>969.5</ele><time>2026-04-12T08:18:57.681Z</time></trkpt><trkpt lat="46.0086662" lon="11.7329318"><ele>972.3333333333333</ele><time>2026-04-12T08:19:00.681Z</time></trkpt><trkpt lat="46.0086434" lon="11.7328049"><ele>975.1666666666666</ele><time>2026-04-12T08:19:04.681Z</time></trkpt><trkpt lat="46.0086256" lon="11.7327167"><ele>978.0</ele><time>2026-04-12T08:19:06.681Z</time></trkpt><trkpt lat="46.008616" lon="11.732603"><ele>980.3333333333334</ele><time>2026-04-12T08:19:09.681Z</time></trkpt><trkpt lat="46.0086233" lon="11.7324803"><ele>982.6666666666667</ele><time>2026-04-12T08:19:13.681Z</time></trkpt><trkpt lat="46.0086388" lon="11.7323823"><ele>985.0</ele><time>2026-04-12T08:19:16.68Z</time></trkpt><trkpt lat="46.0086561" lon="11.7322683"><ele>987.3333333333334</ele><time>2026-04-12T08:19:19.68Z</time></trkpt><trkpt lat="46.0086777" lon="11.7321528"><ele>989.6666666666667</ele><time>2026-04-12T08:19:22.68Z</time></trkpt><trkpt lat="46.0086911" lon="11.7320427"><ele>992.0</ele><time>2026-04-12T08:19:25.681Z</time></trkpt><trkpt lat="46.0086993" lon="11.7319314"><ele>993.8571428571429</ele><time>2026-04-12T08:19:28.68Z</time></trkpt><trkpt lat="46.008714" lon="11.7318341"><ele>995.7142857142858</ele><time>2026-04-12T08:19:31.68Z</time></trkpt><trkpt lat="46.0087328" lon="11.7317177"><ele>997.5714285714287</ele><time>2026-04-12T08:19:34.68Z</time></trkpt><trkpt lat="46.0087453" lon="11.7316188"><ele>999.4285714285716</ele><time>2026-04-12T08:19:37.681Z</time></trkpt><trkpt lat="46.0087452" lon="11.731522"><ele>1001.2857142857143</ele><time>2026-04-12T08:19:40.68Z</time></trkpt><trkpt lat="46.0087339" lon="11.7314194"><ele>1003.1428571428573</ele><time>2026-04-12T08:19:43.681Z</time></trkpt><trkpt lat="46.0087306" lon="11.7313048"><ele>1005.0000000000001</ele><time>2026-04-12T08:19:47.681Z</time></trkpt><trkpt lat="46.0087327" lon="11.7312053"><ele>1005.0</ele><time>2026-04-12T08:19:50.681Z</time></trkpt><trkpt lat="46.0087238" lon="11.731096"><ele>1005.0</ele><time>2026-04-12T08:19:53.68Z</time></trkpt><trkpt lat="46.0087228" lon="11.7309856"><ele>1005.0</ele><time>2026-04-12T08:19:56.682Z</time></trkpt><trkpt lat="46.008758" lon="11.7310876"><ele>1005.0</ele><time>2026-04-12T08:20:06.681Z</time></trkpt><trkpt lat="46.008768" lon="11.7311834"><ele>1005.0</ele><time>2026-04-12T08:20:09.682Z</time></trkpt><trkpt lat="46.0087826" lon="11.7313017"><ele>1005.0</ele><time>2026-04-12T08:20:12.681Z</time></trkpt><trkpt lat="46.0087961" lon="11.7314255"><ele>1005.0</ele><time>2026-04-12T08:20:15.681Z</time></trkpt><trkpt lat="46.0087958" lon="11.7315362"><ele>1005.0</ele><time>2026-04-12T08:20:18.682Z</time></trkpt><trkpt lat="46.0087983" lon="11.7316422"><ele>1005.0</ele><time>2026-04-12T08:20:21.681Z</time></trkpt><trkpt lat="46.0088009" lon="11.7317635"><ele>1005.0</ele><time>2026-04-12T08:20:24.681Z</time></trkpt><trkpt lat="46.0087988" lon="11.7318985"><ele>1005.0</ele><time>2026-04-12T08:20:27.682Z</time></trkpt><trkpt lat="46.0088001" lon="11.7320266"><ele>1005.0</ele><time>2026-04-12T08:20:30.682Z</time></trkpt><trkpt lat="46.0087955" lon="11.7321491"><ele>1002.8333333333334</ele><time>2026-04-12T08:20:33.682Z</time></trkpt><trkpt lat="46.0088083" lon="11.7322782"><ele>1000.6666666666667</ele><time>2026-04-12T08:20:36.682Z</time></trkpt><trkpt lat="46.0088238" lon="11.7323777"><ele>998.5</ele><time>2026-04-12T08:20:38.681Z</time></trkpt><trkpt lat="46.0088553" lon="11.732497"><ele>996.3333333333334</ele><time>2026-04-12T08:20:41.682Z</time></trkpt><trkpt lat="46.008901" lon="11.732606"><ele>994.1666666666667</ele><time>2026-04-12T08:20:44.682Z</time></trkpt><trkpt lat="46.0089398" lon="11.7327228"><ele>992.0</ele><time>2026-04-12T08:20:47.681Z</time></trkpt><trkpt lat="46.0089725" lon="11.7328043"><ele>990.0</ele><time>2026-04-12T08:20:49.681Z</time></trkpt><trkpt lat="46.0090017" lon="11.7328856"><ele>988.0000000000001</ele><time>2026-04-12T08:20:51.681Z</time></trkpt><trkpt lat="46.0090513" lon="11.7329866"><ele>986.0</ele><time>2026-04-12T08:20:54.682Z</time></trkpt><trkpt lat="46.0091228" lon="11.7330832"><ele>984.0</ele><time>2026-04-12T08:20:57.682Z</time></trkpt><trkpt lat="46.0091741" lon="11.7331378"><ele>982.0000000000001</ele><time>2026-04-12T08:20:59.682Z</time></trkpt><trkpt lat="46.0092357" lon="11.7331745"><ele>980.0</ele><time>2026-04-12T08:21:01.681Z</time></trkpt><trkpt lat="46.0093012" lon="11.7331914"><ele>978.0</ele><time>2026-04-12T08:21:03.682Z</time></trkpt><trkpt lat="46.009364" lon="11.7331735"><ele>982.4285714285714</ele><time>2026-04-12T08:21:05.683Z</time></trkpt><trkpt lat="46.0094215" lon="11.7331313"><ele>986.8571428571429</ele><time>2026-04-12T08:21:07.682Z</time></trkpt><trkpt lat="46.0094742" lon="11.7330786"><ele>991.2857142857143</ele><time>2026-04-12T08:21:09.683Z</time></trkpt><trkpt lat="46.0095512" lon="11.7330027"><ele>995.7142857142858</ele><time>2026-04-12T08:21:12.683Z</time></trkpt><trkpt lat="46.0095893" lon="11.7329252"><ele>1000.1428571428571</ele><time>2026-04-12T08:21:14.682Z</time></trkpt><trkpt lat="46.0096586" lon="11.7328663"><ele>1004.5714285714287</ele><time>2026-04-12T08:21:17.682Z</time></trkpt><trkpt lat="46.0097249" lon="11.7328147"><ele>1009.0</ele><time>2026-04-12T08:21:20.682Z</time></trkpt><trkpt lat="46.0097929" lon="11.7327586"><ele>1009.0</ele><time>2026-04-12T08:21:24.682Z</time></trkpt><trkpt lat="46.0097319" lon="11.7327249"><ele>1009.0</ele><time>2026-04-12T08:21:28.683Z</time></trkpt><trkpt lat="46.009785" lon="11.7327801"><ele>1009.0</ele><time>2026-04-12T08:22:15.684Z</time></trkpt><trkpt lat="46.0097252" lon="11.7327228"><ele>1009.0</ele><time>2026-04-12T08:26:48.688Z</time></trkpt><trkpt lat="46.0096905" lon="11.7326219"><ele>1009.0</ele><time>2026-04-12T08:26:51.688Z</time></trkpt><trkpt lat="46.0096466" lon="11.7325272"><ele>1009.0</ele><time>2026-04-12T08:26:55.687Z</time></trkpt><trkpt lat="46.0096522" lon="11.7324103"><ele>1009.0</ele><time>2026-04-12T08:26:59.687Z</time></trkpt><trkpt lat="46.0096636" lon="11.7323164"><ele>1010.7142857142858</ele><time>2026-04-12T08:27:02.687Z</time></trkpt><trkpt lat="46.0096904" lon="11.7322196"><ele>1012.4285714285713</ele><time>2026-04-12T08:27:05.687Z</time></trkpt><trkpt lat="46.0097081" lon="11.7321155"><ele>1014.1428571428571</ele><time>2026-04-12T08:27:08.687Z</time></trkpt><trkpt lat="46.0097275" lon="11.7320222"><ele>1015.8571428571429</ele><time>2026-04-12T08:27:11.688Z</time></trkpt><trkpt lat="46.0097459" lon="11.731925"><ele>1017.5714285714287</ele><time>2026-04-12T08:27:14.687Z</time></trkpt><trkpt lat="46.0097611" lon="11.731835"><ele>1019.2857142857142</ele><time>2026-04-12T08:27:17.687Z</time></trkpt><trkpt lat="46.0097829" lon="11.7317386"><ele>1021.0</ele><time>2026-04-12T08:27:20.688Z</time></trkpt><trkpt lat="46.0097984" lon="11.73163"><ele>1021.4285714285713</ele><time>2026-04-12T08:27:24.688Z</time></trkpt><trkpt lat="46.0098161" lon="11.7315379"><ele>1021.8571428571429</ele><time>2026-04-12T08:27:27.687Z</time></trkpt><trkpt lat="46.0098416" lon="11.7314352"><ele>1022.2857142857142</ele><time>2026-04-12T08:27:30.688Z</time></trkpt><trkpt lat="46.0098562" lon="11.7313412"><ele>1022.7142857142857</ele><time>2026-04-12T08:27:33.687Z</time></trkpt><trkpt lat="46.0098705" lon="11.7312454"><ele>1023.1428571428571</ele><time>2026-04-12T08:27:36.689Z</time></trkpt><trkpt lat="46.0098886" lon="11.7311548"><ele>1023.5714285714286</ele><time>2026-04-12T08:27:39.687Z</time></trkpt><trkpt lat="46.0099102" lon="11.7310544"><ele>1024.0</ele><time>2026-04-12T08:27:42.688Z</time></trkpt><trkpt lat="46.0099299" lon="11.7309562"><ele>1024.857142857143</ele><time>2026-04-12T08:27:45.687Z</time></trkpt><trkpt lat="46.0099511" lon="11.7308664"><ele>1025.7142857142856</ele><time>2026-04-12T08:27:48.688Z</time></trkpt><trkpt lat="46.0099753" lon="11.7307691"><ele>1026.5714285714284</ele><time>2026-04-12T08:27:52.688Z</time></trkpt><trkpt lat="46.0100113" lon="11.7306623"><ele>1027.4285714285713</ele><time>2026-04-12T08:27:56.688Z</time></trkpt><trkpt lat="46.010048" lon="11.7305771"><ele>1028.2857142857142</ele><time>2026-04-12T08:27:59.689Z</time></trkpt><trkpt lat="46.0100781" lon="11.7304798"><ele>1029.142857142857</ele><time>2026-04-12T08:28:04.688Z</time></trkpt><trkpt lat="46.0101139" lon="11.7303914"><ele>1030.0</ele><time>2026-04-12T08:28:07.688Z</time></trkpt><trkpt lat="46.0101439" lon="11.730307"><ele>1031.857142857143</ele><time>2026-04-12T08:28:10.689Z</time></trkpt><trkpt lat="46.0101743" lon="11.7302152"><ele>1033.7142857142858</ele><time>2026-04-12T08:28:13.688Z</time></trkpt><trkpt lat="46.0101858" lon="11.7300986"><ele>1035.5714285714284</ele><time>2026-04-12T08:28:16.688Z</time></trkpt><trkpt lat="46.0101855" lon="11.7299873"><ele>1037.4285714285716</ele><time>2026-04-12T08:28:19.688Z</time></trkpt><trkpt lat="46.0101711" lon="11.7298877"><ele>1039.2857142857142</ele><time>2026-04-12T08:28:22.688Z</time></trkpt><trkpt lat="46.0101645" lon="11.7297918"><ele>1041.142857142857</ele><time>2026-04-12T08:28:25.689Z</time></trkpt><trkpt lat="46.0101644" lon="11.729697"><ele>1043.0</ele><time>2026-04-12T08:28:28.688Z</time></trkpt><trkpt lat="46.0101705" lon="11.7295962"><ele>1043.0</ele><time>2026-04-12T08:28:31.689Z</time></trkpt><trkpt lat="46.0102065" lon="11.7294972"><ele>1043.0</ele><time>2026-04-12T08:28:35.689Z</time></trkpt><trkpt lat="46.0102655" lon="11.7294323"><ele>1043.0</ele><time>2026-04-12T08:28:38.689Z</time></trkpt><trkpt lat="46.0103451" lon="11.7293972"><ele>1043.0</ele><time>2026-04-12T08:28:42.688Z</time></trkpt><trkpt lat="46.0104111" lon="11.729402"><ele>1043.0</ele><time>2026-04-12T08:28:45.689Z</time></trkpt><trkpt lat="46.0104775" lon="11.7294121"><ele>1043.0</ele><time>2026-04-12T08:28:49.688Z</time></trkpt><trkpt lat="46.0105581" lon="11.7293897"><ele>1044.1666666666667</ele><time>2026-04-12T08:28:53.69Z</time></trkpt><trkpt lat="46.0106452" lon="11.7293429"><ele>1045.3333333333335</ele><time>2026-04-12T08:28:56.69Z</time></trkpt><trkpt lat="46.0107213" lon="11.7292964"><ele>1046.5</ele><time>2026-04-12T08:28:59.689Z</time></trkpt><trkpt lat="46.0107897" lon="11.7292432"><ele>1047.6666666666667</ele><time>2026-04-12T08:29:02.69Z</time></trkpt><trkpt lat="46.0108482" lon="11.7292004"><ele>1048.8333333333333</ele><time>2026-04-12T08:29:05.69Z</time></trkpt><trkpt lat="46.0109113" lon="11.7291744"><ele>1050.0</ele><time>2026-04-12T08:29:08.689Z</time></trkpt><trkpt lat="46.0109829" lon="11.7290886"><ele>1050.0</ele><time>2026-04-12T08:29:11.689Z</time></trkpt><trkpt lat="46.0110394" lon="11.7290412"><ele>1050.0</ele><time>2026-04-12T08:29:13.689Z</time></trkpt><trkpt lat="46.0110938" lon="11.7289896"><ele>1050.0</ele><time>2026-04-12T08:29:16.689Z</time></trkpt><trkpt lat="46.0111602" lon="11.7289188"><ele>1050.0</ele><time>2026-04-12T08:29:19.69Z</time></trkpt><trkpt lat="46.0112247" lon="11.7288621"><ele>1050.0</ele><time>2026-04-12T08:29:23.689Z</time></trkpt><trkpt lat="46.0112891" lon="11.728817"><ele>1050.0</ele><time>2026-04-12T08:29:26.689Z</time></trkpt><trkpt lat="46.0113658" lon="11.7287794"><ele>1050.0</ele><time>2026-04-12T08:29:29.69Z</time></trkpt><trkpt lat="46.0114336" lon="11.7287313"><ele>1050.0</ele><time>2026-04-12T08:29:32.689Z</time></trkpt><trkpt lat="46.0115102" lon="11.7286733"><ele>1050.0</ele><time>2026-04-12T08:29:36.69Z</time></trkpt><trkpt lat="46.0115686" lon="11.7286389"><ele>1050.0</ele><time>2026-04-12T08:29:39.689Z</time></trkpt><trkpt lat="46.0116284" lon="11.728593"><ele>1050.0</ele><time>2026-04-12T08:29:42.69Z</time></trkpt><trkpt lat="46.0116914" lon="11.7285357"><ele>1050.0</ele><time>2026-04-12T08:29:45.689Z</time></trkpt><trkpt lat="46.0117596" lon="11.7284883"><ele>1050.0</ele><time>2026-04-12T08:29:48.691Z</time></trkpt><trkpt lat="46.0118253" lon="11.7284311"><ele>1050.0</ele><time>2026-04-12T08:29:51.69Z</time></trkpt><trkpt lat="46.0118906" lon="11.7283629"><ele>1052.0</ele><time>2026-04-12T08:29:55.69Z</time></trkpt><trkpt lat="46.0119489" lon="11.7283216"><ele>1054.0</ele><time>2026-04-12T08:29:58.69Z</time></trkpt><trkpt lat="46.0120149" lon="11.7282496"><ele>1056.0</ele><time>2026-04-12T08:30:01.691Z</time></trkpt><trkpt lat="46.0120768" lon="11.728187"><ele>1058.0</ele><time>2026-04-12T08:30:04.691Z</time></trkpt><trkpt lat="46.0121296" lon="11.7280895"><ele>1060.0</ele><time>2026-04-12T08:30:07.69Z</time></trkpt><trkpt lat="46.0121862" lon="11.7279896"><ele>1062.0</ele><time>2026-04-12T08:30:10.691Z</time></trkpt><trkpt lat="46.0122266" lon="11.7279026"><ele>1062.0</ele><time>2026-04-12T08:30:13.69Z</time></trkpt><trkpt lat="46.0122725" lon="11.727811"><ele>1062.0</ele><time>2026-04-12T08:30:16.691Z</time></trkpt><trkpt lat="46.0123174" lon="11.7277081"><ele>1062.0</ele><time>2026-04-12T08:30:20.69Z</time></trkpt><trkpt lat="46.0123481" lon="11.7276104"><ele>1062.0</ele><time>2026-04-12T08:30:23.691Z</time></trkpt><trkpt lat="46.0123654" lon="11.7274977"><ele>1062.0</ele><time>2026-04-12T08:30:27.691Z</time></trkpt><trkpt lat="46.0123943" lon="11.7273864"><ele>1062.0</ele><time>2026-04-12T08:30:30.69Z</time></trkpt><trkpt lat="46.0124182" lon="11.7273017"><ele>1061.142857142857</ele><time>2026-04-12T08:30:32.69Z</time></trkpt><trkpt lat="46.0124459" lon="11.7272079"><ele>1060.2857142857144</ele><time>2026-04-12T08:30:35.691Z</time></trkpt><trkpt lat="46.0124773" lon="11.7271237"><ele>1059.4285714285716</ele><time>2026-04-12T08:30:38.69Z</time></trkpt><trkpt lat="46.0125052" lon="11.7270397"><ele>1058.5714285714287</ele><time>2026-04-12T08:30:40.69Z</time></trkpt><trkpt lat="46.0125537" lon="11.7269482"><ele>1057.7142857142858</ele><time>2026-04-12T08:30:44.69Z</time></trkpt><trkpt lat="46.0126012" lon="11.726872"><ele>1056.857142857143</ele><time>2026-04-12T08:30:47.692Z</time></trkpt><trkpt lat="46.0126478" lon="11.7267919"><ele>1056.0</ele><time>2026-04-12T08:30:50.69Z</time></trkpt><trkpt lat="46.0126877" lon="11.7266913"><ele>1059.0</ele><time>2026-04-12T08:30:53.692Z</time></trkpt><trkpt lat="46.0127306" lon="11.7265841"><ele>1062.0</ele><time>2026-04-12T08:30:56.69Z</time></trkpt><trkpt lat="46.0127673" lon="11.7264884"><ele>1065.0</ele><time>2026-04-12T08:30:59.691Z</time></trkpt><trkpt lat="46.0127872" lon="11.7263911"><ele>1068.0</ele><time>2026-04-12T08:31:02.691Z</time></trkpt><trkpt lat="46.0127807" lon="11.7262991"><ele>1071.0</ele><time>2026-04-12T08:31:06.691Z</time></trkpt><trkpt lat="46.0128003" lon="11.7261744"><ele>1074.0</ele><time>2026-04-12T08:31:10.692Z</time></trkpt><trkpt lat="46.0128169" lon="11.7260535"><ele>1075.5</ele><time>2026-04-12T08:31:13.691Z</time></trkpt><trkpt lat="46.012826" lon="11.7259342"><ele>1077.0</ele><time>2026-04-12T08:31:16.691Z</time></trkpt><trkpt lat="46.0128383" lon="11.7258065"><ele>1078.5</ele><time>2026-04-12T08:31:19.691Z</time></trkpt><trkpt lat="46.0128327" lon="11.725694"><ele>1080.0</ele><time>2026-04-12T08:31:22.691Z</time></trkpt><trkpt lat="46.0128109" lon="11.7255854"><ele>1081.5</ele><time>2026-04-12T08:31:25.692Z</time></trkpt><trkpt lat="46.0127841" lon="11.7255005"><ele>1083.0</ele><time>2026-04-12T08:31:28.691Z</time></trkpt><trkpt lat="46.0127994" lon="11.7256041"><ele>1083.0</ele><time>2026-04-12T08:31:43.692Z</time></trkpt><trkpt lat="46.0128063" lon="11.7257409"><ele>1083.0</ele><time>2026-04-12T08:31:46.692Z</time></trkpt><trkpt lat="46.012802" lon="11.7258383"><ele>1083.0</ele><time>2026-04-12T08:31:48.691Z</time></trkpt><trkpt lat="46.0127959" lon="11.7259409"><ele>1083.0</ele><time>2026-04-12T08:31:51.691Z</time></trkpt><trkpt lat="46.0127963" lon="11.7260365"><ele>1083.0</ele><time>2026-04-12T08:31:54.691Z</time></trkpt><trkpt lat="46.0128017" lon="11.7261594"><ele>1083.0</ele><time>2026-04-12T08:31:57.691Z</time></trkpt><trkpt lat="46.012782" lon="11.7262764"><ele>1081.7142857142858</ele><time>2026-04-12T08:32:00.693Z</time></trkpt><trkpt lat="46.012718" lon="11.7263355"><ele>1080.4285714285716</ele><time>2026-04-12T08:33:06.693Z</time></trkpt><trkpt lat="46.0126575" lon="11.7263913"><ele>1079.142857142857</ele><time>2026-04-12T08:33:10.693Z</time></trkpt><trkpt lat="46.0126294" lon="11.7264898"><ele>1077.857142857143</ele><time>2026-04-12T08:33:14.693Z</time></trkpt><trkpt lat="46.012596" lon="11.7265759"><ele>1076.5714285714284</ele><time>2026-04-12T08:33:17.693Z</time></trkpt><trkpt lat="46.0125518" lon="11.726645"><ele>1075.2857142857142</ele><time>2026-04-12T08:33:20.693Z</time></trkpt><trkpt lat="46.0124882" lon="11.7267256"><ele>1074.0</ele><time>2026-04-12T08:33:24.694Z</time></trkpt><trkpt lat="46.0124153" lon="11.7268054"><ele>1075.9999999999998</ele><time>2026-04-12T08:33:27.693Z</time></trkpt><trkpt lat="46.0123561" lon="11.7268831"><ele>1078.0</ele><time>2026-04-12T08:33:30.693Z</time></trkpt><trkpt lat="46.012301" lon="11.7269661"><ele>1080.0</ele><time>2026-04-12T08:33:33.694Z</time></trkpt><trkpt lat="46.0122529" lon="11.7270367"><ele>1082.0</ele><time>2026-04-12T08:33:36.694Z</time></trkpt><trkpt lat="46.0122092" lon="11.7271142"><ele>1084.0</ele><time>2026-04-12T08:33:39.694Z</time></trkpt><trkpt lat="46.0121599" lon="11.7271924"><ele>1085.9999999999998</ele><time>2026-04-12T08:33:42.694Z</time></trkpt><trkpt lat="46.0121144" lon="11.7272772"><ele>1088.0</ele><time>2026-04-12T08:33:45.693Z</time></trkpt><trkpt lat="46.0120701" lon="11.727361"><ele>1088.0</ele><time>2026-04-12T08:33:48.694Z</time></trkpt><trkpt lat="46.0120254" lon="11.7274341"><ele>1088.0</ele><time>2026-04-12T08:33:51.693Z</time></trkpt><trkpt lat="46.0119621" lon="11.7275273"><ele>1088.0</ele><time>2026-04-12T08:33:56.694Z</time></trkpt><trkpt lat="46.0119107" lon="11.7275815"><ele>1088.0</ele><time>2026-04-12T08:33:58.693Z</time></trkpt><trkpt lat="46.0118497" lon="11.7276514"><ele>1088.0</ele><time>2026-04-12T08:34:01.694Z</time></trkpt><trkpt lat="46.0117856" lon="11.7277196"><ele>1088.0</ele><time>2026-04-12T08:34:04.694Z</time></trkpt><trkpt lat="46.0117318" lon="11.7277945"><ele>1086.6666666666667</ele><time>2026-04-12T08:34:09.693Z</time></trkpt><trkpt lat="46.0116558" lon="11.7278535"><ele>1085.3333333333335</ele><time>2026-04-12T08:34:12.694Z</time></trkpt><trkpt lat="46.0115736" lon="11.7278983"><ele>1084.0</ele><time>2026-04-12T08:34:16.695Z</time></trkpt><trkpt lat="46.0114994" lon="11.7279123"><ele>1082.6666666666667</ele><time>2026-04-12T08:34:19.695Z</time></trkpt><trkpt lat="46.011411" lon="11.7279381"><ele>1081.3333333333333</ele><time>2026-04-12T08:34:22.693Z</time></trkpt><trkpt lat="46.011345" lon="11.727971"><ele>1080.0</ele><time>2026-04-12T08:34:25.695Z</time></trkpt><trkpt lat="46.0112601" lon="11.7279901"><ele>1080.0</ele><time>2026-04-12T08:34:28.694Z</time></trkpt><trkpt lat="46.011195" lon="11.7279992"><ele>1080.0</ele><time>2026-04-12T08:34:31.694Z</time></trkpt><trkpt lat="46.011119" lon="11.7280304"><ele>1080.0</ele><time>2026-04-12T08:34:34.695Z</time></trkpt><trkpt lat="46.0110477" lon="11.7280491"><ele>1080.0</ele><time>2026-04-12T08:34:37.695Z</time></trkpt><trkpt lat="46.0109778" lon="11.7280947"><ele>1080.0</ele><time>2026-04-12T08:34:40.694Z</time></trkpt><trkpt lat="46.0109068" lon="11.7281043"><ele>1080.0</ele><time>2026-04-12T08:34:42.695Z</time></trkpt><trkpt lat="46.0108344" lon="11.7281129"><ele>1080.0</ele><time>2026-04-12T08:34:44.694Z</time></trkpt><trkpt lat="46.0107706" lon="11.7281217"><ele>1081.3333333333333</ele><time>2026-04-12T08:34:46.694Z</time></trkpt><trkpt lat="46.0106913" lon="11.7281269"><ele>1082.6666666666667</ele><time>2026-04-12T08:34:49.694Z</time></trkpt><trkpt lat="46.0106011" lon="11.7281487"><ele>1084.0</ele><time>2026-04-12T08:34:52.694Z</time></trkpt><trkpt lat="46.0105213" lon="11.7281744"><ele>1085.3333333333335</ele><time>2026-04-12T08:34:55.695Z</time></trkpt><trkpt lat="46.0104563" lon="11.7281897"><ele>1086.6666666666667</ele><time>2026-04-12T08:34:57.695Z</time></trkpt><trkpt lat="46.010392" lon="11.7281977"><ele>1088.0</ele><time>2026-04-12T08:34:59.694Z</time></trkpt><trkpt lat="46.0103224" lon="11.7282046"><ele>1088.0</ele><time>2026-04-12T08:35:02.695Z</time></trkpt><trkpt lat="46.0102315" lon="11.7281963"><ele>1088.0</ele><time>2026-04-12T08:35:06.694Z</time></trkpt><trkpt lat="46.0101392" lon="11.7282131"><ele>1088.0</ele><time>2026-04-12T08:35:09.694Z</time></trkpt><trkpt lat="46.0100469" lon="11.7282239"><ele>1088.0</ele><time>2026-04-12T08:35:12.696Z</time></trkpt><trkpt lat="46.0099845" lon="11.7282038"><ele>1088.0</ele><time>2026-04-12T08:35:15.694Z</time></trkpt><trkpt lat="46.0099236" lon="11.7281651"><ele>1088.0</ele><time>2026-04-12T08:35:18.694Z</time></trkpt><trkpt lat="46.0098606" lon="11.7281175"><ele>1090.3333333333335</ele><time>2026-04-12T08:35:20.695Z</time></trkpt><trkpt lat="46.0097996" lon="11.7280715"><ele>1092.6666666666667</ele><time>2026-04-12T08:35:22.694Z</time></trkpt><trkpt lat="46.0097246" lon="11.7280275"><ele>1095.0</ele><time>2026-04-12T08:35:25.695Z</time></trkpt><trkpt lat="46.0096575" lon="11.7279977"><ele>1097.3333333333333</ele><time>2026-04-12T08:35:28.695Z</time></trkpt><trkpt lat="46.0095714" lon="11.7279924"><ele>1099.6666666666665</ele><time>2026-04-12T08:35:35.696Z</time></trkpt><trkpt lat="46.009494" lon="11.7280445"><ele>1102.0</ele><time>2026-04-12T08:35:40.696Z</time></trkpt><trkpt lat="46.0094088" lon="11.7280813"><ele>1101.9999999999998</ele><time>2026-04-12T08:35:43.695Z</time></trkpt><trkpt lat="46.0093383" lon="11.7281252"><ele>1102.0</ele><time>2026-04-12T08:35:46.696Z</time></trkpt><trkpt lat="46.0092781" lon="11.728165"><ele>1102.0</ele><time>2026-04-12T08:35:49.695Z</time></trkpt><trkpt lat="46.0092047" lon="11.728196"><ele>1102.0</ele><time>2026-04-12T08:35:52.695Z</time></trkpt><trkpt lat="46.0091192" lon="11.7282308"><ele>1102.0</ele><time>2026-04-12T08:35:55.696Z</time></trkpt><trkpt lat="46.0090553" lon="11.7282656"><ele>1101.9999999999998</ele><time>2026-04-12T08:35:57.695Z</time></trkpt><trkpt lat="46.0089915" lon="11.7282903"><ele>1102.0</ele><time>2026-04-12T08:35:59.695Z</time></trkpt><trkpt lat="46.0089057" lon="11.7283059"><ele>1101.8333333333333</ele><time>2026-04-12T08:36:02.695Z</time></trkpt><trkpt lat="46.0088411" lon="11.7283216"><ele>1101.6666666666665</ele><time>2026-04-12T08:36:05.696Z</time></trkpt><trkpt lat="46.0087687" lon="11.7283131"><ele>1101.5</ele><time>2026-04-12T08:36:08.695Z</time></trkpt><trkpt lat="46.0086967" lon="11.728287"><ele>1101.3333333333333</ele><time>2026-04-12T08:36:11.696Z</time></trkpt><trkpt lat="46.0086251" lon="11.7282575"><ele>1101.1666666666667</ele><time>2026-04-12T08:36:14.696Z</time></trkpt><trkpt lat="46.008537" lon="11.7282296"><ele>1101.0</ele><time>2026-04-12T08:36:17.696Z</time></trkpt><trkpt lat="46.008453" lon="11.7281795"><ele>1101.0</ele><time>2026-04-12T08:36:20.696Z</time></trkpt><trkpt lat="46.0083829" lon="11.728126"><ele>1101.0</ele><time>2026-04-12T08:36:23.697Z</time></trkpt><trkpt lat="46.0083294" lon="11.7280774"><ele>1101.0</ele><time>2026-04-12T08:36:25.695Z</time></trkpt><trkpt lat="46.0082693" lon="11.728018"><ele>1101.0</ele><time>2026-04-12T08:36:28.696Z</time></trkpt><trkpt lat="46.0082066" lon="11.7279643"><ele>1101.0</ele><time>2026-04-12T08:36:31.696Z</time></trkpt><trkpt lat="46.008131" lon="11.7279123"><ele>1101.0</ele><time>2026-04-12T08:36:34.696Z</time></trkpt><trkpt lat="46.0080625" lon="11.7278541"><ele>1103.5</ele><time>2026-04-12T08:36:38.695Z</time></trkpt><trkpt lat="46.0080139" lon="11.7277944"><ele>1106.0</ele><time>2026-04-12T08:36:41.696Z</time></trkpt><trkpt lat="46.0079624" lon="11.7277236"><ele>1108.5</ele><time>2026-04-12T08:36:44.697Z</time></trkpt><trkpt lat="46.0078826" lon="11.7276692"><ele>1111.0</ele><time>2026-04-12T08:36:47.697Z</time></trkpt><trkpt lat="46.0077971" lon="11.7276237"><ele>1113.5</ele><time>2026-04-12T08:36:50.696Z</time></trkpt><trkpt lat="46.0077347" lon="11.7276115"><ele>1116.0</ele><time>2026-04-12T08:36:52.696Z</time></trkpt><trkpt lat="46.0076609" lon="11.7276132"><ele>1115.9999999999998</ele><time>2026-04-12T08:36:55.696Z</time></trkpt><trkpt lat="46.0076135" lon="11.7276817"><ele>1116.0</ele><time>2026-04-12T08:36:58.696Z</time></trkpt><trkpt lat="46.0075985" lon="11.7277728"><ele>1116.0</ele><time>2026-04-12T08:37:01.697Z</time></trkpt><trkpt lat="46.007582" lon="11.7278712"><ele>1116.0</ele><time>2026-04-12T08:37:05.696Z</time></trkpt><trkpt lat="46.0075656" lon="11.7279933"><ele>1116.0</ele><time>2026-04-12T08:37:09.696Z</time></trkpt><trkpt lat="46.007564" lon="11.7280937"><ele>1115.9999999999998</ele><time>2026-04-12T08:37:12.697Z</time></trkpt><trkpt lat="46.0075312" lon="11.7281952"><ele>1116.0</ele><time>2026-04-12T08:37:15.696Z</time></trkpt><trkpt lat="46.0074891" lon="11.7282844"><ele>1118.8333333333333</ele><time>2026-04-12T08:37:17.696Z</time></trkpt><trkpt lat="46.0074553" lon="11.7283887"><ele>1121.6666666666667</ele><time>2026-04-12T08:37:20.697Z</time></trkpt><trkpt lat="46.0074217" lon="11.7285026"><ele>1124.5</ele><time>2026-04-12T08:37:23.697Z</time></trkpt><trkpt lat="46.0073958" lon="11.7285882"><ele>1127.3333333333335</ele><time>2026-04-12T08:37:25.697Z</time></trkpt><trkpt lat="46.007344" lon="11.7286681"><ele>1130.1666666666667</ele><time>2026-04-12T08:37:28.696Z</time></trkpt><trkpt lat="46.0072943" lon="11.7287543"><ele>1133.0</ele><time>2026-04-12T08:37:32.696Z</time></trkpt><trkpt lat="46.0072386" lon="11.7288152"><ele>1133.0</ele><time>2026-04-12T08:37:35.698Z</time></trkpt><trkpt lat="46.0071772" lon="11.7288456"><ele>1133.0</ele><time>2026-04-12T08:37:37.696Z</time></trkpt><trkpt lat="46.0070986" lon="11.7288658"><ele>1133.0</ele><time>2026-04-12T08:37:40.696Z</time></trkpt><trkpt lat="46.0070034" lon="11.7288815"><ele>1133.0</ele><time>2026-04-12T08:37:43.697Z</time></trkpt><trkpt lat="46.0069323" lon="11.7288762"><ele>1133.0</ele><time>2026-04-12T08:37:46.698Z</time></trkpt><trkpt lat="46.0068526" lon="11.7288889"><ele>1133.0</ele><time>2026-04-12T08:37:49.697Z</time></trkpt><trkpt lat="46.0067698" lon="11.728911"><ele>1133.0</ele><time>2026-04-12T08:37:53.697Z</time></trkpt><trkpt lat="46.0066974" lon="11.7289496"><ele>1133.0</ele><time>2026-04-12T08:37:56.698Z</time></trkpt><trkpt lat="46.0066126" lon="11.7290201"><ele>1133.0</ele><time>2026-04-12T08:37:59.698Z</time></trkpt><trkpt lat="46.0065554" lon="11.7291012"><ele>1133.0</ele><time>2026-04-12T08:38:02.698Z</time></trkpt><trkpt lat="46.0065301" lon="11.7291995"><ele>1133.0</ele><time>2026-04-12T08:38:06.698Z</time></trkpt><trkpt lat="46.0065362" lon="11.7293173"><ele>1133.0</ele><time>2026-04-12T08:38:10.698Z</time></trkpt><trkpt lat="46.0065019" lon="11.7294275"><ele>1133.6666666666667</ele><time>2026-04-12T08:38:14.698Z</time></trkpt><trkpt lat="46.00647" lon="11.7295061"><ele>1134.3333333333335</ele><time>2026-04-12T08:38:16.697Z</time></trkpt><trkpt lat="46.0064313" lon="11.7296156"><ele>1135.0</ele><time>2026-04-12T08:38:19.698Z</time></trkpt><trkpt lat="46.0063989" lon="11.7296992"><ele>1135.6666666666667</ele><time>2026-04-12T08:38:22.698Z</time></trkpt><trkpt lat="46.0063423" lon="11.7297775"><ele>1136.3333333333333</ele><time>2026-04-12T08:38:25.697Z</time></trkpt><trkpt lat="46.006248" lon="11.7298413"><ele>1137.0</ele><time>2026-04-12T08:38:28.698Z</time></trkpt><trkpt lat="46.0061852" lon="11.7298805"><ele>1137.0</ele><time>2026-04-12T08:38:30.698Z</time></trkpt><trkpt lat="46.0060972" lon="11.7299096"><ele>1137.0</ele><time>2026-04-12T08:38:33.698Z</time></trkpt><trkpt lat="46.0060335" lon="11.7299607"><ele>1137.0</ele><time>2026-04-12T08:38:37.698Z</time></trkpt><trkpt lat="46.0059586" lon="11.7299624"><ele>1137.0</ele><time>2026-04-12T08:38:41.698Z</time></trkpt><trkpt lat="46.0058825" lon="11.7299691"><ele>1137.0</ele><time>2026-04-12T08:38:44.697Z</time></trkpt><trkpt lat="46.0058058" lon="11.7299515"><ele>1137.0</ele><time>2026-04-12T08:38:46.699Z</time></trkpt><trkpt lat="46.0057428" lon="11.7299458"><ele>1140.6666666666667</ele><time>2026-04-12T08:38:48.699Z</time></trkpt><trkpt lat="46.0056569" lon="11.729951"><ele>1144.3333333333333</ele><time>2026-04-12T08:38:51.699Z</time></trkpt><trkpt lat="46.0055799" lon="11.7299385"><ele>1148.0</ele><time>2026-04-12T08:38:54.698Z</time></trkpt><trkpt lat="46.0055047" lon="11.7299203"><ele>1151.6666666666665</ele><time>2026-04-12T08:38:58.698Z</time></trkpt><trkpt lat="46.0054128" lon="11.7299618"><ele>1155.3333333333333</ele><time>2026-04-12T08:39:02.699Z</time></trkpt><trkpt lat="46.0053362" lon="11.7299854"><ele>1159.0</ele><time>2026-04-12T08:39:06.698Z</time></trkpt><trkpt lat="46.0052732" lon="11.7300728"><ele>1159.0</ele><time>2026-04-12T08:39:11.698Z</time></trkpt><trkpt lat="46.0052242" lon="11.7301525"><ele>1159.0</ele><time>2026-04-12T08:39:14.699Z</time></trkpt><trkpt lat="46.005181" lon="11.7302671"><ele>1159.0</ele><time>2026-04-12T08:39:17.698Z</time></trkpt><trkpt lat="46.0051559" lon="11.7303689"><ele>1159.0</ele><time>2026-04-12T08:39:20.698Z</time></trkpt><trkpt lat="46.0051262" lon="11.7304764"><ele>1159.0</ele><time>2026-04-12T08:39:23.698Z</time></trkpt><trkpt lat="46.0051018" lon="11.730564"><ele>1159.0</ele><time>2026-04-12T08:39:26.698Z</time></trkpt><trkpt lat="46.0050639" lon="11.7306846"><ele>1158.5714285714287</ele><time>2026-04-12T08:39:30.698Z</time></trkpt><trkpt lat="46.0050478" lon="11.7307765"><ele>1158.142857142857</ele><time>2026-04-12T08:39:33.699Z</time></trkpt><trkpt lat="46.0050104" lon="11.7308729"><ele>1157.7142857142858</ele><time>2026-04-12T08:39:37.698Z</time></trkpt><trkpt lat="46.0049669" lon="11.7309563"><ele>1157.2857142857142</ele><time>2026-04-12T08:39:40.699Z</time></trkpt><trkpt lat="46.0049293" lon="11.7310313"><ele>1156.857142857143</ele><time>2026-04-12T08:39:43.698Z</time></trkpt><trkpt lat="46.0048724" lon="11.7310987"><ele>1156.4285714285716</ele><time>2026-04-12T08:39:47.699Z</time></trkpt><trkpt lat="46.0048033" lon="11.7311384"><ele>1156.0</ele><time>2026-04-12T08:39:49.698Z</time></trkpt><trkpt lat="46.0047323" lon="11.7312126"><ele>1156.0</ele><time>2026-04-12T08:39:51.7Z</time></trkpt><trkpt lat="46.0046777" lon="11.731259"><ele>1156.0</ele><time>2026-04-12T08:39:53.7Z</time></trkpt><trkpt lat="46.0046183" lon="11.7312952"><ele>1156.0</ele><time>2026-04-12T08:39:55.699Z</time></trkpt><trkpt lat="46.004551" lon="11.7313573"><ele>1156.0</ele><time>2026-04-12T08:39:58.699Z</time></trkpt><trkpt lat="46.0044839" lon="11.7314237"><ele>1156.0</ele><time>2026-04-12T08:40:01.699Z</time></trkpt><trkpt lat="46.0044305" lon="11.7314888"><ele>1156.0</ele><time>2026-04-12T08:40:04.699Z</time></trkpt><trkpt lat="46.0043739" lon="11.7315506"><ele>1156.0</ele><time>2026-04-12T08:40:07.699Z</time></trkpt><trkpt lat="46.0043186" lon="11.7316186"><ele>1156.0</ele><time>2026-04-12T08:40:10.699Z</time></trkpt><trkpt lat="46.0042607" lon="11.7316907"><ele>1156.0</ele><time>2026-04-12T08:40:13.7Z</time></trkpt><trkpt lat="46.0042053" lon="11.7317624"><ele>1156.0</ele><time>2026-04-12T08:40:16.699Z</time></trkpt><trkpt lat="46.0041434" lon="11.731826"><ele>1156.0</ele><time>2026-04-12T08:40:19.7Z</time></trkpt><trkpt lat="46.0040786" lon="11.7318913"><ele>1156.0</ele><time>2026-04-12T08:40:22.7Z</time></trkpt><trkpt lat="46.0040054" lon="11.7319402"><ele>1156.0</ele><time>2026-04-12T08:40:25.699Z</time></trkpt><trkpt lat="46.0039413" lon="11.7319933"><ele>1153.7142857142858</ele><time>2026-04-12T08:40:28.699Z</time></trkpt><trkpt lat="46.0038719" lon="11.7320321"><ele>1151.4285714285713</ele><time>2026-04-12T08:40:31.7Z</time></trkpt><trkpt lat="46.0038003" lon="11.7320694"><ele>1149.142857142857</ele><time>2026-04-12T08:40:34.7Z</time></trkpt><trkpt lat="46.0037283" lon="11.73209"><ele>1146.857142857143</ele><time>2026-04-12T08:40:37.699Z</time></trkpt><trkpt lat="46.0036585" lon="11.7320788"><ele>1144.5714285714287</ele><time>2026-04-12T08:40:40.701Z</time></trkpt><trkpt lat="46.0036055" lon="11.7320123"><ele>1142.2857142857142</ele><time>2026-04-12T08:40:44.701Z</time></trkpt><trkpt lat="46.0035372" lon="11.7320447"><ele>1140.0</ele><time>2026-04-12T08:42:01.701Z</time></trkpt><trkpt lat="46.0036064" lon="11.7319948"><ele>1140.0</ele><time>2026-04-12T08:47:15.867Z</time></trkpt><trkpt lat="46.0036795" lon="11.7319423"><ele>1140.0</ele><time>2026-04-12T08:47:18.752Z</time></trkpt><trkpt lat="46.0037645" lon="11.7319225"><ele>1140.0</ele><time>2026-04-12T08:47:21.779Z</time></trkpt><trkpt lat="46.003837" lon="11.7318625"><ele>1140.0</ele><time>2026-04-12T08:47:24.792Z</time></trkpt><trkpt lat="46.0038975" lon="11.7317846"><ele>1140.0</ele><time>2026-04-12T08:47:27.808Z</time></trkpt><trkpt lat="46.003956" lon="11.7316906"><ele>1140.0</ele><time>2026-04-12T08:47:30.914Z</time></trkpt><trkpt lat="46.003998" lon="11.7316086"><ele>1143.1666666666667</ele><time>2026-04-12T08:47:33.836Z</time></trkpt><trkpt lat="46.0040461" lon="11.7315271"><ele>1146.3333333333333</ele><time>2026-04-12T08:47:36.852Z</time></trkpt><trkpt lat="46.0040987" lon="11.7314537"><ele>1149.5</ele><time>2026-04-12T08:47:39.866Z</time></trkpt><trkpt lat="46.0041541" lon="11.7313815"><ele>1152.6666666666665</ele><time>2026-04-12T08:47:42.881Z</time></trkpt><trkpt lat="46.0041475" lon="11.7312714"><ele>1155.8333333333333</ele><time>2026-04-12T08:47:45.895Z</time></trkpt><trkpt lat="46.0040704" lon="11.7312542"><ele>1159.0</ele><time>2026-04-12T08:47:48.793Z</time></trkpt><trkpt lat="46.0040083" lon="11.7313215"><ele>1159.0</ele><time>2026-04-12T08:47:51.807Z</time></trkpt><trkpt lat="46.0039451" lon="11.7314066"><ele>1159.0</ele><time>2026-04-12T08:47:54.822Z</time></trkpt><trkpt lat="46.0038756" lon="11.731479"><ele>1159.0</ele><time>2026-04-12T08:47:57.837Z</time></trkpt><trkpt lat="46.0037984" lon="11.7314968"><ele>1159.0</ele><time>2026-04-12T08:48:00.736Z</time></trkpt><trkpt lat="46.0037344" lon="11.7314897"><ele>1159.0</ele><time>2026-04-12T08:48:02.822Z</time></trkpt><trkpt lat="46.0036475" lon="11.7314762"><ele>1159.0</ele><time>2026-04-12T08:48:05.72Z</time></trkpt><trkpt lat="46.0035826" lon="11.7314627"><ele>1159.0000000000002</ele><time>2026-04-12T08:48:07.807Z</time></trkpt><trkpt lat="46.0035194" lon="11.7314577"><ele>1159.0</ele><time>2026-04-12T08:48:09.779Z</time></trkpt><trkpt lat="46.0034498" lon="11.731467"><ele>1159.0</ele><time>2026-04-12T08:48:11.749Z</time></trkpt><trkpt lat="46.0033774" lon="11.7314602"><ele>1159.0</ele><time>2026-04-12T08:48:13.836Z</time></trkpt><trkpt lat="46.0033113" lon="11.7314373"><ele>1159.0</ele><time>2026-04-12T08:48:15.808Z</time></trkpt><trkpt lat="46.0032471" lon="11.7314021"><ele>1159.0000000000002</ele><time>2026-04-12T08:48:17.778Z</time></trkpt><trkpt lat="46.0031867" lon="11.7313625"><ele>1159.0</ele><time>2026-04-12T08:48:19.749Z</time></trkpt><trkpt lat="46.0031126" lon="11.7312958"><ele>1158.8333333333333</ele><time>2026-04-12T08:48:22.764Z</time></trkpt><trkpt lat="46.0030569" lon="11.7312253"><ele>1158.6666666666665</ele><time>2026-04-12T08:48:25.779Z</time></trkpt><trkpt lat="46.0030051" lon="11.7311555"><ele>1158.5</ele><time>2026-04-12T08:48:28.794Z</time></trkpt><trkpt lat="46.0029473" lon="11.7310861"><ele>1158.3333333333333</ele><time>2026-04-12T08:48:31.808Z</time></trkpt><trkpt lat="46.0028758" lon="11.7310082"><ele>1158.1666666666667</ele><time>2026-04-12T08:48:34.822Z</time></trkpt><trkpt lat="46.0028112" lon="11.7309264"><ele>1158.0</ele><time>2026-04-12T08:48:37.72Z</time></trkpt><trkpt lat="46.0027531" lon="11.7308427"><ele>1158.0</ele><time>2026-04-12T08:48:40.735Z</time></trkpt><trkpt lat="46.0027065" lon="11.7307455"><ele>1158.0</ele><time>2026-04-12T08:48:43.749Z</time></trkpt><trkpt lat="46.0026617" lon="11.7306393"><ele>1158.0</ele><time>2026-04-12T08:48:46.765Z</time></trkpt><trkpt lat="46.0026327" lon="11.7305556"><ele>1158.0</ele><time>2026-04-12T08:48:49.778Z</time></trkpt><trkpt lat="46.0026419" lon="11.7304301"><ele>1158.0</ele><time>2026-04-12T08:48:52.793Z</time></trkpt><trkpt lat="46.0026513" lon="11.7303262"><ele>1158.0</ele><time>2026-04-12T08:48:54.765Z</time></trkpt><trkpt lat="46.0026566" lon="11.7302237"><ele>1158.5</ele><time>2026-04-12T08:48:56.736Z</time></trkpt><trkpt lat="46.0026718" lon="11.7301339"><ele>1159.0</ele><time>2026-04-12T08:48:58.822Z</time></trkpt><trkpt lat="46.0026934" lon="11.7300041"><ele>1159.5</ele><time>2026-04-12T08:49:01.837Z</time></trkpt><trkpt lat="46.0027112" lon="11.729874"><ele>1160.0</ele><time>2026-04-12T08:49:04.761Z</time></trkpt><trkpt lat="46.0027326" lon="11.7297727"><ele>1160.5</ele><time>2026-04-12T08:49:06.823Z</time></trkpt><trkpt lat="46.0027485" lon="11.7296711"><ele>1161.0</ele><time>2026-04-12T08:49:08.794Z</time></trkpt><trkpt lat="46.0027577" lon="11.7295701"><ele>1161.0</ele><time>2026-04-12T08:49:10.764Z</time></trkpt><trkpt lat="46.0027642" lon="11.7294767"><ele>1161.0</ele><time>2026-04-12T08:49:12.736Z</time></trkpt><trkpt lat="46.0027672" lon="11.7293478"><ele>1161.0</ele><time>2026-04-12T08:49:15.75Z</time></trkpt><trkpt lat="46.0027765" lon="11.7292222"><ele>1161.0</ele><time>2026-04-12T08:49:18.765Z</time></trkpt><trkpt lat="46.0027865" lon="11.7290968"><ele>1161.0</ele><time>2026-04-12T08:49:21.78Z</time></trkpt><trkpt lat="46.002799" lon="11.7289697"><ele>1161.0</ele><time>2026-04-12T08:49:24.794Z</time></trkpt><trkpt lat="46.0028164" lon="11.7288436"><ele>1161.0</ele><time>2026-04-12T08:49:27.809Z</time></trkpt><trkpt lat="46.0028415" lon="11.7287274"><ele>1161.0</ele><time>2026-04-12T08:49:30.822Z</time></trkpt><trkpt lat="46.0028612" lon="11.7286221"><ele>1161.0</ele><time>2026-04-12T08:49:33.721Z</time></trkpt><trkpt lat="46.0028902" lon="11.7285143"><ele>1161.0</ele><time>2026-04-12T08:49:36.736Z</time></trkpt><trkpt lat="46.002914" lon="11.72843"><ele>1161.0</ele><time>2026-04-12T08:49:38.823Z</time></trkpt><trkpt lat="46.0029469" lon="11.7283149"><ele>1161.0</ele><time>2026-04-12T08:49:41.722Z</time></trkpt><trkpt lat="46.002963" lon="11.7282217"><ele>1161.0</ele><time>2026-04-12T08:49:43.809Z</time></trkpt><trkpt lat="46.0029748" lon="11.7281313"><ele>1161.0</ele><time>2026-04-12T08:49:45.78Z</time></trkpt><trkpt lat="46.0029891" lon="11.7280019"><ele>1161.0</ele><time>2026-04-12T08:49:48.793Z</time></trkpt><trkpt lat="46.0029813" lon="11.7278692"><ele>1161.0</ele><time>2026-04-12T08:49:51.809Z</time></trkpt><trkpt lat="46.0029527" lon="11.727749"><ele>1161.0</ele><time>2026-04-12T08:49:54.822Z</time></trkpt><trkpt lat="46.0029025" lon="11.7276334"><ele>1161.0</ele><time>2026-04-12T08:49:57.837Z</time></trkpt><trkpt lat="46.0028531" lon="11.7275439"><ele>1162.2857142857142</ele><time>2026-04-12T08:50:00.735Z</time></trkpt><trkpt lat="46.0028089" lon="11.7274407"><ele>1163.5714285714287</ele><time>2026-04-12T08:50:03.75Z</time></trkpt><trkpt lat="46.0027917" lon="11.7273509"><ele>1164.857142857143</ele><time>2026-04-12T08:50:05.722Z</time></trkpt><trkpt lat="46.0027867" lon="11.7272489"><ele>1166.142857142857</ele><time>2026-04-12T08:50:07.808Z</time></trkpt><trkpt lat="46.0027913" lon="11.7271572"><ele>1167.4285714285713</ele><time>2026-04-12T08:50:09.779Z</time></trkpt><trkpt lat="46.0027964" lon="11.7270216"><ele>1168.7142857142858</ele><time>2026-04-12T08:50:12.794Z</time></trkpt><trkpt lat="46.0027951" lon="11.7269234"><ele>1170.0</ele><time>2026-04-12T08:50:14.832Z</time></trkpt><trkpt lat="46.0027743" lon="11.7267929"><ele>1171.3333333333333</ele><time>2026-04-12T08:50:17.779Z</time></trkpt><trkpt lat="46.0027309" lon="11.726682"><ele>1172.6666666666667</ele><time>2026-04-12T08:50:20.793Z</time></trkpt><trkpt lat="46.0026726" lon="11.7265858"><ele>1174.0</ele><time>2026-04-12T08:50:23.713Z</time></trkpt><trkpt lat="46.0026127" lon="11.7264882"><ele>1175.3333333333335</ele><time>2026-04-12T08:50:26.822Z</time></trkpt><trkpt lat="46.0025709" lon="11.7263868"><ele>1176.6666666666667</ele><time>2026-04-12T08:50:29.837Z</time></trkpt><trkpt lat="46.0025374" lon="11.7262812"><ele>1178.0</ele><time>2026-04-12T08:50:32.736Z</time></trkpt><trkpt lat="46.0025198" lon="11.7261924"><ele>1175.5</ele><time>2026-04-12T08:50:34.751Z</time></trkpt><trkpt lat="46.0025008" lon="11.7260612"><ele>1173.0</ele><time>2026-04-12T08:50:37.722Z</time></trkpt><trkpt lat="46.0024816" lon="11.7259666"><ele>1170.5</ele><time>2026-04-12T08:50:39.808Z</time></trkpt><trkpt lat="46.0024431" lon="11.7258453"><ele>1168.0</ele><time>2026-04-12T08:50:42.822Z</time></trkpt><trkpt lat="46.002392" lon="11.7257459"><ele>1165.5</ele><time>2026-04-12T08:50:45.837Z</time></trkpt><trkpt lat="46.0023329" lon="11.7256524"><ele>1163.0</ele><time>2026-04-12T08:50:48.735Z</time></trkpt><trkpt lat="46.002293" lon="11.72557"><ele>1163.0</ele><time>2026-04-12T08:50:50.822Z</time></trkpt><trkpt lat="46.0022435" lon="11.7254543"><ele>1163.0</ele><time>2026-04-12T08:50:53.837Z</time></trkpt><trkpt lat="46.0021917" lon="11.7253501"><ele>1163.0</ele><time>2026-04-12T08:50:56.736Z</time></trkpt><trkpt lat="46.0021535" lon="11.7252736"><ele>1163.0</ele><time>2026-04-12T08:50:58.823Z</time></trkpt><trkpt lat="46.0021028" lon="11.7251733"><ele>1163.0</ele><time>2026-04-12T08:51:01.837Z</time></trkpt><trkpt lat="46.0020469" lon="11.7250856"><ele>1163.0</ele><time>2026-04-12T08:51:04.851Z</time></trkpt><trkpt lat="46.0019926" lon="11.7249953"><ele>1167.5</ele><time>2026-04-12T08:51:07.75Z</time></trkpt><trkpt lat="46.0019596" lon="11.7248728"><ele>1172.0</ele><time>2026-04-12T08:51:10.765Z</time></trkpt><trkpt lat="46.001941" lon="11.7247701"><ele>1176.5</ele><time>2026-04-12T08:51:12.789Z</time></trkpt><trkpt lat="46.0019226" lon="11.724676"><ele>1181.0</ele><time>2026-04-12T08:51:14.822Z</time></trkpt><trkpt lat="46.0019038" lon="11.7245836"><ele>1185.5</ele><time>2026-04-12T08:51:16.793Z</time></trkpt><trkpt lat="46.0018811" lon="11.7244504"><ele>1190.0</ele><time>2026-04-12T08:51:19.808Z</time></trkpt><trkpt lat="46.0018639" lon="11.724361"><ele>1192.0</ele><time>2026-04-12T08:51:21.779Z</time></trkpt><trkpt lat="46.0018463" lon="11.7242424"><ele>1194.0</ele><time>2026-04-12T08:51:24.794Z</time></trkpt><trkpt lat="46.0018302" lon="11.7241345"><ele>1196.0</ele><time>2026-04-12T08:51:27.808Z</time></trkpt><trkpt lat="46.0018347" lon="11.7240143"><ele>1198.0</ele><time>2026-04-12T08:51:30.822Z</time></trkpt><trkpt lat="46.0018526" lon="11.7239232"><ele>1200.0</ele><time>2026-04-12T08:51:32.793Z</time></trkpt><trkpt lat="46.0018902" lon="11.7238294"><ele>1202.0</ele><time>2026-04-12T08:51:34.765Z</time></trkpt><trkpt lat="46.0019242" lon="11.723744"><ele>1202.0</ele><time>2026-04-12T08:51:36.736Z</time></trkpt><trkpt lat="46.0019471" lon="11.7236409"><ele>1202.0</ele><time>2026-04-12T08:51:39.756Z</time></trkpt><trkpt lat="46.0019538" lon="11.7235258"><ele>1202.0</ele><time>2026-04-12T08:51:42.765Z</time></trkpt><trkpt lat="46.0019385" lon="11.7234288"><ele>1202.0</ele><time>2026-04-12T08:51:45.779Z</time></trkpt><trkpt lat="46.0019118" lon="11.7233203"><ele>1202.0</ele><time>2026-04-12T08:51:48.793Z</time></trkpt><trkpt lat="46.0018869" lon="11.7232006"><ele>1202.0</ele><time>2026-04-12T08:51:51.809Z</time></trkpt><trkpt lat="46.0018926" lon="11.7231042"><ele>1203.142857142857</ele><time>2026-04-12T08:51:53.78Z</time></trkpt><trkpt lat="46.0018911" lon="11.7229875"><ele>1204.2857142857144</ele><time>2026-04-12T08:51:56.793Z</time></trkpt><trkpt lat="46.0018637" lon="11.7229012"><ele>1205.4285714285716</ele><time>2026-04-12T08:51:58.765Z</time></trkpt><trkpt lat="46.0018318" lon="11.722814"><ele>1206.5714285714284</ele><time>2026-04-12T08:52:00.736Z</time></trkpt><trkpt lat="46.0017977" lon="11.722726"><ele>1207.7142857142858</ele><time>2026-04-12T08:52:02.823Z</time></trkpt><trkpt lat="46.0017763" lon="11.722622"><ele>1208.857142857143</ele><time>2026-04-12T08:52:04.794Z</time></trkpt><trkpt lat="46.0017658" lon="11.7225148"><ele>1210.0</ele><time>2026-04-12T08:52:06.766Z</time></trkpt><trkpt lat="46.0017657" lon="11.7223844"><ele>1212.0</ele><time>2026-04-12T08:52:09.78Z</time></trkpt><trkpt lat="46.0017606" lon="11.7222703"><ele>1214.0</ele><time>2026-04-12T08:52:12.794Z</time></trkpt><trkpt lat="46.0017615" lon="11.7221719"><ele>1216.0</ele><time>2026-04-12T08:52:15.808Z</time></trkpt><trkpt lat="46.0017754" lon="11.7220433"><ele>1218.0</ele><time>2026-04-12T08:52:18.823Z</time></trkpt><trkpt lat="46.0017895" lon="11.7219446"><ele>1220.0</ele><time>2026-04-12T08:52:20.794Z</time></trkpt><trkpt lat="46.0017909" lon="11.7218487"><ele>1222.0</ele><time>2026-04-12T08:52:22.765Z</time></trkpt><trkpt lat="46.0017779" lon="11.7217198"><ele>1222.3333333333333</ele><time>2026-04-12T08:52:25.779Z</time></trkpt><trkpt lat="46.0017768" lon="11.7215944"><ele>1222.6666666666665</ele><time>2026-04-12T08:52:28.794Z</time></trkpt><trkpt lat="46.0017876" lon="11.7214648"><ele>1223.0</ele><time>2026-04-12T08:52:31.808Z</time></trkpt><trkpt lat="46.0018209" lon="11.7213552"><ele>1223.3333333333333</ele><time>2026-04-12T08:52:34.824Z</time></trkpt><trkpt lat="46.0018629" lon="11.7212875"><ele>1223.6666666666667</ele><time>2026-04-12T08:52:37.838Z</time></trkpt><trkpt lat="46.001914" lon="11.7211832"><ele>1224.0</ele><time>2026-04-12T08:52:41.779Z</time></trkpt><trkpt lat="46.0019668" lon="11.7210757"><ele>1223.4285714285713</ele><time>2026-04-12T08:52:44.794Z</time></trkpt><trkpt lat="46.0020323" lon="11.7210041"><ele>1222.857142857143</ele><time>2026-04-12T08:52:47.808Z</time></trkpt><trkpt lat="46.002079" lon="11.7209364"><ele>1222.2857142857142</ele><time>2026-04-12T08:52:49.779Z</time></trkpt><trkpt lat="46.0021232" lon="11.7208575"><ele>1221.7142857142858</ele><time>2026-04-12T08:52:51.751Z</time></trkpt><trkpt lat="46.0021568" lon="11.7207791"><ele>1221.142857142857</ele><time>2026-04-12T08:52:53.838Z</time></trkpt><trkpt lat="46.0021754" lon="11.7206843"><ele>1220.5714285714287</ele><time>2026-04-12T08:52:56.736Z</time></trkpt><trkpt lat="46.0021582" lon="11.7205872"><ele>1220.0</ele><time>2026-04-12T08:52:59.75Z</time></trkpt><trkpt lat="46.0021179" lon="11.7205173"><ele>1220.0</ele><time>2026-04-12T08:53:02.766Z</time></trkpt><trkpt lat="46.0020703" lon="11.7204357"><ele>1220.0</ele><time>2026-04-12T08:53:05.78Z</time></trkpt><trkpt lat="46.0020433" lon="11.7203207"><ele>1220.0</ele><time>2026-04-12T08:53:09.837Z</time></trkpt><trkpt lat="46.002045" lon="11.720208"><ele>1220.0</ele><time>2026-04-12T08:53:12.736Z</time></trkpt><trkpt lat="46.0020367" lon="11.7200848"><ele>1220.0</ele><time>2026-04-12T08:53:15.751Z</time></trkpt><trkpt lat="46.0020355" lon="11.7199679"><ele>1220.0</ele><time>2026-04-12T08:53:18.766Z</time></trkpt><trkpt lat="46.0020422" lon="11.7198548"><ele>1220.3333333333335</ele><time>2026-04-12T08:53:22.823Z</time></trkpt><trkpt lat="46.0020576" lon="11.7197425"><ele>1220.6666666666667</ele><time>2026-04-12T08:53:26.765Z</time></trkpt><trkpt lat="46.0020996" lon="11.7196567"><ele>1221.0</ele><time>2026-04-12T08:53:29.779Z</time></trkpt><trkpt lat="46.0021212" lon="11.719557"><ele>1221.3333333333333</ele><time>2026-04-12T08:53:32.795Z</time></trkpt><trkpt lat="46.0021698" lon="11.7194635"><ele>1221.6666666666665</ele><time>2026-04-12T08:53:35.808Z</time></trkpt><trkpt lat="46.0022339" lon="11.7193829"><ele>1222.0</ele><time>2026-04-12T08:53:38.824Z</time></trkpt><trkpt lat="46.0023029" lon="11.7192905"><ele>1222.0</ele><time>2026-04-12T08:53:41.838Z</time></trkpt><trkpt lat="46.0023419" lon="11.7192143"><ele>1222.0</ele><time>2026-04-12T08:53:43.809Z</time></trkpt><trkpt lat="46.0023773" lon="11.7191351"><ele>1222.0</ele><time>2026-04-12T08:53:45.78Z</time></trkpt><trkpt lat="46.0024271" lon="11.719027"><ele>1222.0</ele><time>2026-04-12T08:53:48.794Z</time></trkpt><trkpt lat="46.0024781" lon="11.718935"><ele>1222.0</ele><time>2026-04-12T08:53:51.809Z</time></trkpt><trkpt lat="46.0025193" lon="11.7188429"><ele>1222.0</ele><time>2026-04-12T08:53:54.824Z</time></trkpt><trkpt lat="46.0025442" lon="11.7187451"><ele>1222.0000000000002</ele><time>2026-04-12T08:53:57.837Z</time></trkpt><trkpt lat="46.0026061" lon="11.7187053"><ele>1222.0</ele><time>2026-04-12T08:54:01.779Z</time></trkpt><trkpt lat="46.0026288" lon="11.7187907"><ele>1222.0</ele><time>2026-04-12T08:54:04.794Z</time></trkpt><trkpt lat="46.002588" lon="11.7188764"><ele>1222.0</ele><time>2026-04-12T08:54:07.809Z</time></trkpt><trkpt lat="46.0025248" lon="11.7189402"><ele>1222.0</ele><time>2026-04-12T08:54:10.823Z</time></trkpt><trkpt lat="46.0024761" lon="11.7190343"><ele>1222.0000000000002</ele><time>2026-04-12T08:54:13.838Z</time></trkpt><trkpt lat="46.0024347" lon="11.7191387"><ele>1222.0</ele><time>2026-04-12T08:54:16.852Z</time></trkpt><trkpt lat="46.002399" lon="11.7192621"><ele>1222.0</ele><time>2026-04-12T08:54:19.75Z</time></trkpt><trkpt lat="46.0023761" lon="11.7193496"><ele>1222.0</ele><time>2026-04-12T08:54:21.838Z</time></trkpt><trkpt lat="46.0023353" lon="11.7194684"><ele>1222.0</ele><time>2026-04-12T08:54:24.736Z</time></trkpt><trkpt lat="46.0023033" lon="11.7195822"><ele>1222.0</ele><time>2026-04-12T08:54:27.751Z</time></trkpt><trkpt lat="46.0022762" lon="11.7197073"><ele>1222.0</ele><time>2026-04-12T08:54:30.765Z</time></trkpt><trkpt lat="46.0022744" lon="11.719818"><ele>1222.0</ele><time>2026-04-12T08:54:33.78Z</time></trkpt><trkpt lat="46.0022878" lon="11.7199353"><ele>1222.3333333333333</ele><time>2026-04-12T08:54:36.795Z</time></trkpt><trkpt lat="46.0023044" lon="11.7200526"><ele>1222.6666666666665</ele><time>2026-04-12T08:54:39.808Z</time></trkpt><trkpt lat="46.0023323" lon="11.7201368"><ele>1223.0</ele><time>2026-04-12T08:54:41.779Z</time></trkpt><trkpt lat="46.0023686" lon="11.7202133"><ele>1223.3333333333333</ele><time>2026-04-12T08:54:43.75Z</time></trkpt><trkpt lat="46.0024231" lon="11.7203185"><ele>1223.6666666666667</ele><time>2026-04-12T08:54:46.766Z</time></trkpt><trkpt lat="46.0024668" lon="11.7204408"><ele>1224.0</ele><time>2026-04-12T08:54:49.779Z</time></trkpt><trkpt lat="46.0024838" lon="11.7205361"><ele>1224.0</ele><time>2026-04-12T08:54:51.75Z</time></trkpt><trkpt lat="46.0024871" lon="11.7206353"><ele>1224.0</ele><time>2026-04-12T08:54:53.837Z</time></trkpt><trkpt lat="46.002476" lon="11.7207334"><ele>1224.0</ele><time>2026-04-12T08:54:55.808Z</time></trkpt><trkpt lat="46.0024651" lon="11.7208264"><ele>1224.0</ele><time>2026-04-12T08:54:57.78Z</time></trkpt><trkpt lat="46.002456" lon="11.7209206"><ele>1224.0</ele><time>2026-04-12T08:54:59.75Z</time></trkpt><trkpt lat="46.0024537" lon="11.7210421"><ele>1224.0</ele><time>2026-04-12T08:55:02.765Z</time></trkpt><trkpt lat="46.0024324" lon="11.7211515"><ele>1224.0</ele><time>2026-04-12T08:55:05.78Z</time></trkpt><trkpt lat="46.0024297" lon="11.7212674"><ele>1224.0</ele><time>2026-04-12T08:55:08.794Z</time></trkpt><trkpt lat="46.002425" lon="11.721358"><ele>1224.0</ele><time>2026-04-12T08:55:10.766Z</time></trkpt><trkpt lat="46.0024146" lon="11.7214487"><ele>1224.0</ele><time>2026-04-12T08:55:12.736Z</time></trkpt><trkpt lat="46.0024023" lon="11.7215845"><ele>1224.0</ele><time>2026-04-12T08:55:15.75Z</time></trkpt><trkpt lat="46.0023898" lon="11.7216851"><ele>1224.0</ele><time>2026-04-12T08:55:17.838Z</time></trkpt><trkpt lat="46.0023881" lon="11.7217814"><ele>1224.0</ele><time>2026-04-12T08:55:19.808Z</time></trkpt><trkpt lat="46.002398" lon="11.7218819"><ele>1224.0</ele><time>2026-04-12T08:55:21.779Z</time></trkpt><trkpt lat="46.0024151" lon="11.7219837"><ele>1223.7142857142858</ele><time>2026-04-12T08:55:23.75Z</time></trkpt><trkpt lat="46.0024313" lon="11.7220814"><ele>1223.4285714285716</ele><time>2026-04-12T08:55:25.837Z</time></trkpt><trkpt lat="46.0024605" lon="11.7221655"><ele>1223.1428571428573</ele><time>2026-04-12T08:55:27.809Z</time></trkpt><trkpt lat="46.0024911" lon="11.7222448"><ele>1222.857142857143</ele><time>2026-04-12T08:55:29.779Z</time></trkpt><trkpt lat="46.002521" lon="11.7223336"><ele>1222.5714285714287</ele><time>2026-04-12T08:55:31.75Z</time></trkpt><trkpt lat="46.0025565" lon="11.7224341"><ele>1222.2857142857144</ele><time>2026-04-12T08:55:33.837Z</time></trkpt><trkpt lat="46.0025919" lon="11.7225237"><ele>1222.0</ele><time>2026-04-12T08:55:35.809Z</time></trkpt><trkpt lat="46.0026243" lon="11.7226126"><ele>1224.5714285714287</ele><time>2026-04-12T08:55:37.78Z</time></trkpt><trkpt lat="46.0026671" lon="11.7227019"><ele>1227.142857142857</ele><time>2026-04-12T08:55:39.75Z</time></trkpt><trkpt lat="46.002715" lon="11.72279"><ele>1229.7142857142858</ele><time>2026-04-12T08:55:41.837Z</time></trkpt><trkpt lat="46.0027552" lon="11.7228764"><ele>1232.2857142857142</ele><time>2026-04-12T08:55:43.808Z</time></trkpt><trkpt lat="46.0027936" lon="11.7229678"><ele>1234.857142857143</ele><time>2026-04-12T08:55:45.779Z</time></trkpt><trkpt lat="46.002834" lon="11.7230577"><ele>1237.4285714285716</ele><time>2026-04-12T08:55:47.751Z</time></trkpt><trkpt lat="46.0028735" lon="11.723148"><ele>1240.0</ele><time>2026-04-12T08:55:49.837Z</time></trkpt><trkpt lat="46.002906" lon="11.7232418"><ele>1240.0</ele><time>2026-04-12T08:55:51.809Z</time></trkpt><trkpt lat="46.0029274" lon="11.723338"><ele>1240.0</ele><time>2026-04-12T08:55:53.78Z</time></trkpt><trkpt lat="46.0029683" lon="11.7234402"><ele>1240.0</ele><time>2026-04-12T08:55:56.794Z</time></trkpt><trkpt lat="46.0030326" lon="11.7234462"><ele>1240.0</ele><time>2026-04-12T08:59:25.83Z</time></trkpt><trkpt lat="46.0030726" lon="11.7233322"><ele>1240.0</ele><time>2026-04-12T08:59:31.75Z</time></trkpt><trkpt lat="46.0030516" lon="11.7232224"><ele>1240.0</ele><time>2026-04-12T08:59:34.764Z</time></trkpt><trkpt lat="46.0030079" lon="11.7231345"><ele>1240.0</ele><time>2026-04-12T08:59:37.779Z</time></trkpt><trkpt lat="46.0029641" lon="11.7230491"><ele>1240.0</ele><time>2026-04-12T08:59:40.792Z</time></trkpt><trkpt lat="46.0029294" lon="11.7229369"><ele>1240.0</ele><time>2026-04-12T08:59:43.807Z</time></trkpt><trkpt lat="46.0029001" lon="11.7228229"><ele>1240.0</ele><time>2026-04-12T08:59:46.821Z</time></trkpt><trkpt lat="46.0028841" lon="11.7227023"><ele>1240.0</ele><time>2026-04-12T08:59:49.836Z</time></trkpt><trkpt lat="46.0028625" lon="11.7226053"><ele>1240.0</ele><time>2026-04-12T08:59:51.808Z</time></trkpt><trkpt lat="46.0028196" lon="11.722522"><ele>1242.1666666666665</ele><time>2026-04-12T08:59:53.779Z</time></trkpt><trkpt lat="46.0028008" lon="11.7224124"><ele>1244.3333333333333</ele><time>2026-04-12T08:59:56.793Z</time></trkpt><trkpt lat="46.0028002" lon="11.7222934"><ele>1246.5</ele><time>2026-04-12T08:59:59.807Z</time></trkpt><trkpt lat="46.0027954" lon="11.7221695"><ele>1248.6666666666667</ele><time>2026-04-12T09:00:02.821Z</time></trkpt><trkpt lat="46.0027752" lon="11.7220736"><ele>1250.8333333333335</ele><time>2026-04-12T09:00:05.814Z</time></trkpt><trkpt lat="46.0027645" lon="11.7219627"><ele>1253.0</ele><time>2026-04-12T09:00:08.85Z</time></trkpt><trkpt lat="46.0027789" lon="11.721854"><ele>1253.8333333333335</ele><time>2026-04-12T09:00:11.749Z</time></trkpt><trkpt lat="46.0028068" lon="11.7217638"><ele>1254.6666666666667</ele><time>2026-04-12T09:00:14.763Z</time></trkpt><trkpt lat="46.0028254" lon="11.7216446"><ele>1255.5</ele><time>2026-04-12T09:00:18.821Z</time></trkpt><trkpt lat="46.00284" lon="11.7215302"><ele>1256.3333333333333</ele><time>2026-04-12T09:00:21.836Z</time></trkpt><trkpt lat="46.0028618" lon="11.7214136"><ele>1257.1666666666665</ele><time>2026-04-12T09:00:24.734Z</time></trkpt><trkpt lat="46.0028825" lon="11.7213246"><ele>1258.0</ele><time>2026-04-12T09:00:26.822Z</time></trkpt><trkpt lat="46.0029057" lon="11.7211949"><ele>1258.0</ele><time>2026-04-12T09:00:29.835Z</time></trkpt><trkpt lat="46.0029372" lon="11.7210831"><ele>1258.0</ele><time>2026-04-12T09:00:32.735Z</time></trkpt><trkpt lat="46.0029622" lon="11.7209956"><ele>1258.0</ele><time>2026-04-12T09:00:35.749Z</time></trkpt><trkpt lat="46.0029978" lon="11.7209154"><ele>1258.0</ele><time>2026-04-12T09:00:38.764Z</time></trkpt><trkpt lat="46.0030317" lon="11.7207935"><ele>1258.0</ele><time>2026-04-12T09:00:41.777Z</time></trkpt><trkpt lat="46.0030648" lon="11.7206744"><ele>1258.0</ele><time>2026-04-12T09:00:44.793Z</time></trkpt><trkpt lat="46.0030969" lon="11.720555"><ele>1258.0</ele><time>2026-04-12T09:00:47.806Z</time></trkpt><trkpt lat="46.0031378" lon="11.7204462"><ele>1258.0</ele><time>2026-04-12T09:00:50.822Z</time></trkpt><trkpt lat="46.0031748" lon="11.7203207"><ele>1258.0</ele><time>2026-04-12T09:00:53.836Z</time></trkpt><trkpt lat="46.0032029" lon="11.7201936"><ele>1258.0</ele><time>2026-04-12T09:00:56.851Z</time></trkpt><trkpt lat="46.0032355" lon="11.7200777"><ele>1258.0</ele><time>2026-04-12T09:00:59.748Z</time></trkpt><trkpt lat="46.0032595" lon="11.7199505"><ele>1258.0</ele><time>2026-04-12T09:01:02.763Z</time></trkpt><trkpt lat="46.0032829" lon="11.7198269"><ele>1258.0</ele><time>2026-04-12T09:01:05.778Z</time></trkpt><trkpt lat="46.0033104" lon="11.7197137"><ele>1258.0</ele><time>2026-04-12T09:01:08.792Z</time></trkpt><trkpt lat="46.0033433" lon="11.7196044"><ele>1258.0</ele><time>2026-04-12T09:01:11.806Z</time></trkpt><trkpt lat="46.0033646" lon="11.7194889"><ele>1258.0</ele><time>2026-04-12T09:01:14.822Z</time></trkpt><trkpt lat="46.0033952" lon="11.7193886"><ele>1258.0</ele><time>2026-04-12T09:01:17.835Z</time></trkpt><trkpt lat="46.0034357" lon="11.7192866"><ele>1262.3333333333333</ele><time>2026-04-12T09:01:20.85Z</time></trkpt><trkpt lat="46.0034899" lon="11.7191938"><ele>1266.6666666666665</ele><time>2026-04-12T09:01:23.749Z</time></trkpt><trkpt lat="46.0035428" lon="11.7191043"><ele>1271.0</ele><time>2026-04-12T09:01:26.763Z</time></trkpt><trkpt lat="46.0035778" lon="11.7189973"><ele>1275.3333333333333</ele><time>2026-04-12T09:01:29.778Z</time></trkpt><trkpt lat="46.0036056" lon="11.7188719"><ele>1279.6666666666667</ele><time>2026-04-12T09:01:32.791Z</time></trkpt><trkpt lat="46.0036253" lon="11.7187516"><ele>1284.0</ele><time>2026-04-12T09:01:35.806Z</time></trkpt><trkpt lat="46.0036308" lon="11.7186256"><ele>1283.6666666666667</ele><time>2026-04-12T09:01:38.82Z</time></trkpt><trkpt lat="46.0036481" lon="11.7185036"><ele>1283.3333333333333</ele><time>2026-04-12T09:01:41.835Z</time></trkpt><trkpt lat="46.0036555" lon="11.7183752"><ele>1283.0</ele><time>2026-04-12T09:01:44.849Z</time></trkpt><trkpt lat="46.0036649" lon="11.7182502"><ele>1282.6666666666665</ele><time>2026-04-12T09:01:47.749Z</time></trkpt><trkpt lat="46.0036725" lon="11.7181287"><ele>1282.3333333333333</ele><time>2026-04-12T09:01:50.789Z</time></trkpt><trkpt lat="46.0036775" lon="11.7180074"><ele>1282.0</ele><time>2026-04-12T09:01:53.777Z</time></trkpt><trkpt lat="46.0036647" lon="11.7178755"><ele>1282.0</ele><time>2026-04-12T09:01:56.792Z</time></trkpt><trkpt lat="46.0036333" lon="11.7177546"><ele>1282.0</ele><time>2026-04-12T09:01:59.693Z</time></trkpt><trkpt lat="46.0036097" lon="11.7176673"><ele>1282.0</ele><time>2026-04-12T09:02:01.777Z</time></trkpt><trkpt lat="46.0035866" lon="11.7175807"><ele>1282.0</ele><time>2026-04-12T09:02:03.748Z</time></trkpt><trkpt lat="46.0035616" lon="11.7174969"><ele>1282.0</ele><time>2026-04-12T09:02:05.835Z</time></trkpt><trkpt lat="46.0035289" lon="11.7173733"><ele>1282.0</ele><time>2026-04-12T09:02:08.773Z</time></trkpt><trkpt lat="46.0035016" lon="11.7172496"><ele>1281.8333333333333</ele><time>2026-04-12T09:02:11.748Z</time></trkpt><trkpt lat="46.003484" lon="11.7171585"><ele>1281.6666666666665</ele><time>2026-04-12T09:02:13.835Z</time></trkpt><trkpt lat="46.0034609" lon="11.7170741"><ele>1281.5</ele><time>2026-04-12T09:02:15.806Z</time></trkpt><trkpt lat="46.0034208" lon="11.7169507"><ele>1281.3333333333333</ele><time>2026-04-12T09:02:18.877Z</time></trkpt><trkpt lat="46.0033839" lon="11.716866"><ele>1281.1666666666667</ele><time>2026-04-12T09:02:21.233Z</time></trkpt><trkpt lat="46.0033438" lon="11.7167706"><ele>1281.0</ele><time>2026-04-12T09:02:23.806Z</time></trkpt><trkpt lat="46.0032973" lon="11.716656"><ele>1281.0</ele><time>2026-04-12T09:02:26.82Z</time></trkpt><trkpt lat="46.0032634" lon="11.716578"><ele>1281.0</ele><time>2026-04-12T09:02:28.791Z</time></trkpt><trkpt lat="46.0032269" lon="11.7165019"><ele>1281.0</ele><time>2026-04-12T09:02:30.763Z</time></trkpt><trkpt lat="46.0031911" lon="11.7164249"><ele>1281.0</ele><time>2026-04-12T09:02:32.849Z</time></trkpt><trkpt lat="46.0031429" lon="11.7163153"><ele>1281.0</ele><time>2026-04-12T09:02:35.748Z</time></trkpt><trkpt lat="46.0031158" lon="11.716231"><ele>1281.0</ele><time>2026-04-12T09:02:37.835Z</time></trkpt><trkpt lat="46.0030807" lon="11.7161042"><ele>1281.0</ele><time>2026-04-12T09:02:40.85Z</time></trkpt><trkpt lat="46.0030482" lon="11.7159806"><ele>1284.5</ele><time>2026-04-12T09:02:43.749Z</time></trkpt><trkpt lat="46.0030315" lon="11.7158518"><ele>1288.0</ele><time>2026-04-12T09:02:46.763Z</time></trkpt><trkpt lat="46.0030091" lon="11.7157663"><ele>1291.5</ele><time>2026-04-12T09:02:48.849Z</time></trkpt><trkpt lat="46.002978" lon="11.7156496"><ele>1295.0</ele><time>2026-04-12T09:02:51.747Z</time></trkpt><trkpt lat="46.0029571" lon="11.7155311"><ele>1298.5</ele><time>2026-04-12T09:02:54.763Z</time></trkpt><trkpt lat="46.0029314" lon="11.7154235"><ele>1302.0</ele><time>2026-04-12T09:02:57.776Z</time></trkpt><trkpt lat="46.0029664" lon="11.715329"><ele>1302.0</ele><time>2026-04-12T09:03:00.792Z</time></trkpt><trkpt lat="46.00293" lon="11.7152242"><ele>1302.0</ele><time>2026-04-12T09:03:04.793Z</time></trkpt><trkpt lat="46.0029154" lon="11.715119"><ele>1302.0</ele><time>2026-04-12T09:03:08.791Z</time></trkpt><trkpt lat="46.0028477" lon="11.7151592"><ele>1302.0</ele><time>2026-04-12T09:15:00.862Z</time></trkpt><trkpt lat="46.0028017" lon="11.7152533"><ele>1302.0</ele><time>2026-04-12T09:15:13.847Z</time></trkpt><trkpt lat="46.0028611" lon="11.7152938"><ele>1302.0</ele><time>2026-04-12T09:15:18.832Z</time></trkpt><trkpt lat="46.0028766" lon="11.7151883"><ele>1304.5</ele><time>2026-04-12T09:16:46.732Z</time></trkpt><trkpt lat="46.0028342" lon="11.7151046"><ele>1307.0</ele><time>2026-04-12T09:16:49.732Z</time></trkpt><trkpt lat="46.0028048" lon="11.7150144"><ele>1309.5</ele><time>2026-04-12T09:16:52.733Z</time></trkpt><trkpt lat="46.002765" lon="11.7149064"><ele>1312.0</ele><time>2026-04-12T09:16:55.733Z</time></trkpt><trkpt lat="46.0027228" lon="11.714825"><ele>1314.5</ele><time>2026-04-12T09:16:58.733Z</time></trkpt><trkpt lat="46.0026833" lon="11.7147176"><ele>1317.0</ele><time>2026-04-12T09:17:01.733Z</time></trkpt><trkpt lat="46.0026363" lon="11.7146107"><ele>1317.0</ele><time>2026-04-12T09:17:04.733Z</time></trkpt><trkpt lat="46.0026012" lon="11.7145055"><ele>1317.0</ele><time>2026-04-12T09:17:07.733Z</time></trkpt><trkpt lat="46.002566" lon="11.7143952"><ele>1317.0</ele><time>2026-04-12T09:17:11.733Z</time></trkpt><trkpt lat="46.0025264" lon="11.7142808"><ele>1317.0</ele><time>2026-04-12T09:17:14.732Z</time></trkpt><trkpt lat="46.0025098" lon="11.7141593"><ele>1317.0</ele><time>2026-04-12T09:17:17.733Z</time></trkpt><trkpt lat="46.0024858" lon="11.7140421"><ele>1317.0</ele><time>2026-04-12T09:17:20.734Z</time></trkpt><trkpt lat="46.0024745" lon="11.7139528"><ele>1320.5714285714287</ele><time>2026-04-12T09:17:22.732Z</time></trkpt><trkpt lat="46.0024558" lon="11.7138182"><ele>1324.142857142857</ele><time>2026-04-12T09:17:25.733Z</time></trkpt><trkpt lat="46.0024363" lon="11.7137266"><ele>1327.7142857142858</ele><time>2026-04-12T09:17:27.734Z</time></trkpt><trkpt lat="46.0024116" lon="11.7136325"><ele>1331.2857142857142</ele><time>2026-04-12T09:17:29.733Z</time></trkpt><trkpt lat="46.0023968" lon="11.713542"><ele>1334.857142857143</ele><time>2026-04-12T09:17:31.733Z</time></trkpt><trkpt lat="46.0023834" lon="11.7134482"><ele>1338.4285714285713</ele><time>2026-04-12T09:17:33.733Z</time></trkpt><trkpt lat="46.0023625" lon="11.7133542"><ele>1342.0</ele><time>2026-04-12T09:17:35.734Z</time></trkpt><trkpt lat="46.0023475" lon="11.7132589"><ele>1342.0</ele><time>2026-04-12T09:17:37.733Z</time></trkpt><trkpt lat="46.0023272" lon="11.7131508"><ele>1342.0</ele><time>2026-04-12T09:17:40.734Z</time></trkpt><trkpt lat="46.0023061" lon="11.7130231"><ele>1342.0</ele><time>2026-04-12T09:17:43.733Z</time></trkpt><trkpt lat="46.0022831" lon="11.7128969"><ele>1342.0</ele><time>2026-04-12T09:17:46.733Z</time></trkpt><trkpt lat="46.0022646" lon="11.7128066"><ele>1342.0</ele><time>2026-04-12T09:17:48.733Z</time></trkpt><trkpt lat="46.0022438" lon="11.7127201"><ele>1342.0</ele><time>2026-04-12T09:17:50.734Z</time></trkpt><trkpt lat="46.0022208" lon="11.7126071"><ele>1342.1666666666665</ele><time>2026-04-12T09:17:53.734Z</time></trkpt><trkpt lat="46.002199" lon="11.7124834"><ele>1342.3333333333333</ele><time>2026-04-12T09:17:56.734Z</time></trkpt><trkpt lat="46.0021859" lon="11.7123901"><ele>1342.5</ele><time>2026-04-12T09:17:58.733Z</time></trkpt><trkpt lat="46.0021734" lon="11.7122962"><ele>1342.6666666666667</ele><time>2026-04-12T09:18:00.734Z</time></trkpt><trkpt lat="46.0021487" lon="11.7121678"><ele>1342.8333333333335</ele><time>2026-04-12T09:18:03.733Z</time></trkpt><trkpt lat="46.0021277" lon="11.7120296"><ele>1343.0</ele><time>2026-04-12T09:18:06.733Z</time></trkpt><trkpt lat="46.0021166" lon="11.7119322"><ele>1342.142857142857</ele><time>2026-04-12T09:18:08.734Z</time></trkpt><trkpt lat="46.0020885" lon="11.711824"><ele>1341.2857142857142</ele><time>2026-04-12T09:18:11.733Z</time></trkpt><trkpt lat="46.002075" lon="11.7117338"><ele>1340.4285714285716</ele><time>2026-04-12T09:18:13.734Z</time></trkpt><trkpt lat="46.002067" lon="11.7116273"><ele>1339.5714285714284</ele><time>2026-04-12T09:18:15.735Z</time></trkpt><trkpt lat="46.0020568" lon="11.7115359"><ele>1338.7142857142858</ele><time>2026-04-12T09:18:17.733Z</time></trkpt><trkpt lat="46.0020431" lon="11.7114405"><ele>1337.857142857143</ele><time>2026-04-12T09:18:19.733Z</time></trkpt><trkpt lat="46.0020304" lon="11.711343"><ele>1337.0</ele><time>2026-04-12T09:18:21.733Z</time></trkpt><trkpt lat="46.0020038" lon="11.7112188"><ele>1337.0</ele><time>2026-04-12T09:18:24.734Z</time></trkpt><trkpt lat="46.00199" lon="11.7111242"><ele>1337.0</ele><time>2026-04-12T09:18:26.734Z</time></trkpt><trkpt lat="46.0019744" lon="11.711033"><ele>1337.0</ele><time>2026-04-12T09:18:28.734Z</time></trkpt><trkpt lat="46.0019481" lon="11.7109386"><ele>1337.0</ele><time>2026-04-12T09:18:30.735Z</time></trkpt><trkpt lat="46.0019189" lon="11.7108285"><ele>1337.0</ele><time>2026-04-12T09:18:32.734Z</time></trkpt><trkpt lat="46.0018923" lon="11.7107318"><ele>1337.0</ele><time>2026-04-12T09:18:34.734Z</time></trkpt><trkpt lat="46.0018663" lon="11.7106416"><ele>1337.0</ele><time>2026-04-12T09:18:36.735Z</time></trkpt><trkpt lat="46.001835" lon="11.7105522"><ele>1336.0</ele><time>2026-04-12T09:18:38.736Z</time></trkpt><trkpt lat="46.0018023" lon="11.7104645"><ele>1335.0</ele><time>2026-04-12T09:18:40.735Z</time></trkpt><trkpt lat="46.0017757" lon="11.7103712"><ele>1334.0</ele><time>2026-04-12T09:18:42.734Z</time></trkpt><trkpt lat="46.0017489" lon="11.7102868"><ele>1333.0</ele><time>2026-04-12T09:18:44.734Z</time></trkpt><trkpt lat="46.0017167" lon="11.7101929"><ele>1332.0</ele><time>2026-04-12T09:18:46.734Z</time></trkpt><trkpt lat="46.0016817" lon="11.7101021"><ele>1331.0</ele><time>2026-04-12T09:18:48.734Z</time></trkpt><trkpt lat="46.0016538" lon="11.7100103"><ele>1330.0</ele><time>2026-04-12T09:18:50.734Z</time></trkpt><trkpt lat="46.0016091" lon="11.7098916"><ele>1330.857142857143</ele><time>2026-04-12T09:18:53.734Z</time></trkpt><trkpt lat="46.0015759" lon="11.7097969"><ele>1331.7142857142858</ele><time>2026-04-12T09:18:55.735Z</time></trkpt><trkpt lat="46.0015684" lon="11.7096955"><ele>1332.5714285714284</ele><time>2026-04-12T09:18:57.734Z</time></trkpt><trkpt lat="46.001557" lon="11.709602"><ele>1333.4285714285716</ele><time>2026-04-12T09:18:59.735Z</time></trkpt><trkpt lat="46.0015295" lon="11.7094962"><ele>1334.2857142857142</ele><time>2026-04-12T09:19:01.734Z</time></trkpt><trkpt lat="46.0014993" lon="11.7093681"><ele>1335.142857142857</ele><time>2026-04-12T09:19:04.735Z</time></trkpt><trkpt lat="46.0014849" lon="11.7092756"><ele>1336.0</ele><time>2026-04-12T09:19:06.734Z</time></trkpt><trkpt lat="46.0014472" lon="11.7091779"><ele>1336.0</ele><time>2026-04-12T09:19:08.734Z</time></trkpt><trkpt lat="46.0013936" lon="11.7090865"><ele>1336.0</ele><time>2026-04-12T09:19:10.734Z</time></trkpt><trkpt lat="46.0013561" lon="11.7090017"><ele>1336.0</ele><time>2026-04-12T09:19:12.734Z</time></trkpt><trkpt lat="46.0013243" lon="11.7089183"><ele>1336.0</ele><time>2026-04-12T09:19:14.736Z</time></trkpt><trkpt lat="46.001291" lon="11.7087934"><ele>1336.0</ele><time>2026-04-12T09:19:17.734Z</time></trkpt><trkpt lat="46.0012596" lon="11.708702"><ele>1336.0</ele><time>2026-04-12T09:19:19.735Z</time></trkpt><trkpt lat="46.0012231" lon="11.708606"><ele>1335.0</ele><time>2026-04-12T09:19:21.735Z</time></trkpt><trkpt lat="46.0011671" lon="11.7085012"><ele>1334.0</ele><time>2026-04-12T09:19:23.734Z</time></trkpt><trkpt lat="46.0011188" lon="11.7084054"><ele>1333.0</ele><time>2026-04-12T09:19:25.736Z</time></trkpt><trkpt lat="46.0010828" lon="11.7083096"><ele>1332.0</ele><time>2026-04-12T09:19:27.734Z</time></trkpt><trkpt lat="46.0010397" lon="11.7082301"><ele>1331.0</ele><time>2026-04-12T09:19:29.735Z</time></trkpt><trkpt lat="46.0009873" lon="11.7081541"><ele>1330.0</ele><time>2026-04-12T09:19:31.734Z</time></trkpt><trkpt lat="46.0009407" lon="11.7080649"><ele>1330.0</ele><time>2026-04-12T09:19:33.736Z</time></trkpt><trkpt lat="46.0009021" lon="11.7079744"><ele>1330.0</ele><time>2026-04-12T09:19:35.735Z</time></trkpt><trkpt lat="46.0008602" lon="11.7078846"><ele>1330.0</ele><time>2026-04-12T09:19:37.735Z</time></trkpt><trkpt lat="46.0008072" lon="11.707778"><ele>1330.0</ele><time>2026-04-12T09:19:40.735Z</time></trkpt><trkpt lat="46.000769" lon="11.7076978"><ele>1330.0</ele><time>2026-04-12T09:19:42.735Z</time></trkpt><trkpt lat="46.0007287" lon="11.7076036"><ele>1330.0</ele><time>2026-04-12T09:19:44.736Z</time></trkpt><trkpt lat="46.0006942" lon="11.7075084"><ele>1328.0</ele><time>2026-04-12T09:19:46.736Z</time></trkpt><trkpt lat="46.0006569" lon="11.7074099"><ele>1326.0</ele><time>2026-04-12T09:19:48.735Z</time></trkpt><trkpt lat="46.0006212" lon="11.707321"><ele>1324.0</ele><time>2026-04-12T09:19:50.735Z</time></trkpt><trkpt lat="46.0005895" lon="11.7072301"><ele>1322.0</ele><time>2026-04-12T09:19:52.735Z</time></trkpt><trkpt lat="46.0005595" lon="11.7071471"><ele>1320.0</ele><time>2026-04-12T09:19:54.736Z</time></trkpt><trkpt lat="46.0005229" lon="11.7070616"><ele>1318.0</ele><time>2026-04-12T09:19:56.736Z</time></trkpt><trkpt lat="46.000487" lon="11.7069719"><ele>1316.0</ele><time>2026-04-12T09:19:58.735Z</time></trkpt><trkpt lat="46.0004547" lon="11.7068818"><ele>1316.0</ele><time>2026-04-12T09:20:00.735Z</time></trkpt><trkpt lat="46.000419" lon="11.7067946"><ele>1316.0</ele><time>2026-04-12T09:20:02.736Z</time></trkpt><trkpt lat="46.000383" lon="11.7067003"><ele>1316.0</ele><time>2026-04-12T09:20:04.736Z</time></trkpt><trkpt lat="46.0003462" lon="11.7066062"><ele>1316.0</ele><time>2026-04-12T09:20:06.735Z</time></trkpt><trkpt lat="46.0003127" lon="11.7065217"><ele>1316.0</ele><time>2026-04-12T09:20:08.736Z</time></trkpt><trkpt lat="46.0002732" lon="11.7064324"><ele>1316.0</ele><time>2026-04-12T09:20:10.735Z</time></trkpt><trkpt lat="46.0002464" lon="11.7063458"><ele>1316.0</ele><time>2026-04-12T09:20:12.735Z</time></trkpt><trkpt lat="46.0002201" lon="11.70626"><ele>1316.0</ele><time>2026-04-12T09:20:14.735Z</time></trkpt><trkpt lat="46.0001877" lon="11.7061652"><ele>1316.0</ele><time>2026-04-12T09:20:16.736Z</time></trkpt><trkpt lat="46.0001575" lon="11.706075"><ele>1316.0</ele><time>2026-04-12T09:20:18.735Z</time></trkpt><trkpt lat="46.0001284" lon="11.7059823"><ele>1316.0</ele><time>2026-04-12T09:20:20.735Z</time></trkpt><trkpt lat="46.0001037" lon="11.7058792"><ele>1316.0</ele><time>2026-04-12T09:20:22.737Z</time></trkpt><trkpt lat="46.000079" lon="11.7057809"><ele>1316.0</ele><time>2026-04-12T09:20:24.735Z</time></trkpt><trkpt lat="46.0000613" lon="11.7056826"><ele>1316.0</ele><time>2026-04-12T09:20:26.735Z</time></trkpt><trkpt lat="46.0000488" lon="11.7055838"><ele>1317.0</ele><time>2026-04-12T09:20:28.736Z</time></trkpt><trkpt lat="46.0000381" lon="11.7054833"><ele>1318.0</ele><time>2026-04-12T09:20:30.736Z</time></trkpt><trkpt lat="46.0000321" lon="11.7053739"><ele>1319.0</ele><time>2026-04-12T09:20:32.737Z</time></trkpt><trkpt lat="46.0000317" lon="11.7052658"><ele>1320.0</ele><time>2026-04-12T09:20:34.736Z</time></trkpt><trkpt lat="46.0000435" lon="11.7051602"><ele>1321.0</ele><time>2026-04-12T09:20:36.737Z</time></trkpt><trkpt lat="46.0000586" lon="11.7050578"><ele>1322.0</ele><time>2026-04-12T09:20:38.737Z</time></trkpt><trkpt lat="46.0000792" lon="11.7049588"><ele>1323.0</ele><time>2026-04-12T09:20:40.737Z</time></trkpt><trkpt lat="46.0001007" lon="11.704861"><ele>1323.2857142857142</ele><time>2026-04-12T09:20:42.737Z</time></trkpt><trkpt lat="46.0001265" lon="11.7047617"><ele>1323.5714285714284</ele><time>2026-04-12T09:20:44.737Z</time></trkpt><trkpt lat="46.0001481" lon="11.7046587"><ele>1323.857142857143</ele><time>2026-04-12T09:20:46.737Z</time></trkpt><trkpt lat="46.0001683" lon="11.7045607"><ele>1324.142857142857</ele><time>2026-04-12T09:20:48.736Z</time></trkpt><trkpt lat="46.0001895" lon="11.7044675"><ele>1324.4285714285713</ele><time>2026-04-12T09:20:50.736Z</time></trkpt><trkpt lat="46.000211" lon="11.7043784"><ele>1324.7142857142858</ele><time>2026-04-12T09:20:52.736Z</time></trkpt><trkpt lat="46.0002277" lon="11.7042847"><ele>1325.0</ele><time>2026-04-12T09:20:54.737Z</time></trkpt><trkpt lat="46.0002479" lon="11.704194"><ele>1325.0</ele><time>2026-04-12T09:20:56.737Z</time></trkpt><trkpt lat="46.000275" lon="11.7041083"><ele>1325.0</ele><time>2026-04-12T09:20:58.736Z</time></trkpt><trkpt lat="46.0002987" lon="11.7040187"><ele>1325.0</ele><time>2026-04-12T09:21:00.736Z</time></trkpt><trkpt lat="46.0003198" lon="11.7039272"><ele>1325.0</ele><time>2026-04-12T09:21:02.736Z</time></trkpt><trkpt lat="46.0003419" lon="11.703837"><ele>1325.0</ele><time>2026-04-12T09:21:04.736Z</time></trkpt><trkpt lat="46.0003601" lon="11.7037383"><ele>1325.0</ele><time>2026-04-12T09:21:06.737Z</time></trkpt><trkpt lat="46.0003729" lon="11.7036365"><ele>1325.0</ele><time>2026-04-12T09:21:08.736Z</time></trkpt><trkpt lat="46.000395" lon="11.7035385"><ele>1325.857142857143</ele><time>2026-04-12T09:21:10.737Z</time></trkpt><trkpt lat="46.0004172" lon="11.7034489"><ele>1326.7142857142856</ele><time>2026-04-12T09:21:12.737Z</time></trkpt><trkpt lat="46.0004313" lon="11.703355"><ele>1327.5714285714284</ele><time>2026-04-12T09:21:14.736Z</time></trkpt><trkpt lat="46.0004452" lon="11.7032621"><ele>1328.4285714285716</ele><time>2026-04-12T09:21:16.736Z</time></trkpt><trkpt lat="46.0004549" lon="11.7031628"><ele>1329.2857142857142</ele><time>2026-04-12T09:21:18.737Z</time></trkpt><trkpt lat="46.0004597" lon="11.7030658"><ele>1330.142857142857</ele><time>2026-04-12T09:21:20.737Z</time></trkpt><trkpt lat="46.0004679" lon="11.7029739"><ele>1331.0</ele><time>2026-04-12T09:21:22.736Z</time></trkpt><trkpt lat="46.0004736" lon="11.7028385"><ele>1331.6666666666667</ele><time>2026-04-12T09:21:25.737Z</time></trkpt><trkpt lat="46.0004733" lon="11.7027054"><ele>1332.3333333333335</ele><time>2026-04-12T09:21:28.736Z</time></trkpt><trkpt lat="46.0004689" lon="11.7025803"><ele>1333.0</ele><time>2026-04-12T09:21:31.737Z</time></trkpt><trkpt lat="46.0004576" lon="11.7024535"><ele>1333.6666666666667</ele><time>2026-04-12T09:21:34.736Z</time></trkpt><trkpt lat="46.0004325" lon="11.7023307"><ele>1334.3333333333333</ele><time>2026-04-12T09:21:37.737Z</time></trkpt><trkpt lat="46.0004132" lon="11.7022072"><ele>1335.0</ele><time>2026-04-12T09:21:40.738Z</time></trkpt><trkpt lat="46.0003884" lon="11.7020849"><ele>1335.0</ele><time>2026-04-12T09:21:43.737Z</time></trkpt><trkpt lat="46.0003597" lon="11.7019695"><ele>1335.0</ele><time>2026-04-12T09:21:46.737Z</time></trkpt><trkpt lat="46.0003303" lon="11.7018608"><ele>1335.0</ele><time>2026-04-12T09:21:49.738Z</time></trkpt><trkpt lat="46.000302" lon="11.7017487"><ele>1335.0</ele><time>2026-04-12T09:21:52.737Z</time></trkpt><trkpt lat="46.0002723" lon="11.7016399"><ele>1335.0</ele><time>2026-04-12T09:21:55.737Z</time></trkpt><trkpt lat="46.0002412" lon="11.7015254"><ele>1335.0</ele><time>2026-04-12T09:21:58.737Z</time></trkpt><trkpt lat="46.000215" lon="11.7014146"><ele>1335.8333333333333</ele><time>2026-04-12T09:22:01.737Z</time></trkpt><trkpt lat="46.0001955" lon="11.7012896"><ele>1336.6666666666667</ele><time>2026-04-12T09:22:04.738Z</time></trkpt><trkpt lat="46.0001815" lon="11.7011722"><ele>1337.5</ele><time>2026-04-12T09:22:07.737Z</time></trkpt><trkpt lat="46.0001713" lon="11.7010501"><ele>1338.3333333333335</ele><time>2026-04-12T09:22:10.737Z</time></trkpt><trkpt lat="46.000164" lon="11.7009265"><ele>1339.1666666666667</ele><time>2026-04-12T09:22:13.738Z</time></trkpt><trkpt lat="46.0001582" lon="11.700802"><ele>1340.0</ele><time>2026-04-12T09:22:16.738Z</time></trkpt><trkpt lat="46.0001478" lon="11.7006775"><ele>1340.6666666666667</ele><time>2026-04-12T09:22:19.738Z</time></trkpt><trkpt lat="46.0001322" lon="11.7005487"><ele>1341.3333333333335</ele><time>2026-04-12T09:22:22.737Z</time></trkpt><trkpt lat="46.0001125" lon="11.7004291"><ele>1342.0</ele><time>2026-04-12T09:22:25.739Z</time></trkpt><trkpt lat="46.0000873" lon="11.700308"><ele>1342.6666666666667</ele><time>2026-04-12T09:22:28.738Z</time></trkpt><trkpt lat="46.0000608" lon="11.7001939"><ele>1343.3333333333333</ele><time>2026-04-12T09:22:31.738Z</time></trkpt><trkpt lat="46.0000371" lon="11.7000689"><ele>1344.0</ele><time>2026-04-12T09:22:34.738Z</time></trkpt><trkpt lat="46.0000216" lon="11.6999509"><ele>1345.0</ele><time>2026-04-12T09:22:37.737Z</time></trkpt><trkpt lat="46.0000175" lon="11.6998269"><ele>1346.0</ele><time>2026-04-12T09:22:40.738Z</time></trkpt><trkpt lat="46.0000274" lon="11.6997175"><ele>1347.0</ele><time>2026-04-12T09:22:43.738Z</time></trkpt><trkpt lat="46.0000369" lon="11.6995981"><ele>1348.0</ele><time>2026-04-12T09:22:46.739Z</time></trkpt><trkpt lat="46.0000602" lon="11.6994887"><ele>1349.0</ele><time>2026-04-12T09:22:49.738Z</time></trkpt><trkpt lat="46.0000794" lon="11.6993721"><ele>1350.0</ele><time>2026-04-12T09:22:52.739Z</time></trkpt><trkpt lat="46.0000986" lon="11.6992604"><ele>1350.1666666666667</ele><time>2026-04-12T09:22:55.738Z</time></trkpt><trkpt lat="46.0001204" lon="11.6991483"><ele>1350.3333333333333</ele><time>2026-04-12T09:22:58.739Z</time></trkpt><trkpt lat="46.0001437" lon="11.6990376"><ele>1350.5</ele><time>2026-04-12T09:23:01.739Z</time></trkpt><trkpt lat="46.0001596" lon="11.6989358"><ele>1350.6666666666665</ele><time>2026-04-12T09:23:04.739Z</time></trkpt><trkpt lat="46.0001851" lon="11.6988318"><ele>1350.8333333333333</ele><time>2026-04-12T09:23:07.739Z</time></trkpt><trkpt lat="46.0002101" lon="11.698736"><ele>1351.0</ele><time>2026-04-12T09:23:10.739Z</time></trkpt><trkpt lat="46.0002351" lon="11.6986442"><ele>1350.4285714285713</ele><time>2026-04-12T09:23:14.738Z</time></trkpt><trkpt lat="46.0002646" lon="11.6985531"><ele>1349.857142857143</ele><time>2026-04-12T09:23:18.738Z</time></trkpt><trkpt lat="46.0002884" lon="11.6984611"><ele>1349.2857142857142</ele><time>2026-04-12T09:23:23.739Z</time></trkpt><trkpt lat="46.0003153" lon="11.6983769"><ele>1348.7142857142858</ele><time>2026-04-12T09:23:27.739Z</time></trkpt><trkpt lat="46.000342" lon="11.6982657"><ele>1348.142857142857</ele><time>2026-04-12T09:23:31.738Z</time></trkpt><trkpt lat="46.0003557" lon="11.6981625"><ele>1347.5714285714284</ele><time>2026-04-12T09:23:34.739Z</time></trkpt><trkpt lat="46.0003629" lon="11.6980572"><ele>1347.0</ele><time>2026-04-12T09:23:37.738Z</time></trkpt><trkpt lat="46.0003706" lon="11.6979524"><ele>1347.0</ele><time>2026-04-12T09:23:40.738Z</time></trkpt><trkpt lat="46.0003804" lon="11.697839"><ele>1347.0</ele><time>2026-04-12T09:23:43.739Z</time></trkpt><trkpt lat="46.000403" lon="11.697738"><ele>1347.0</ele><time>2026-04-12T09:23:46.738Z</time></trkpt><trkpt lat="46.0004239" lon="11.6976349"><ele>1347.0</ele><time>2026-04-12T09:23:49.739Z</time></trkpt><trkpt lat="46.0004372" lon="11.6975328"><ele>1347.0</ele><time>2026-04-12T09:23:52.74Z</time></trkpt><trkpt lat="46.0004376" lon="11.6974238"><ele>1347.0</ele><time>2026-04-12T09:23:55.74Z</time></trkpt><trkpt lat="46.0004362" lon="11.6973113"><ele>1347.6666666666667</ele><time>2026-04-12T09:23:58.739Z</time></trkpt><trkpt lat="46.0004296" lon="11.6971922"><ele>1348.3333333333333</ele><time>2026-04-12T09:24:01.74Z</time></trkpt><trkpt lat="46.0004275" lon="11.697078"><ele>1349.0</ele><time>2026-04-12T09:24:04.739Z</time></trkpt><trkpt lat="46.0004096" lon="11.6969636"><ele>1349.6666666666665</ele><time>2026-04-12T09:24:07.74Z</time></trkpt><trkpt lat="46.0003895" lon="11.6968559"><ele>1350.3333333333333</ele><time>2026-04-12T09:24:10.74Z</time></trkpt><trkpt lat="46.0003595" lon="11.6967487"><ele>1351.0</ele><time>2026-04-12T09:24:13.74Z</time></trkpt><trkpt lat="46.000338" lon="11.6966416"><ele>1351.0</ele><time>2026-04-12T09:24:16.739Z</time></trkpt><trkpt lat="46.0003082" lon="11.696554"><ele>1351.0</ele><time>2026-04-12T09:24:19.739Z</time></trkpt><trkpt lat="46.0003518" lon="11.6964791"><ele>1351.0</ele><time>2026-04-12T09:24:23.739Z</time></trkpt><trkpt lat="46.0003878" lon="11.6966005"><ele>1351.0</ele><time>2026-04-12T09:24:26.739Z</time></trkpt><trkpt lat="46.0004208" lon="11.6967249"><ele>1351.0</ele><time>2026-04-12T09:24:29.739Z</time></trkpt><trkpt lat="46.0004453" lon="11.6968544"><ele>1351.0</ele><time>2026-04-12T09:24:32.739Z</time></trkpt><trkpt lat="46.0004727" lon="11.6969549"><ele>1351.0</ele><time>2026-04-12T09:24:34.74Z</time></trkpt><trkpt lat="46.000494" lon="11.6970564"><ele>1351.0</ele><time>2026-04-12T09:24:36.739Z</time></trkpt><trkpt lat="46.0005133" lon="11.6971563"><ele>1351.0</ele><time>2026-04-12T09:24:38.74Z</time></trkpt><trkpt lat="46.0005272" lon="11.6972515"><ele>1351.0</ele><time>2026-04-12T09:24:40.74Z</time></trkpt><trkpt lat="46.0005411" lon="11.6973628"><ele>1351.0</ele><time>2026-04-12T09:24:42.74Z</time></trkpt><trkpt lat="46.000557" lon="11.6974613"><ele>1351.0</ele><time>2026-04-12T09:24:44.739Z</time></trkpt><trkpt lat="46.0005712" lon="11.6976049"><ele>1351.0</ele><time>2026-04-12T09:24:47.739Z</time></trkpt><trkpt lat="46.0006111" lon="11.6976914"><ele>1351.0</ele><time>2026-04-12T09:24:49.74Z</time></trkpt><trkpt lat="46.0006819" lon="11.6977376"><ele>1351.0</ele><time>2026-04-12T09:24:51.739Z</time></trkpt><trkpt lat="46.0007624" lon="11.6977114"><ele>1351.0</ele><time>2026-04-12T09:24:53.74Z</time></trkpt><trkpt lat="46.0008123" lon="11.6976266"><ele>1351.0</ele><time>2026-04-12T09:24:55.741Z</time></trkpt><trkpt lat="46.0008378" lon="11.6975371"><ele>1351.0</ele><time>2026-04-12T09:24:57.74Z</time></trkpt><trkpt lat="46.0008421" lon="11.6974125"><ele>1351.0</ele><time>2026-04-12T09:25:00.741Z</time></trkpt><trkpt lat="46.0008297" lon="11.6972971"><ele>1351.0</ele><time>2026-04-12T09:25:03.74Z</time></trkpt><trkpt lat="46.0008103" lon="11.6971963"><ele>1351.0</ele><time>2026-04-12T09:25:06.74Z</time></trkpt><trkpt lat="46.0007958" lon="11.6970946"><ele>1351.0</ele><time>2026-04-12T09:25:09.74Z</time></trkpt><trkpt lat="46.0007799" lon="11.6969881"><ele>1351.0</ele><time>2026-04-12T09:25:12.74Z</time></trkpt><trkpt lat="46.0007683" lon="11.6968957"><ele>1351.0</ele><time>2026-04-12T09:25:15.741Z</time></trkpt><trkpt lat="46.0007542" lon="11.6967952"><ele>1351.0</ele><time>2026-04-12T09:25:18.741Z</time></trkpt><trkpt lat="46.0007396" lon="11.6966926"><ele>1352.8333333333333</ele><time>2026-04-12T09:25:21.741Z</time></trkpt><trkpt lat="46.0007198" lon="11.6965867"><ele>1354.6666666666665</ele><time>2026-04-12T09:25:24.741Z</time></trkpt><trkpt lat="46.0007021" lon="11.6964935"><ele>1356.5</ele><time>2026-04-12T09:25:27.74Z</time></trkpt><trkpt lat="46.0006742" lon="11.6963927"><ele>1358.3333333333333</ele><time>2026-04-12T09:25:30.74Z</time></trkpt><trkpt lat="46.0006459" lon="11.696294"><ele>1360.1666666666667</ele><time>2026-04-12T09:25:33.74Z</time></trkpt><trkpt lat="46.0006168" lon="11.6962004"><ele>1362.0</ele><time>2026-04-12T09:25:36.74Z</time></trkpt><trkpt lat="46.0005518" lon="11.6960079"><ele>1363.8333333333333</ele><time>2026-04-12T09:25:39.999Z</time></trkpt><trkpt lat="46.000519" lon="11.6959129"><ele>1365.6666666666667</ele><time>2026-04-12T09:25:43Z</time></trkpt><trkpt lat="46.000488" lon="11.6958135"><ele>1367.5</ele><time>2026-04-12T09:25:45.999Z</time></trkpt><trkpt lat="46.0004655" lon="11.6957126"><ele>1369.3333333333335</ele><time>2026-04-12T09:25:48.999Z</time></trkpt><trkpt lat="46.0004305" lon="11.6956064"><ele>1371.1666666666667</ele><time>2026-04-12T09:25:52.999Z</time></trkpt><trkpt lat="46.0003971" lon="11.6954974"><ele>1373.0</ele><time>2026-04-12T09:25:55.999Z</time></trkpt><trkpt lat="46.0003601" lon="11.6954038"><ele>1373.0</ele><time>2026-04-12T09:25:59.001Z</time></trkpt><trkpt lat="46.0003214" lon="11.6953207"><ele>1373.0</ele><time>2026-04-12T09:26:02Z</time></trkpt><trkpt lat="46.0003287" lon="11.6952269"><ele>1373.0</ele><time>2026-04-12T09:26:05Z</time></trkpt><trkpt lat="46.0004144" lon="11.6952704"><ele>1373.0</ele><time>2026-04-12T09:26:08Z</time></trkpt><trkpt lat="46.0004412" lon="11.6953566"><ele>1373.0</ele><time>2026-04-12T09:26:10Z</time></trkpt><trkpt lat="46.000475" lon="11.6954375"><ele>1373.0</ele><time>2026-04-12T09:26:12Z</time></trkpt><trkpt lat="46.0005085" lon="11.6955163"><ele>1373.0</ele><time>2026-04-12T09:26:14Z</time></trkpt><trkpt lat="46.0005547" lon="11.6956005"><ele>1373.0</ele><time>2026-04-12T09:26:16.001Z</time></trkpt><trkpt lat="46.0006362" lon="11.6955909"><ele>1373.0</ele><time>2026-04-12T09:26:19Z</time></trkpt><trkpt lat="46.0006554" lon="11.6954809"><ele>1373.0</ele><time>2026-04-12T09:26:21Z</time></trkpt><trkpt lat="46.0006321" lon="11.695391"><ele>1373.0</ele><time>2026-04-12T09:26:23Z</time></trkpt><trkpt lat="46.0005915" lon="11.6952834"><ele>1373.0</ele><time>2026-04-12T09:26:26Z</time></trkpt><trkpt lat="46.0005644" lon="11.6951865"><ele>1373.0</ele><time>2026-04-12T09:26:29Z</time></trkpt><trkpt lat="46.000535" lon="11.6950847"><ele>1375.3333333333335</ele><time>2026-04-12T09:26:32Z</time></trkpt><trkpt lat="46.0005041" lon="11.6949986"><ele>1377.6666666666667</ele><time>2026-04-12T09:26:35Z</time></trkpt><trkpt lat="46.0004724" lon="11.6949005"><ele>1380.0</ele><time>2026-04-12T09:26:38.001Z</time></trkpt><trkpt lat="46.0004379" lon="11.694798"><ele>1382.3333333333333</ele><time>2026-04-12T09:26:41.001Z</time></trkpt><trkpt lat="46.0004092" lon="11.6946982"><ele>1384.6666666666665</ele><time>2026-04-12T09:26:44Z</time></trkpt><trkpt lat="46.000372" lon="11.6945908"><ele>1387.0</ele><time>2026-04-12T09:26:47.001Z</time></trkpt><trkpt lat="46.0003448" lon="11.6944841"><ele>1389.0</ele><time>2026-04-12T09:26:50.001Z</time></trkpt><trkpt lat="46.0003185" lon="11.6943714"><ele>1391.0</ele><time>2026-04-12T09:26:53.001Z</time></trkpt><trkpt lat="46.000294" lon="11.6942527"><ele>1393.0</ele><time>2026-04-12T09:26:56Z</time></trkpt><trkpt lat="46.0002694" lon="11.694133"><ele>1395.0</ele><time>2026-04-12T09:26:59.001Z</time></trkpt><trkpt lat="46.0002412" lon="11.6940187"><ele>1397.0</ele><time>2026-04-12T09:27:02.001Z</time></trkpt><trkpt lat="46.0002276" lon="11.6939246"><ele>1399.0</ele><time>2026-04-12T09:27:04Z</time></trkpt><trkpt lat="46.0002169" lon="11.6938341"><ele>1399.0</ele><time>2026-04-12T09:27:06.001Z</time></trkpt><trkpt lat="46.0001999" lon="11.6937045"><ele>1399.0</ele><time>2026-04-12T09:27:09.002Z</time></trkpt><trkpt lat="46.0001794" lon="11.6935847"><ele>1399.0</ele><time>2026-04-12T09:27:12.001Z</time></trkpt><trkpt lat="46.0001785" lon="11.6934698"><ele>1399.0</ele><time>2026-04-12T09:27:15.001Z</time></trkpt><trkpt lat="46.0002386" lon="11.6934105"><ele>1399.0</ele><time>2026-04-12T09:27:18.001Z</time></trkpt><trkpt lat="46.0003058" lon="11.6934261"><ele>1399.0</ele><time>2026-04-12T09:27:20.002Z</time></trkpt><trkpt lat="46.0003748" lon="11.6934792"><ele>1401.0</ele><time>2026-04-12T09:27:24.001Z</time></trkpt><trkpt lat="46.0004468" lon="11.6935325"><ele>1403.0</ele><time>2026-04-12T09:27:27.001Z</time></trkpt><trkpt lat="46.00052" lon="11.6935597"><ele>1405.0</ele><time>2026-04-12T09:27:29.002Z</time></trkpt><trkpt lat="46.000585" lon="11.693572"><ele>1407.0</ele><time>2026-04-12T09:27:31.001Z</time></trkpt><trkpt lat="46.0006654" lon="11.6935712"><ele>1409.0</ele><time>2026-04-12T09:27:33.001Z</time></trkpt><trkpt lat="46.0007375" lon="11.6935522"><ele>1411.0</ele><time>2026-04-12T09:27:35.001Z</time></trkpt><trkpt lat="46.0008045" lon="11.693524"><ele>1413.0</ele><time>2026-04-12T09:27:37.001Z</time></trkpt><trkpt lat="46.0008679" lon="11.6934886"><ele>1413.0</ele><time>2026-04-12T09:27:39.001Z</time></trkpt><trkpt lat="46.0009271" lon="11.6934352"><ele>1413.0</ele><time>2026-04-12T09:27:41.001Z</time></trkpt><trkpt lat="46.0009831" lon="11.6933755"><ele>1413.0</ele><time>2026-04-12T09:27:43.001Z</time></trkpt><trkpt lat="46.001043" lon="11.693313"><ele>1413.0</ele><time>2026-04-12T09:27:45.001Z</time></trkpt><trkpt lat="46.0010975" lon="11.6932458"><ele>1413.0</ele><time>2026-04-12T09:27:47.001Z</time></trkpt><trkpt lat="46.0011485" lon="11.6931709"><ele>1413.0</ele><time>2026-04-12T09:27:49.002Z</time></trkpt><trkpt lat="46.001202" lon="11.6931007"><ele>1413.0</ele><time>2026-04-12T09:27:51.003Z</time></trkpt><trkpt lat="46.001251" lon="11.6930291"><ele>1413.0</ele><time>2026-04-12T09:27:53.002Z</time></trkpt><trkpt lat="46.0012901" lon="11.6929497"><ele>1413.0</ele><time>2026-04-12T09:27:55.001Z</time></trkpt><trkpt lat="46.0013408" lon="11.6928692"><ele>1413.0</ele><time>2026-04-12T09:27:57.002Z</time></trkpt><trkpt lat="46.0014022" lon="11.6927752"><ele>1413.0</ele><time>2026-04-12T09:28:00.002Z</time></trkpt><trkpt lat="46.0014501" lon="11.6926983"><ele>1413.0</ele><time>2026-04-12T09:28:02.002Z</time></trkpt><trkpt lat="46.0015425" lon="11.6926273"><ele>1413.0</ele><time>2026-04-12T09:28:05.003Z</time></trkpt><trkpt lat="46.0016067" lon="11.692595"><ele>1414.142857142857</ele><time>2026-04-12T09:28:07.001Z</time></trkpt><trkpt lat="46.0016781" lon="11.6925585"><ele>1415.2857142857142</ele><time>2026-04-12T09:28:09.001Z</time></trkpt><trkpt lat="46.001754" lon="11.6925345"><ele>1416.4285714285716</ele><time>2026-04-12T09:28:11.002Z</time></trkpt><trkpt lat="46.0018234" lon="11.6925124"><ele>1417.5714285714284</ele><time>2026-04-12T09:28:13.002Z</time></trkpt><trkpt lat="46.0018889" lon="11.6925089"><ele>1418.7142857142858</ele><time>2026-04-12T09:28:15.002Z</time></trkpt><trkpt lat="46.0019544" lon="11.6925369"><ele>1419.857142857143</ele><time>2026-04-12T09:28:17.002Z</time></trkpt><trkpt lat="46.0020229" lon="11.6925715"><ele>1421.0</ele><time>2026-04-12T09:28:19.002Z</time></trkpt><trkpt lat="46.0020967" lon="11.6926026"><ele>1421.0</ele><time>2026-04-12T09:28:21.003Z</time></trkpt><trkpt lat="46.0021581" lon="11.6926278"><ele>1421.0</ele><time>2026-04-12T09:28:23.002Z</time></trkpt><trkpt lat="46.0022264" lon="11.6926478"><ele>1421.0</ele><time>2026-04-12T09:28:25.002Z</time></trkpt><trkpt lat="46.0022964" lon="11.6926471"><ele>1421.0</ele><time>2026-04-12T09:28:27.002Z</time></trkpt><trkpt lat="46.0023719" lon="11.6926343"><ele>1421.0</ele><time>2026-04-12T09:28:29.002Z</time></trkpt><trkpt lat="46.0024549" lon="11.6926061"><ele>1421.0</ele><time>2026-04-12T09:28:31.002Z</time></trkpt><trkpt lat="46.0025485" lon="11.6925957"><ele>1421.0</ele><time>2026-04-12T09:28:33.002Z</time></trkpt><trkpt lat="46.0026397" lon="11.6926316"><ele>1421.0</ele><time>2026-04-12T09:28:35.002Z</time></trkpt><trkpt lat="46.0027163" lon="11.6926978"><ele>1421.0</ele><time>2026-04-12T09:28:37.002Z</time></trkpt><trkpt lat="46.0027704" lon="11.6927586"><ele>1421.0</ele><time>2026-04-12T09:28:39.003Z</time></trkpt><trkpt lat="46.0028309" lon="11.6928186"><ele>1421.0</ele><time>2026-04-12T09:28:41.002Z</time></trkpt><trkpt lat="46.0029065" lon="11.6928756"><ele>1421.0</ele><time>2026-04-12T09:28:43.002Z</time></trkpt><trkpt lat="46.0029845" lon="11.6929301"><ele>1418.0</ele><time>2026-04-12T09:28:45.002Z</time></trkpt><trkpt lat="46.0030563" lon="11.6929843"><ele>1415.0</ele><time>2026-04-12T09:28:47.002Z</time></trkpt><trkpt lat="46.0031321" lon="11.6930413"><ele>1412.0</ele><time>2026-04-12T09:28:49.002Z</time></trkpt><trkpt lat="46.0032101" lon="11.6930905"><ele>1409.0</ele><time>2026-04-12T09:28:51.002Z</time></trkpt><trkpt lat="46.0032923" lon="11.6931435"><ele>1406.0</ele><time>2026-04-12T09:28:53.002Z</time></trkpt><trkpt lat="46.003368" lon="11.6931965"><ele>1403.0</ele><time>2026-04-12T09:28:55.002Z</time></trkpt><trkpt lat="46.0034495" lon="11.6932562"><ele>1403.0</ele><time>2026-04-12T09:28:57.002Z</time></trkpt><trkpt lat="46.003543" lon="11.6933079"><ele>1403.0</ele><time>2026-04-12T09:28:59.004Z</time></trkpt><trkpt lat="46.0036295" lon="11.6933263"><ele>1403.0</ele><time>2026-04-12T09:29:01.002Z</time></trkpt><trkpt lat="46.0037013" lon="11.6933137"><ele>1403.0</ele><time>2026-04-12T09:29:03.003Z</time></trkpt><trkpt lat="46.0037829" lon="11.6933058"><ele>1403.0</ele><time>2026-04-12T09:29:05.003Z</time></trkpt><trkpt lat="46.0038674" lon="11.6933037"><ele>1403.0</ele><time>2026-04-12T09:29:07.002Z</time></trkpt><trkpt lat="46.0039553" lon="11.6932966"><ele>1403.0</ele><time>2026-04-12T09:29:09.003Z</time></trkpt><trkpt lat="46.0040464" lon="11.6933212"><ele>1403.0</ele><time>2026-04-12T09:29:11.002Z</time></trkpt><trkpt lat="46.0041241" lon="11.6933733"><ele>1403.0</ele><time>2026-04-12T09:29:13.002Z</time></trkpt><trkpt lat="46.0041787" lon="11.6934535"><ele>1403.0</ele><time>2026-04-12T09:29:15.002Z</time></trkpt><trkpt lat="46.0042294" lon="11.6935403"><ele>1403.0</ele><time>2026-04-12T09:29:17.003Z</time></trkpt><trkpt lat="46.004279" lon="11.693658"><ele>1403.0</ele><time>2026-04-12T09:29:19.003Z</time></trkpt><trkpt lat="46.0043245" lon="11.6937597"><ele>1402.5</ele><time>2026-04-12T09:29:21.003Z</time></trkpt><trkpt lat="46.0043681" lon="11.6938459"><ele>1402.0</ele><time>2026-04-12T09:29:23.003Z</time></trkpt><trkpt lat="46.0044042" lon="11.6939218"><ele>1401.5</ele><time>2026-04-12T09:29:25.003Z</time></trkpt><trkpt lat="46.004471" lon="11.6939923"><ele>1401.0</ele><time>2026-04-12T09:29:27.004Z</time></trkpt><trkpt lat="46.0045434" lon="11.6940389"><ele>1400.5</ele><time>2026-04-12T09:29:29.003Z</time></trkpt><trkpt lat="46.0046252" lon="11.6940698"><ele>1400.0</ele><time>2026-04-12T09:29:31.003Z</time></trkpt><trkpt lat="46.0047101" lon="11.6940796"><ele>1400.0</ele><time>2026-04-12T09:29:33.003Z</time></trkpt><trkpt lat="46.0047905" lon="11.6940778"><ele>1400.0</ele><time>2026-04-12T09:29:35.003Z</time></trkpt><trkpt lat="46.0048733" lon="11.6940697"><ele>1400.0</ele><time>2026-04-12T09:29:37.003Z</time></trkpt><trkpt lat="46.0049423" lon="11.6940579"><ele>1400.0</ele><time>2026-04-12T09:29:39.004Z</time></trkpt><trkpt lat="46.0050286" lon="11.6940413"><ele>1400.0</ele><time>2026-04-12T09:29:42.003Z</time></trkpt><trkpt lat="46.0050947" lon="11.6940316"><ele>1400.0</ele><time>2026-04-12T09:29:44.003Z</time></trkpt><trkpt lat="46.0051853" lon="11.6940104"><ele>1401.6666666666667</ele><time>2026-04-12T09:29:47.003Z</time></trkpt><trkpt lat="46.0052552" lon="11.6939761"><ele>1403.3333333333335</ele><time>2026-04-12T09:29:49.003Z</time></trkpt><trkpt lat="46.0053342" lon="11.6939247"><ele>1405.0</ele><time>2026-04-12T09:29:52.004Z</time></trkpt><trkpt lat="46.0054055" lon="11.6938884"><ele>1406.6666666666667</ele><time>2026-04-12T09:29:55.003Z</time></trkpt><trkpt lat="46.0054909" lon="11.6938313"><ele>1408.3333333333333</ele><time>2026-04-12T09:29:58.004Z</time></trkpt><trkpt lat="46.0055514" lon="11.6937807"><ele>1410.0</ele><time>2026-04-12T09:30:00.003Z</time></trkpt><trkpt lat="46.0056216" lon="11.6937029"><ele>1410.0</ele><time>2026-04-12T09:30:04.003Z</time></trkpt><trkpt lat="46.0056877" lon="11.6936228"><ele>1410.0</ele><time>2026-04-12T09:30:07.003Z</time></trkpt><trkpt lat="46.0057362" lon="11.69356"><ele>1410.0</ele><time>2026-04-12T09:30:09.003Z</time></trkpt><trkpt lat="46.0057842" lon="11.6934703"><ele>1410.0</ele><time>2026-04-12T09:30:12.003Z</time></trkpt><trkpt lat="46.0058252" lon="11.6933979"><ele>1410.0</ele><time>2026-04-12T09:30:15.004Z</time></trkpt><trkpt lat="46.0058843" lon="11.6933116"><ele>1410.0</ele><time>2026-04-12T09:30:18.004Z</time></trkpt><trkpt lat="46.0059507" lon="11.6932158"><ele>1410.4285714285713</ele><time>2026-04-12T09:30:21.004Z</time></trkpt><trkpt lat="46.0060016" lon="11.6931493"><ele>1410.857142857143</ele><time>2026-04-12T09:30:23.004Z</time></trkpt><trkpt lat="46.0060632" lon="11.693076"><ele>1411.2857142857142</ele><time>2026-04-12T09:30:26.004Z</time></trkpt><trkpt lat="46.0061094" lon="11.6930097"><ele>1411.7142857142858</ele><time>2026-04-12T09:30:28.005Z</time></trkpt><trkpt lat="46.0061544" lon="11.6929459"><ele>1412.142857142857</ele><time>2026-04-12T09:30:30.004Z</time></trkpt><trkpt lat="46.0061912" lon="11.6928693"><ele>1412.5714285714284</ele><time>2026-04-12T09:30:32.004Z</time></trkpt><trkpt lat="46.006227" lon="11.6927892"><ele>1413.0</ele><time>2026-04-12T09:30:34.004Z</time></trkpt><trkpt lat="46.0062695" lon="11.6926799"><ele>1415.0</ele><time>2026-04-12T09:30:37.004Z</time></trkpt><trkpt lat="46.0062834" lon="11.6925766"><ele>1417.0</ele><time>2026-04-12T09:30:40.004Z</time></trkpt><trkpt lat="46.0062932" lon="11.6924863"><ele>1419.0</ele><time>2026-04-12T09:30:43.004Z</time></trkpt><trkpt lat="46.0063377" lon="11.6924164"><ele>1421.0</ele><time>2026-04-12T09:30:47.004Z</time></trkpt><trkpt lat="46.0063714" lon="11.6923312"><ele>1423.0</ele><time>2026-04-12T09:30:49.004Z</time></trkpt><trkpt lat="46.0064035" lon="11.6922226"><ele>1425.0</ele><time>2026-04-12T09:30:51.004Z</time></trkpt><trkpt lat="46.0064324" lon="11.692118"><ele>1427.0</ele><time>2026-04-12T09:30:53.005Z</time></trkpt><trkpt lat="46.0064565" lon="11.6920254"><ele>1427.0</ele><time>2026-04-12T09:30:55.004Z</time></trkpt><trkpt lat="46.0064805" lon="11.6919405"><ele>1427.0</ele><time>2026-04-12T09:30:58.004Z</time></trkpt><trkpt lat="46.006491" lon="11.6918342"><ele>1427.0</ele><time>2026-04-12T09:31:01.004Z</time></trkpt><trkpt lat="46.0064886" lon="11.6917211"><ele>1427.0</ele><time>2026-04-12T09:31:04.005Z</time></trkpt><trkpt lat="46.0064755" lon="11.6916077"><ele>1427.0</ele><time>2026-04-12T09:31:07.004Z</time></trkpt><trkpt lat="46.0064634" lon="11.6914858"><ele>1427.0</ele><time>2026-04-12T09:31:10.005Z</time></trkpt><trkpt lat="46.0064548" lon="11.6913773"><ele>1428.0</ele><time>2026-04-12T09:31:13.005Z</time></trkpt><trkpt lat="46.0064574" lon="11.6912731"><ele>1429.0</ele><time>2026-04-12T09:31:16.004Z</time></trkpt><trkpt lat="46.0064601" lon="11.6911732"><ele>1430.0</ele><time>2026-04-12T09:31:18.004Z</time></trkpt><trkpt lat="46.0064771" lon="11.6910853"><ele>1431.0</ele><time>2026-04-12T09:31:20.005Z</time></trkpt><trkpt lat="46.0065108" lon="11.6909998"><ele>1432.0</ele><time>2026-04-12T09:31:22.004Z</time></trkpt><trkpt lat="46.0065432" lon="11.6909043"><ele>1433.0</ele><time>2026-04-12T09:31:24.005Z</time></trkpt><trkpt lat="46.0065814" lon="11.6907706"><ele>1434.0</ele><time>2026-04-12T09:31:27.005Z</time></trkpt><trkpt lat="46.0066002" lon="11.6906431"><ele>1433.6666666666667</ele><time>2026-04-12T09:31:30.005Z</time></trkpt><trkpt lat="46.0066052" lon="11.690549"><ele>1433.3333333333333</ele><time>2026-04-12T09:31:32.005Z</time></trkpt><trkpt lat="46.0066146" lon="11.6904031"><ele>1433.0</ele><time>2026-04-12T09:31:35.005Z</time></trkpt><trkpt lat="46.006621" lon="11.6902992"><ele>1432.6666666666665</ele><time>2026-04-12T09:31:37.005Z</time></trkpt><trkpt lat="46.0066503" lon="11.6901797"><ele>1432.3333333333333</ele><time>2026-04-12T09:31:40.006Z</time></trkpt><trkpt lat="46.0067075" lon="11.6900811"><ele>1432.0</ele><time>2026-04-12T09:31:43.005Z</time></trkpt><trkpt lat="46.0067582" lon="11.6900069"><ele>1432.0</ele><time>2026-04-12T09:31:45.006Z</time></trkpt><trkpt lat="46.00682" lon="11.6899133"><ele>1432.0</ele><time>2026-04-12T09:31:48.005Z</time></trkpt><trkpt lat="46.0068769" lon="11.6898289"><ele>1432.0</ele><time>2026-04-12T09:31:51.005Z</time></trkpt><trkpt lat="46.006916" lon="11.6897413"><ele>1432.0</ele><time>2026-04-12T09:31:54.005Z</time></trkpt><trkpt lat="46.0069416" lon="11.689639"><ele>1432.0</ele><time>2026-04-12T09:31:56.005Z</time></trkpt><trkpt lat="46.0069589" lon="11.6895181"><ele>1432.0</ele><time>2026-04-12T09:31:58.005Z</time></trkpt><trkpt lat="46.0069603" lon="11.6894266"><ele>1432.5714285714287</ele><time>2026-04-12T09:32:00.005Z</time></trkpt><trkpt lat="46.0069624" lon="11.6893279"><ele>1433.142857142857</ele><time>2026-04-12T09:32:02.006Z</time></trkpt><trkpt lat="46.0069586" lon="11.6892368"><ele>1433.7142857142858</ele><time>2026-04-12T09:32:04.005Z</time></trkpt><trkpt lat="46.0069572" lon="11.6891387"><ele>1434.2857142857142</ele><time>2026-04-12T09:32:06.005Z</time></trkpt><trkpt lat="46.0069595" lon="11.6890409"><ele>1434.857142857143</ele><time>2026-04-12T09:32:08.005Z</time></trkpt><trkpt lat="46.006976" lon="11.6889343"><ele>1435.4285714285716</ele><time>2026-04-12T09:32:10.005Z</time></trkpt><trkpt lat="46.0070039" lon="11.688845"><ele>1436.0</ele><time>2026-04-12T09:32:12.005Z</time></trkpt><trkpt lat="46.0070379" lon="11.6887599"><ele>1436.0</ele><time>2026-04-12T09:32:14.005Z</time></trkpt><trkpt lat="46.007081" lon="11.6886839"><ele>1436.0</ele><time>2026-04-12T09:32:16.005Z</time></trkpt><trkpt lat="46.007128" lon="11.6885983"><ele>1436.0</ele><time>2026-04-12T09:32:18.005Z</time></trkpt><trkpt lat="46.0071733" lon="11.6885314"><ele>1436.0</ele><time>2026-04-12T09:32:20.006Z</time></trkpt><trkpt lat="46.0072197" lon="11.6884583"><ele>1436.0</ele><time>2026-04-12T09:32:22.006Z</time></trkpt><trkpt lat="46.0072632" lon="11.6883849"><ele>1436.0</ele><time>2026-04-12T09:32:24.005Z</time></trkpt><trkpt lat="46.0073071" lon="11.6882939"><ele>1436.0</ele><time>2026-04-12T09:32:26.005Z</time></trkpt><trkpt lat="46.0073442" lon="11.6881885"><ele>1436.0</ele><time>2026-04-12T09:32:28.005Z</time></trkpt><trkpt lat="46.0073821" lon="11.6880761"><ele>1436.0</ele><time>2026-04-12T09:32:30.007Z</time></trkpt><trkpt lat="46.0074143" lon="11.6879673"><ele>1436.0</ele><time>2026-04-12T09:32:32.006Z</time></trkpt><trkpt lat="46.0074411" lon="11.6878417"><ele>1436.0</ele><time>2026-04-12T09:32:34.006Z</time></trkpt><trkpt lat="46.0074667" lon="11.68773"><ele>1436.0</ele><time>2026-04-12T09:32:36.006Z</time></trkpt><trkpt lat="46.0074891" lon="11.6876165"><ele>1436.0</ele><time>2026-04-12T09:32:38.006Z</time></trkpt><trkpt lat="46.0075155" lon="11.6874957"><ele>1434.8333333333335</ele><time>2026-04-12T09:32:40.006Z</time></trkpt><trkpt lat="46.0075443" lon="11.6873701"><ele>1433.6666666666667</ele><time>2026-04-12T09:32:42.006Z</time></trkpt><trkpt lat="46.00757" lon="11.687253"><ele>1432.5</ele><time>2026-04-12T09:32:44.006Z</time></trkpt><trkpt lat="46.0075909" lon="11.687135"><ele>1431.3333333333333</ele><time>2026-04-12T09:32:46.006Z</time></trkpt><trkpt lat="46.0076078" lon="11.6870141"><ele>1430.1666666666665</ele><time>2026-04-12T09:32:48.006Z</time></trkpt><trkpt lat="46.0076236" lon="11.6868984"><ele>1429.0</ele><time>2026-04-12T09:32:50.006Z</time></trkpt><trkpt lat="46.007629" lon="11.686777"><ele>1429.0</ele><time>2026-04-12T09:32:52.006Z</time></trkpt><trkpt lat="46.0076158" lon="11.6866472"><ele>1429.0</ele><time>2026-04-12T09:32:54.006Z</time></trkpt><trkpt lat="46.0076024" lon="11.6865391"><ele>1429.0</ele><time>2026-04-12T09:32:56.006Z</time></trkpt><trkpt lat="46.0075993" lon="11.686448"><ele>1429.0</ele><time>2026-04-12T09:32:58.007Z</time></trkpt><trkpt lat="46.0075963" lon="11.6863547"><ele>1429.0</ele><time>2026-04-12T09:33:00.006Z</time></trkpt><trkpt lat="46.0075933" lon="11.6862535"><ele>1429.0</ele><time>2026-04-12T09:33:02.006Z</time></trkpt><trkpt lat="46.0075905" lon="11.6861545"><ele>1429.0</ele><time>2026-04-12T09:33:04.006Z</time></trkpt><trkpt lat="46.0075874" lon="11.6860505"><ele>1428.7142857142858</ele><time>2026-04-12T09:33:06.006Z</time></trkpt><trkpt lat="46.0075825" lon="11.6859433"><ele>1428.4285714285713</ele><time>2026-04-12T09:33:08.006Z</time></trkpt><trkpt lat="46.0075768" lon="11.6858436"><ele>1428.142857142857</ele><time>2026-04-12T09:33:10.006Z</time></trkpt><trkpt lat="46.0075627" lon="11.6857395"><ele>1427.857142857143</ele><time>2026-04-12T09:33:12.006Z</time></trkpt><trkpt lat="46.007547" lon="11.6856356"><ele>1427.5714285714287</ele><time>2026-04-12T09:33:14.006Z</time></trkpt><trkpt lat="46.007544" lon="11.6855308"><ele>1427.2857142857142</ele><time>2026-04-12T09:33:16.006Z</time></trkpt><trkpt lat="46.0075635" lon="11.6854286"><ele>1427.0</ele><time>2026-04-12T09:33:18.006Z</time></trkpt><trkpt lat="46.0076059" lon="11.6853477"><ele>1427.0</ele><time>2026-04-12T09:33:20.007Z</time></trkpt><trkpt lat="46.0076465" lon="11.6852541"><ele>1429.0</ele><time>2026-04-12T09:33:23.006Z</time></trkpt><trkpt lat="46.0076711" lon="11.6851575"><ele>1429.0</ele><time>2026-04-12T09:33:26.006Z</time></trkpt><trkpt lat="46.0076804" lon="11.6850605"><ele>1429.0</ele><time>2026-04-12T09:33:30.006Z</time></trkpt></trkseg><trkseg><trkpt lat="46.0076949" lon="11.6854997"><ele>1427.0</ele><time>2026-04-12T10:20:42.145Z</time></trkpt><trkpt lat="46.0076932" lon="11.6854004"><ele>1427.0</ele><time>2026-04-12T10:20:48.229Z</time></trkpt><trkpt lat="46.0076355" lon="11.685364"><ele>1427.0</ele><time>2026-04-12T10:20:52.171Z</time></trkpt><trkpt lat="46.0076047" lon="11.6852506"><ele>1427.0</ele><time>2026-04-12T10:23:20.127Z</time></trkpt><trkpt lat="46.0075884" lon="11.6853419"><ele>1427.0</ele><time>2026-04-12T10:23:24.046Z</time></trkpt><trkpt lat="46.0075424" lon="11.6854187"><ele>1427.0</ele><time>2026-04-12T10:23:28.045Z</time></trkpt><trkpt lat="46.0074993" lon="11.6855043"><ele>1427.0</ele><time>2026-04-12T10:23:31.045Z</time></trkpt><trkpt lat="46.0074461" lon="11.6855882"><ele>1427.2857142857142</ele><time>2026-04-12T10:23:35.045Z</time></trkpt><trkpt lat="46.007401" lon="11.6856521"><ele>1427.5714285714287</ele><time>2026-04-12T10:23:39.045Z</time></trkpt><trkpt lat="46.007333" lon="11.6857179"><ele>1427.857142857143</ele><time>2026-04-12T10:23:43.045Z</time></trkpt><trkpt lat="46.0072771" lon="11.6857719"><ele>1428.142857142857</ele><time>2026-04-12T10:23:46.046Z</time></trkpt><trkpt lat="46.007221" lon="11.6858246"><ele>1428.4285714285713</ele><time>2026-04-12T10:23:49.046Z</time></trkpt><trkpt lat="46.0071681" lon="11.6858761"><ele>1428.7142857142858</ele><time>2026-04-12T10:23:52.045Z</time></trkpt><trkpt lat="46.0071098" lon="11.6859564"><ele>1429.0</ele><time>2026-04-12T10:23:56.046Z</time></trkpt><trkpt lat="46.0070702" lon="11.686028"><ele>1430.2857142857142</ele><time>2026-04-12T10:23:59.046Z</time></trkpt><trkpt lat="46.0070323" lon="11.6861035"><ele>1431.5714285714284</ele><time>2026-04-12T10:24:02.046Z</time></trkpt><trkpt lat="46.0069936" lon="11.6861758"><ele>1432.8571428571427</ele><time>2026-04-12T10:24:05.046Z</time></trkpt><trkpt lat="46.0069508" lon="11.6862543"><ele>1434.142857142857</ele><time>2026-04-12T10:24:08.046Z</time></trkpt><trkpt lat="46.0069099" lon="11.6863289"><ele>1435.4285714285713</ele><time>2026-04-12T10:24:11.046Z</time></trkpt><trkpt lat="46.0068701" lon="11.6864101"><ele>1436.7142857142856</ele><time>2026-04-12T10:24:14.046Z</time></trkpt><trkpt lat="46.0068215" lon="11.6864746"><ele>1438.0</ele><time>2026-04-12T10:24:17.046Z</time></trkpt><trkpt lat="46.0067864" lon="11.6865568"><ele>1437.9999999999998</ele><time>2026-04-12T10:24:20.047Z</time></trkpt><trkpt lat="46.0067479" lon="11.6866368"><ele>1438.0</ele><time>2026-04-12T10:24:23.046Z</time></trkpt><trkpt lat="46.0067285" lon="11.6867351"><ele>1438.0</ele><time>2026-04-12T10:24:26.046Z</time></trkpt><trkpt lat="46.006709" lon="11.6868311"><ele>1438.0</ele><time>2026-04-12T10:24:29.047Z</time></trkpt><trkpt lat="46.0066793" lon="11.686925"><ele>1438.0</ele><time>2026-04-12T10:24:32.046Z</time></trkpt><trkpt lat="46.0066454" lon="11.6870116"><ele>1437.9999999999998</ele><time>2026-04-12T10:24:35.046Z</time></trkpt><trkpt lat="46.0066178" lon="11.6870989"><ele>1438.0</ele><time>2026-04-12T10:24:39.046Z</time></trkpt><trkpt lat="46.006585" lon="11.6872039"><ele>1439.9999999999998</ele><time>2026-04-12T10:24:43.046Z</time></trkpt><trkpt lat="46.006546" lon="11.6872992"><ele>1442.0</ele><time>2026-04-12T10:24:47.046Z</time></trkpt><trkpt lat="46.0065001" lon="11.6873912"><ele>1444.0</ele><time>2026-04-12T10:24:51.047Z</time></trkpt><trkpt lat="46.0064536" lon="11.6874932"><ele>1446.0</ele><time>2026-04-12T10:24:55.046Z</time></trkpt><trkpt lat="46.0064185" lon="11.6875734"><ele>1448.0</ele><time>2026-04-12T10:24:58.046Z</time></trkpt><trkpt lat="46.0063817" lon="11.6876544"><ele>1449.9999999999998</ele><time>2026-04-12T10:25:01.046Z</time></trkpt><trkpt lat="46.0063415" lon="11.6877393"><ele>1452.0</ele><time>2026-04-12T10:25:04.046Z</time></trkpt><trkpt lat="46.0062982" lon="11.6878132"><ele>1452.2857142857142</ele><time>2026-04-12T10:25:07.047Z</time></trkpt><trkpt lat="46.006259" lon="11.6878854"><ele>1452.5714285714284</ele><time>2026-04-12T10:25:10.047Z</time></trkpt><trkpt lat="46.0062025" lon="11.6879748"><ele>1452.8571428571427</ele><time>2026-04-12T10:25:14.047Z</time></trkpt><trkpt lat="46.0061572" lon="11.6880489"><ele>1453.142857142857</ele><time>2026-04-12T10:25:17.047Z</time></trkpt><trkpt lat="46.006111" lon="11.688135"><ele>1453.4285714285716</ele><time>2026-04-12T10:25:21.048Z</time></trkpt><trkpt lat="46.0060614" lon="11.6882067"><ele>1453.7142857142856</ele><time>2026-04-12T10:25:24.047Z</time></trkpt><trkpt lat="46.0060181" lon="11.688274"><ele>1454.0</ele><time>2026-04-12T10:25:27.047Z</time></trkpt><trkpt lat="46.0059698" lon="11.6883427"><ele>1454.0</ele><time>2026-04-12T10:25:30.048Z</time></trkpt><trkpt lat="46.0059242" lon="11.6884135"><ele>1454.0</ele><time>2026-04-12T10:25:33.047Z</time></trkpt><trkpt lat="46.0058762" lon="11.6884769"><ele>1454.0</ele><time>2026-04-12T10:25:36.047Z</time></trkpt><trkpt lat="46.0058354" lon="11.6885516"><ele>1454.0</ele><time>2026-04-12T10:25:39.048Z</time></trkpt><trkpt lat="46.005807" lon="11.6886396"><ele>1454.0</ele><time>2026-04-12T10:25:42.047Z</time></trkpt><trkpt lat="46.0057593" lon="11.6887198"><ele>1454.0</ele><time>2026-04-12T10:25:46.047Z</time></trkpt><trkpt lat="46.0056949" lon="11.6887173"><ele>1454.0</ele><time>2026-04-12T10:25:50.047Z</time></trkpt><trkpt lat="46.0056743" lon="11.6886257"><ele>1455.0</ele><time>2026-04-12T10:25:53.048Z</time></trkpt><trkpt lat="46.0056717" lon="11.6885222"><ele>1456.0</ele><time>2026-04-12T10:25:56.047Z</time></trkpt><trkpt lat="46.0056849" lon="11.6884227"><ele>1457.0</ele><time>2026-04-12T10:25:59.047Z</time></trkpt><trkpt lat="46.0056921" lon="11.6883181"><ele>1458.0</ele><time>2026-04-12T10:26:02.048Z</time></trkpt><trkpt lat="46.0056895" lon="11.6882232"><ele>1459.0</ele><time>2026-04-12T10:26:05.048Z</time></trkpt><trkpt lat="46.0056951" lon="11.6881325"><ele>1460.0</ele><time>2026-04-12T10:26:08.048Z</time></trkpt><trkpt lat="46.0056847" lon="11.6880353"><ele>1461.0</ele><time>2026-04-12T10:26:11.048Z</time></trkpt><trkpt lat="46.0056435" lon="11.6879494"><ele>1461.0</ele><time>2026-04-12T10:26:14.048Z</time></trkpt><trkpt lat="46.0055731" lon="11.687903"><ele>1461.0</ele><time>2026-04-12T10:26:17.048Z</time></trkpt><trkpt lat="46.0054916" lon="11.6879024"><ele>1461.0</ele><time>2026-04-12T10:26:20.048Z</time></trkpt><trkpt lat="46.00541" lon="11.68794"><ele>1461.0</ele><time>2026-04-12T10:26:23.048Z</time></trkpt><trkpt lat="46.0053376" lon="11.6879968"><ele>1461.0</ele><time>2026-04-12T10:26:26.048Z</time></trkpt><trkpt lat="46.0052718" lon="11.688058"><ele>1461.0</ele><time>2026-04-12T10:26:29.048Z</time></trkpt><trkpt lat="46.0052102" lon="11.688127"><ele>1461.0</ele><time>2026-04-12T10:26:32.048Z</time></trkpt><trkpt lat="46.0051488" lon="11.6881927"><ele>1461.0</ele><time>2026-04-12T10:26:35.048Z</time></trkpt><trkpt lat="46.005087" lon="11.6882514"><ele>1461.0</ele><time>2026-04-12T10:26:38.048Z</time></trkpt><trkpt lat="46.0050326" lon="11.6883252"><ele>1461.0</ele><time>2026-04-12T10:26:41.048Z</time></trkpt><trkpt lat="46.0049719" lon="11.6883997"><ele>1461.0</ele><time>2026-04-12T10:26:44.048Z</time></trkpt><trkpt lat="46.0049189" lon="11.6884866"><ele>1461.0</ele><time>2026-04-12T10:26:47.048Z</time></trkpt><trkpt lat="46.0048667" lon="11.6885719"><ele>1462.3333333333333</ele><time>2026-04-12T10:26:50.048Z</time></trkpt><trkpt lat="46.0048167" lon="11.6886617"><ele>1463.6666666666667</ele><time>2026-04-12T10:26:53.048Z</time></trkpt><trkpt lat="46.0047686" lon="11.6887586"><ele>1465.0</ele><time>2026-04-12T10:26:56.048Z</time></trkpt><trkpt lat="46.0047182" lon="11.6888457"><ele>1466.3333333333335</ele><time>2026-04-12T10:26:59.049Z</time></trkpt><trkpt lat="46.0046594" lon="11.6889355"><ele>1467.6666666666667</ele><time>2026-04-12T10:27:02.048Z</time></trkpt><trkpt lat="46.0046006" lon="11.689013"><ele>1469.0</ele><time>2026-04-12T10:27:05.048Z</time></trkpt><trkpt lat="46.00453" lon="11.6890749"><ele>1469.0</ele><time>2026-04-12T10:27:08.048Z</time></trkpt><trkpt lat="46.0044657" lon="11.6891372"><ele>1469.0</ele><time>2026-04-12T10:27:11.048Z</time></trkpt><trkpt lat="46.0044014" lon="11.6891814"><ele>1469.0</ele><time>2026-04-12T10:27:15.048Z</time></trkpt><trkpt lat="46.0043335" lon="11.6892405"><ele>1469.0</ele><time>2026-04-12T10:27:19.048Z</time></trkpt><trkpt lat="46.0042668" lon="11.6892954"><ele>1469.0</ele><time>2026-04-12T10:27:22.049Z</time></trkpt><trkpt lat="46.0041955" lon="11.6893568"><ele>1469.0</ele><time>2026-04-12T10:27:25.049Z</time></trkpt><trkpt lat="46.0041173" lon="11.6894142"><ele>1470.1666666666667</ele><time>2026-04-12T10:27:28.05Z</time></trkpt><trkpt lat="46.0040502" lon="11.689466"><ele>1471.3333333333335</ele><time>2026-04-12T10:27:31.049Z</time></trkpt><trkpt lat="46.0039846" lon="11.6895207"><ele>1472.5</ele><time>2026-04-12T10:27:34.049Z</time></trkpt><trkpt lat="46.0039186" lon="11.6895635"><ele>1473.6666666666667</ele><time>2026-04-12T10:27:37.049Z</time></trkpt><trkpt lat="46.0038532" lon="11.6896048"><ele>1474.8333333333333</ele><time>2026-04-12T10:27:40.049Z</time></trkpt><trkpt lat="46.0037776" lon="11.6896464"><ele>1476.0</ele><time>2026-04-12T10:27:43.049Z</time></trkpt><trkpt lat="46.0037052" lon="11.6896827"><ele>1476.0</ele><time>2026-04-12T10:27:46.049Z</time></trkpt><trkpt lat="46.0036384" lon="11.6897405"><ele>1476.0</ele><time>2026-04-12T10:27:49.049Z</time></trkpt><trkpt lat="46.0035955" lon="11.6898373"><ele>1476.0</ele><time>2026-04-12T10:27:52.049Z</time></trkpt><trkpt lat="46.0035439" lon="11.6899359"><ele>1476.0</ele><time>2026-04-12T10:27:55.049Z</time></trkpt><trkpt lat="46.0034696" lon="11.6900033"><ele>1476.0</ele><time>2026-04-12T10:27:58.049Z</time></trkpt><trkpt lat="46.0033783" lon="11.6900274"><ele>1476.0</ele><time>2026-04-12T10:28:01.05Z</time></trkpt><trkpt lat="46.0033148" lon="11.6900337"><ele>1475.7142857142858</ele><time>2026-04-12T10:28:03.049Z</time></trkpt><trkpt lat="46.0032439" lon="11.6900392"><ele>1475.4285714285713</ele><time>2026-04-12T10:28:05.049Z</time></trkpt><trkpt lat="46.0031761" lon="11.6900576"><ele>1475.1428571428573</ele><time>2026-04-12T10:28:07.049Z</time></trkpt><trkpt lat="46.0030936" lon="11.6900442"><ele>1474.857142857143</ele><time>2026-04-12T10:28:10.049Z</time></trkpt><trkpt lat="46.0030626" lon="11.689959"><ele>1474.5714285714287</ele><time>2026-04-12T10:28:43.05Z</time></trkpt><trkpt lat="46.0030073" lon="11.689915"><ele>1474.2857142857144</ele><time>2026-04-12T10:28:45.05Z</time></trkpt><trkpt lat="46.002943" lon="11.689853"><ele>1474.0</ele><time>2026-04-12T10:28:47.05Z</time></trkpt><trkpt lat="46.0028759" lon="11.689805"><ele>1474.0000000000002</ele><time>2026-04-12T10:28:50.05Z</time></trkpt><trkpt lat="46.0028138" lon="11.6897532"><ele>1474.0</ele><time>2026-04-12T10:28:55.05Z</time></trkpt><trkpt lat="46.0027549" lon="11.6897201"><ele>1474.0</ele><time>2026-04-12T10:28:59.05Z</time></trkpt><trkpt lat="46.0026859" lon="11.6896726"><ele>1474.0</ele><time>2026-04-12T10:29:03.05Z</time></trkpt><trkpt lat="46.0026133" lon="11.6896331"><ele>1474.0</ele><time>2026-04-12T10:29:07.05Z</time></trkpt><trkpt lat="46.0025482" lon="11.6896078"><ele>1474.0000000000002</ele><time>2026-04-12T10:29:10.05Z</time></trkpt><trkpt lat="46.0024705" lon="11.6895764"><ele>1474.0</ele><time>2026-04-12T10:29:14.051Z</time></trkpt><trkpt lat="46.0024097" lon="11.6895492"><ele>1475.2857142857144</ele><time>2026-04-12T10:29:17.05Z</time></trkpt><trkpt lat="46.0023397" lon="11.6895058"><ele>1476.5714285714287</ele><time>2026-04-12T10:29:21.051Z</time></trkpt><trkpt lat="46.0022719" lon="11.689469"><ele>1477.857142857143</ele><time>2026-04-12T10:29:25.05Z</time></trkpt><trkpt lat="46.0021988" lon="11.6894311"><ele>1479.1428571428573</ele><time>2026-04-12T10:29:29.05Z</time></trkpt><trkpt lat="46.0021391" lon="11.6893966"><ele>1480.4285714285713</ele><time>2026-04-12T10:29:32.051Z</time></trkpt><trkpt lat="46.0020776" lon="11.6893684"><ele>1481.7142857142858</ele><time>2026-04-12T10:29:35.051Z</time></trkpt><trkpt lat="46.0020059" lon="11.6893233"><ele>1483.0</ele><time>2026-04-12T10:29:39.051Z</time></trkpt><trkpt lat="46.0019408" lon="11.6892656"><ele>1484.0</ele><time>2026-04-12T10:29:43.051Z</time></trkpt><trkpt lat="46.0018868" lon="11.6892173"><ele>1485.0</ele><time>2026-04-12T10:29:46.051Z</time></trkpt><trkpt lat="46.0018316" lon="11.6891565"><ele>1486.0</ele><time>2026-04-12T10:29:49.051Z</time></trkpt><trkpt lat="46.0017553" lon="11.6891181"><ele>1487.0</ele><time>2026-04-12T10:29:53.052Z</time></trkpt><trkpt lat="46.0016943" lon="11.6890855"><ele>1488.0</ele><time>2026-04-12T10:29:56.051Z</time></trkpt><trkpt lat="46.0016146" lon="11.689064"><ele>1489.0</ele><time>2026-04-12T10:30:00.051Z</time></trkpt><trkpt lat="46.0015325" lon="11.6890363"><ele>1490.0</ele><time>2026-04-12T10:30:04.051Z</time></trkpt><trkpt lat="46.0014582" lon="11.6890219"><ele>1491.2857142857142</ele><time>2026-04-12T10:30:07.051Z</time></trkpt><trkpt lat="46.0013822" lon="11.6890169"><ele>1492.5714285714284</ele><time>2026-04-12T10:30:10.052Z</time></trkpt><trkpt lat="46.0013062" lon="11.6890285"><ele>1493.857142857143</ele><time>2026-04-12T10:30:13.051Z</time></trkpt><trkpt lat="46.0012363" lon="11.6890518"><ele>1495.142857142857</ele><time>2026-04-12T10:30:16.051Z</time></trkpt><trkpt lat="46.0011597" lon="11.689035"><ele>1496.4285714285716</ele><time>2026-04-12T10:30:19.051Z</time></trkpt><trkpt lat="46.0010843" lon="11.6890099"><ele>1497.7142857142858</ele><time>2026-04-12T10:30:22.052Z</time></trkpt><trkpt lat="46.0010161" lon="11.6890264"><ele>1499.0</ele><time>2026-04-12T10:30:25.051Z</time></trkpt><trkpt lat="46.0009493" lon="11.6890419"><ele>1499.0</ele><time>2026-04-12T10:30:28.051Z</time></trkpt><trkpt lat="46.0008664" lon="11.6890796"><ele>1499.0</ele><time>2026-04-12T10:30:32.051Z</time></trkpt><trkpt lat="46.0007859" lon="11.6891021"><ele>1499.0</ele><time>2026-04-12T10:30:36.051Z</time></trkpt><trkpt lat="46.0007172" lon="11.6890968"><ele>1499.0</ele><time>2026-04-12T10:30:39.051Z</time></trkpt><trkpt lat="46.0006527" lon="11.6891156"><ele>1499.0</ele><time>2026-04-12T10:30:41.052Z</time></trkpt><trkpt lat="46.0005614" lon="11.6891612"><ele>1499.0</ele><time>2026-04-12T10:30:43.052Z</time></trkpt><trkpt lat="46.0004984" lon="11.6891694"><ele>1498.0</ele><time>2026-04-12T10:30:44.052Z</time></trkpt><trkpt lat="46.0003832" lon="11.6891868"><ele>1497.0</ele><time>2026-04-12T10:30:46.052Z</time></trkpt><trkpt lat="46.0002657" lon="11.6891947"><ele>1496.0</ele><time>2026-04-12T10:30:48.052Z</time></trkpt><trkpt lat="46.0002099" lon="11.689237"><ele>1495.0</ele><time>2026-04-12T10:30:49.052Z</time></trkpt><trkpt lat="46.000149" lon="11.6892854"><ele>1494.0</ele><time>2026-04-12T10:30:50.052Z</time></trkpt><trkpt lat="46.0000873" lon="11.6893304"><ele>1493.0</ele><time>2026-04-12T10:30:51.052Z</time></trkpt><trkpt lat="46.0000281" lon="11.689365"><ele>1493.0</ele><time>2026-04-12T10:30:52.052Z</time></trkpt><trkpt lat="45.9999163" lon="11.6893776"><ele>1493.0</ele><time>2026-04-12T10:30:54.052Z</time></trkpt><trkpt lat="45.9998222" lon="11.689323"><ele>1493.0</ele><time>2026-04-12T10:30:56.052Z</time></trkpt><trkpt lat="45.9997513" lon="11.6892629"><ele>1493.0</ele><time>2026-04-12T10:30:58.052Z</time></trkpt><trkpt lat="45.9996914" lon="11.6892101"><ele>1493.0</ele><time>2026-04-12T10:31:00.052Z</time></trkpt><trkpt lat="45.9996199" lon="11.6891576"><ele>1493.0</ele><time>2026-04-12T10:31:03.052Z</time></trkpt><trkpt lat="45.9995549" lon="11.6891181"><ele>1493.0</ele><time>2026-04-12T10:31:06.053Z</time></trkpt><trkpt lat="45.9994643" lon="11.6890817"><ele>1493.0</ele><time>2026-04-12T10:31:09.052Z</time></trkpt><trkpt lat="45.9994022" lon="11.6890662"><ele>1493.0</ele><time>2026-04-12T10:31:11.053Z</time></trkpt><trkpt lat="45.9993182" lon="11.6890051"><ele>1493.0</ele><time>2026-04-12T10:31:14.053Z</time></trkpt><trkpt lat="45.9992581" lon="11.6889659"><ele>1493.0</ele><time>2026-04-12T10:31:16.052Z</time></trkpt><trkpt lat="45.999199" lon="11.6889233"><ele>1493.0</ele><time>2026-04-12T10:31:18.052Z</time></trkpt><trkpt lat="45.9991215" lon="11.688878"><ele>1492.5</ele><time>2026-04-12T10:31:21.053Z</time></trkpt><trkpt lat="45.9990312" lon="11.6888953"><ele>1492.0</ele><time>2026-04-12T10:31:24.052Z</time></trkpt><trkpt lat="45.9989607" lon="11.6889586"><ele>1491.5</ele><time>2026-04-12T10:31:27.052Z</time></trkpt><trkpt lat="45.9989009" lon="11.689005"><ele>1491.0</ele><time>2026-04-12T10:31:32.053Z</time></trkpt><trkpt lat="45.9988204" lon="11.6890223"><ele>1490.5</ele><time>2026-04-12T10:31:35.052Z</time></trkpt><trkpt lat="45.9987571" lon="11.6890037"><ele>1490.0</ele><time>2026-04-12T10:31:37.052Z</time></trkpt><trkpt lat="45.9986806" lon="11.6889947"><ele>1490.0</ele><time>2026-04-12T10:31:40.052Z</time></trkpt><trkpt lat="45.9986042" lon="11.6889832"><ele>1490.0</ele><time>2026-04-12T10:31:45.053Z</time></trkpt><trkpt lat="45.9985285" lon="11.6889726"><ele>1490.0</ele><time>2026-04-12T10:31:48.053Z</time></trkpt><trkpt lat="45.9984555" lon="11.6889419"><ele>1490.0</ele><time>2026-04-12T10:31:51.053Z</time></trkpt><trkpt lat="45.9983919" lon="11.6888982"><ele>1490.0</ele><time>2026-04-12T10:31:53.053Z</time></trkpt><trkpt lat="45.9983296" lon="11.68886"><ele>1490.0</ele><time>2026-04-12T10:31:55.053Z</time></trkpt><trkpt lat="45.9982513" lon="11.6888267"><ele>1490.0</ele><time>2026-04-12T10:31:58.053Z</time></trkpt><trkpt lat="45.9981854" lon="11.6887996"><ele>1489.4285714285713</ele><time>2026-04-12T10:32:01.053Z</time></trkpt><trkpt lat="45.9981274" lon="11.688756"><ele>1488.8571428571427</ele><time>2026-04-12T10:32:04.053Z</time></trkpt><trkpt lat="45.9980717" lon="11.6887086"><ele>1488.2857142857142</ele><time>2026-04-12T10:32:07.053Z</time></trkpt><trkpt lat="45.9980093" lon="11.6886675"><ele>1487.7142857142858</ele><time>2026-04-12T10:32:28.053Z</time></trkpt><trkpt lat="45.9979508" lon="11.6887398"><ele>1487.142857142857</ele><time>2026-04-12T10:33:45.054Z</time></trkpt><trkpt lat="45.9978915" lon="11.6887789"><ele>1486.5714285714287</ele><time>2026-04-12T10:36:37.057Z</time></trkpt><trkpt lat="45.997831" lon="11.688809"><ele>1486.0</ele><time>2026-04-12T10:36:39.057Z</time></trkpt><trkpt lat="45.9977245" lon="11.6888586"><ele>1486.0</ele><time>2026-04-12T10:36:41.058Z</time></trkpt><trkpt lat="45.9976624" lon="11.688891"><ele>1486.0</ele><time>2026-04-12T10:36:42.057Z</time></trkpt><trkpt lat="45.9975949" lon="11.6889264"><ele>1486.0</ele><time>2026-04-12T10:36:43.057Z</time></trkpt><trkpt lat="45.9975211" lon="11.6889587"><ele>1486.0</ele><time>2026-04-12T10:36:44.057Z</time></trkpt><trkpt lat="45.9974472" lon="11.6889918"><ele>1486.0</ele><time>2026-04-12T10:36:45.057Z</time></trkpt><trkpt lat="45.9973801" lon="11.6890182"><ele>1486.0</ele><time>2026-04-12T10:36:46.058Z</time></trkpt><trkpt lat="45.9972918" lon="11.6890605"><ele>1484.6</ele><time>2026-04-12T10:36:48.057Z</time></trkpt><trkpt lat="45.9972157" lon="11.6891122"><ele>1483.1999999999998</ele><time>2026-04-12T10:36:51.058Z</time></trkpt><trkpt lat="45.9971554" lon="11.6891554"><ele>1481.8000000000002</ele><time>2026-04-12T10:36:53.057Z</time></trkpt><trkpt lat="45.9970521" lon="11.6892074"><ele>1480.4</ele><time>2026-04-12T10:36:55.057Z</time></trkpt><trkpt lat="45.9969414" lon="11.689254"><ele>1479.0</ele><time>2026-04-12T10:36:57.058Z</time></trkpt><trkpt lat="45.9968417" lon="11.689281"><ele>1479.0</ele><time>2026-04-12T10:36:59.059Z</time></trkpt><trkpt lat="45.9967308" lon="11.6893067"><ele>1479.0</ele><time>2026-04-12T10:37:01.057Z</time></trkpt><trkpt lat="45.9966637" lon="11.6893375"><ele>1479.0</ele><time>2026-04-12T10:37:02.058Z</time></trkpt><trkpt lat="45.9965967" lon="11.6893704"><ele>1479.0</ele><time>2026-04-12T10:37:03.057Z</time></trkpt><trkpt lat="45.9965296" lon="11.6894116"><ele>1479.0</ele><time>2026-04-12T10:37:04.058Z</time></trkpt><trkpt lat="45.9964549" lon="11.6894599"><ele>1479.0</ele><time>2026-04-12T10:37:05.058Z</time></trkpt><trkpt lat="45.9963938" lon="11.6895026"><ele>1476.5</ele><time>2026-04-12T10:37:06.057Z</time></trkpt><trkpt lat="45.9962939" lon="11.6895817"><ele>1474.0</ele><time>2026-04-12T10:37:08.057Z</time></trkpt><trkpt lat="45.9962271" lon="11.6896231"><ele>1471.5</ele><time>2026-04-12T10:37:10.057Z</time></trkpt><trkpt lat="45.9961675" lon="11.6896732"><ele>1469.0</ele><time>2026-04-12T10:37:12.057Z</time></trkpt><trkpt lat="45.9960777" lon="11.6897076"><ele>1466.5</ele><time>2026-04-12T10:37:15.057Z</time></trkpt><trkpt lat="45.9959918" lon="11.6897161"><ele>1464.0</ele><time>2026-04-12T10:37:17.058Z</time></trkpt><trkpt lat="45.9959013" lon="11.68973"><ele>1461.6666666666667</ele><time>2026-04-12T10:37:19.058Z</time></trkpt><trkpt lat="45.9957896" lon="11.6897533"><ele>1459.3333333333333</ele><time>2026-04-12T10:37:21.058Z</time></trkpt><trkpt lat="45.9957217" lon="11.6897665"><ele>1457.0</ele><time>2026-04-12T10:37:22.058Z</time></trkpt><trkpt lat="45.9956457" lon="11.6897833"><ele>1454.6666666666665</ele><time>2026-04-12T10:37:23.058Z</time></trkpt><trkpt lat="45.9955659" lon="11.6897912"><ele>1452.3333333333333</ele><time>2026-04-12T10:37:24.058Z</time></trkpt><trkpt lat="45.995476" lon="11.6898025"><ele>1450.0</ele><time>2026-04-12T10:37:25.058Z</time></trkpt><trkpt lat="45.9953874" lon="11.6898165"><ele>1450.0</ele><time>2026-04-12T10:37:26.058Z</time></trkpt><trkpt lat="45.9953144" lon="11.6898334"><ele>1450.0</ele><time>2026-04-12T10:37:27.058Z</time></trkpt><trkpt lat="45.9952195" lon="11.6898635"><ele>1450.0</ele><time>2026-04-12T10:37:28.058Z</time></trkpt><trkpt lat="45.9951398" lon="11.6899022"><ele>1450.0</ele><time>2026-04-12T10:37:29.058Z</time></trkpt><trkpt lat="45.9950508" lon="11.6899465"><ele>1450.0</ele><time>2026-04-12T10:37:30.058Z</time></trkpt><trkpt lat="45.994968" lon="11.6899831"><ele>1450.0</ele><time>2026-04-12T10:37:31.058Z</time></trkpt><trkpt lat="45.9948878" lon="11.6900072"><ele>1447.6</ele><time>2026-04-12T10:37:32.058Z</time></trkpt><trkpt lat="45.9948041" lon="11.6900261"><ele>1445.2</ele><time>2026-04-12T10:37:33.058Z</time></trkpt><trkpt lat="45.9947131" lon="11.6900357"><ele>1442.8000000000002</ele><time>2026-04-12T10:37:34.058Z</time></trkpt><trkpt lat="45.9946235" lon="11.690046"><ele>1440.4</ele><time>2026-04-12T10:37:35.058Z</time></trkpt><trkpt lat="45.9944998" lon="11.690052"><ele>1438.0</ele><time>2026-04-12T10:37:37.058Z</time></trkpt><trkpt lat="45.9943917" lon="11.6900602"><ele>1438.0</ele><time>2026-04-12T10:37:39.058Z</time></trkpt><trkpt lat="45.9942769" lon="11.6900964"><ele>1438.0</ele><time>2026-04-12T10:37:41.058Z</time></trkpt><trkpt lat="45.9941714" lon="11.6901172"><ele>1438.0</ele><time>2026-04-12T10:37:43.058Z</time></trkpt><trkpt lat="45.9941039" lon="11.6900812"><ele>1438.0</ele><time>2026-04-12T10:37:45.058Z</time></trkpt><trkpt lat="45.9940048" lon="11.6900424"><ele>1438.0</ele><time>2026-04-12T10:37:48.058Z</time></trkpt><trkpt lat="45.9939082" lon="11.6900262"><ele>1436.1666666666665</ele><time>2026-04-12T10:37:50.058Z</time></trkpt><trkpt lat="45.9938353" lon="11.6899916"><ele>1434.3333333333333</ele><time>2026-04-12T10:37:52.058Z</time></trkpt><trkpt lat="45.9937532" lon="11.6900055"><ele>1432.5</ele><time>2026-04-12T10:37:56.058Z</time></trkpt><trkpt lat="45.9936746" lon="11.6900386"><ele>1430.6666666666667</ele><time>2026-04-12T10:37:59.058Z</time></trkpt><trkpt lat="45.9936144" lon="11.6901133"><ele>1428.8333333333335</ele><time>2026-04-12T10:38:01.059Z</time></trkpt><trkpt lat="45.9935207" lon="11.6902145"><ele>1427.0</ele><time>2026-04-12T10:38:03.059Z</time></trkpt><trkpt lat="45.9934326" lon="11.6902781"><ele>1426.6</ele><time>2026-04-12T10:38:05.058Z</time></trkpt><trkpt lat="45.9933455" lon="11.690262"><ele>1426.1999999999998</ele><time>2026-04-12T10:38:07.058Z</time></trkpt><trkpt lat="45.9932199" lon="11.6902952"><ele>1425.8</ele><time>2026-04-12T10:38:09.06Z</time></trkpt><trkpt lat="45.9931332" lon="11.6903769"><ele>1425.4</ele><time>2026-04-12T10:38:11.059Z</time></trkpt><trkpt lat="45.9930518" lon="11.6903815"><ele>1425.0</ele><time>2026-04-12T10:38:13.058Z</time></trkpt><trkpt lat="45.9929662" lon="11.6903897"><ele>1422.8333333333333</ele><time>2026-04-12T10:38:15.058Z</time></trkpt><trkpt lat="45.9928687" lon="11.6904379"><ele>1420.6666666666667</ele><time>2026-04-12T10:38:17.058Z</time></trkpt><trkpt lat="45.9928018" lon="11.6905213"><ele>1418.5</ele><time>2026-04-12T10:38:19.06Z</time></trkpt><trkpt lat="45.9927364" lon="11.6905694"><ele>1416.3333333333335</ele><time>2026-04-12T10:38:22.059Z</time></trkpt><trkpt lat="45.9926448" lon="11.6906073"><ele>1414.1666666666667</ele><time>2026-04-12T10:38:24.059Z</time></trkpt><trkpt lat="45.9925865" lon="11.6906566"><ele>1412.0</ele><time>2026-04-12T10:38:26.059Z</time></trkpt><trkpt lat="45.9925123" lon="11.6907001"><ele>1409.8333333333335</ele><time>2026-04-12T10:38:28.059Z</time></trkpt><trkpt lat="45.9924396" lon="11.6907372"><ele>1407.6666666666667</ele><time>2026-04-12T10:38:30.059Z</time></trkpt><trkpt lat="45.9923674" lon="11.6907964"><ele>1405.5</ele><time>2026-04-12T10:38:32.059Z</time></trkpt><trkpt lat="45.992292" lon="11.69087"><ele>1403.3333333333333</ele><time>2026-04-12T10:38:34.059Z</time></trkpt><trkpt lat="45.9922237" lon="11.6909301"><ele>1401.1666666666665</ele><time>2026-04-12T10:38:36.059Z</time></trkpt><trkpt lat="45.9921578" lon="11.6909487"><ele>1399.0</ele><time>2026-04-12T10:38:38.059Z</time></trkpt><trkpt lat="45.9920777" lon="11.6910087"><ele>1399.0</ele><time>2026-04-12T10:38:41.06Z</time></trkpt><trkpt lat="45.9920018" lon="11.6910152"><ele>1399.0</ele><time>2026-04-12T10:38:43.059Z</time></trkpt><trkpt lat="45.9918952" lon="11.691071"><ele>1399.0</ele><time>2026-04-12T10:38:45.059Z</time></trkpt><trkpt lat="45.9918249" lon="11.6911218"><ele>1399.0</ele><time>2026-04-12T10:38:47.059Z</time></trkpt><trkpt lat="45.9917871" lon="11.6912196"><ele>1399.0</ele><time>2026-04-12T10:38:57.059Z</time></trkpt><trkpt lat="45.9917096" lon="11.6912267"><ele>1399.0</ele><time>2026-04-12T10:39:00.059Z</time></trkpt><trkpt lat="45.9916324" lon="11.6912287"><ele>1397.8333333333333</ele><time>2026-04-12T10:39:03.059Z</time></trkpt><trkpt lat="45.9915595" lon="11.6912409"><ele>1396.6666666666665</ele><time>2026-04-12T10:39:05.059Z</time></trkpt><trkpt lat="45.9914779" lon="11.691295"><ele>1395.5</ele><time>2026-04-12T10:39:07.059Z</time></trkpt><trkpt lat="45.9914004" lon="11.6913475"><ele>1394.3333333333333</ele><time>2026-04-12T10:39:09.059Z</time></trkpt><trkpt lat="45.9912986" lon="11.6913925"><ele>1393.1666666666667</ele><time>2026-04-12T10:39:11.06Z</time></trkpt><trkpt lat="45.9912453" lon="11.6914632"><ele>1392.0</ele><time>2026-04-12T10:39:13.06Z</time></trkpt><trkpt lat="45.9911745" lon="11.6915786"><ele>1392.0</ele><time>2026-04-12T10:39:15.06Z</time></trkpt><trkpt lat="45.9911256" lon="11.6916477"><ele>1392.0</ele><time>2026-04-12T10:39:16.059Z</time></trkpt><trkpt lat="45.9910806" lon="11.6917136"><ele>1392.0</ele><time>2026-04-12T10:39:17.06Z</time></trkpt><trkpt lat="45.9910341" lon="11.6917836"><ele>1392.0</ele><time>2026-04-12T10:39:18.06Z</time></trkpt><trkpt lat="45.9909594" lon="11.691895"><ele>1392.0</ele><time>2026-04-12T10:39:20.06Z</time></trkpt><trkpt lat="45.9908729" lon="11.6919929"><ele>1392.0</ele><time>2026-04-12T10:39:22.06Z</time></trkpt><trkpt lat="45.9907843" lon="11.6920656"><ele>1390.0</ele><time>2026-04-12T10:39:24.06Z</time></trkpt><trkpt lat="45.9907028" lon="11.6920767"><ele>1388.0</ele><time>2026-04-12T10:39:27.06Z</time></trkpt><trkpt lat="45.9906363" lon="11.6921085"><ele>1386.0</ele><time>2026-04-12T10:39:29.061Z</time></trkpt><trkpt lat="45.990561" lon="11.6921684"><ele>1384.0</ele><time>2026-04-12T10:39:33.06Z</time></trkpt><trkpt lat="45.9905085" lon="11.6922303"><ele>1382.0</ele><time>2026-04-12T10:39:35.06Z</time></trkpt><trkpt lat="45.9904359" lon="11.6923271"><ele>1380.0</ele><time>2026-04-12T10:39:38.06Z</time></trkpt><trkpt lat="45.9903787" lon="11.6924183"><ele>1380.0</ele><time>2026-04-12T10:39:40.06Z</time></trkpt><trkpt lat="45.9903251" lon="11.6925011"><ele>1380.0</ele><time>2026-04-12T10:39:42.06Z</time></trkpt><trkpt lat="45.9902914" lon="11.6926025"><ele>1380.0</ele><time>2026-04-12T10:39:44.06Z</time></trkpt><trkpt lat="45.9902578" lon="11.692708"><ele>1380.0</ele><time>2026-04-12T10:39:46.06Z</time></trkpt><trkpt lat="45.9902164" lon="11.6928485"><ele>1380.0</ele><time>2026-04-12T10:39:48.06Z</time></trkpt><trkpt lat="45.9901928" lon="11.6929444"><ele>1380.0</ele><time>2026-04-12T10:39:49.06Z</time></trkpt><trkpt lat="45.9901705" lon="11.6930451"><ele>1379.8333333333333</ele><time>2026-04-12T10:39:50.06Z</time></trkpt><trkpt lat="45.9901302" lon="11.6931596"><ele>1379.6666666666667</ele><time>2026-04-12T10:39:52.06Z</time></trkpt><trkpt lat="45.9900891" lon="11.6932333"><ele>1379.5</ele><time>2026-04-12T10:39:54.06Z</time></trkpt><trkpt lat="45.9900436" lon="11.6933064"><ele>1379.3333333333335</ele><time>2026-04-12T10:40:04.06Z</time></trkpt><trkpt lat="45.9899927" lon="11.6933824"><ele>1379.1666666666667</ele><time>2026-04-12T10:40:09.06Z</time></trkpt><trkpt lat="45.9899421" lon="11.6934852"><ele>1379.0</ele><time>2026-04-12T10:40:12.061Z</time></trkpt><trkpt lat="45.9899037" lon="11.6935702"><ele>1378.1666666666667</ele><time>2026-04-12T10:40:14.061Z</time></trkpt><trkpt lat="45.989869" lon="11.6936687"><ele>1377.3333333333335</ele><time>2026-04-12T10:40:17.062Z</time></trkpt><trkpt lat="45.9898345" lon="11.6937522"><ele>1376.5</ele><time>2026-04-12T10:40:19.06Z</time></trkpt><trkpt lat="45.9897967" lon="11.6938495"><ele>1375.6666666666667</ele><time>2026-04-12T10:40:21.06Z</time></trkpt><trkpt lat="45.9897417" lon="11.6939425"><ele>1374.8333333333333</ele><time>2026-04-12T10:40:24.061Z</time></trkpt><trkpt lat="45.9896924" lon="11.6940516"><ele>1374.0</ele><time>2026-04-12T10:40:35.061Z</time></trkpt><trkpt lat="45.9896308" lon="11.694135"><ele>1374.0</ele><time>2026-04-12T10:40:46.061Z</time></trkpt><trkpt lat="45.9895861" lon="11.6942164"><ele>1374.0</ele><time>2026-04-12T10:41:02.061Z</time></trkpt><trkpt lat="45.9895238" lon="11.6941983"><ele>1374.0</ele><time>2026-04-12T10:41:08.061Z</time></trkpt><trkpt lat="45.9894503" lon="11.6942189"><ele>1374.0</ele><time>2026-04-12T10:41:12.062Z</time></trkpt><trkpt lat="45.989388" lon="11.6942581"><ele>1374.0</ele><time>2026-04-12T10:41:15.061Z</time></trkpt><trkpt lat="45.9893273" lon="11.6943142"><ele>1374.0</ele><time>2026-04-12T10:41:18.061Z</time></trkpt><trkpt lat="45.9892529" lon="11.6943648"><ele>1374.0</ele><time>2026-04-12T10:41:21.063Z</time></trkpt><trkpt lat="45.9891878" lon="11.6944336"><ele>1374.1666666666667</ele><time>2026-04-12T10:41:25.061Z</time></trkpt><trkpt lat="45.9891257" lon="11.694531"><ele>1374.3333333333333</ele><time>2026-04-12T10:41:28.061Z</time></trkpt><trkpt lat="45.9890714" lon="11.6946077"><ele>1374.5</ele><time>2026-04-12T10:41:31.061Z</time></trkpt><trkpt lat="45.9890242" lon="11.6947036"><ele>1374.6666666666665</ele><time>2026-04-12T10:41:34.062Z</time></trkpt><trkpt lat="45.988956" lon="11.6947616"><ele>1374.8333333333333</ele><time>2026-04-12T10:41:37.062Z</time></trkpt><trkpt lat="45.9888721" lon="11.694822"><ele>1375.0</ele><time>2026-04-12T10:41:40.062Z</time></trkpt><trkpt lat="45.9888051" lon="11.6948605"><ele>1375.0</ele><time>2026-04-12T10:41:43.062Z</time></trkpt><trkpt lat="45.9887278" lon="11.6948766"><ele>1375.0</ele><time>2026-04-12T10:41:45.062Z</time></trkpt><trkpt lat="45.9886671" lon="11.6949361"><ele>1375.0</ele><time>2026-04-12T10:41:47.062Z</time></trkpt><trkpt lat="45.9886167" lon="11.6949983"><ele>1375.0</ele><time>2026-04-12T10:41:49.062Z</time></trkpt><trkpt lat="45.9885438" lon="11.6950497"><ele>1375.0</ele><time>2026-04-12T10:41:52.062Z</time></trkpt><trkpt lat="45.9884793" lon="11.6951093"><ele>1375.0</ele><time>2026-04-12T10:41:55.062Z</time></trkpt><trkpt lat="45.988419" lon="11.6951781"><ele>1375.4</ele><time>2026-04-12T10:41:58.062Z</time></trkpt><trkpt lat="45.9883349" lon="11.6952295"><ele>1375.8</ele><time>2026-04-12T10:42:01.062Z</time></trkpt><trkpt lat="45.9882464" lon="11.6952648"><ele>1376.1999999999998</ele><time>2026-04-12T10:42:04.062Z</time></trkpt><trkpt lat="45.9881539" lon="11.6953103"><ele>1376.6</ele><time>2026-04-12T10:42:06.063Z</time></trkpt><trkpt lat="45.9880714" lon="11.695386"><ele>1377.0</ele><time>2026-04-12T10:42:08.062Z</time></trkpt><trkpt lat="45.9879745" lon="11.6954475"><ele>1378.0</ele><time>2026-04-12T10:42:10.062Z</time></trkpt><trkpt lat="45.9878893" lon="11.695462"><ele>1379.0</ele><time>2026-04-12T10:42:12.062Z</time></trkpt><trkpt lat="45.987778" lon="11.6954319"><ele>1380.0</ele><time>2026-04-12T10:42:15.062Z</time></trkpt><trkpt lat="45.9876691" lon="11.6954711"><ele>1381.0</ele><time>2026-04-12T10:42:17.062Z</time></trkpt><trkpt lat="45.9875971" lon="11.6955361"><ele>1382.0</ele><time>2026-04-12T10:42:19.063Z</time></trkpt><trkpt lat="45.9875403" lon="11.6956212"><ele>1381.6666666666667</ele><time>2026-04-12T10:42:21.063Z</time></trkpt><trkpt lat="45.987471" lon="11.6956996"><ele>1381.3333333333335</ele><time>2026-04-12T10:42:23.062Z</time></trkpt><trkpt lat="45.9874256" lon="11.6957735"><ele>1381.0</ele><time>2026-04-12T10:42:25.062Z</time></trkpt><trkpt lat="45.9873878" lon="11.6958588"><ele>1380.6666666666667</ele><time>2026-04-12T10:42:27.062Z</time></trkpt><trkpt lat="45.9873366" lon="11.6959991"><ele>1380.3333333333333</ele><time>2026-04-12T10:42:29.063Z</time></trkpt><trkpt lat="45.9873209" lon="11.6961515"><ele>1380.0</ele><time>2026-04-12T10:42:31.062Z</time></trkpt><trkpt lat="45.9873149" lon="11.6962843"><ele>1379.6666666666667</ele><time>2026-04-12T10:42:33.062Z</time></trkpt><trkpt lat="45.987322" lon="11.6963968"><ele>1379.3333333333333</ele><time>2026-04-12T10:42:35.063Z</time></trkpt><trkpt lat="45.9873345" lon="11.696493"><ele>1379.0</ele><time>2026-04-12T10:42:37.063Z</time></trkpt><trkpt lat="45.987351" lon="11.6966154"><ele>1378.6666666666665</ele><time>2026-04-12T10:43:30.064Z</time></trkpt><trkpt lat="45.9873873" lon="11.6967285"><ele>1378.3333333333333</ele><time>2026-04-12T10:43:32.063Z</time></trkpt><trkpt lat="45.98743" lon="11.6968681"><ele>1378.0</ele><time>2026-04-12T10:43:34.063Z</time></trkpt><trkpt lat="45.9874806" lon="11.6969985"><ele>1376.1666666666665</ele><time>2026-04-12T10:43:36.064Z</time></trkpt><trkpt lat="45.9875226" lon="11.6971415"><ele>1374.3333333333333</ele><time>2026-04-12T10:43:38.063Z</time></trkpt><trkpt lat="45.9875249" lon="11.6973037"><ele>1372.5</ele><time>2026-04-12T10:43:40.063Z</time></trkpt><trkpt lat="45.9875036" lon="11.6973958"><ele>1370.6666666666667</ele><time>2026-04-12T10:43:41.064Z</time></trkpt><trkpt lat="45.9874853" lon="11.6974921"><ele>1368.8333333333335</ele><time>2026-04-12T10:43:42.063Z</time></trkpt><trkpt lat="45.9874833" lon="11.6975998"><ele>1367.0</ele><time>2026-04-12T10:43:43.064Z</time></trkpt><trkpt lat="45.9874936" lon="11.6977205"><ele>1365.0</ele><time>2026-04-12T10:43:44.064Z</time></trkpt><trkpt lat="45.9875064" lon="11.69785"><ele>1363.0</ele><time>2026-04-12T10:43:45.064Z</time></trkpt><trkpt lat="45.9875118" lon="11.6979827"><ele>1361.0</ele><time>2026-04-12T10:43:46.064Z</time></trkpt><trkpt lat="45.9875086" lon="11.6981136"><ele>1359.0</ele><time>2026-04-12T10:43:47.064Z</time></trkpt><trkpt lat="45.9875058" lon="11.6982477"><ele>1357.0</ele><time>2026-04-12T10:43:48.065Z</time></trkpt><trkpt lat="45.9875094" lon="11.6983823"><ele>1355.4285714285713</ele><time>2026-04-12T10:43:49.064Z</time></trkpt><trkpt lat="45.9875192" lon="11.6985052"><ele>1353.857142857143</ele><time>2026-04-12T10:43:50.064Z</time></trkpt><trkpt lat="45.9875368" lon="11.6986092"><ele>1352.2857142857142</ele><time>2026-04-12T10:43:51.064Z</time></trkpt><trkpt lat="45.9875625" lon="11.6986973"><ele>1350.7142857142858</ele><time>2026-04-12T10:43:52.064Z</time></trkpt><trkpt lat="45.9875887" lon="11.6987885"><ele>1349.142857142857</ele><time>2026-04-12T10:43:53.064Z</time></trkpt><trkpt lat="45.9876029" lon="11.6988895"><ele>1347.5714285714287</ele><time>2026-04-12T10:43:54.064Z</time></trkpt><trkpt lat="45.9875792" lon="11.698996"><ele>1346.0</ele><time>2026-04-12T10:43:55.064Z</time></trkpt><trkpt lat="45.9875428" lon="11.6991055"><ele>1345.5</ele><time>2026-04-12T10:43:56.064Z</time></trkpt><trkpt lat="45.9875191" lon="11.699211"><ele>1345.0</ele><time>2026-04-12T10:43:57.065Z</time></trkpt><trkpt lat="45.9875093" lon="11.6993248"><ele>1344.5</ele><time>2026-04-12T10:43:58.064Z</time></trkpt><trkpt lat="45.987497" lon="11.6994423"><ele>1344.0</ele><time>2026-04-12T10:43:59.064Z</time></trkpt><trkpt lat="45.9874795" lon="11.6995482"><ele>1343.5</ele><time>2026-04-12T10:44:00.064Z</time></trkpt><trkpt lat="45.9874558" lon="11.6996539"><ele>1343.0</ele><time>2026-04-12T10:44:01.064Z</time></trkpt><trkpt lat="45.98744" lon="11.6997611"><ele>1339.6000000000001</ele><time>2026-04-12T10:44:02.064Z</time></trkpt><trkpt lat="45.9874421" lon="11.6998902"><ele>1336.2</ele><time>2026-04-12T10:44:03.064Z</time></trkpt><trkpt lat="45.987453" lon="11.7000303"><ele>1332.8</ele><time>2026-04-12T10:44:04.064Z</time></trkpt><trkpt lat="45.9874595" lon="11.7001744"><ele>1329.4</ele><time>2026-04-12T10:44:05.064Z</time></trkpt><trkpt lat="45.9874655" lon="11.7003168"><ele>1326.0</ele><time>2026-04-12T10:44:06.065Z</time></trkpt><trkpt lat="45.9874768" lon="11.7004352"><ele>1324.1666666666667</ele><time>2026-04-12T10:44:07.065Z</time></trkpt><trkpt lat="45.9874871" lon="11.700535"><ele>1322.3333333333333</ele><time>2026-04-12T10:44:08.064Z</time></trkpt><trkpt lat="45.9874867" lon="11.7006603"><ele>1320.5</ele><time>2026-04-12T10:44:10.064Z</time></trkpt><trkpt lat="45.9874814" lon="11.7007717"><ele>1318.6666666666665</ele><time>2026-04-12T10:44:14.065Z</time></trkpt><trkpt lat="45.9874259" lon="11.7008219"><ele>1316.8333333333333</ele><time>2026-04-12T10:44:33.065Z</time></trkpt><trkpt lat="45.9874158" lon="11.7009153"><ele>1315.0</ele><time>2026-04-12T10:44:35.064Z</time></trkpt><trkpt lat="45.9875056" lon="11.7009813"><ele>1312.6</ele><time>2026-04-12T10:44:38.064Z</time></trkpt><trkpt lat="45.9875983" lon="11.7010088"><ele>1310.2</ele><time>2026-04-12T10:44:40.066Z</time></trkpt><trkpt lat="45.9877039" lon="11.701004"><ele>1307.8000000000002</ele><time>2026-04-12T10:44:42.065Z</time></trkpt><trkpt lat="45.9878055" lon="11.7009447"><ele>1305.4</ele><time>2026-04-12T10:44:44.064Z</time></trkpt><trkpt lat="45.9878531" lon="11.7008661"><ele>1303.0</ele><time>2026-04-12T10:44:46.065Z</time></trkpt><trkpt lat="45.9878916" lon="11.7009763"><ele>1301.0</ele><time>2026-04-12T10:44:51.065Z</time></trkpt><trkpt lat="45.987869" lon="11.7011582"><ele>1299.0</ele><time>2026-04-12T10:44:53.065Z</time></trkpt><trkpt lat="45.9878596" lon="11.7012619"><ele>1297.0</ele><time>2026-04-12T10:44:54.065Z</time></trkpt><trkpt lat="45.9878502" lon="11.7013712"><ele>1295.0</ele><time>2026-04-12T10:44:55.065Z</time></trkpt><trkpt lat="45.9878288" lon="11.7015088"><ele>1293.0</ele><time>2026-04-12T10:44:57.065Z</time></trkpt><trkpt lat="45.9878022" lon="11.7016299"><ele>1293.0</ele><time>2026-04-12T10:44:59.066Z</time></trkpt><trkpt lat="45.9877465" lon="11.70175"><ele>1293.0</ele><time>2026-04-12T10:45:01.065Z</time></trkpt><trkpt lat="45.9876581" lon="11.7018346"><ele>1293.0</ele><time>2026-04-12T10:45:03.065Z</time></trkpt><trkpt lat="45.9875608" lon="11.7018616"><ele>1293.0</ele><time>2026-04-12T10:45:05.065Z</time></trkpt><trkpt lat="45.9875065" lon="11.7019515"><ele>1293.0</ele><time>2026-04-12T10:45:08.065Z</time></trkpt><trkpt lat="45.9875877" lon="11.7019973"><ele>1289.8000000000002</ele><time>2026-04-12T10:45:11.065Z</time></trkpt><trkpt lat="45.9876589" lon="11.7020129"><ele>1286.6000000000001</ele><time>2026-04-12T10:45:13.065Z</time></trkpt><trkpt lat="45.987744" lon="11.7020348"><ele>1283.4</ele><time>2026-04-12T10:45:15.065Z</time></trkpt><trkpt lat="45.9878327" lon="11.7020552"><ele>1280.2</ele><time>2026-04-12T10:45:17.065Z</time></trkpt><trkpt lat="45.9879258" lon="11.7020505"><ele>1277.0</ele><time>2026-04-12T10:45:19.065Z</time></trkpt><trkpt lat="45.9880379" lon="11.7020371"><ele>1277.0</ele><time>2026-04-12T10:45:21.065Z</time></trkpt><trkpt lat="45.9881392" lon="11.7019612"><ele>1277.0</ele><time>2026-04-12T10:45:23.065Z</time></trkpt><trkpt lat="45.98819" lon="11.7018768"><ele>1277.0</ele><time>2026-04-12T10:45:24.065Z</time></trkpt><trkpt lat="45.9882357" lon="11.7017756"><ele>1277.0</ele><time>2026-04-12T10:45:26.065Z</time></trkpt><trkpt lat="45.9882964" lon="11.7017426"><ele>1277.0</ele><time>2026-04-12T10:45:31.065Z</time></trkpt><trkpt lat="45.9882932" lon="11.7018534"><ele>1277.0</ele><time>2026-04-12T10:45:35.065Z</time></trkpt><trkpt lat="45.9882495" lon="11.7020312"><ele>1277.0</ele><time>2026-04-12T10:45:38.065Z</time></trkpt><trkpt lat="45.9881969" lon="11.7021955"><ele>1277.0</ele><time>2026-04-12T10:45:40.065Z</time></trkpt><trkpt lat="45.9881634" lon="11.7022799"><ele>1277.0</ele><time>2026-04-12T10:45:41.067Z</time></trkpt><trkpt lat="45.9881251" lon="11.7023625"><ele>1277.0</ele><time>2026-04-12T10:45:42.066Z</time></trkpt><trkpt lat="45.9880737" lon="11.7024293"><ele>1277.0</ele><time>2026-04-12T10:45:43.066Z</time></trkpt><trkpt lat="45.9880245" lon="11.7025038"><ele>1277.0</ele><time>2026-04-12T10:45:44.066Z</time></trkpt><trkpt lat="45.987967" lon="11.702585"><ele>1277.0</ele><time>2026-04-12T10:45:45.066Z</time></trkpt><trkpt lat="45.9879091" lon="11.7026593"><ele>1277.0</ele><time>2026-04-12T10:45:46.066Z</time></trkpt><trkpt lat="45.9878514" lon="11.7027439"><ele>1277.0</ele><time>2026-04-12T10:45:47.065Z</time></trkpt><trkpt lat="45.987792" lon="11.7028312"><ele>1277.0</ele><time>2026-04-12T10:45:48.065Z</time></trkpt><trkpt lat="45.9877359" lon="11.7029308"><ele>1277.0</ele><time>2026-04-12T10:45:49.066Z</time></trkpt><trkpt lat="45.9876818" lon="11.7030291"><ele>1277.0</ele><time>2026-04-12T10:45:50.067Z</time></trkpt><trkpt lat="45.9876393" lon="11.7031096"><ele>1272.6</ele><time>2026-04-12T10:45:51.066Z</time></trkpt><trkpt lat="45.9875755" lon="11.7032311"><ele>1268.2</ele><time>2026-04-12T10:45:53.066Z</time></trkpt><trkpt lat="45.9875854" lon="11.7033822"><ele>1263.8</ele><time>2026-04-12T10:45:55.066Z</time></trkpt><trkpt lat="45.9876694" lon="11.7035343"><ele>1259.4</ele><time>2026-04-12T10:45:58.067Z</time></trkpt><trkpt lat="45.9877024" lon="11.7036476"><ele>1255.0</ele><time>2026-04-12T10:46:01.066Z</time></trkpt><trkpt lat="45.9877437" lon="11.7037502"><ele>1253.0</ele><time>2026-04-12T10:46:28.066Z</time></trkpt><trkpt lat="45.9878033" lon="11.703814"><ele>1251.0</ele><time>2026-04-12T10:46:33.067Z</time></trkpt><trkpt lat="45.9878535" lon="11.7039144"><ele>1249.0</ele><time>2026-04-12T10:47:04.067Z</time></trkpt><trkpt lat="45.9878954" lon="11.7039987"><ele>1247.0</ele><time>2026-04-12T10:47:06.067Z</time></trkpt><trkpt lat="45.9879361" lon="11.7040859"><ele>1245.0</ele><time>2026-04-12T10:47:08.067Z</time></trkpt><trkpt lat="45.9879931" lon="11.7042007"><ele>1243.0</ele><time>2026-04-12T10:47:11.067Z</time></trkpt><trkpt lat="45.9880463" lon="11.7043119"><ele>1241.1666666666665</ele><time>2026-04-12T10:47:13.068Z</time></trkpt><trkpt lat="45.9881064" lon="11.7044491"><ele>1239.3333333333333</ele><time>2026-04-12T10:47:15.067Z</time></trkpt><trkpt lat="45.9881489" lon="11.7045446"><ele>1237.5</ele><time>2026-04-12T10:47:17.068Z</time></trkpt><trkpt lat="45.9881908" lon="11.7046279"><ele>1235.6666666666667</ele><time>2026-04-12T10:47:20.068Z</time></trkpt><trkpt lat="45.9882273" lon="11.7047219"><ele>1233.8333333333335</ele><time>2026-04-12T10:47:22.067Z</time></trkpt><trkpt lat="45.9882751" lon="11.7048068"><ele>1232.0</ele><time>2026-04-12T10:47:25.067Z</time></trkpt><trkpt lat="45.9883306" lon="11.7049056"><ele>1230.5</ele><time>2026-04-12T10:47:29.067Z</time></trkpt><trkpt lat="45.9884058" lon="11.7049908"><ele>1229.0</ele><time>2026-04-12T10:47:32.067Z</time></trkpt><trkpt lat="45.9884676" lon="11.7050358"><ele>1227.5</ele><time>2026-04-12T10:47:34.067Z</time></trkpt><trkpt lat="45.988528" lon="11.7050734"><ele>1226.0</ele><time>2026-04-12T10:47:36.067Z</time></trkpt><trkpt lat="45.9885974" lon="11.7050786"><ele>1224.5</ele><time>2026-04-12T10:47:39.067Z</time></trkpt><trkpt lat="45.9886699" lon="11.7050275"><ele>1223.0</ele><time>2026-04-12T10:47:42.068Z</time></trkpt><trkpt lat="45.9887314" lon="11.7049257"><ele>1223.0</ele><time>2026-04-12T10:47:45.068Z</time></trkpt><trkpt lat="45.9887565" lon="11.7048198"><ele>1223.0</ele><time>2026-04-12T10:47:47.068Z</time></trkpt><trkpt lat="45.9887737" lon="11.7046789"><ele>1223.0</ele><time>2026-04-12T10:47:49.068Z</time></trkpt><trkpt lat="45.9888373" lon="11.7046069"><ele>1223.0</ele><time>2026-04-12T10:47:52.067Z</time></trkpt><trkpt lat="45.9888874" lon="11.704672"><ele>1223.0</ele><time>2026-04-12T10:47:54.067Z</time></trkpt><trkpt lat="45.988914" lon="11.7047586"><ele>1223.0</ele><time>2026-04-12T10:47:56.067Z</time></trkpt><trkpt lat="45.9889312" lon="11.7048513"><ele>1223.0</ele><time>2026-04-12T10:48:00.068Z</time></trkpt><trkpt lat="45.9889675" lon="11.7049294"><ele>1223.0</ele><time>2026-04-12T10:48:02.068Z</time></trkpt><trkpt lat="45.989009" lon="11.7050105"><ele>1223.0</ele><time>2026-04-12T10:48:04.068Z</time></trkpt><trkpt lat="45.9890512" lon="11.7050998"><ele>1223.0</ele><time>2026-04-12T10:48:06.069Z</time></trkpt><trkpt lat="45.9890913" lon="11.7051989"><ele>1223.0</ele><time>2026-04-12T10:48:08.068Z</time></trkpt><trkpt lat="45.9891358" lon="11.7052983"><ele>1223.0</ele><time>2026-04-12T10:48:10.068Z</time></trkpt><trkpt lat="45.9891709" lon="11.7053938"><ele>1223.0</ele><time>2026-04-12T10:48:12.069Z</time></trkpt><trkpt lat="45.9891961" lon="11.7055225"><ele>1221.6</ele><time>2026-04-12T10:48:14.068Z</time></trkpt><trkpt lat="45.9892029" lon="11.7056724"><ele>1220.1999999999998</ele><time>2026-04-12T10:48:16.069Z</time></trkpt><trkpt lat="45.9891764" lon="11.7058336"><ele>1218.8</ele><time>2026-04-12T10:48:18.069Z</time></trkpt><trkpt lat="45.9891121" lon="11.7059709"><ele>1217.3999999999999</ele><time>2026-04-12T10:48:20.069Z</time></trkpt><trkpt lat="45.9890663" lon="11.706039"><ele>1216.0</ele><time>2026-04-12T10:48:21.068Z</time></trkpt><trkpt lat="45.9890132" lon="11.7061031"><ele>1211.8333333333333</ele><time>2026-04-12T10:48:22.069Z</time></trkpt><trkpt lat="45.9889637" lon="11.7061633"><ele>1207.6666666666665</ele><time>2026-04-12T10:48:23.068Z</time></trkpt><trkpt lat="45.9889086" lon="11.7062242"><ele>1203.5</ele><time>2026-04-12T10:48:24.068Z</time></trkpt><trkpt lat="45.9888502" lon="11.7062933"><ele>1199.3333333333333</ele><time>2026-04-12T10:48:25.068Z</time></trkpt><trkpt lat="45.9887949" lon="11.7063634"><ele>1195.1666666666667</ele><time>2026-04-12T10:48:26.068Z</time></trkpt><trkpt lat="45.9887428" lon="11.7064248"><ele>1191.0</ele><time>2026-04-12T10:48:27.069Z</time></trkpt><trkpt lat="45.9886432" lon="11.706518"><ele>1191.0</ele><time>2026-04-12T10:48:29.068Z</time></trkpt><trkpt lat="45.9885805" lon="11.7065558"><ele>1191.0</ele><time>2026-04-12T10:48:30.068Z</time></trkpt><trkpt lat="45.9884892" lon="11.7065992"><ele>1191.0</ele><time>2026-04-12T10:48:32.068Z</time></trkpt><trkpt lat="45.9885332" lon="11.7066929"><ele>1191.0</ele><time>2026-04-12T10:48:37.069Z</time></trkpt><trkpt lat="45.9885981" lon="11.7066897"><ele>1191.0</ele><time>2026-04-12T10:48:39.068Z</time></trkpt><trkpt lat="45.9886684" lon="11.7067116"><ele>1191.0</ele><time>2026-04-12T10:48:41.069Z</time></trkpt><trkpt lat="45.9887576" lon="11.7067335"><ele>1191.0</ele><time>2026-04-12T10:48:43.068Z</time></trkpt><trkpt lat="45.9888348" lon="11.7067053"><ele>1191.0</ele><time>2026-04-12T10:48:45.069Z</time></trkpt><trkpt lat="45.9889293" lon="11.7066688"><ele>1191.0</ele><time>2026-04-12T10:48:47.068Z</time></trkpt><trkpt lat="45.9890225" lon="11.7065946"><ele>1191.0</ele><time>2026-04-12T10:48:49.068Z</time></trkpt><trkpt lat="45.9891057" lon="11.7065489"><ele>1191.0</ele><time>2026-04-12T10:48:51.07Z</time></trkpt><trkpt lat="45.9891887" lon="11.7065145"><ele>1187.8333333333333</ele><time>2026-04-12T10:48:53.068Z</time></trkpt><trkpt lat="45.9892676" lon="11.7064886"><ele>1184.6666666666667</ele><time>2026-04-12T10:48:55.068Z</time></trkpt><trkpt lat="45.9893395" lon="11.7064623"><ele>1181.5</ele><time>2026-04-12T10:48:57.069Z</time></trkpt><trkpt lat="45.9894172" lon="11.7064474"><ele>1178.3333333333335</ele><time>2026-04-12T10:48:59.07Z</time></trkpt><trkpt lat="45.989503" lon="11.7064204"><ele>1175.1666666666667</ele><time>2026-04-12T10:49:01.068Z</time></trkpt><trkpt lat="45.9895956" lon="11.706402"><ele>1172.0</ele><time>2026-04-12T10:49:03.069Z</time></trkpt><trkpt lat="45.9896999" lon="11.7063647"><ele>1172.0</ele><time>2026-04-12T10:49:05.069Z</time></trkpt><trkpt lat="45.9898223" lon="11.7063108"><ele>1172.0</ele><time>2026-04-12T10:49:07.069Z</time></trkpt><trkpt lat="45.9898835" lon="11.7062792"><ele>1172.0</ele><time>2026-04-12T10:49:08.069Z</time></trkpt><trkpt lat="45.9899833" lon="11.7062149"><ele>1172.0</ele><time>2026-04-12T10:49:10.069Z</time></trkpt><trkpt lat="45.9900759" lon="11.7060868"><ele>1172.0</ele><time>2026-04-12T10:49:12.069Z</time></trkpt><trkpt lat="45.9901131" lon="11.705992"><ele>1170.2857142857142</ele><time>2026-04-12T10:49:13.069Z</time></trkpt><trkpt lat="45.9901439" lon="11.705893"><ele>1168.5714285714284</ele><time>2026-04-12T10:49:14.07Z</time></trkpt><trkpt lat="45.9901634" lon="11.7057999"><ele>1166.857142857143</ele><time>2026-04-12T10:49:15.07Z</time></trkpt><trkpt lat="45.9901589" lon="11.7056631"><ele>1165.142857142857</ele><time>2026-04-12T10:49:17.069Z</time></trkpt><trkpt lat="45.9901162" lon="11.7055816"><ele>1163.4285714285716</ele><time>2026-04-12T10:49:19.069Z</time></trkpt><trkpt lat="45.9900859" lon="11.7055005"><ele>1161.7142857142858</ele><time>2026-04-12T10:49:21.07Z</time></trkpt><trkpt lat="45.9900646" lon="11.7054085"><ele>1160.0</ele><time>2026-04-12T10:49:23.069Z</time></trkpt><trkpt lat="45.9900406" lon="11.7053049"><ele>1160.1666666666667</ele><time>2026-04-12T10:49:25.069Z</time></trkpt><trkpt lat="45.9900156" lon="11.7052009"><ele>1160.3333333333335</ele><time>2026-04-12T10:49:28.069Z</time></trkpt><trkpt lat="45.9899802" lon="11.7050954"><ele>1160.5</ele><time>2026-04-12T10:49:31.069Z</time></trkpt><trkpt lat="45.9899605" lon="11.7049754"><ele>1160.6666666666667</ele><time>2026-04-12T10:49:34.069Z</time></trkpt><trkpt lat="45.9899575" lon="11.704829"><ele>1160.8333333333333</ele><time>2026-04-12T10:49:36.069Z</time></trkpt><trkpt lat="45.9900237" lon="11.7047266"><ele>1161.0</ele><time>2026-04-12T10:49:38.069Z</time></trkpt><trkpt lat="45.9901245" lon="11.7047259"><ele>1161.0</ele><time>2026-04-12T10:49:40.069Z</time></trkpt><trkpt lat="45.9902084" lon="11.7047078"><ele>1161.0</ele><time>2026-04-12T10:49:42.069Z</time></trkpt><trkpt lat="45.9902645" lon="11.7046047"><ele>1161.0</ele><time>2026-04-12T10:49:44.07Z</time></trkpt><trkpt lat="45.990297" lon="11.7044395"><ele>1161.0</ele><time>2026-04-12T10:49:46.069Z</time></trkpt><trkpt lat="45.9903164" lon="11.7043175"><ele>1161.0</ele><time>2026-04-12T10:49:47.071Z</time></trkpt><trkpt lat="45.9903344" lon="11.704185"><ele>1162.6666666666667</ele><time>2026-04-12T10:49:48.069Z</time></trkpt><trkpt lat="45.9903546" lon="11.7040759"><ele>1164.3333333333333</ele><time>2026-04-12T10:49:49.069Z</time></trkpt><trkpt lat="45.9903729" lon="11.7039609"><ele>1166.0</ele><time>2026-04-12T10:49:50.07Z</time></trkpt><trkpt lat="45.9903928" lon="11.7038479"><ele>1167.6666666666665</ele><time>2026-04-12T10:49:51.07Z</time></trkpt><trkpt lat="45.9904105" lon="11.7037436"><ele>1169.3333333333333</ele><time>2026-04-12T10:49:52.069Z</time></trkpt><trkpt lat="45.9904286" lon="11.7036124"><ele>1171.0</ele><time>2026-04-12T10:49:54.071Z</time></trkpt><trkpt lat="45.990505" lon="11.7036076"><ele>1171.0</ele><time>2026-04-12T10:49:59.07Z</time></trkpt><trkpt lat="45.9905672" lon="11.703645"><ele>1171.0</ele><time>2026-04-12T10:50:18.07Z</time></trkpt><trkpt lat="45.9906032" lon="11.7037304"><ele>1171.0</ele><time>2026-04-12T10:50:21.071Z</time></trkpt><trkpt lat="45.9906008" lon="11.7038227"><ele>1171.0</ele><time>2026-04-12T10:50:23.07Z</time></trkpt><trkpt lat="45.9906178" lon="11.7039181"><ele>1171.0</ele><time>2026-04-12T10:50:25.07Z</time></trkpt><trkpt lat="45.9906488" lon="11.7040323"><ele>1171.0</ele><time>2026-04-12T10:50:27.07Z</time></trkpt><trkpt lat="45.9906999" lon="11.7041142"><ele>1171.0</ele><time>2026-04-12T10:50:29.07Z</time></trkpt><trkpt lat="45.990779" lon="11.7042032"><ele>1170.6666666666665</ele><time>2026-04-12T10:50:31.07Z</time></trkpt><trkpt lat="45.9908736" lon="11.7043117"><ele>1170.3333333333333</ele><time>2026-04-12T10:50:33.07Z</time></trkpt><trkpt lat="45.990919" lon="11.7043747"><ele>1170.0</ele><time>2026-04-12T10:50:34.07Z</time></trkpt><trkpt lat="45.990977" lon="11.7044527"><ele>1169.6666666666667</ele><time>2026-04-12T10:50:36.07Z</time></trkpt><trkpt lat="45.9910284" lon="11.7045664"><ele>1169.3333333333335</ele><time>2026-04-12T10:50:38.07Z</time></trkpt><trkpt lat="45.9910565" lon="11.7046547"><ele>1169.0</ele><time>2026-04-12T10:50:39.07Z</time></trkpt><trkpt lat="45.9910852" lon="11.7047605"><ele>1166.2</ele><time>2026-04-12T10:50:40.071Z</time></trkpt><trkpt lat="45.9911064" lon="11.7048671"><ele>1163.4</ele><time>2026-04-12T10:50:41.07Z</time></trkpt><trkpt lat="45.9911174" lon="11.7049682"><ele>1160.6</ele><time>2026-04-12T10:50:42.07Z</time></trkpt><trkpt lat="45.9911477" lon="11.7051246"><ele>1157.8</ele><time>2026-04-12T10:50:44.07Z</time></trkpt><trkpt lat="45.9911914" lon="11.70527"><ele>1155.0</ele><time>2026-04-12T10:50:46.07Z</time></trkpt><trkpt lat="45.9912454" lon="11.7053946"><ele>1150.8</ele><time>2026-04-12T10:50:48.07Z</time></trkpt><trkpt lat="45.9913265" lon="11.7055382"><ele>1146.6</ele><time>2026-04-12T10:50:50.07Z</time></trkpt><trkpt lat="45.9913672" lon="11.705628"><ele>1142.4</ele><time>2026-04-12T10:50:51.07Z</time></trkpt><trkpt lat="45.9914063" lon="11.7057073"><ele>1138.2</ele><time>2026-04-12T10:50:52.07Z</time></trkpt><trkpt lat="45.9914793" lon="11.7058459"><ele>1134.0</ele><time>2026-04-12T10:50:54.071Z</time></trkpt><trkpt lat="45.9915378" lon="11.7059473"><ele>1134.0</ele><time>2026-04-12T10:50:56.071Z</time></trkpt><trkpt lat="45.9916157" lon="11.7060224"><ele>1134.0</ele><time>2026-04-12T10:50:58.072Z</time></trkpt><trkpt lat="45.9916805" lon="11.7060647"><ele>1134.0</ele><time>2026-04-12T10:50:59.071Z</time></trkpt><trkpt lat="45.9917457" lon="11.7060949"><ele>1134.0</ele><time>2026-04-12T10:51:00.071Z</time></trkpt><trkpt lat="45.9918408" lon="11.7061792"><ele>1134.0</ele><time>2026-04-12T10:51:02.07Z</time></trkpt><trkpt lat="45.9918874" lon="11.7062505"><ele>1134.0</ele><time>2026-04-12T10:51:03.07Z</time></trkpt><trkpt lat="45.9919335" lon="11.706327"><ele>1130.1666666666667</ele><time>2026-04-12T10:51:04.071Z</time></trkpt><trkpt lat="45.9919772" lon="11.7063938"><ele>1126.3333333333333</ele><time>2026-04-12T10:51:05.071Z</time></trkpt><trkpt lat="45.9920724" lon="11.706514"><ele>1122.5</ele><time>2026-04-12T10:51:07.071Z</time></trkpt><trkpt lat="45.992131" lon="11.7065755"><ele>1118.6666666666665</ele><time>2026-04-12T10:51:08.071Z</time></trkpt><trkpt lat="45.9921902" lon="11.7066391"><ele>1114.8333333333333</ele><time>2026-04-12T10:51:09.071Z</time></trkpt><trkpt lat="45.9922499" lon="11.7066902"><ele>1111.0</ele><time>2026-04-12T10:51:10.071Z</time></trkpt><trkpt lat="45.9923134" lon="11.7067445"><ele>1111.0</ele><time>2026-04-12T10:51:11.071Z</time></trkpt><trkpt lat="45.9923812" lon="11.7067978"><ele>1111.0</ele><time>2026-04-12T10:51:12.071Z</time></trkpt><trkpt lat="45.9924534" lon="11.7068523"><ele>1111.0</ele><time>2026-04-12T10:51:13.071Z</time></trkpt><trkpt lat="45.9925265" lon="11.7069041"><ele>1111.0</ele><time>2026-04-12T10:51:14.071Z</time></trkpt><trkpt lat="45.9925952" lon="11.7069657"><ele>1111.0</ele><time>2026-04-12T10:51:15.071Z</time></trkpt><trkpt lat="45.992652" lon="11.7070273"><ele>1111.0</ele><time>2026-04-12T10:51:16.071Z</time></trkpt><trkpt lat="45.9927324" lon="11.7071341"><ele>1110.1666666666665</ele><time>2026-04-12T10:51:18.071Z</time></trkpt><trkpt lat="45.9927697" lon="11.7072132"><ele>1109.3333333333333</ele><time>2026-04-12T10:51:20.071Z</time></trkpt><trkpt lat="45.9928026" lon="11.7073383"><ele>1108.5</ele><time>2026-04-12T10:51:22.071Z</time></trkpt><trkpt lat="45.9928242" lon="11.7074267"><ele>1107.6666666666667</ele><time>2026-04-12T10:51:23.071Z</time></trkpt><trkpt lat="45.9928573" lon="11.7075303"><ele>1106.8333333333335</ele><time>2026-04-12T10:51:24.071Z</time></trkpt><trkpt lat="45.9928727" lon="11.7076375"><ele>1106.0</ele><time>2026-04-12T10:51:25.071Z</time></trkpt><trkpt lat="45.9929077" lon="11.7077549"><ele>1103.2</ele><time>2026-04-12T10:51:26.071Z</time></trkpt><trkpt lat="45.9929483" lon="11.7078722"><ele>1100.3999999999999</ele><time>2026-04-12T10:51:27.071Z</time></trkpt><trkpt lat="45.9929978" lon="11.7079986"><ele>1097.6</ele><time>2026-04-12T10:51:28.071Z</time></trkpt><trkpt lat="45.9930473" lon="11.708135"><ele>1094.8</ele><time>2026-04-12T10:51:29.072Z</time></trkpt><trkpt lat="45.9930954" lon="11.7082683"><ele>1092.0</ele><time>2026-04-12T10:51:30.071Z</time></trkpt><trkpt lat="45.9931352" lon="11.70839"><ele>1092.0</ele><time>2026-04-12T10:51:31.071Z</time></trkpt><trkpt lat="45.9931784" lon="11.7084973"><ele>1092.0</ele><time>2026-04-12T10:51:32.072Z</time></trkpt><trkpt lat="45.9932233" lon="11.7085842"><ele>1092.0</ele><time>2026-04-12T10:51:33.072Z</time></trkpt><trkpt lat="45.9932663" lon="11.7086521"><ele>1092.0</ele><time>2026-04-12T10:51:34.072Z</time></trkpt><trkpt lat="45.9933109" lon="11.7087183"><ele>1092.0</ele><time>2026-04-12T10:51:35.071Z</time></trkpt><trkpt lat="45.9933928" lon="11.7088365"><ele>1092.0</ele><time>2026-04-12T10:51:37.071Z</time></trkpt><trkpt lat="45.9934494" lon="11.7089125"><ele>1090.8333333333333</ele><time>2026-04-12T10:51:39.071Z</time></trkpt><trkpt lat="45.9935212" lon="11.7090093"><ele>1089.6666666666667</ele><time>2026-04-12T10:51:41.072Z</time></trkpt><trkpt lat="45.9935728" lon="11.7090684"><ele>1088.5</ele><time>2026-04-12T10:51:42.071Z</time></trkpt><trkpt lat="45.9936308" lon="11.7091324"><ele>1087.3333333333335</ele><time>2026-04-12T10:51:43.072Z</time></trkpt><trkpt lat="45.9936875" lon="11.7092007"><ele>1086.1666666666667</ele><time>2026-04-12T10:51:44.071Z</time></trkpt><trkpt lat="45.9937394" lon="11.7092664"><ele>1085.0</ele><time>2026-04-12T10:51:45.071Z</time></trkpt><trkpt lat="45.9937962" lon="11.7093309"><ele>1080.6666666666667</ele><time>2026-04-12T10:51:46.071Z</time></trkpt><trkpt lat="45.9938608" lon="11.709416"><ele>1076.3333333333335</ele><time>2026-04-12T10:51:47.072Z</time></trkpt><trkpt lat="45.9939202" lon="11.7094993"><ele>1072.0</ele><time>2026-04-12T10:51:48.071Z</time></trkpt><trkpt lat="45.9939777" lon="11.7095755"><ele>1067.6666666666667</ele><time>2026-04-12T10:51:49.071Z</time></trkpt><trkpt lat="45.9940313" lon="11.7096433"><ele>1063.3333333333333</ele><time>2026-04-12T10:51:50.071Z</time></trkpt><trkpt lat="45.9940926" lon="11.7097218"><ele>1059.0</ele><time>2026-04-12T10:51:51.071Z</time></trkpt><trkpt lat="45.9941458" lon="11.7098018"><ele>1058.6666666666667</ele><time>2026-04-12T10:51:52.071Z</time></trkpt><trkpt lat="45.9941822" lon="11.7098799"><ele>1058.3333333333333</ele><time>2026-04-12T10:51:53.072Z</time></trkpt><trkpt lat="45.9942289" lon="11.7099609"><ele>1058.0</ele><time>2026-04-12T10:51:54.071Z</time></trkpt><trkpt lat="45.9942748" lon="11.7100353"><ele>1057.6666666666665</ele><time>2026-04-12T10:51:55.071Z</time></trkpt><trkpt lat="45.9943133" lon="11.7101082"><ele>1057.3333333333333</ele><time>2026-04-12T10:51:56.071Z</time></trkpt><trkpt lat="45.9943771" lon="11.710254"><ele>1057.0</ele><time>2026-04-12T10:51:58.071Z</time></trkpt><trkpt lat="45.9944101" lon="11.7103566"><ele>1057.0</ele><time>2026-04-12T10:52:01.072Z</time></trkpt><trkpt lat="45.9944242" lon="11.7104632"><ele>1057.0</ele><time>2026-04-12T10:53:07.073Z</time></trkpt><trkpt lat="45.9944247" lon="11.7106015"><ele>1057.0</ele><time>2026-04-12T10:53:11.072Z</time></trkpt><trkpt lat="45.9944428" lon="11.7107656"><ele>1057.0</ele><time>2026-04-12T10:53:13.072Z</time></trkpt><trkpt lat="45.9944506" lon="11.7108705"><ele>1057.0</ele><time>2026-04-12T10:53:14.073Z</time></trkpt><trkpt lat="45.9944574" lon="11.7109616"><ele>1057.0</ele><time>2026-04-12T10:53:15.073Z</time></trkpt><trkpt lat="45.9944627" lon="11.7110912"><ele>1057.1666666666665</ele><time>2026-04-12T10:53:17.073Z</time></trkpt><trkpt lat="45.9944599" lon="11.7112155"><ele>1057.3333333333333</ele><time>2026-04-12T10:53:19.073Z</time></trkpt><trkpt lat="45.994486" lon="11.7113209"><ele>1057.5</ele><time>2026-04-12T10:53:22.073Z</time></trkpt><trkpt lat="45.9945009" lon="11.7114153"><ele>1057.6666666666667</ele><time>2026-04-12T10:53:25.073Z</time></trkpt><trkpt lat="45.9944288" lon="11.7114679"><ele>1057.8333333333335</ele><time>2026-04-12T10:54:53.074Z</time></trkpt><trkpt lat="45.9943551" lon="11.7115393"><ele>1058.0</ele><time>2026-04-12T10:54:56.074Z</time></trkpt><trkpt lat="45.9942985" lon="11.7116102"><ele>1058.0</ele><time>2026-04-12T10:54:58.074Z</time></trkpt><trkpt lat="45.9942355" lon="11.711694"><ele>1058.0</ele><time>2026-04-12T10:55:00.074Z</time></trkpt><trkpt lat="45.9941743" lon="11.7117729"><ele>1058.0</ele><time>2026-04-12T10:55:02.074Z</time></trkpt><trkpt lat="45.9941157" lon="11.711842"><ele>1058.0</ele><time>2026-04-12T10:55:04.075Z</time></trkpt><trkpt lat="45.9940454" lon="11.7119211"><ele>1058.0</ele><time>2026-04-12T10:55:06.075Z</time></trkpt><trkpt lat="45.9939469" lon="11.7120167"><ele>1054.4285714285716</ele><time>2026-04-12T10:55:08.075Z</time></trkpt><trkpt lat="45.9938925" lon="11.712064"><ele>1050.857142857143</ele><time>2026-04-12T10:55:09.075Z</time></trkpt><trkpt lat="45.9938371" lon="11.712113"><ele>1047.2857142857142</ele><time>2026-04-12T10:55:10.074Z</time></trkpt><trkpt lat="45.9937827" lon="11.712163"><ele>1043.7142857142858</ele><time>2026-04-12T10:55:11.074Z</time></trkpt><trkpt lat="45.9937264" lon="11.7122195"><ele>1040.142857142857</ele><time>2026-04-12T10:55:12.074Z</time></trkpt><trkpt lat="45.9936695" lon="11.7122833"><ele>1036.5714285714287</ele><time>2026-04-12T10:55:13.075Z</time></trkpt><trkpt lat="45.9936108" lon="11.7123492"><ele>1033.0</ele><time>2026-04-12T10:55:14.076Z</time></trkpt><trkpt lat="45.993547" lon="11.7124159"><ele>1033.0</ele><time>2026-04-12T10:55:15.075Z</time></trkpt><trkpt lat="45.9934832" lon="11.7124809"><ele>1033.0</ele><time>2026-04-12T10:55:16.075Z</time></trkpt><trkpt lat="45.9934231" lon="11.7125527"><ele>1033.0</ele><time>2026-04-12T10:55:17.075Z</time></trkpt><trkpt lat="45.9933663" lon="11.7126342"><ele>1033.0</ele><time>2026-04-12T10:55:18.074Z</time></trkpt><trkpt lat="45.9933154" lon="11.712725"><ele>1033.0</ele><time>2026-04-12T10:55:19.075Z</time></trkpt><trkpt lat="45.9932676" lon="11.7128257"><ele>1033.0</ele><time>2026-04-12T10:55:20.074Z</time></trkpt><trkpt lat="45.9932128" lon="11.7129294"><ele>1030.0</ele><time>2026-04-12T10:55:21.075Z</time></trkpt><trkpt lat="45.9931495" lon="11.7130321"><ele>1027.0</ele><time>2026-04-12T10:55:22.076Z</time></trkpt><trkpt lat="45.9930816" lon="11.7131273"><ele>1024.0</ele><time>2026-04-12T10:55:23.074Z</time></trkpt><trkpt lat="45.9930113" lon="11.7132113"><ele>1021.0</ele><time>2026-04-12T10:55:24.075Z</time></trkpt><trkpt lat="45.9929406" lon="11.7132885"><ele>1018.0</ele><time>2026-04-12T10:55:25.076Z</time></trkpt><trkpt lat="45.9928701" lon="11.7133578"><ele>1017.9999999999999</ele><time>2026-04-12T10:55:26.075Z</time></trkpt><trkpt lat="45.9928015" lon="11.7134225"><ele>1018.0</ele><time>2026-04-12T10:55:27.075Z</time></trkpt><trkpt lat="45.99275" lon="11.7134977"><ele>1018.0</ele><time>2026-04-12T10:55:28.075Z</time></trkpt><trkpt lat="45.9927043" lon="11.7135994"><ele>1018.0</ele><time>2026-04-12T10:55:29.075Z</time></trkpt><trkpt lat="45.9926627" lon="11.7137023"><ele>1017.9999999999999</ele><time>2026-04-12T10:55:30.075Z</time></trkpt><trkpt lat="45.9926241" lon="11.7137894"><ele>1018.0</ele><time>2026-04-12T10:55:31.075Z</time></trkpt><trkpt lat="45.9925455" lon="11.7138903"><ele>1017.4999999999999</ele><time>2026-04-12T10:55:33.075Z</time></trkpt><trkpt lat="45.9924821" lon="11.713956"><ele>1017.0</ele><time>2026-04-12T10:55:35.075Z</time></trkpt><trkpt lat="45.9924261" lon="11.7140206"><ele>1016.5</ele><time>2026-04-12T10:55:37.075Z</time></trkpt><trkpt lat="45.9923783" lon="11.714114"><ele>1016.0</ele><time>2026-04-12T10:58:09.077Z</time></trkpt><trkpt lat="45.9923034" lon="11.7141853"><ele>1015.4999999999999</ele><time>2026-04-12T10:58:13.079Z</time></trkpt><trkpt lat="45.9922202" lon="11.7142644"><ele>1015.0</ele><time>2026-04-12T10:58:16.078Z</time></trkpt><trkpt lat="45.9921192" lon="11.7143282"><ele>1014.9999999999999</ele><time>2026-04-12T10:58:18.077Z</time></trkpt><trkpt lat="45.9920605" lon="11.7143692"><ele>1015.0</ele><time>2026-04-12T10:58:19.078Z</time></trkpt><trkpt lat="45.9919576" lon="11.7144482"><ele>1015.0</ele><time>2026-04-12T10:58:21.077Z</time></trkpt><trkpt lat="45.9918482" lon="11.7145287"><ele>1015.0</ele><time>2026-04-12T10:58:23.079Z</time></trkpt><trkpt lat="45.9917791" lon="11.7145627"><ele>1014.9999999999999</ele><time>2026-04-12T10:58:24.078Z</time></trkpt><trkpt lat="45.9917124" lon="11.7145863"><ele>1015.0</ele><time>2026-04-12T10:58:25.078Z</time></trkpt><trkpt lat="45.9916426" lon="11.7146043"><ele>1016.7142857142858</ele><time>2026-04-12T10:58:26.077Z</time></trkpt><trkpt lat="45.9915718" lon="11.7146199"><ele>1018.4285714285714</ele><time>2026-04-12T10:58:27.077Z</time></trkpt><trkpt lat="45.9915007" lon="11.7146396"><ele>1020.1428571428571</ele><time>2026-04-12T10:58:28.077Z</time></trkpt><trkpt lat="45.9914294" lon="11.714656"><ele>1021.8571428571429</ele><time>2026-04-12T10:58:29.078Z</time></trkpt><trkpt lat="45.9913566" lon="11.7146708"><ele>1023.5714285714287</ele><time>2026-04-12T10:58:30.077Z</time></trkpt><trkpt lat="45.9912897" lon="11.714687"><ele>1025.2857142857142</ele><time>2026-04-12T10:58:31.077Z</time></trkpt><trkpt lat="45.991223" lon="11.7147013"><ele>1027.0</ele><time>2026-04-12T10:58:32.077Z</time></trkpt><trkpt lat="45.9911229" lon="11.714726"><ele>1027.0</ele><time>2026-04-12T10:58:34.078Z</time></trkpt><trkpt lat="45.9910094" lon="11.7147346"><ele>1027.0</ele><time>2026-04-12T10:58:36.078Z</time></trkpt><trkpt lat="45.9909099" lon="11.7147374"><ele>1027.0</ele><time>2026-04-12T10:58:38.078Z</time></trkpt><trkpt lat="45.9908242" lon="11.7147546"><ele>1027.0</ele><time>2026-04-12T10:58:40.078Z</time></trkpt><trkpt lat="45.9907642" lon="11.7148161"><ele>1027.0</ele><time>2026-04-12T10:58:42.078Z</time></trkpt><trkpt lat="45.9907269" lon="11.7149158"><ele>1023.8</ele><time>2026-04-12T10:58:44.078Z</time></trkpt><trkpt lat="45.9906545" lon="11.7149728"><ele>1020.6</ele><time>2026-04-12T10:58:46.078Z</time></trkpt><trkpt lat="45.9905599" lon="11.7150074"><ele>1017.3999999999999</ele><time>2026-04-12T10:58:48.078Z</time></trkpt><trkpt lat="45.9904898" lon="11.7150938"><ele>1014.1999999999999</ele><time>2026-04-12T10:58:50.078Z</time></trkpt><trkpt lat="45.990445" lon="11.7152046"><ele>1011.0</ele><time>2026-04-12T10:58:52.078Z</time></trkpt><trkpt lat="45.9904317" lon="11.7153488"><ele>1011.0</ele><time>2026-04-12T10:58:54.078Z</time></trkpt><trkpt lat="45.990424" lon="11.7154792"><ele>1010.9999999999999</ele><time>2026-04-12T10:58:56.079Z</time></trkpt><trkpt lat="45.9904478" lon="11.7155856"><ele>1010.9999999999999</ele><time>2026-04-12T10:58:58.078Z</time></trkpt><trkpt lat="45.9904811" lon="11.7157173"><ele>1011.0</ele><time>2026-04-12T10:59:00.079Z</time></trkpt><trkpt lat="45.9905381" lon="11.71584"><ele>1011.0</ele><time>2026-04-12T10:59:02.078Z</time></trkpt><trkpt lat="45.9906134" lon="11.7159534"><ele>1011.0</ele><time>2026-04-12T10:59:04.078Z</time></trkpt><trkpt lat="45.9906669" lon="11.71601"><ele>1011.0</ele><time>2026-04-12T10:59:05.078Z</time></trkpt><trkpt lat="45.9907256" lon="11.7160436"><ele>1011.0</ele><time>2026-04-12T10:59:06.078Z</time></trkpt><trkpt lat="45.9907983" lon="11.7161195"><ele>1011.0</ele><time>2026-04-12T10:59:08.078Z</time></trkpt><trkpt lat="45.990827" lon="11.7162122"><ele>1011.0</ele><time>2026-04-12T10:59:09.078Z</time></trkpt><trkpt lat="45.9908566" lon="11.7163113"><ele>1011.0</ele><time>2026-04-12T10:59:10.078Z</time></trkpt><trkpt lat="45.9909052" lon="11.7164743"><ele>1007.1666666666666</ele><time>2026-04-12T10:59:12.079Z</time></trkpt><trkpt lat="45.9909497" lon="11.7165936"><ele>1003.3333333333333</ele><time>2026-04-12T10:59:14.078Z</time></trkpt><trkpt lat="45.9909939" lon="11.7167271"><ele>999.5</ele><time>2026-04-12T10:59:16.079Z</time></trkpt><trkpt lat="45.991026" lon="11.7168075"><ele>995.6666666666666</ele><time>2026-04-12T10:59:17.078Z</time></trkpt><trkpt lat="45.9910646" lon="11.7168945"><ele>991.8333333333333</ele><time>2026-04-12T10:59:18.079Z</time></trkpt><trkpt lat="45.9911123" lon="11.7169781"><ele>988.0</ele><time>2026-04-12T10:59:19.079Z</time></trkpt><trkpt lat="45.9911561" lon="11.7170522"><ele>988.0</ele><time>2026-04-12T10:59:20.079Z</time></trkpt><trkpt lat="45.9911996" lon="11.7171276"><ele>988.0</ele><time>2026-04-12T10:59:21.078Z</time></trkpt><trkpt lat="45.991276" lon="11.7172545"><ele>988.0</ele><time>2026-04-12T10:59:23.078Z</time></trkpt><trkpt lat="45.9913476" lon="11.7173813"><ele>988.0</ele><time>2026-04-12T10:59:25.079Z</time></trkpt><trkpt lat="45.9914079" lon="11.7174851"><ele>988.0</ele><time>2026-04-12T10:59:27.078Z</time></trkpt><trkpt lat="45.9914685" lon="11.7175912"><ele>987.9999999999999</ele><time>2026-04-12T10:59:29.078Z</time></trkpt><trkpt lat="45.9915204" lon="11.7176872"><ele>988.0</ele><time>2026-04-12T10:59:31.078Z</time></trkpt><trkpt lat="45.991546" lon="11.7178037"><ele>988.0</ele><time>2026-04-12T10:59:33.078Z</time></trkpt><trkpt lat="45.9915759" lon="11.7179264"><ele>988.0</ele><time>2026-04-12T10:59:35.079Z</time></trkpt><trkpt lat="45.9916022" lon="11.7180818"><ele>987.9999999999999</ele><time>2026-04-12T10:59:37.079Z</time></trkpt><trkpt lat="45.99162" lon="11.7181757"><ele>988.0</ele><time>2026-04-12T10:59:38.079Z</time></trkpt><trkpt lat="45.991655" lon="11.7182662"><ele>987.1666666666666</ele><time>2026-04-12T10:59:39.079Z</time></trkpt><trkpt lat="45.9917023" lon="11.7183621"><ele>986.3333333333333</ele><time>2026-04-12T10:59:40.079Z</time></trkpt><trkpt lat="45.9917454" lon="11.7184513"><ele>985.5</ele><time>2026-04-12T10:59:41.079Z</time></trkpt><trkpt lat="45.9918422" lon="11.7185874"><ele>984.6666666666667</ele><time>2026-04-12T10:59:43.079Z</time></trkpt><trkpt lat="45.9918854" lon="11.7186759"><ele>983.8333333333334</ele><time>2026-04-12T10:59:44.079Z</time></trkpt><trkpt lat="45.991923" lon="11.7187691"><ele>983.0</ele><time>2026-04-12T10:59:45.079Z</time></trkpt><trkpt lat="45.9919451" lon="11.7188667"><ele>983.0000000000001</ele><time>2026-04-12T10:59:46.079Z</time></trkpt><trkpt lat="45.9919613" lon="11.7189685"><ele>983.0</ele><time>2026-04-12T10:59:47.079Z</time></trkpt><trkpt lat="45.9919873" lon="11.7190655"><ele>983.0</ele><time>2026-04-12T10:59:48.079Z</time></trkpt><trkpt lat="45.9920351" lon="11.7191554"><ele>983.0</ele><time>2026-04-12T10:59:49.079Z</time></trkpt><trkpt lat="45.9920942" lon="11.7192326"><ele>983.0000000000001</ele><time>2026-04-12T10:59:50.079Z</time></trkpt><trkpt lat="45.9921586" lon="11.7193213"><ele>983.0</ele><time>2026-04-12T10:59:51.079Z</time></trkpt><trkpt lat="45.9922165" lon="11.7194014"><ele>978.0000000000001</ele><time>2026-04-12T10:59:52.079Z</time></trkpt><trkpt lat="45.9922516" lon="11.7194866"><ele>973.0</ele><time>2026-04-12T10:59:54.079Z</time></trkpt><trkpt lat="45.9922485" lon="11.7196446"><ele>968.0</ele><time>2026-04-12T10:59:57.079Z</time></trkpt><trkpt lat="45.9922716" lon="11.7197829"><ele>963.0</ele><time>2026-04-12T10:59:59.079Z</time></trkpt><trkpt lat="45.9923002" lon="11.7198773"><ele>958.0000000000001</ele><time>2026-04-12T11:00:02.08Z</time></trkpt><trkpt lat="45.9923185" lon="11.7200025"><ele>953.0</ele><time>2026-04-12T11:00:05.079Z</time></trkpt><trkpt lat="45.992359" lon="11.720145"><ele>955.4</ele><time>2026-04-12T11:00:07.08Z</time></trkpt><trkpt lat="45.992423" lon="11.7202929"><ele>957.8</ele><time>2026-04-12T11:00:09.079Z</time></trkpt><trkpt lat="45.9924672" lon="11.7203993"><ele>960.2</ele><time>2026-04-12T11:00:10.079Z</time></trkpt><trkpt lat="45.992508" lon="11.7205026"><ele>962.6</ele><time>2026-04-12T11:00:11.079Z</time></trkpt><trkpt lat="45.9925705" lon="11.7206318"><ele>965.0</ele><time>2026-04-12T11:00:12.079Z</time></trkpt><trkpt lat="45.9926278" lon="11.7207296"><ele>965.0000000000001</ele><time>2026-04-12T11:00:13.079Z</time></trkpt><trkpt lat="45.9926837" lon="11.7208125"><ele>965.0</ele><time>2026-04-12T11:00:14.079Z</time></trkpt><trkpt lat="45.9927496" lon="11.7208729"><ele>965.0</ele><time>2026-04-12T11:00:15.079Z</time></trkpt><trkpt lat="45.9928139" lon="11.7209219"><ele>965.0</ele><time>2026-04-12T11:00:16.079Z</time></trkpt><trkpt lat="45.9928742" lon="11.7209573"><ele>965.0000000000001</ele><time>2026-04-12T11:00:17.08Z</time></trkpt><trkpt lat="45.9929648" lon="11.7210173"><ele>965.0</ele><time>2026-04-12T11:00:19.079Z</time></trkpt><trkpt lat="45.9930239" lon="11.7211022"><ele>958.8333333333334</ele><time>2026-04-12T11:00:21.08Z</time></trkpt><trkpt lat="45.9930508" lon="11.7212051"><ele>952.6666666666667</ele><time>2026-04-12T11:00:23.079Z</time></trkpt><trkpt lat="45.9930934" lon="11.7212816"><ele>946.5</ele><time>2026-04-12T11:00:25.079Z</time></trkpt><trkpt lat="45.9931434" lon="11.7214204"><ele>940.3333333333333</ele><time>2026-04-12T11:00:27.079Z</time></trkpt><trkpt lat="45.9931275" lon="11.7215673"><ele>934.1666666666666</ele><time>2026-04-12T11:00:29.079Z</time></trkpt><trkpt lat="45.9931293" lon="11.7216608"><ele>928.0</ele><time>2026-04-12T11:00:31.079Z</time></trkpt><trkpt lat="45.9931614" lon="11.7217417"><ele>927.9999999999999</ele><time>2026-04-12T11:00:33.079Z</time></trkpt><trkpt lat="45.9931977" lon="11.7218381"><ele>928.0</ele><time>2026-04-12T11:00:36.079Z</time></trkpt><trkpt lat="45.9932304" lon="11.7219565"><ele>928.0</ele><time>2026-04-12T11:00:38.08Z</time></trkpt><trkpt lat="45.9932718" lon="11.722042"><ele>928.0</ele><time>2026-04-12T11:00:39.08Z</time></trkpt><trkpt lat="45.993329" lon="11.722152"><ele>927.9999999999999</ele><time>2026-04-12T11:00:40.08Z</time></trkpt><trkpt lat="45.9933967" lon="11.7222686"><ele>928.0</ele><time>2026-04-12T11:00:41.08Z</time></trkpt><trkpt lat="45.9934583" lon="11.7223524"><ele>927.8333333333333</ele><time>2026-04-12T11:00:42.08Z</time></trkpt><trkpt lat="45.9935159" lon="11.7224219"><ele>927.6666666666666</ele><time>2026-04-12T11:00:43.08Z</time></trkpt><trkpt lat="45.9935662" lon="11.7224867"><ele>927.5</ele><time>2026-04-12T11:00:44.08Z</time></trkpt><trkpt lat="45.9936141" lon="11.7225519"><ele>927.3333333333333</ele><time>2026-04-12T11:00:45.08Z</time></trkpt><trkpt lat="45.9936762" lon="11.7226358"><ele>927.1666666666666</ele><time>2026-04-12T11:00:47.08Z</time></trkpt><trkpt lat="45.9937271" lon="11.7227243"><ele>927.0</ele><time>2026-04-12T11:00:51.081Z</time></trkpt><trkpt lat="45.9937998" lon="11.7228304"><ele>921.8333333333334</ele><time>2026-04-12T11:00:53.08Z</time></trkpt><trkpt lat="45.9938695" lon="11.7229703"><ele>916.6666666666667</ele><time>2026-04-12T11:00:55.08Z</time></trkpt><trkpt lat="45.9939018" lon="11.7230533"><ele>911.5</ele><time>2026-04-12T11:00:56.08Z</time></trkpt><trkpt lat="45.9939429" lon="11.7231334"><ele>906.3333333333334</ele><time>2026-04-12T11:00:57.082Z</time></trkpt><trkpt lat="45.9939859" lon="11.7232116"><ele>901.1666666666667</ele><time>2026-04-12T11:00:58.08Z</time></trkpt><trkpt lat="45.9940367" lon="11.7232916"><ele>896.0</ele><time>2026-04-12T11:00:59.08Z</time></trkpt><trkpt lat="45.9940853" lon="11.7233623"><ele>896.0000000000001</ele><time>2026-04-12T11:01:00.08Z</time></trkpt><trkpt lat="45.9941501" lon="11.723433"><ele>896.0</ele><time>2026-04-12T11:01:02.081Z</time></trkpt><trkpt lat="45.9942226" lon="11.7235096"><ele>896.0</ele><time>2026-04-12T11:01:05.08Z</time></trkpt><trkpt lat="45.99428" lon="11.7235633"><ele>896.0</ele><time>2026-04-12T11:01:07.08Z</time></trkpt><trkpt lat="45.9943291" lon="11.7236519"><ele>896.0000000000001</ele><time>2026-04-12T11:01:09.081Z</time></trkpt><trkpt lat="45.9943806" lon="11.7237836"><ele>896.0</ele><time>2026-04-12T11:01:11.08Z</time></trkpt><trkpt lat="45.9944223" lon="11.7239346"><ele>900.1666666666667</ele><time>2026-04-12T11:01:13.08Z</time></trkpt><trkpt lat="45.9944392" lon="11.724022"><ele>904.3333333333334</ele><time>2026-04-12T11:01:14.081Z</time></trkpt><trkpt lat="45.9944734" lon="11.7241613"><ele>908.5</ele><time>2026-04-12T11:01:16.08Z</time></trkpt><trkpt lat="45.9944775" lon="11.7243004"><ele>912.6666666666667</ele><time>2026-04-12T11:01:18.081Z</time></trkpt><trkpt lat="45.9944582" lon="11.7243896"><ele>916.8333333333334</ele><time>2026-04-12T11:01:19.081Z</time></trkpt><trkpt lat="45.9944622" lon="11.7245636"><ele>921.0</ele><time>2026-04-12T11:01:21.08Z</time></trkpt><trkpt lat="45.9944593" lon="11.7246571"><ele>921.0</ele><time>2026-04-12T11:01:22.081Z</time></trkpt><trkpt lat="45.9944744" lon="11.7248048"><ele>921.0</ele><time>2026-04-12T11:01:24.081Z</time></trkpt><trkpt lat="45.9944968" lon="11.7249306"><ele>921.0</ele><time>2026-04-12T11:01:26.08Z</time></trkpt><trkpt lat="45.9944961" lon="11.7250408"><ele>921.0</ele><time>2026-04-12T11:01:28.08Z</time></trkpt><trkpt lat="45.9944733" lon="11.7251518"><ele>921.0</ele><time>2026-04-12T11:01:32.08Z</time></trkpt><trkpt lat="45.9944117" lon="11.7252354"><ele>921.0</ele><time>2026-04-12T11:01:35.08Z</time></trkpt><trkpt lat="45.9943329" lon="11.725337"><ele>918.6666666666666</ele><time>2026-04-12T11:01:37.08Z</time></trkpt><trkpt lat="45.9942884" lon="11.7254523"><ele>916.3333333333333</ele><time>2026-04-12T11:01:39.081Z</time></trkpt><trkpt lat="45.9942821" lon="11.7255571"><ele>914.0</ele><time>2026-04-12T11:01:41.08Z</time></trkpt><trkpt lat="45.994271" lon="11.7256569"><ele>911.6666666666666</ele><time>2026-04-12T11:01:43.08Z</time></trkpt><trkpt lat="45.9942414" lon="11.7257715"><ele>909.3333333333333</ele><time>2026-04-12T11:01:45.081Z</time></trkpt><trkpt lat="45.99425" lon="11.7258959"><ele>907.0</ele><time>2026-04-12T11:01:47.081Z</time></trkpt><trkpt lat="45.9942898" lon="11.7259729"><ele>903.3333333333333</ele><time>2026-04-12T11:01:49.081Z</time></trkpt><trkpt lat="45.9943266" lon="11.7260777"><ele>899.6666666666666</ele><time>2026-04-12T11:01:59.081Z</time></trkpt><trkpt lat="45.9943662" lon="11.7261699"><ele>896.0</ele><time>2026-04-12T11:02:05.081Z</time></trkpt><trkpt lat="45.9943723" lon="11.7262966"><ele>892.3333333333333</ele><time>2026-04-12T11:02:08.081Z</time></trkpt><trkpt lat="45.9944152" lon="11.7264054"><ele>888.6666666666666</ele><time>2026-04-12T11:02:11.081Z</time></trkpt><trkpt lat="45.9944317" lon="11.72653"><ele>885.0</ele><time>2026-04-12T11:02:14.081Z</time></trkpt><trkpt lat="45.994492" lon="11.7266135"><ele>885.0</ele><time>2026-04-12T11:02:16.082Z</time></trkpt><trkpt lat="45.9945615" lon="11.7267223"><ele>885.0</ele><time>2026-04-12T11:02:18.081Z</time></trkpt><trkpt lat="45.9946047" lon="11.7267989"><ele>885.0</ele><time>2026-04-12T11:02:19.081Z</time></trkpt><trkpt lat="45.9946525" lon="11.7268615"><ele>885.0</ele><time>2026-04-12T11:02:20.081Z</time></trkpt><trkpt lat="45.9947088" lon="11.7269197"><ele>885.0</ele><time>2026-04-12T11:02:21.081Z</time></trkpt><trkpt lat="45.9947621" lon="11.7269737"><ele>885.0</ele><time>2026-04-12T11:02:22.081Z</time></trkpt><trkpt lat="45.9948284" lon="11.7270748"><ele>889.2</ele><time>2026-04-12T11:02:24.081Z</time></trkpt><trkpt lat="45.9948702" lon="11.7272244"><ele>893.4</ele><time>2026-04-12T11:02:26.081Z</time></trkpt><trkpt lat="45.9949215" lon="11.7273465"><ele>897.5999999999999</ele><time>2026-04-12T11:02:28.083Z</time></trkpt><trkpt lat="45.9950036" lon="11.7274546"><ele>901.8</ele><time>2026-04-12T11:02:30.082Z</time></trkpt><trkpt lat="45.9950586" lon="11.7275283"><ele>906.0</ele><time>2026-04-12T11:02:31.082Z</time></trkpt><trkpt lat="45.995154" lon="11.7276417"><ele>901.5</ele><time>2026-04-12T11:02:33.082Z</time></trkpt><trkpt lat="45.9952165" lon="11.7277302"><ele>897.0</ele><time>2026-04-12T11:02:35.081Z</time></trkpt><trkpt lat="45.9952127" lon="11.7278225"><ele>892.5</ele><time>2026-04-12T11:02:37.081Z</time></trkpt><trkpt lat="45.9951963" lon="11.7279121"><ele>888.0</ele><time>2026-04-12T11:02:39.081Z</time></trkpt><trkpt lat="45.9952049" lon="11.728063"><ele>883.5</ele><time>2026-04-12T11:02:41.082Z</time></trkpt><trkpt lat="45.9952686" lon="11.7282197"><ele>879.0</ele><time>2026-04-12T11:02:43.081Z</time></trkpt><trkpt lat="45.9953342" lon="11.7282809"><ele>879.0</ele><time>2026-04-12T11:02:44.081Z</time></trkpt><trkpt lat="45.9954071" lon="11.7283356"><ele>879.0</ele><time>2026-04-12T11:02:45.081Z</time></trkpt><trkpt lat="45.9954653" lon="11.7284214"><ele>879.0</ele><time>2026-04-12T11:02:47.082Z</time></trkpt><trkpt lat="45.9954862" lon="11.7285175"><ele>879.0</ele><time>2026-04-12T11:02:57.082Z</time></trkpt><trkpt lat="45.9955302" lon="11.7286162"><ele>879.0</ele><time>2026-04-12T11:03:00.083Z</time></trkpt><trkpt lat="45.9955454" lon="11.7287181"><ele>879.0</ele><time>2026-04-12T11:03:06.083Z</time></trkpt><trkpt lat="45.995552" lon="11.7288514"><ele>873.6</ele><time>2026-04-12T11:03:10.082Z</time></trkpt><trkpt lat="45.9955239" lon="11.7289737"><ele>868.2</ele><time>2026-04-12T11:03:12.082Z</time></trkpt><trkpt lat="45.9955347" lon="11.7291131"><ele>862.8000000000001</ele><time>2026-04-12T11:03:14.083Z</time></trkpt><trkpt lat="45.9955656" lon="11.7292514"><ele>857.4000000000001</ele><time>2026-04-12T11:03:16.082Z</time></trkpt><trkpt lat="45.9956013" lon="11.7294207"><ele>852.0</ele><time>2026-04-12T11:03:18.082Z</time></trkpt><trkpt lat="45.995649" lon="11.7295667"><ele>852.5</ele><time>2026-04-12T11:03:20.082Z</time></trkpt><trkpt lat="45.9956794" lon="11.729678"><ele>853.0</ele><time>2026-04-12T11:03:22.082Z</time></trkpt><trkpt lat="45.9957048" lon="11.7298226"><ele>853.5</ele><time>2026-04-12T11:03:24.082Z</time></trkpt><trkpt lat="45.9957415" lon="11.7299475"><ele>854.0</ele><time>2026-04-12T11:03:25.082Z</time></trkpt><trkpt lat="45.995781" lon="11.7300385"><ele>854.5</ele><time>2026-04-12T11:03:26.082Z</time></trkpt><trkpt lat="45.9958378" lon="11.7301241"><ele>855.0</ele><time>2026-04-12T11:03:27.082Z</time></trkpt><trkpt lat="45.9959057" lon="11.7302196"><ele>848.3333333333334</ele><time>2026-04-12T11:03:28.083Z</time></trkpt><trkpt lat="45.9959518" lon="11.730308"><ele>841.6666666666667</ele><time>2026-04-12T11:03:29.083Z</time></trkpt><trkpt lat="45.9959852" lon="11.7304043"><ele>835.0</ele><time>2026-04-12T11:03:30.083Z</time></trkpt><trkpt lat="45.9960276" lon="11.7305142"><ele>828.3333333333334</ele><time>2026-04-12T11:03:31.082Z</time></trkpt><trkpt lat="45.9960967" lon="11.7305781"><ele>821.6666666666667</ele><time>2026-04-12T11:03:32.082Z</time></trkpt><trkpt lat="45.99617" lon="11.730617"><ele>815.0</ele><time>2026-04-12T11:03:33.082Z</time></trkpt><trkpt lat="45.9962441" lon="11.7306465"><ele>815.0</ele><time>2026-04-12T11:03:34.083Z</time></trkpt><trkpt lat="45.9963107" lon="11.7306739"><ele>815.0</ele><time>2026-04-12T11:03:35.082Z</time></trkpt><trkpt lat="45.9964239" lon="11.7307664"><ele>815.0</ele><time>2026-04-12T11:03:37.082Z</time></trkpt><trkpt lat="45.9964921" lon="11.7308417"><ele>815.0</ele><time>2026-04-12T11:03:38.083Z</time></trkpt><trkpt lat="45.9965638" lon="11.7309079"><ele>815.0</ele><time>2026-04-12T11:03:39.082Z</time></trkpt><trkpt lat="45.9966763" lon="11.7309506"><ele>820.0</ele><time>2026-04-12T11:03:41.082Z</time></trkpt><trkpt lat="45.9967411" lon="11.7309395"><ele>825.0</ele><time>2026-04-12T11:03:42.083Z</time></trkpt><trkpt lat="45.9968688" lon="11.7309305"><ele>830.0</ele><time>2026-04-12T11:03:44.084Z</time></trkpt><trkpt lat="45.9969352" lon="11.7309463"><ele>835.0</ele><time>2026-04-12T11:03:45.083Z</time></trkpt><trkpt lat="45.9970556" lon="11.7310079"><ele>840.0</ele><time>2026-04-12T11:03:47.082Z</time></trkpt><trkpt lat="45.9971461" lon="11.7309918"><ele>840.0</ele><time>2026-04-12T11:03:49.082Z</time></trkpt><trkpt lat="45.9970801" lon="11.7310366"><ele>840.0</ele><time>2026-04-12T11:04:04.084Z</time></trkpt><trkpt lat="45.997066" lon="11.7311302"><ele>840.0</ele><time>2026-04-12T11:04:06.083Z</time></trkpt><trkpt lat="45.9970577" lon="11.7312669"><ele>840.0</ele><time>2026-04-12T11:04:08.083Z</time></trkpt><trkpt lat="45.9970263" lon="11.7314118"><ele>840.0</ele><time>2026-04-12T11:04:10.083Z</time></trkpt><trkpt lat="45.9969925" lon="11.731497"><ele>840.0</ele><time>2026-04-12T11:04:13.084Z</time></trkpt><trkpt lat="45.9969618" lon="11.7316415"><ele>840.0</ele><time>2026-04-12T11:04:15.083Z</time></trkpt><trkpt lat="45.996988" lon="11.7317662"><ele>840.0</ele><time>2026-04-12T11:04:19.083Z</time></trkpt><trkpt lat="45.99696" lon="11.7318523"><ele>840.0</ele><time>2026-04-12T11:04:22.083Z</time></trkpt><trkpt lat="45.9969079" lon="11.7319174"><ele>840.0</ele><time>2026-04-12T11:04:24.084Z</time></trkpt><trkpt lat="45.9968613" lon="11.7320233"><ele>840.0</ele><time>2026-04-12T11:04:26.083Z</time></trkpt><trkpt lat="45.9968215" lon="11.7321103"><ele>840.0</ele><time>2026-04-12T11:04:28.084Z</time></trkpt><trkpt lat="45.9968001" lon="11.7322484"><ele>842.2</ele><time>2026-04-12T11:04:31.083Z</time></trkpt><trkpt lat="45.9967648" lon="11.7323718"><ele>844.4</ele><time>2026-04-12T11:04:33.083Z</time></trkpt><trkpt lat="45.9967619" lon="11.7325111"><ele>846.5999999999999</ele><time>2026-04-12T11:04:35.083Z</time></trkpt><trkpt lat="45.9968031" lon="11.7326089"><ele>848.8</ele><time>2026-04-12T11:04:37.084Z</time></trkpt><trkpt lat="45.9968248" lon="11.7327251"><ele>851.0</ele><time>2026-04-12T11:04:40.084Z</time></trkpt><trkpt lat="45.9967685" lon="11.7328564"><ele>852.5999999999999</ele><time>2026-04-12T11:04:42.083Z</time></trkpt><trkpt lat="45.9967259" lon="11.7330314"><ele>854.2</ele><time>2026-04-12T11:04:44.084Z</time></trkpt><trkpt lat="45.9966926" lon="11.733114"><ele>855.8000000000001</ele><time>2026-04-12T11:04:45.083Z</time></trkpt><trkpt lat="45.9966545" lon="11.7331946"><ele>857.4000000000001</ele><time>2026-04-12T11:04:46.084Z</time></trkpt><trkpt lat="45.9966235" lon="11.7332795"><ele>859.0</ele><time>2026-04-12T11:04:47.083Z</time></trkpt><trkpt lat="45.9965898" lon="11.7334619"><ele>849.1666666666666</ele><time>2026-04-12T11:04:49.085Z</time></trkpt><trkpt lat="45.9965848" lon="11.7335787"><ele>839.3333333333333</ele><time>2026-04-12T11:04:50.083Z</time></trkpt><trkpt lat="45.9965827" lon="11.7337089"><ele>829.5</ele><time>2026-04-12T11:04:51.085Z</time></trkpt><trkpt lat="45.9965857" lon="11.7338338"><ele>819.6666666666667</ele><time>2026-04-12T11:04:52.083Z</time></trkpt><trkpt lat="45.9966001" lon="11.7339573"><ele>809.8333333333334</ele><time>2026-04-12T11:04:53.085Z</time></trkpt><trkpt lat="45.9966239" lon="11.7340539"><ele>800.0</ele><time>2026-04-12T11:04:54.085Z</time></trkpt><trkpt lat="45.9966167" lon="11.7341902"><ele>800.0</ele><time>2026-04-12T11:04:56.084Z</time></trkpt><trkpt lat="45.9965727" lon="11.734256"><ele>800.0</ele><time>2026-04-12T11:04:57.084Z</time></trkpt><trkpt lat="45.9965266" lon="11.7343404"><ele>800.0</ele><time>2026-04-12T11:04:58.084Z</time></trkpt><trkpt lat="45.9964768" lon="11.7345092"><ele>800.0</ele><time>2026-04-12T11:05:00.084Z</time></trkpt><trkpt lat="45.9964605" lon="11.7346685"><ele>800.0</ele><time>2026-04-12T11:05:02.085Z</time></trkpt><trkpt lat="45.9964989" lon="11.7347712"><ele>799.5000000000001</ele><time>2026-04-12T11:05:04.084Z</time></trkpt><trkpt lat="45.9965453" lon="11.7348377"><ele>799.0</ele><time>2026-04-12T11:05:06.084Z</time></trkpt><trkpt lat="45.9964821" lon="11.7348914"><ele>798.5</ele><time>2026-04-12T11:05:09.084Z</time></trkpt><trkpt lat="45.9964094" lon="11.734993"><ele>798.0</ele><time>2026-04-12T11:05:12.084Z</time></trkpt><trkpt lat="45.9963712" lon="11.735122"><ele>797.5000000000001</ele><time>2026-04-12T11:05:14.084Z</time></trkpt><trkpt lat="45.9963551" lon="11.7352173"><ele>797.0</ele><time>2026-04-12T11:05:15.084Z</time></trkpt><trkpt lat="45.99633" lon="11.7353989"><ele>796.8571428571428</ele><time>2026-04-12T11:05:17.084Z</time></trkpt><trkpt lat="45.9963185" lon="11.7355"><ele>796.7142857142858</ele><time>2026-04-12T11:05:18.085Z</time></trkpt><trkpt lat="45.9963139" lon="11.7355908"><ele>796.5714285714286</ele><time>2026-04-12T11:05:19.084Z</time></trkpt><trkpt lat="45.9963009" lon="11.7356838"><ele>796.4285714285713</ele><time>2026-04-12T11:05:20.084Z</time></trkpt><trkpt lat="45.9962814" lon="11.7357742"><ele>796.2857142857142</ele><time>2026-04-12T11:05:21.084Z</time></trkpt><trkpt lat="45.9962639" lon="11.7359173"><ele>796.1428571428571</ele><time>2026-04-12T11:05:23.084Z</time></trkpt><trkpt lat="45.9962624" lon="11.7360214"><ele>796.0</ele><time>2026-04-12T11:05:25.084Z</time></trkpt><trkpt lat="45.9962898" lon="11.7361303"><ele>793.0</ele><time>2026-04-12T11:05:27.084Z</time></trkpt><trkpt lat="45.9963279" lon="11.7362628"><ele>790.0</ele><time>2026-04-12T11:05:29.085Z</time></trkpt><trkpt lat="45.9963682" lon="11.736397"><ele>787.0</ele><time>2026-04-12T11:05:31.084Z</time></trkpt><trkpt lat="45.9964436" lon="11.7365406"><ele>784.0</ele><time>2026-04-12T11:05:33.084Z</time></trkpt><trkpt lat="45.9965201" lon="11.7366732"><ele>781.0</ele><time>2026-04-12T11:05:35.086Z</time></trkpt><trkpt lat="45.9965564" lon="11.7367479"><ele>781.0</ele><time>2026-04-12T11:05:37.084Z</time></trkpt><trkpt lat="45.9965567" lon="11.736881"><ele>781.0</ele><time>2026-04-12T11:05:39.084Z</time></trkpt><trkpt lat="45.9965748" lon="11.7370284"><ele>781.0</ele><time>2026-04-12T11:05:41.084Z</time></trkpt><trkpt lat="45.9966001" lon="11.7371539"><ele>781.0</ele><time>2026-04-12T11:05:43.084Z</time></trkpt><trkpt lat="45.9966205" lon="11.737283"><ele>781.0</ele><time>2026-04-12T11:05:45.084Z</time></trkpt><trkpt lat="45.9966256" lon="11.7374063"><ele>778.8</ele><time>2026-04-12T11:05:47.084Z</time></trkpt><trkpt lat="45.9966246" lon="11.7375658"><ele>776.5999999999999</ele><time>2026-04-12T11:05:49.084Z</time></trkpt><trkpt lat="45.9966378" lon="11.7377276"><ele>774.4</ele><time>2026-04-12T11:05:51.084Z</time></trkpt><trkpt lat="45.9966532" lon="11.7378817"><ele>772.2</ele><time>2026-04-12T11:05:53.084Z</time></trkpt><trkpt lat="45.996637" lon="11.7379959"><ele>770.0</ele><time>2026-04-12T11:05:55.084Z</time></trkpt><trkpt lat="45.9966272" lon="11.7381175"><ele>768.0000000000001</ele><time>2026-04-12T11:05:57.086Z</time></trkpt><trkpt lat="45.9966609" lon="11.7383175"><ele>766.0</ele><time>2026-04-12T11:05:59.085Z</time></trkpt><trkpt lat="45.9966695" lon="11.7384258"><ele>764.0</ele><time>2026-04-12T11:06:00.085Z</time></trkpt><trkpt lat="45.9966795" lon="11.7385164"><ele>762.0</ele><time>2026-04-12T11:06:01.085Z</time></trkpt><trkpt lat="45.996691" lon="11.7386338"><ele>760.0</ele><time>2026-04-12T11:06:03.085Z</time></trkpt><trkpt lat="45.9966747" lon="11.7387237"><ele>758.0</ele><time>2026-04-12T11:06:05.085Z</time></trkpt><trkpt lat="45.9966368" lon="11.7388364"><ele>755.2</ele><time>2026-04-12T11:06:07.085Z</time></trkpt><trkpt lat="45.996613" lon="11.7389594"><ele>752.4</ele><time>2026-04-12T11:06:09.086Z</time></trkpt><trkpt lat="45.996586" lon="11.7391042"><ele>749.6</ele><time>2026-04-12T11:06:11.085Z</time></trkpt><trkpt lat="45.9965728" lon="11.7392474"><ele>746.8000000000001</ele><time>2026-04-12T11:06:13.085Z</time></trkpt><trkpt lat="45.9965734" lon="11.7393387"><ele>744.0</ele><time>2026-04-12T11:06:14.085Z</time></trkpt><trkpt lat="45.9965801" lon="11.7394898"><ele>747.6</ele><time>2026-04-12T11:06:16.085Z</time></trkpt><trkpt lat="45.9965937" lon="11.7396376"><ele>751.2</ele><time>2026-04-12T11:06:18.085Z</time></trkpt><trkpt lat="45.9966177" lon="11.7397884"><ele>754.8000000000001</ele><time>2026-04-12T11:06:20.085Z</time></trkpt><trkpt lat="45.9966734" lon="11.739903"><ele>758.4000000000001</ele><time>2026-04-12T11:06:22.085Z</time></trkpt><trkpt lat="45.996747" lon="11.7400169"><ele>762.0</ele><time>2026-04-12T11:06:24.086Z</time></trkpt><trkpt lat="45.9968532" lon="11.7401225"><ele>762.0</ele><time>2026-04-12T11:06:26.085Z</time></trkpt><trkpt lat="45.99696" lon="11.7402003"><ele>762.0</ele><time>2026-04-12T11:06:28.085Z</time></trkpt><trkpt lat="45.9970691" lon="11.7402761"><ele>762.0</ele><time>2026-04-12T11:06:30.085Z</time></trkpt><trkpt lat="45.9971776" lon="11.7403498"><ele>762.0</ele><time>2026-04-12T11:06:32.086Z</time></trkpt><trkpt lat="45.9972417" lon="11.740384"><ele>762.0</ele><time>2026-04-12T11:06:34.085Z</time></trkpt><trkpt lat="45.9973006" lon="11.7404885"><ele>756.6</ele><time>2026-04-12T11:06:39.085Z</time></trkpt><trkpt lat="45.9973769" lon="11.7405833"><ele>751.2</ele><time>2026-04-12T11:06:41.086Z</time></trkpt><trkpt lat="45.9974558" lon="11.7406747"><ele>745.8</ele><time>2026-04-12T11:06:43.085Z</time></trkpt><trkpt lat="45.9975304" lon="11.7407476"><ele>740.4</ele><time>2026-04-12T11:06:45.085Z</time></trkpt><trkpt lat="45.9976127" lon="11.740833"><ele>735.0</ele><time>2026-04-12T11:06:47.085Z</time></trkpt><trkpt lat="45.9976998" lon="11.7409125"><ele>735.0</ele><time>2026-04-12T11:06:49.085Z</time></trkpt><trkpt lat="45.9977781" lon="11.7409671"><ele>735.0</ele><time>2026-04-12T11:06:51.085Z</time></trkpt><trkpt lat="45.9978867" lon="11.7410393"><ele>735.0</ele><time>2026-04-12T11:06:53.085Z</time></trkpt><trkpt lat="45.9980024" lon="11.741072"><ele>735.0</ele><time>2026-04-12T11:06:55.085Z</time></trkpt><trkpt lat="45.9980667" lon="11.7411287"><ele>735.0</ele><time>2026-04-12T11:06:58.086Z</time></trkpt><trkpt lat="45.9980823" lon="11.7413098"><ele>729.8</ele><time>2026-04-12T11:07:00.087Z</time></trkpt><trkpt lat="45.9981041" lon="11.7414181"><ele>724.6</ele><time>2026-04-12T11:07:01.086Z</time></trkpt><trkpt lat="45.9981311" lon="11.7415442"><ele>719.4000000000001</ele><time>2026-04-12T11:07:02.086Z</time></trkpt><trkpt lat="45.9981497" lon="11.7416845"><ele>714.2</ele><time>2026-04-12T11:07:03.086Z</time></trkpt><trkpt lat="45.9981732" lon="11.7418185"><ele>709.0</ele><time>2026-04-12T11:07:04.086Z</time></trkpt><trkpt lat="45.9982048" lon="11.7419397"><ele>708.3333333333334</ele><time>2026-04-12T11:07:05.086Z</time></trkpt><trkpt lat="45.9982429" lon="11.7420387"><ele>707.6666666666667</ele><time>2026-04-12T11:07:06.087Z</time></trkpt><trkpt lat="45.9982779" lon="11.7421309"><ele>707.0</ele><time>2026-04-12T11:07:07.086Z</time></trkpt><trkpt lat="45.9983098" lon="11.7422212"><ele>706.3333333333334</ele><time>2026-04-12T11:07:08.086Z</time></trkpt><trkpt lat="45.9983761" lon="11.7423625"><ele>705.6666666666666</ele><time>2026-04-12T11:07:10.086Z</time></trkpt><trkpt lat="45.9984546" lon="11.7424683"><ele>705.0</ele><time>2026-04-12T11:07:12.086Z</time></trkpt><trkpt lat="45.9985076" lon="11.7425353"><ele>705.0</ele><time>2026-04-12T11:07:13.086Z</time></trkpt><trkpt lat="45.9986001" lon="11.7426327"><ele>705.0</ele><time>2026-04-12T11:07:15.086Z</time></trkpt><trkpt lat="45.9986912" lon="11.7426821"><ele>705.0</ele><time>2026-04-12T11:07:17.086Z</time></trkpt><trkpt lat="45.9987684" lon="11.7427153"><ele>705.0</ele><time>2026-04-12T11:07:19.086Z</time></trkpt><trkpt lat="45.9988188" lon="11.7427813"><ele>705.0</ele><time>2026-04-12T11:07:21.086Z</time></trkpt><trkpt lat="45.9988083" lon="11.7428851"><ele>705.0</ele><time>2026-04-12T11:08:45.089Z</time></trkpt><trkpt lat="45.9987443" lon="11.7429575"><ele>700.4</ele><time>2026-04-12T11:08:47.088Z</time></trkpt><trkpt lat="45.9986831" lon="11.7430501"><ele>695.8</ele><time>2026-04-12T11:08:49.087Z</time></trkpt><trkpt lat="45.9986245" lon="11.7431721"><ele>691.2</ele><time>2026-04-12T11:08:51.087Z</time></trkpt><trkpt lat="45.9985915" lon="11.7433236"><ele>686.6</ele><time>2026-04-12T11:08:53.088Z</time></trkpt><trkpt lat="45.9985673" lon="11.7434574"><ele>682.0</ele><time>2026-04-12T11:08:55.088Z</time></trkpt><trkpt lat="45.9985504" lon="11.743555"><ele>681.6</ele><time>2026-04-12T11:08:57.087Z</time></trkpt><trkpt lat="45.9985321" lon="11.7436802"><ele>681.2</ele><time>2026-04-12T11:08:59.087Z</time></trkpt><trkpt lat="45.998505" lon="11.7438006"><ele>680.8</ele><time>2026-04-12T11:09:01.087Z</time></trkpt><trkpt lat="45.9984756" lon="11.7439205"><ele>680.4</ele><time>2026-04-12T11:09:03.087Z</time></trkpt><trkpt lat="45.9984515" lon="11.7440392"><ele>680.0</ele><time>2026-04-12T11:09:05.088Z</time></trkpt><trkpt lat="45.9984221" lon="11.7441775"><ele>680.0</ele><time>2026-04-12T11:09:07.088Z</time></trkpt><trkpt lat="45.9983949" lon="11.7443366"><ele>680.0</ele><time>2026-04-12T11:09:09.088Z</time></trkpt><trkpt lat="45.9983466" lon="11.7444621"><ele>680.0</ele><time>2026-04-12T11:09:11.089Z</time></trkpt><trkpt lat="45.9982699" lon="11.7445868"><ele>680.0</ele><time>2026-04-12T11:09:13.088Z</time></trkpt><trkpt lat="45.9982137" lon="11.7446439"><ele>680.0</ele><time>2026-04-12T11:09:14.088Z</time></trkpt><trkpt lat="45.9981517" lon="11.7446928"><ele>680.8333333333333</ele><time>2026-04-12T11:09:15.088Z</time></trkpt><trkpt lat="45.9980875" lon="11.7447415"><ele>681.6666666666666</ele><time>2026-04-12T11:09:16.089Z</time></trkpt><trkpt lat="45.9980173" lon="11.744785"><ele>682.5</ele><time>2026-04-12T11:09:17.088Z</time></trkpt><trkpt lat="45.9979481" lon="11.7448445"><ele>683.3333333333334</ele><time>2026-04-12T11:09:18.088Z</time></trkpt><trkpt lat="45.9978806" lon="11.7449123"><ele>684.1666666666667</ele><time>2026-04-12T11:09:19.088Z</time></trkpt><trkpt lat="45.997818" lon="11.7449945"><ele>685.0</ele><time>2026-04-12T11:09:20.088Z</time></trkpt><trkpt lat="45.9977723" lon="11.7450996"><ele>683.0</ele><time>2026-04-12T11:09:21.088Z</time></trkpt><trkpt lat="45.9977476" lon="11.7452359"><ele>681.0</ele><time>2026-04-12T11:09:22.088Z</time></trkpt><trkpt lat="45.9977496" lon="11.7453738"><ele>679.0</ele><time>2026-04-12T11:09:23.088Z</time></trkpt><trkpt lat="45.9977573" lon="11.7455046"><ele>677.0</ele><time>2026-04-12T11:09:24.088Z</time></trkpt><trkpt lat="45.9977481" lon="11.7456447"><ele>675.0</ele><time>2026-04-12T11:09:25.088Z</time></trkpt><trkpt lat="45.9977109" lon="11.7457657"><ele>675.0</ele><time>2026-04-12T11:09:26.089Z</time></trkpt><trkpt lat="45.997661" lon="11.7458789"><ele>675.0</ele><time>2026-04-12T11:09:27.088Z</time></trkpt><trkpt lat="45.9976063" lon="11.7459947"><ele>675.0</ele><time>2026-04-12T11:09:28.088Z</time></trkpt><trkpt lat="45.9975517" lon="11.7461142"><ele>675.0</ele><time>2026-04-12T11:09:29.088Z</time></trkpt><trkpt lat="45.9975003" lon="11.7462381"><ele>675.0</ele><time>2026-04-12T11:09:30.088Z</time></trkpt><trkpt lat="45.9974459" lon="11.7463599"><ele>676.6</ele><time>2026-04-12T11:09:31.088Z</time></trkpt><trkpt lat="45.9973907" lon="11.7464783"><ele>678.2</ele><time>2026-04-12T11:09:32.088Z</time></trkpt><trkpt lat="45.9973324" lon="11.7466017"><ele>679.8</ele><time>2026-04-12T11:09:33.088Z</time></trkpt><trkpt lat="45.9972785" lon="11.746726"><ele>681.4</ele><time>2026-04-12T11:09:34.088Z</time></trkpt><trkpt lat="45.9972472" lon="11.7468504"><ele>683.0</ele><time>2026-04-12T11:09:35.088Z</time></trkpt><trkpt lat="45.997236" lon="11.746961"><ele>683.0</ele><time>2026-04-12T11:09:36.088Z</time></trkpt><trkpt lat="45.9972276" lon="11.7470555"><ele>683.0</ele><time>2026-04-12T11:09:37.089Z</time></trkpt><trkpt lat="45.9971424" lon="11.7471641"><ele>683.0</ele><time>2026-04-12T11:09:39.088Z</time></trkpt><trkpt lat="45.9970683" lon="11.7471614"><ele>683.0</ele><time>2026-04-12T11:09:40.088Z</time></trkpt><trkpt lat="45.9969772" lon="11.7471087"><ele>683.0</ele><time>2026-04-12T11:09:41.088Z</time></trkpt><trkpt lat="45.9969019" lon="11.7470327"><ele>683.0</ele><time>2026-04-12T11:09:42.089Z</time></trkpt><trkpt lat="45.9968335" lon="11.7469671"><ele>683.0</ele><time>2026-04-12T11:09:43.088Z</time></trkpt><trkpt lat="45.9967602" lon="11.7469178"><ele>683.0</ele><time>2026-04-12T11:09:44.089Z</time></trkpt><trkpt lat="45.996685" lon="11.7468921"><ele>683.0</ele><time>2026-04-12T11:09:45.088Z</time></trkpt><trkpt lat="45.9966021" lon="11.7468949"><ele>683.0</ele><time>2026-04-12T11:09:46.088Z</time></trkpt><trkpt lat="45.9965179" lon="11.7469241"><ele>683.0</ele><time>2026-04-12T11:09:47.088Z</time></trkpt><trkpt lat="45.9964433" lon="11.7469705"><ele>683.0</ele><time>2026-04-12T11:09:48.09Z</time></trkpt><trkpt lat="45.9963673" lon="11.7470304"><ele>681.5</ele><time>2026-04-12T11:09:49.088Z</time></trkpt><trkpt lat="45.9962876" lon="11.7470886"><ele>680.0</ele><time>2026-04-12T11:09:50.088Z</time></trkpt><trkpt lat="45.9962057" lon="11.7471471"><ele>678.5</ele><time>2026-04-12T11:09:51.089Z</time></trkpt><trkpt lat="45.996126" lon="11.7472041"><ele>677.0</ele><time>2026-04-12T11:09:52.088Z</time></trkpt><trkpt lat="45.9960509" lon="11.7472741"><ele>675.5</ele><time>2026-04-12T11:09:53.089Z</time></trkpt><trkpt lat="45.9959847" lon="11.7473572"><ele>674.0</ele><time>2026-04-12T11:09:54.089Z</time></trkpt><trkpt lat="45.9959194" lon="11.7474528"><ele>674.0</ele><time>2026-04-12T11:09:55.089Z</time></trkpt><trkpt lat="45.9958611" lon="11.7475524"><ele>674.0</ele><time>2026-04-12T11:09:56.088Z</time></trkpt><trkpt lat="45.9958001" lon="11.7476525"><ele>674.0</ele><time>2026-04-12T11:09:57.089Z</time></trkpt><trkpt lat="45.9957324" lon="11.7477598"><ele>674.0</ele><time>2026-04-12T11:09:58.089Z</time></trkpt><trkpt lat="45.9956656" lon="11.7478652"><ele>674.0</ele><time>2026-04-12T11:09:59.089Z</time></trkpt><trkpt lat="45.9956035" lon="11.7479631"><ele>674.0</ele><time>2026-04-12T11:10:00.089Z</time></trkpt><trkpt lat="45.9955479" lon="11.7480644"><ele>674.0</ele><time>2026-04-12T11:10:01.089Z</time></trkpt><trkpt lat="45.9954988" lon="11.7481708"><ele>674.0</ele><time>2026-04-12T11:10:02.089Z</time></trkpt><trkpt lat="45.9954529" lon="11.748278"><ele>674.0</ele><time>2026-04-12T11:10:03.088Z</time></trkpt><trkpt lat="45.9954044" lon="11.7483876"><ele>674.0</ele><time>2026-04-12T11:10:04.088Z</time></trkpt><trkpt lat="45.9953575" lon="11.7484975"><ele>674.0</ele><time>2026-04-12T11:10:05.09Z</time></trkpt><trkpt lat="45.9953129" lon="11.7486072"><ele>677.0</ele><time>2026-04-12T11:10:06.089Z</time></trkpt><trkpt lat="45.9952682" lon="11.7487127"><ele>680.0</ele><time>2026-04-12T11:10:07.089Z</time></trkpt><trkpt lat="45.995223" lon="11.7488169"><ele>683.0</ele><time>2026-04-12T11:10:08.089Z</time></trkpt><trkpt lat="45.9951778" lon="11.748932"><ele>686.0</ele><time>2026-04-12T11:10:09.09Z</time></trkpt><trkpt lat="45.9951386" lon="11.7490486"><ele>689.0</ele><time>2026-04-12T11:10:10.089Z</time></trkpt><trkpt lat="45.9951049" lon="11.7491722"><ele>692.0</ele><time>2026-04-12T11:10:11.089Z</time></trkpt><trkpt lat="45.9950806" lon="11.7492992"><ele>692.8333333333333</ele><time>2026-04-12T11:10:12.09Z</time></trkpt><trkpt lat="45.9950644" lon="11.7494278"><ele>693.6666666666666</ele><time>2026-04-12T11:10:13.09Z</time></trkpt><trkpt lat="45.9950542" lon="11.7495572"><ele>694.5</ele><time>2026-04-12T11:10:14.089Z</time></trkpt><trkpt lat="45.9950485" lon="11.7496842"><ele>695.3333333333334</ele><time>2026-04-12T11:10:15.089Z</time></trkpt><trkpt lat="45.9950467" lon="11.7498108"><ele>696.1666666666667</ele><time>2026-04-12T11:10:16.089Z</time></trkpt><trkpt lat="45.9950482" lon="11.749939"><ele>697.0</ele><time>2026-04-12T11:10:17.089Z</time></trkpt><trkpt lat="45.9950506" lon="11.7500659"><ele>697.0</ele><time>2026-04-12T11:10:18.089Z</time></trkpt><trkpt lat="45.9950513" lon="11.7501892"><ele>697.0</ele><time>2026-04-12T11:10:19.089Z</time></trkpt><trkpt lat="45.9950437" lon="11.7503121"><ele>697.0</ele><time>2026-04-12T11:10:20.089Z</time></trkpt><trkpt lat="45.9950187" lon="11.7504329"><ele>697.0</ele><time>2026-04-12T11:10:21.089Z</time></trkpt><trkpt lat="45.994975" lon="11.7505448"><ele>697.0</ele><time>2026-04-12T11:10:22.089Z</time></trkpt><trkpt lat="45.9949196" lon="11.7506482"><ele>697.0</ele><time>2026-04-12T11:10:23.089Z</time></trkpt><trkpt lat="45.9948577" lon="11.7507455"><ele>688.2</ele><time>2026-04-12T11:10:24.089Z</time></trkpt><trkpt lat="45.9948011" lon="11.7508505"><ele>679.4000000000001</ele><time>2026-04-12T11:10:25.09Z</time></trkpt><trkpt lat="45.9947575" lon="11.750965"><ele>670.5999999999999</ele><time>2026-04-12T11:10:26.089Z</time></trkpt><trkpt lat="45.9947223" lon="11.7510925"><ele>661.8</ele><time>2026-04-12T11:10:27.089Z</time></trkpt><trkpt lat="45.9946915" lon="11.7512255"><ele>653.0</ele><time>2026-04-12T11:10:28.089Z</time></trkpt><trkpt lat="45.9946596" lon="11.7513569"><ele>653.0</ele><time>2026-04-12T11:10:29.089Z</time></trkpt><trkpt lat="45.9946305" lon="11.7514989"><ele>653.0</ele><time>2026-04-12T11:10:30.09Z</time></trkpt><trkpt lat="45.9945987" lon="11.7516325"><ele>653.0</ele><time>2026-04-12T11:10:31.089Z</time></trkpt><trkpt lat="45.9945661" lon="11.7517686"><ele>653.0</ele><time>2026-04-12T11:10:32.089Z</time></trkpt><trkpt lat="45.9945362" lon="11.7519064"><ele>653.0</ele><time>2026-04-12T11:10:33.089Z</time></trkpt><trkpt lat="45.9945091" lon="11.7520428"><ele>653.5999999999999</ele><time>2026-04-12T11:10:34.089Z</time></trkpt><trkpt lat="45.994484" lon="11.752177"><ele>654.1999999999999</ele><time>2026-04-12T11:10:35.09Z</time></trkpt><trkpt lat="45.994459" lon="11.7523136"><ele>654.8</ele><time>2026-04-12T11:10:36.089Z</time></trkpt><trkpt lat="45.9944368" lon="11.752452"><ele>655.4</ele><time>2026-04-12T11:10:37.089Z</time></trkpt><trkpt lat="45.9944197" lon="11.7525893"><ele>656.0</ele><time>2026-04-12T11:10:38.09Z</time></trkpt><trkpt lat="45.9944051" lon="11.7527245"><ele>656.1999999999999</ele><time>2026-04-12T11:10:39.089Z</time></trkpt><trkpt lat="45.9943912" lon="11.7528544"><ele>656.4</ele><time>2026-04-12T11:10:40.089Z</time></trkpt><trkpt lat="45.9943775" lon="11.7529872"><ele>656.6</ele><time>2026-04-12T11:10:41.09Z</time></trkpt><trkpt lat="45.9943657" lon="11.7531243"><ele>656.8</ele><time>2026-04-12T11:10:42.089Z</time></trkpt><trkpt lat="45.9943567" lon="11.753268"><ele>657.0</ele><time>2026-04-12T11:10:43.089Z</time></trkpt><trkpt lat="45.9943569" lon="11.7534153"><ele>655.2</ele><time>2026-04-12T11:10:44.09Z</time></trkpt><trkpt lat="45.9943624" lon="11.7535589"><ele>653.4000000000001</ele><time>2026-04-12T11:10:45.089Z</time></trkpt><trkpt lat="45.99437" lon="11.7537025"><ele>651.5999999999999</ele><time>2026-04-12T11:10:46.089Z</time></trkpt><trkpt lat="45.9943758" lon="11.7538509"><ele>649.8</ele><time>2026-04-12T11:10:47.089Z</time></trkpt><trkpt lat="45.9943824" lon="11.7540039"><ele>648.0</ele><time>2026-04-12T11:10:48.089Z</time></trkpt><trkpt lat="45.9943851" lon="11.7541563"><ele>648.0</ele><time>2026-04-12T11:10:49.089Z</time></trkpt><trkpt lat="45.9943846" lon="11.7543058"><ele>648.0</ele><time>2026-04-12T11:10:50.089Z</time></trkpt><trkpt lat="45.9943889" lon="11.7544559"><ele>648.0</ele><time>2026-04-12T11:10:51.089Z</time></trkpt><trkpt lat="45.9944045" lon="11.7546022"><ele>648.0</ele><time>2026-04-12T11:10:52.089Z</time></trkpt><trkpt lat="45.994432" lon="11.7547455"><ele>648.0</ele><time>2026-04-12T11:10:53.09Z</time></trkpt><trkpt lat="45.9944525" lon="11.7548889"><ele>646.8</ele><time>2026-04-12T11:10:54.089Z</time></trkpt><trkpt lat="45.9944458" lon="11.755029"><ele>645.5999999999999</ele><time>2026-04-12T11:10:55.09Z</time></trkpt><trkpt lat="45.9944189" lon="11.755157"><ele>644.4000000000001</ele><time>2026-04-12T11:10:56.089Z</time></trkpt><trkpt lat="45.9944093" lon="11.7552528"><ele>643.2</ele><time>2026-04-12T11:10:57.089Z</time></trkpt><trkpt lat="45.9944283" lon="11.7554079"><ele>642.0</ele><time>2026-04-12T11:10:59.089Z</time></trkpt><trkpt lat="45.9944271" lon="11.7555449"><ele>642.0</ele><time>2026-04-12T11:11:01.089Z</time></trkpt><trkpt lat="45.9943683" lon="11.7556266"><ele>642.0</ele><time>2026-04-12T11:11:03.089Z</time></trkpt><trkpt lat="45.9942641" lon="11.7556726"><ele>642.0</ele><time>2026-04-12T11:11:05.089Z</time></trkpt><trkpt lat="45.9942058" lon="11.7557169"><ele>642.0</ele><time>2026-04-12T11:11:06.089Z</time></trkpt><trkpt lat="45.9941538" lon="11.7558194"><ele>642.0</ele><time>2026-04-12T11:11:08.089Z</time></trkpt><trkpt lat="45.9941554" lon="11.7559579"><ele>642.0</ele><time>2026-04-12T11:11:10.089Z</time></trkpt><trkpt lat="45.9941554" lon="11.7560961"><ele>635.2</ele><time>2026-04-12T11:11:12.091Z</time></trkpt><trkpt lat="45.994145" lon="11.7562534"><ele>628.4000000000001</ele><time>2026-04-12T11:11:14.09Z</time></trkpt><trkpt lat="45.9941327" lon="11.7564275"><ele>621.5999999999999</ele><time>2026-04-12T11:11:16.09Z</time></trkpt><trkpt lat="45.9941209" lon="11.756612"><ele>614.8</ele><time>2026-04-12T11:11:18.09Z</time></trkpt><trkpt lat="45.9941176" lon="11.7567108"><ele>608.0</ele><time>2026-04-12T11:11:19.09Z</time></trkpt><trkpt lat="45.9941163" lon="11.756806"><ele>606.3333333333333</ele><time>2026-04-12T11:11:20.09Z</time></trkpt><trkpt lat="45.99412" lon="11.7569158"><ele>604.6666666666666</ele><time>2026-04-12T11:11:21.09Z</time></trkpt><trkpt lat="45.9941237" lon="11.7570293"><ele>603.0</ele><time>2026-04-12T11:11:22.09Z</time></trkpt><trkpt lat="45.994127" lon="11.7571328"><ele>601.3333333333334</ele><time>2026-04-12T11:11:23.091Z</time></trkpt><trkpt lat="45.9941321" lon="11.7572649"><ele>599.6666666666667</ele><time>2026-04-12T11:11:25.09Z</time></trkpt><trkpt lat="45.9940393" lon="11.7572133"><ele>598.0</ele><time>2026-04-12T11:11:29.091Z</time></trkpt><trkpt lat="45.9939902" lon="11.7571363"><ele>598.0</ele><time>2026-04-12T11:11:30.091Z</time></trkpt><trkpt lat="45.9939357" lon="11.7570353"><ele>598.0</ele><time>2026-04-12T11:11:31.09Z</time></trkpt><trkpt lat="45.9938892" lon="11.7569266"><ele>598.0</ele><time>2026-04-12T11:11:32.09Z</time></trkpt><trkpt lat="45.9938515" lon="11.7568081"><ele>598.0</ele><time>2026-04-12T11:11:33.09Z</time></trkpt><trkpt lat="45.9938248" lon="11.7566918"><ele>598.0</ele><time>2026-04-12T11:11:34.09Z</time></trkpt><trkpt lat="45.9938003" lon="11.7565774"><ele>598.0</ele><time>2026-04-12T11:11:35.09Z</time></trkpt><trkpt lat="45.9937811" lon="11.7564813"><ele>600.0</ele><time>2026-04-12T11:11:36.09Z</time></trkpt><trkpt lat="45.993751" lon="11.7563171"><ele>602.0</ele><time>2026-04-12T11:11:38.09Z</time></trkpt><trkpt lat="45.9937132" lon="11.7561786"><ele>604.0</ele><time>2026-04-12T11:11:40.09Z</time></trkpt><trkpt lat="45.9936853" lon="11.7560461"><ele>606.0</ele><time>2026-04-12T11:11:42.09Z</time></trkpt><trkpt lat="45.9936636" lon="11.7559228"><ele>608.0</ele><time>2026-04-12T11:11:44.09Z</time></trkpt><trkpt lat="45.9936348" lon="11.7558021"><ele>608.0</ele><time>2026-04-12T11:11:46.09Z</time></trkpt><trkpt lat="45.993628" lon="11.7556484"><ele>608.0</ele><time>2026-04-12T11:11:48.091Z</time></trkpt><trkpt lat="45.9936326" lon="11.7555223"><ele>608.0</ele><time>2026-04-12T11:11:50.09Z</time></trkpt><trkpt lat="45.9936063" lon="11.7554037"><ele>608.0</ele><time>2026-04-12T11:11:52.09Z</time></trkpt><trkpt lat="45.9935895" lon="11.755296"><ele>608.0</ele><time>2026-04-12T11:11:54.09Z</time></trkpt><trkpt lat="45.9936257" lon="11.7551826"><ele>608.0</ele><time>2026-04-12T11:11:57.09Z</time></trkpt><trkpt lat="45.9936928" lon="11.7550942"><ele>607.6</ele><time>2026-04-12T11:11:59.09Z</time></trkpt><trkpt lat="45.9936313" lon="11.7549958"><ele>607.1999999999999</ele><time>2026-04-12T11:12:02.091Z</time></trkpt><trkpt lat="45.9935249" lon="11.7549353"><ele>606.8</ele><time>2026-04-12T11:12:04.092Z</time></trkpt><trkpt lat="45.993456" lon="11.7548948"><ele>606.4</ele><time>2026-04-12T11:12:05.091Z</time></trkpt><trkpt lat="45.9933775" lon="11.7548221"><ele>606.0</ele><time>2026-04-12T11:12:07.09Z</time></trkpt><trkpt lat="45.9933339" lon="11.7546706"><ele>598.4</ele><time>2026-04-12T11:12:09.09Z</time></trkpt><trkpt lat="45.9933064" lon="11.7545527"><ele>590.8</ele><time>2026-04-12T11:12:11.09Z</time></trkpt><trkpt lat="45.993278" lon="11.7543889"><ele>583.1999999999999</ele><time>2026-04-12T11:12:13.092Z</time></trkpt><trkpt lat="45.9932339" lon="11.7542055"><ele>575.6</ele><time>2026-04-12T11:12:15.091Z</time></trkpt><trkpt lat="45.9932006" lon="11.7541028"><ele>568.0</ele><time>2026-04-12T11:12:16.091Z</time></trkpt><trkpt lat="45.9931691" lon="11.7540041"><ele>568.0</ele><time>2026-04-12T11:12:17.091Z</time></trkpt><trkpt lat="45.9931318" lon="11.7538409"><ele>568.0</ele><time>2026-04-12T11:12:19.091Z</time></trkpt><trkpt lat="45.9931253" lon="11.7537294"><ele>568.0</ele><time>2026-04-12T11:12:20.091Z</time></trkpt><trkpt lat="45.9930769" lon="11.7535602"><ele>568.0</ele><time>2026-04-12T11:12:22.091Z</time></trkpt><trkpt lat="45.9930403" lon="11.7534779"><ele>568.0</ele><time>2026-04-12T11:12:23.091Z</time></trkpt><trkpt lat="45.9929984" lon="11.7533943"><ele>568.6666666666667</ele><time>2026-04-12T11:12:24.091Z</time></trkpt><trkpt lat="45.9929529" lon="11.7533082"><ele>569.3333333333334</ele><time>2026-04-12T11:12:25.091Z</time></trkpt><trkpt lat="45.9929037" lon="11.7532125"><ele>570.0</ele><time>2026-04-12T11:12:26.091Z</time></trkpt><trkpt lat="45.9928495" lon="11.7531223"><ele>570.6666666666666</ele><time>2026-04-12T11:12:27.091Z</time></trkpt><trkpt lat="45.9927817" lon="11.7531005"><ele>571.3333333333333</ele><time>2026-04-12T11:12:29.091Z</time></trkpt><trkpt lat="45.9927618" lon="11.753203"><ele>572.0</ele><time>2026-04-12T11:12:32.091Z</time></trkpt><trkpt lat="45.9927805" lon="11.7533165"><ele>572.0</ele><time>2026-04-12T11:12:36.091Z</time></trkpt><trkpt lat="45.9927774" lon="11.7534241"><ele>572.0</ele><time>2026-04-12T11:12:39.091Z</time></trkpt><trkpt lat="45.9927773" lon="11.7535501"><ele>572.0</ele><time>2026-04-12T11:12:41.091Z</time></trkpt><trkpt lat="45.9927633" lon="11.7537149"><ele>572.0</ele><time>2026-04-12T11:12:43.091Z</time></trkpt><trkpt lat="45.9927531" lon="11.7538103"><ele>572.0</ele><time>2026-04-12T11:12:44.091Z</time></trkpt><trkpt lat="45.9927436" lon="11.7539086"><ele>572.0</ele><time>2026-04-12T11:12:45.091Z</time></trkpt><trkpt lat="45.9927341" lon="11.7540083"><ele>571.3333333333333</ele><time>2026-04-12T11:12:46.091Z</time></trkpt><trkpt lat="45.9927216" lon="11.754106"><ele>570.6666666666666</ele><time>2026-04-12T11:12:47.091Z</time></trkpt><trkpt lat="45.9927009" lon="11.7542016"><ele>570.0</ele><time>2026-04-12T11:12:48.091Z</time></trkpt><trkpt lat="45.992671" lon="11.7542886"><ele>569.3333333333334</ele><time>2026-04-12T11:12:49.091Z</time></trkpt><trkpt lat="45.9925821" lon="11.7543946"><ele>568.6666666666667</ele><time>2026-04-12T11:12:51.091Z</time></trkpt><trkpt lat="45.9925217" lon="11.7544228"><ele>568.0</ele><time>2026-04-12T11:12:52.091Z</time></trkpt><trkpt lat="45.9924624" lon="11.7544635"><ele>562.8333333333334</ele><time>2026-04-12T11:12:53.091Z</time></trkpt><trkpt lat="45.992409" lon="11.754538"><ele>557.6666666666667</ele><time>2026-04-12T11:12:54.091Z</time></trkpt><trkpt lat="45.9923756" lon="11.7546385"><ele>552.5</ele><time>2026-04-12T11:12:55.091Z</time></trkpt><trkpt lat="45.9923648" lon="11.7547516"><ele>547.3333333333334</ele><time>2026-04-12T11:12:56.091Z</time></trkpt><trkpt lat="45.9923727" lon="11.7548602"><ele>542.1666666666666</ele><time>2026-04-12T11:12:57.092Z</time></trkpt><trkpt lat="45.9923879" lon="11.7549669"><ele>537.0</ele><time>2026-04-12T11:12:58.092Z</time></trkpt><trkpt lat="45.9924044" lon="11.7550675"><ele>537.0</ele><time>2026-04-12T11:12:59.091Z</time></trkpt><trkpt lat="45.9924171" lon="11.7551647"><ele>537.0</ele><time>2026-04-12T11:13:00.092Z</time></trkpt><trkpt lat="45.9924185" lon="11.7552968"><ele>537.0</ele><time>2026-04-12T11:13:02.091Z</time></trkpt><trkpt lat="45.9923503" lon="11.755361"><ele>537.0</ele><time>2026-04-12T11:13:04.092Z</time></trkpt><trkpt lat="45.9922917" lon="11.7554404"><ele>537.0</ele><time>2026-04-12T11:13:07.092Z</time></trkpt><trkpt lat="45.9922871" lon="11.7555308"><ele>537.0</ele><time>2026-04-12T11:13:09.092Z</time></trkpt><trkpt lat="45.9922993" lon="11.7556254"><ele>537.1428571428571</ele><time>2026-04-12T11:13:11.092Z</time></trkpt><trkpt lat="45.992322" lon="11.7557208"><ele>537.2857142857142</ele><time>2026-04-12T11:13:13.092Z</time></trkpt><trkpt lat="45.9923439" lon="11.7558081"><ele>537.4285714285714</ele><time>2026-04-12T11:13:15.092Z</time></trkpt><trkpt lat="45.9923566" lon="11.7559364"><ele>537.5714285714286</ele><time>2026-04-12T11:13:18.092Z</time></trkpt><trkpt lat="45.9923745" lon="11.7560611"><ele>537.7142857142858</ele><time>2026-04-12T11:13:21.092Z</time></trkpt><trkpt lat="45.992387" lon="11.7561501"><ele>537.8571428571429</ele><time>2026-04-12T11:13:23.092Z</time></trkpt><trkpt lat="45.9923994" lon="11.7562395"><ele>538.0</ele><time>2026-04-12T11:13:25.092Z</time></trkpt><trkpt lat="45.9924066" lon="11.7563637"><ele>538.6</ele><time>2026-04-12T11:13:28.092Z</time></trkpt><trkpt lat="45.9924049" lon="11.7564927"><ele>539.1999999999999</ele><time>2026-04-12T11:13:31.093Z</time></trkpt><trkpt lat="45.9923846" lon="11.7566135"><ele>539.8</ele><time>2026-04-12T11:13:34.092Z</time></trkpt><trkpt lat="45.9923544" lon="11.7567369"><ele>540.4</ele><time>2026-04-12T11:13:37.093Z</time></trkpt><trkpt lat="45.9923258" lon="11.7568663"><ele>541.0</ele><time>2026-04-12T11:13:40.092Z</time></trkpt><trkpt lat="45.9922954" lon="11.7569911"><ele>541.5714285714287</ele><time>2026-04-12T11:13:43.093Z</time></trkpt><trkpt lat="45.9922625" lon="11.757118"><ele>542.1428571428571</ele><time>2026-04-12T11:13:46.092Z</time></trkpt><trkpt lat="45.992237" lon="11.757223"><ele>542.7142857142858</ele><time>2026-04-12T11:13:52.092Z</time></trkpt><trkpt lat="45.9922091" lon="11.7573084"><ele>543.2857142857143</ele><time>2026-04-12T11:13:57.092Z</time></trkpt><trkpt lat="45.9922704" lon="11.7572506"><ele>543.8571428571429</ele><time>2026-04-12T11:14:03.092Z</time></trkpt><trkpt lat="45.9922982" lon="11.7571678"><ele>544.4285714285714</ele><time>2026-04-12T11:14:06.094Z</time></trkpt><trkpt lat="45.9922831" lon="11.7570703"><ele>545.0</ele><time>2026-04-12T11:16:09.095Z</time></trkpt><trkpt lat="45.9922697" lon="11.7571643"><ele>545.0</ele><time>2026-04-12T11:16:14.094Z</time></trkpt><trkpt lat="45.992248" lon="11.7572633"><ele>545.0</ele><time>2026-04-12T11:17:45.096Z</time></trkpt><trkpt lat="45.992217" lon="11.7573582"><ele>545.0</ele><time>2026-04-12T11:17:49.096Z</time></trkpt><trkpt lat="45.9921893" lon="11.7574537"><ele>545.0</ele><time>2026-04-12T11:17:53.096Z</time></trkpt><trkpt lat="45.9921673" lon="11.7575413"><ele>545.0</ele><time>2026-04-12T11:17:57.096Z</time></trkpt><trkpt lat="45.992165" lon="11.7576457"><ele>545.0</ele><time>2026-04-12T11:18:01.096Z</time></trkpt><trkpt lat="45.9921297" lon="11.757743"><ele>545.0</ele><time>2026-04-12T11:18:04.096Z</time></trkpt><trkpt lat="45.9921049" lon="11.757834"><ele>545.0</ele><time>2026-04-12T11:18:07.098Z</time></trkpt><trkpt lat="45.9920691" lon="11.7579149"><ele>545.0</ele><time>2026-04-12T11:20:21.098Z</time></trkpt><trkpt lat="45.9920439" lon="11.7578272"><ele>545.0</ele><time>2026-04-12T11:20:25.099Z</time></trkpt><trkpt lat="45.9919762" lon="11.7577574"><ele>545.0</ele><time>2026-04-12T11:20:28.098Z</time></trkpt><trkpt lat="45.9919042" lon="11.757667"><ele>545.0</ele><time>2026-04-12T11:20:31.099Z</time></trkpt><trkpt lat="45.9918299" lon="11.7576293"><ele>545.0</ele><time>2026-04-12T11:20:33.1Z</time></trkpt><trkpt lat="45.9917251" lon="11.7576105"><ele>543.6</ele><time>2026-04-12T11:20:35.099Z</time></trkpt><trkpt lat="45.9916026" lon="11.7576049"><ele>542.2</ele><time>2026-04-12T11:20:37.099Z</time></trkpt><trkpt lat="45.9914866" lon="11.7576029"><ele>540.8</ele><time>2026-04-12T11:20:39.098Z</time></trkpt><trkpt lat="45.9913815" lon="11.7575841"><ele>539.4</ele><time>2026-04-12T11:20:41.098Z</time></trkpt><trkpt lat="45.9912813" lon="11.75756"><ele>538.0</ele><time>2026-04-12T11:20:43.098Z</time></trkpt><trkpt lat="45.9911954" lon="11.75753"><ele>538.0</ele><time>2026-04-12T11:20:45.099Z</time></trkpt><trkpt lat="45.9911136" lon="11.7574937"><ele>538.0</ele><time>2026-04-12T11:20:47.099Z</time></trkpt><trkpt lat="45.9910404" lon="11.7574373"><ele>538.0</ele><time>2026-04-12T11:20:49.099Z</time></trkpt><trkpt lat="45.9909846" lon="11.7573946"><ele>538.0</ele><time>2026-04-12T11:20:51.099Z</time></trkpt><trkpt lat="45.9908909" lon="11.7573512"><ele>538.0</ele><time>2026-04-12T11:20:53.1Z</time></trkpt><trkpt lat="45.9908117" lon="11.7573395"><ele>538.0</ele><time>2026-04-12T11:20:55.099Z</time></trkpt><trkpt lat="45.9907298" lon="11.7573687"><ele>537.8</ele><time>2026-04-12T11:21:00.099Z</time></trkpt><trkpt lat="45.9906393" lon="11.7574156"><ele>537.5999999999999</ele><time>2026-04-12T11:21:04.099Z</time></trkpt><trkpt lat="45.9905375" lon="11.7574538"><ele>537.4000000000001</ele><time>2026-04-12T11:21:06.099Z</time></trkpt><trkpt lat="45.9904623" lon="11.7574949"><ele>537.2</ele><time>2026-04-12T11:21:07.099Z</time></trkpt><trkpt lat="45.9903876" lon="11.757547"><ele>537.0</ele><time>2026-04-12T11:21:08.099Z</time></trkpt><trkpt lat="45.9903079" lon="11.757603"><ele>537.0</ele><time>2026-04-12T11:21:09.099Z</time></trkpt><trkpt lat="45.9902426" lon="11.7576406"><ele>537.0</ele><time>2026-04-12T11:21:10.099Z</time></trkpt><trkpt lat="45.9901314" lon="11.7576611"><ele>537.0</ele><time>2026-04-12T11:21:12.1Z</time></trkpt><trkpt lat="45.9900384" lon="11.7575831"><ele>537.0</ele><time>2026-04-12T11:21:14.099Z</time></trkpt><trkpt lat="45.9899937" lon="11.757501"><ele>537.0</ele><time>2026-04-12T11:21:15.099Z</time></trkpt><trkpt lat="45.9899446" lon="11.757391"><ele>533.0</ele><time>2026-04-12T11:21:16.1Z</time></trkpt><trkpt lat="45.989901" lon="11.7572851"><ele>529.0</ele><time>2026-04-12T11:21:17.101Z</time></trkpt><trkpt lat="45.9898602" lon="11.75717"><ele>525.0</ele><time>2026-04-12T11:21:18.1Z</time></trkpt><trkpt lat="45.9898182" lon="11.7570252"><ele>521.0</ele><time>2026-04-12T11:21:19.1Z</time></trkpt><trkpt lat="45.98978" lon="11.7568838"><ele>517.0</ele><time>2026-04-12T11:21:20.099Z</time></trkpt><trkpt lat="45.9897335" lon="11.7567756"><ele>515.3333333333334</ele><time>2026-04-12T11:21:21.099Z</time></trkpt><trkpt lat="45.9896682" lon="11.7567179"><ele>513.6666666666667</ele><time>2026-04-12T11:21:22.099Z</time></trkpt><trkpt lat="45.9895887" lon="11.7566881"><ele>512.0</ele><time>2026-04-12T11:21:23.1Z</time></trkpt><trkpt lat="45.9895019" lon="11.7566682"><ele>510.33333333333337</ele><time>2026-04-12T11:21:24.099Z</time></trkpt><trkpt lat="45.9894228" lon="11.7566715"><ele>508.6666666666667</ele><time>2026-04-12T11:21:25.1Z</time></trkpt><trkpt lat="45.9893517" lon="11.7566944"><ele>507.0</ele><time>2026-04-12T11:21:26.099Z</time></trkpt><trkpt lat="45.9892799" lon="11.7567412"><ele>507.0</ele><time>2026-04-12T11:21:27.1Z</time></trkpt><trkpt lat="45.9891917" lon="11.756802"><ele>507.00000000000006</ele><time>2026-04-12T11:21:28.1Z</time></trkpt><trkpt lat="45.9891016" lon="11.7568668"><ele>507.00000000000006</ele><time>2026-04-12T11:21:29.099Z</time></trkpt><trkpt lat="45.989009" lon="11.7569288"><ele>507.0</ele><time>2026-04-12T11:21:30.101Z</time></trkpt><trkpt lat="45.9889083" lon="11.756983"><ele>507.0</ele><time>2026-04-12T11:21:31.099Z</time></trkpt><trkpt lat="45.9888245" lon="11.756991"><ele>505.6666666666667</ele><time>2026-04-12T11:21:32.099Z</time></trkpt><trkpt lat="45.9887443" lon="11.7569758"><ele>504.33333333333337</ele><time>2026-04-12T11:21:33.099Z</time></trkpt><trkpt lat="45.9886567" lon="11.7569899"><ele>503.0</ele><time>2026-04-12T11:21:35.1Z</time></trkpt><trkpt lat="45.9886194" lon="11.7570843"><ele>501.6666666666667</ele><time>2026-04-12T11:21:39.099Z</time></trkpt><trkpt lat="45.988591" lon="11.7571812"><ele>500.33333333333337</ele><time>2026-04-12T11:21:42.099Z</time></trkpt><trkpt lat="45.9885787" lon="11.7573192"><ele>499.0</ele><time>2026-04-12T11:21:45.1Z</time></trkpt><trkpt lat="45.9885625" lon="11.7574327"><ele>499.00000000000006</ele><time>2026-04-12T11:21:47.1Z</time></trkpt><trkpt lat="45.9885337" lon="11.7575405"><ele>499.0</ele><time>2026-04-12T11:21:49.099Z</time></trkpt><trkpt lat="45.9884844" lon="11.7576154"><ele>499.0</ele><time>2026-04-12T11:21:51.1Z</time></trkpt><trkpt lat="45.9884191" lon="11.7576748"><ele>499.0</ele><time>2026-04-12T11:21:53.101Z</time></trkpt><trkpt lat="45.9883488" lon="11.7577333"><ele>499.00000000000006</ele><time>2026-04-12T11:21:55.1Z</time></trkpt><trkpt lat="45.9882697" lon="11.7578146"><ele>499.0</ele><time>2026-04-12T11:21:57.1Z</time></trkpt><trkpt lat="45.9882107" lon="11.7579607"><ele>496.6666666666667</ele><time>2026-04-12T11:21:59.101Z</time></trkpt><trkpt lat="45.988194" lon="11.7580636"><ele>494.33333333333337</ele><time>2026-04-12T11:22:00.1Z</time></trkpt><trkpt lat="45.9881859" lon="11.7581734"><ele>492.0</ele><time>2026-04-12T11:22:01.1Z</time></trkpt><trkpt lat="45.9881726" lon="11.7582886"><ele>489.66666666666663</ele><time>2026-04-12T11:22:02.1Z</time></trkpt><trkpt lat="45.9881576" lon="11.7584259"><ele>487.3333333333333</ele><time>2026-04-12T11:22:03.1Z</time></trkpt><trkpt lat="45.9881401" lon="11.7585662"><ele>485.0</ele><time>2026-04-12T11:22:04.1Z</time></trkpt><trkpt lat="45.9881218" lon="11.7587163"><ele>484.49999999999994</ele><time>2026-04-12T11:22:05.1Z</time></trkpt><trkpt lat="45.9881031" lon="11.7588559"><ele>484.0</ele><time>2026-04-12T11:22:06.1Z</time></trkpt><trkpt lat="45.9880867" lon="11.758984"><ele>483.5</ele><time>2026-04-12T11:22:07.1Z</time></trkpt><trkpt lat="45.9880725" lon="11.7590853"><ele>483.0</ele><time>2026-04-12T11:22:08.101Z</time></trkpt><trkpt lat="45.9880521" lon="11.7592216"><ele>482.49999999999994</ele><time>2026-04-12T11:22:10.1Z</time></trkpt><trkpt lat="45.9880343" lon="11.7593228"><ele>482.0</ele><time>2026-04-12T11:22:32.101Z</time></trkpt><trkpt lat="45.9879703" lon="11.7593028"><ele>481.99999999999994</ele><time>2026-04-12T11:22:58.102Z</time></trkpt><trkpt lat="45.9878722" lon="11.7593178"><ele>482.0</ele><time>2026-04-12T11:23:00.101Z</time></trkpt><trkpt lat="45.9878049" lon="11.759365"><ele>482.0</ele><time>2026-04-12T11:23:03.101Z</time></trkpt><trkpt lat="45.9877638" lon="11.7594629"><ele>482.0</ele><time>2026-04-12T11:23:05.102Z</time></trkpt><trkpt lat="45.9877301" lon="11.7595508"><ele>481.99999999999994</ele><time>2026-04-12T11:23:07.101Z</time></trkpt><trkpt lat="45.9876983" lon="11.7596306"><ele>482.0</ele><time>2026-04-12T11:23:10.101Z</time></trkpt><trkpt lat="45.9876138" lon="11.7595656"><ele>482.16666666666663</ele><time>2026-04-12T11:23:12.101Z</time></trkpt><trkpt lat="45.9875492" lon="11.7595048"><ele>482.3333333333333</ele><time>2026-04-12T11:23:13.101Z</time></trkpt><trkpt lat="45.9874918" lon="11.7594417"><ele>482.5</ele><time>2026-04-12T11:23:14.101Z</time></trkpt><trkpt lat="45.9874291" lon="11.7593623"><ele>482.66666666666663</ele><time>2026-04-12T11:23:16.101Z</time></trkpt><trkpt lat="45.9873671" lon="11.7593945"><ele>482.8333333333333</ele><time>2026-04-12T11:23:18.101Z</time></trkpt><trkpt lat="45.9872833" lon="11.7593251"><ele>483.0</ele><time>2026-04-12T11:23:21.101Z</time></trkpt><trkpt lat="45.9872113" lon="11.7593574"><ele>481.0</ele><time>2026-04-12T11:23:24.101Z</time></trkpt><trkpt lat="45.9871329" lon="11.7593943"><ele>478.99999999999994</ele><time>2026-04-12T11:23:28.101Z</time></trkpt><trkpt lat="45.9870649" lon="11.7593706"><ele>476.99999999999994</ele><time>2026-04-12T11:23:30.101Z</time></trkpt><trkpt lat="45.9869812" lon="11.759285"><ele>475.0</ele><time>2026-04-12T11:23:32.101Z</time></trkpt><trkpt lat="45.986899" lon="11.7591706"><ele>473.0</ele><time>2026-04-12T11:23:34.102Z</time></trkpt><trkpt lat="45.9868099" lon="11.7590844"><ele>471.2</ele><time>2026-04-12T11:23:36.101Z</time></trkpt><trkpt lat="45.9867272" lon="11.7589944"><ele>469.4</ele><time>2026-04-12T11:23:38.101Z</time></trkpt><trkpt lat="45.9866188" lon="11.7588982"><ele>467.59999999999997</ele><time>2026-04-12T11:23:40.101Z</time></trkpt><trkpt lat="45.9865576" lon="11.7588502"><ele>465.79999999999995</ele><time>2026-04-12T11:23:41.102Z</time></trkpt><trkpt lat="45.9864864" lon="11.7588132"><ele>464.0</ele><time>2026-04-12T11:23:42.102Z</time></trkpt><trkpt lat="45.9863996" lon="11.758782"><ele>461.00000000000006</ele><time>2026-04-12T11:23:44.101Z</time></trkpt><trkpt lat="45.9864435" lon="11.758691"><ele>458.0</ele><time>2026-04-12T11:23:49.101Z</time></trkpt><trkpt lat="45.9863818" lon="11.7586306"><ele>455.0</ele><time>2026-04-12T11:23:53.102Z</time></trkpt><trkpt lat="45.9863326" lon="11.758568"><ele>452.0</ele><time>2026-04-12T11:23:55.102Z</time></trkpt><trkpt lat="45.9862897" lon="11.7584966"><ele>449.0</ele><time>2026-04-12T11:23:57.103Z</time></trkpt><trkpt lat="45.9862198" lon="11.7584541"><ele>446.0</ele><time>2026-04-12T11:23:59.102Z</time></trkpt><trkpt lat="45.9861479" lon="11.7584373"><ele>443.0</ele><time>2026-04-12T11:24:01.102Z</time></trkpt><trkpt lat="45.9860757" lon="11.7584193"><ele>439.3333333333333</ele><time>2026-04-12T11:24:04.102Z</time></trkpt><trkpt lat="45.9860818" lon="11.7583283"><ele>435.66666666666663</ele><time>2026-04-12T11:24:17.102Z</time></trkpt><trkpt lat="45.9860187" lon="11.7582987"><ele>432.0</ele><time>2026-04-12T11:24:19.102Z</time></trkpt><trkpt lat="45.9859421" lon="11.7582455"><ele>428.33333333333337</ele><time>2026-04-12T11:24:22.102Z</time></trkpt><trkpt lat="45.9859375" lon="11.7581297"><ele>424.6666666666667</ele><time>2026-04-12T11:24:29.102Z</time></trkpt><trkpt lat="45.9858563" lon="11.7580907"><ele>421.0</ele><time>2026-04-12T11:24:32.102Z</time></trkpt><trkpt lat="45.9859072" lon="11.7580163"><ele>421.0</ele><time>2026-04-12T11:24:40.103Z</time></trkpt><trkpt lat="45.9858759" lon="11.757935"><ele>421.0</ele><time>2026-04-12T11:24:45.102Z</time></trkpt><trkpt lat="45.9858168" lon="11.7578938"><ele>421.0</ele><time>2026-04-12T11:24:47.103Z</time></trkpt><trkpt lat="45.9856651" lon="11.7577569"><ele>421.0</ele><time>2026-04-12T11:25:00.104Z</time></trkpt><trkpt lat="45.985591" lon="11.7577022"><ele>421.0</ele><time>2026-04-12T11:25:02.103Z</time></trkpt><trkpt lat="45.985526" lon="11.7576884"><ele>412.8</ele><time>2026-04-12T11:25:05.103Z</time></trkpt><trkpt lat="45.985462" lon="11.7577094"><ele>404.6</ele><time>2026-04-12T11:25:38.103Z</time></trkpt><trkpt lat="45.9853771" lon="11.7576216"><ele>396.4</ele><time>2026-04-12T11:25:40.103Z</time></trkpt><trkpt lat="45.9853018" lon="11.757502"><ele>388.2</ele><time>2026-04-12T11:25:42.103Z</time></trkpt><trkpt lat="45.9852502" lon="11.7574214"><ele>380.0</ele><time>2026-04-12T11:25:44.103Z</time></trkpt><trkpt lat="45.9851752" lon="11.7573364"><ele>376.8</ele><time>2026-04-12T11:25:47.103Z</time></trkpt><trkpt lat="45.9850739" lon="11.7572368"><ele>373.6</ele><time>2026-04-12T11:25:49.104Z</time></trkpt><trkpt lat="45.9850037" lon="11.7571692"><ele>370.4</ele><time>2026-04-12T11:25:50.103Z</time></trkpt><trkpt lat="45.9849285" lon="11.7570921"><ele>367.2</ele><time>2026-04-12T11:25:51.104Z</time></trkpt><trkpt lat="45.9848477" lon="11.7570064"><ele>364.0</ele><time>2026-04-12T11:25:52.104Z</time></trkpt><trkpt lat="45.9847649" lon="11.7569307"><ele>358.2</ele><time>2026-04-12T11:25:53.104Z</time></trkpt><trkpt lat="45.9847035" lon="11.7568834"><ele>352.4</ele><time>2026-04-12T11:25:54.104Z</time></trkpt><trkpt lat="45.9846233" lon="11.7568681"><ele>346.6</ele><time>2026-04-12T11:25:57.103Z</time></trkpt><trkpt lat="45.9845411" lon="11.756876"><ele>340.8</ele><time>2026-04-12T11:25:59.103Z</time></trkpt><trkpt lat="45.9844316" lon="11.7568976"><ele>335.0</ele><time>2026-04-12T11:26:01.104Z</time></trkpt><trkpt lat="45.9843196" lon="11.7569371"><ele>335.0</ele><time>2026-04-12T11:26:03.104Z</time></trkpt><trkpt lat="45.9842121" lon="11.7569885"><ele>335.0</ele><time>2026-04-12T11:26:05.104Z</time></trkpt><trkpt lat="45.9841136" lon="11.7570465"><ele>335.0</ele><time>2026-04-12T11:26:07.104Z</time></trkpt><trkpt lat="45.9840058" lon="11.757129"><ele>335.0</ele><time>2026-04-12T11:26:09.104Z</time></trkpt><trkpt lat="45.9838993" lon="11.7572184"><ele>332.33333333333337</ele><time>2026-04-12T11:26:11.104Z</time></trkpt><trkpt lat="45.9838455" lon="11.757269"><ele>329.6666666666667</ele><time>2026-04-12T11:26:12.104Z</time></trkpt><trkpt lat="45.9837954" lon="11.7573246"><ele>327.0</ele><time>2026-04-12T11:26:13.104Z</time></trkpt><trkpt lat="45.9837182" lon="11.7574227"><ele>324.3333333333333</ele><time>2026-04-12T11:26:15.105Z</time></trkpt><trkpt lat="45.9836538" lon="11.7575073"><ele>321.66666666666663</ele><time>2026-04-12T11:26:28.105Z</time></trkpt><trkpt lat="45.9836092" lon="11.7575815"><ele>319.0</ele><time>2026-04-12T11:26:31.104Z</time></trkpt><trkpt lat="45.9835389" lon="11.7576033"><ele>319.0</ele><time>2026-04-12T11:26:42.104Z</time></trkpt></trkseg></trk></gpx>